# Wetter Temperatur Luftdruck Luftfeuchtigkeit Sichtweite Windgeschwindigkeit Windrichtung Zeit
1 Rain 22 1014 83 10000 6.2 200 20:56 17.10.2019
2 Rain 22 1014 83 10000 6.2 200 20:56 17.10.2019
3 Rain 22 1014 83 10000 6.2 200 20:56 17.10.2019
4 Rain 22 1014 83 10000 6.2 200 20:37 17.10.2019
5 Rain 22 1014 83 10000 6.2 200 20:18 17.10.2019
6 Clouds 23 1014 73 10000 6.7 180 19:42 17.10.2019
7 Clouds 23 1014 73 10000 6.7 180 19:20 17.10.2019
8 Clouds 23 1014 73 10000 6.7 180 19:20 17.10.2019
9 Clouds 23 1014 73 10000 6.7 180 19:20 17.10.2019
10 Clouds 23 1014 73 10000 6.2 180 18:59 17.10.2019
11 Clouds 23 1014 73 10000 6.2 180 18:38 17.10.2019
12 Clouds 23 1014 73 10000 6.2 180 18:20 17.10.2019
13 Clouds 23 1014 73 10000 6.2 180 18:20 17.10.2019
14 -273 0 0 0 0 0 17:43 17.10.2019
15 Clouds 22 1014 83 0 6.2 180 17:24 17.10.2019
16 Drizzle 19 1014 93 8000 5.7 170 16:58 17.10.2019
17 Drizzle 19 1014 93 8000 5.7 170 16:39 17.10.2019
18 Drizzle 19 1014 93 8000 5.7 170 16:18 17.10.2019
19 Clouds 20 1013 88 10000 4.6 170 15:56 17.10.2019
20 Clouds 20 1013 88 10000 4.6 170 15:38 17.10.2019
21 Clouds 20 1013 88 10000 4.6 170 15:20 17.10.2019
22 Drizzle 19 1013 93 5000 4.1 160 14:55 17.10.2019
23 Drizzle 19 1013 93 5000 4.1 160 14:37 17.10.2019
24 Drizzle 19 1013 93 5000 4.1 160 14:18 17.10.2019
25 Clouds 20 1015 85 0 5.401 163 13:39 17.10.2019
26 Clouds 20 1015 85 0 5.401 163 13:20 17.10.2019
27 Clouds 20 1015 85 0 5.401 163 12:55 17.10.2019
28 Clouds 20 1015 85 0 5.401 163 12:55 17.10.2019
29 Clouds 20 1015 85 0 5.401 163 12:55 17.10.2019
30 Clouds 20 1015 85 0 5.401 163 12:36 17.10.2019
31 Clouds 20 1014 86 0 4.673 166 12:18 17.10.2019
32 Clouds 20 1014 86 0 4.673 166 11:41 17.10.2019
33 Clouds 20 1014 86 0 4.673 166 11:41 17.10.2019
34 Clouds 20 1014 86 0 4.673 166 11:22 17.10.2019
35 Clouds 20 1014 86 0 4.673 166 10:58 17.10.2019
36 Clouds 20 1014 86 0 4.673 166 10:39 17.10.2019
37 Clouds 20 1014 86 0 4.673 166 10:19 17.10.2019
38 Clouds 20 1014 86 0 4.673 166 09:55 17.10.2019
39 Clouds 20 1014 86 0 4.673 166 09:55 17.10.2019
40 Clouds 20 1014 84 0 4.637 165 09:36 17.10.2019
41 Clouds 20 1015 83 0 4.238 168 09:18 17.10.2019
42 Clouds 20 1015 83 0 4.238 168 09:18 17.10.2019
43 Clouds 20 1015 83 0 4.238 168 08:46 17.10.2019
44 Clouds 20 1015 83 0 4.238 168 08:26 17.10.2019
45 -273 0 0 0 0 0 07:56 17.10.2019
46 Clouds 20 1015 83 0 4.238 168 07:38 17.10.2019
47 Clouds 20 1015 83 0 4.238 168 07:18 17.10.2019
48 Clouds 20 1015 83 0 4.238 168 06:40 17.10.2019
49 Clouds 20 1016 83 0 4.818 170 06:21 17.10.2019
50 Clouds 20 1016 83 0 4.818 170 05:57 17.10.2019
51 Clouds 20 1016 83 0 4.818 170 05:32 17.10.2019
52 Clouds 20 1016 83 0 4.818 170 04:56 17.10.2019
53 Clouds 20 1016 83 0 4.818 170 03:55 17.10.2019
54 Clouds 21 1011 77 10000 5.1 170 02:50 17.10.2019
55 Clouds 21 1011 77 10000 5.7 180 01:31 17.10.2019
56 Clouds 22 1011 78 10000 6.2 180 00:40 17.10.2019
57 Clouds 22 1011 78 10000 6.2 180 00:19 17.10.2019
58 Clouds 23 1011 73 10000 6.7 180 23:42 16.10.2019
59 Clouds 23 1011 73 10000 6.7 180 23:21 16.10.2019
60 Clouds 23 1011 73 10000 7.2 180 22:56 16.10.2019
61 Clouds 23 1011 73 10000 7.2 180 22:37 16.10.2019
62 Clouds 23 1011 73 10000 7.2 180 22:19 16.10.2019
63 Clouds 24 1012 69 10000 7.7 190 21:56 16.10.2019
64 Clouds 24 1012 69 10000 7.7 190 21:37 16.10.2019
65 Clouds 24 1012 69 10000 7.7 190 21:19 16.10.2019
66 Clouds 24 1012 69 10000 7.7 190 21:19 16.10.2019
67 Clouds 24 1013 69 10000 6.7 170 20:57 16.10.2019
68 Clouds 24 1013 69 10000 6.7 170 20:38 16.10.2019
69 Clouds 24 1013 69 10000 6.7 170 20:20 16.10.2019
70 Clouds 23 1014 69 10000 6.7 160 19:57 16.10.2019
71 Clouds 23 1014 69 10000 6.7 160 19:38 16.10.2019
72 Clouds 23 1014 69 10000 6.7 160 19:20 16.10.2019
73 Clouds 23 1014 69 10000 7.2 150 18:39 16.10.2019
74 Clouds 23 1014 69 10000 7.2 150 18:39 16.10.2019
75 Clouds 23 1014 69 10000 7.2 150 18:19 16.10.2019
76 Clouds 23 1014 73 10000 7.2 160 17:56 16.10.2019
77 Clouds 23 1014 73 10000 7.2 160 17:38 16.10.2019
78 Clouds 23 1014 73 10000 7.2 160 17:20 16.10.2019
79 Clouds 22 1014 73 10000 6.2 170 16:58 16.10.2019
80 Clouds 22 1014 73 10000 6.2 170 16:58 16.10.2019
81 Clouds 22 1014 73 10000 6.2 170 16:40 16.10.2019
82 Clouds 22 1014 73 10000 6.2 170 16:20 16.10.2019
83 Clouds 21 1013 77 10000 4.6 180 15:56 16.10.2019
84 -273 0 0 0 0 0 15:55 16.10.2019
85 Clouds 20 1017 84 0 6.153 146 15:36 16.10.2019
86 Clouds 21 1012 77 10000 4.1 170 15:18 16.10.2019
87 -273 0 0 0 0 0 14:55 16.10.2019
88 Clouds 21 1012 77 10000 4.1 170 14:36 16.10.2019
89 Clouds 21 1012 77 10000 4.1 170 14:18 16.10.2019
90 Clouds 19 1014 85 0 4.798 149 13:42 16.10.2019
91 Clouds 19 1014 85 0 4.798 149 13:23 16.10.2019
92 Clouds 19 1014 85 0 4.798 149 12:57 16.10.2019
93 Clouds 19 1014 85 0 4.798 149 12:39 16.10.2019
94 Clouds 19 1013 84 0 4.794 154 12:18 16.10.2019
95 Clouds 19 1013 84 0 4.794 154 11:42 16.10.2019
96 Clouds 19 1013 84 0 4.794 154 11:42 16.10.2019
97 Clouds 19 1013 84 0 4.794 154 11:18 16.10.2019
98 Clouds 19 1013 84 0 4.794 154 11:18 16.10.2019
99 Clouds 19 1013 84 0 4.794 154 10:38 16.10.2019
100 Clouds 19 1013 84 0 4.794 154 10:20 16.10.2019
101 Clouds 19 1013 84 0 4.794 154 09:55 16.10.2019
102 Clouds 19 1013 84 0 4.563 152 09:36 16.10.2019
103 Clouds 20 1014 83 0 5.269 156 09:18 16.10.2019
104 Clouds 20 1014 83 0 5.269 156 08:42 16.10.2019
105 Clouds 20 1014 83 0 5.269 156 08:23 16.10.2019
106 Clouds 20 1014 83 0 5.269 156 07:45 16.10.2019
107 -273 0 0 0 0 0 07:24 16.10.2019
108 -273 0 0 0 0 0 07:24 16.10.2019
109 Clouds 20 1014 83 0 5.269 156 06:57 16.10.2019
110 Clouds 20 1014 83 0 5.269 156 06:57 16.10.2019
111 Clouds 20 1014 83 0 5.269 156 06:35 16.10.2019
112 Clouds 20 1015 84 0 5.011 150 05:39 16.10.2019
113 Clouds 21 1011 83 10000 6.2 170 02:57 16.10.2019
114 Clouds 21 1011 83 10000 6.2 170 02:37 16.10.2019
115 Clouds 22 1010 73 10000 6.2 180 01:18 16.10.2019
116 Clouds 23 1010 73 10000 7.7 180 00:46 16.10.2019
117 Clouds 23 1010 73 10000 7.7 180 00:25 16.10.2019
118 Clouds 24 1010 64 10000 7.7 180 23:39 15.10.2019
119 Clouds 24 1010 64 10000 7.7 180 23:21 15.10.2019
120 Clouds 24 1010 64 10000 7.7 170 22:55 15.10.2019
121 Clouds 24 1010 64 10000 7.7 170 22:37 15.10.2019
122 Clouds 24 1010 64 10000 7.7 170 22:19 15.10.2019
123 Clouds 24 1010 64 10000 8.2 160 21:55 15.10.2019
124 Clouds 24 1010 64 10000 8.2 160 21:55 15.10.2019
125 Clouds 24 1010 64 10000 8.2 160 21:37 15.10.2019
126 Clouds 24 1010 64 10000 8.2 160 21:19 15.10.2019
127 Clouds 24 1012 64 10000 8.7 160 20:56 15.10.2019
128 Clouds 24 1012 64 10000 8.7 160 20:38 15.10.2019
129 Clouds 24 1012 64 10000 8.7 160 20:19 15.10.2019
130 Clouds 24 1013 64 10000 7.7 170 19:56 15.10.2019
131 Clouds 24 1013 64 10000 7.7 170 19:37 15.10.2019
132 Clouds 24 1013 64 10000 7.7 170 19:19 15.10.2019
133 Clouds 24 1013 64 10000 7.2 170 18:44 15.10.2019
134 Clouds 24 1013 64 10000 7.2 170 18:26 15.10.2019
135 Clouds 24 1013 69 10000 6.2 170 17:56 15.10.2019
136 Clouds 24 1013 69 10000 6.2 170 17:38 15.10.2019
137 Clouds 24 1013 69 10000 6.2 170 17:19 15.10.2019
138 Clouds 22 1013 73 10000 6.2 170 16:45 15.10.2019
139 Clouds 22 1013 73 10000 6.2 170 16:22 15.10.2019
140 Clouds 22 1013 73 10000 6.2 170 15:58 15.10.2019
141 Clouds 21 1012 83 10000 5.1 170 15:40 15.10.2019
142 Clouds 21 1012 83 10000 5.1 170 15:40 15.10.2019
143 Clouds 21 1012 83 10000 5.1 170 15:20 15.10.2019
144 Clouds 21 1012 77 10000 5.1 170 14:56 15.10.2019
145 Clouds 21 1012 77 10000 5.1 170 14:37 15.10.2019
146 Clouds 21 1012 77 10000 5.1 170 14:19 15.10.2019
147 Clouds 19 1014 83 0 4.831 183 13:43 15.10.2019
148 Clouds 19 1014 83 0 4.831 183 13:43 15.10.2019
149 Clouds 19 1014 83 0 4.831 183 13:21 15.10.2019
150 Clouds 19 1014 83 0 4.831 183 12:59 15.10.2019
151 Clouds 19 1014 83 0 4.831 183 12:38 15.10.2019
152 Clouds 19 1013 84 0 5.718 189 12:20 15.10.2019
153 Clouds 19 1013 84 0 5.718 189 11:44 15.10.2019
154 Clouds 19 1013 84 0 5.718 189 11:20 15.10.2019
155 Clouds 19 1013 83 0 5.77 191.957 10:56 15.10.2019
156 Clouds 19 1013 84 0 5.718 189 10:56 15.10.2019
157 Clouds 19 1013 83 0 5.77 191.957 10:38 15.10.2019
158 Clouds 19 1013 83 0 5.77 191.957 10:18 15.10.2019
159 Clouds 19 1013 83 0 5.77 191.957 09:55 15.10.2019
160 Clouds 19 1013 83 0 5.77 191.957 09:55 15.10.2019
161 Clouds 19 1013 83 0 5.77 191.957 09:36 15.10.2019
162 Clouds 19 1013 83 0 5.77 191.957 09:36 15.10.2019
163 Clouds 20 1015 83 0 3.83 184.858 09:18 15.10.2019
164 Clouds 19 1015 84 0 4.08 184.106 08:41 15.10.2019
165 Clouds 19 1015 84 0 4.08 184.106 08:21 15.10.2019
166 Clouds 19 1015 84 0 4.08 184.106 07:48 15.10.2019
167 Clouds 19 1015 84 0 4.08 184.106 07:23 15.10.2019
168 Clouds 19 1015 84 0 4.08 184.106 06:58 15.10.2019
169 Clouds 19 1015 84 0 4.08 184.106 06:40 15.10.2019
170 Clouds 19 1015 85 0 5.47 185.346 05:58 15.10.2019
171 Clouds 19 1015 85 0 5.47 185.346 05:37 15.10.2019
172 Clouds 19 1015 85 0 5.47 185.346 04:53 15.10.2019
173 Clouds 19 1015 85 0 5.47 185.346 04:19 15.10.2019
174 Clouds 19 1015 85 0 5.47 185.346 03:35 15.10.2019
175 Clouds 21 1009 83 10000 6.7 190 01:59 15.10.2019
176 Clouds 22 1009 73 10000 6.7 170 01:40 15.10.2019
177 Clouds 22 1009 73 10000 6.7 170 00:59 15.10.2019
178 Clouds 22 1009 73 10000 6.7 170 00:59 15.10.2019
179 Clouds 23 1009 69 10000 8.2 170 00:26 15.10.2019
180 Clouds 23 1009 69 10000 8.2 170 23:59 14.10.2019
181 Clouds 23 1009 73 10000 7.7 170 23:37 14.10.2019
182 Clouds 23 1009 73 10000 7.7 170 23:18 14.10.2019
183 Clouds 24 1011 69 10000 7.7 160 22:39 14.10.2019
184 Clouds 24 1011 69 10000 7.7 160 22:21 14.10.2019
185 Clouds 24 1011 69 10000 7.7 160 21:58 14.10.2019
186 Clouds 24 1012 69 10000 7.7 180 21:40 14.10.2019
187 Clouds 24 1012 69 10000 7.7 180 21:21 14.10.2019
188 Clouds 24 1012 69 10000 7.7 180 21:21 14.10.2019
189 Clouds 24 1012 69 10000 7.7 180 20:58 14.10.2019
190 Clouds 24 1012 69 10000 7.7 180 20:38 14.10.2019
191 Clouds 24 1012 69 10000 7.7 180 20:38 14.10.2019
192 Clouds 24 1012 69 10000 7.7 180 20:19 14.10.2019
193 Clouds 24 1012 69 10000 7.7 180 19:44 14.10.2019
194 Clouds 24 1012 69 10000 7.7 180 19:26 14.10.2019
195 Clouds 24 1012 69 10000 7.7 180 18:59 14.10.2019
196 Clouds 24 1013 69 10000 7.7 180 18:40 14.10.2019
197 Clouds 24 1013 69 10000 7.7 180 18:21 14.10.2019
198 Clouds 23 1012 73 10000 7.7 180 17:59 14.10.2019
199 Clouds 23 1012 73 10000 7.7 180 17:41 14.10.2019
200 Clouds 23 1012 73 10000 7.7 180 17:22 14.10.2019
201 Clear 22 1012 78 10000 7.2 170 16:45 14.10.2019
202 Clear 22 1012 78 10000 7.2 170 16:22 14.10.2019
203 Clear 21 1011 77 10000 5.1 170 15:58 14.10.2019
204 Clear 21 1011 77 10000 5.1 170 15:38 14.10.2019
205 Clear 21 1011 77 10000 5.1 170 15:20 14.10.2019
206 Clear 20 1011 82 10000 5.1 170 14:43 14.10.2019
207 Clear 20 1011 82 10000 5.1 170 14:24 14.10.2019
208 Clear 20 1013 88 0 5.47 174.599 13:57 14.10.2019
209 Clear 20 1013 88 0 5.47 174.599 13:38 14.10.2019
210 Clouds 19 1013 88 0 5.59 174.072 13:19 14.10.2019
211 Clouds 19 1013 88 0 5.59 174.072 12:41 14.10.2019
212 Clear 19 1012 89 0 5.86 178.592 12:19 14.10.2019
213 Clear 19 1012 89 0 5.86 178.592 11:47 14.10.2019
214 Clear 19 1012 89 0 5.86 178.592 11:27 14.10.2019
215 Clear 19 1012 89 0 5.86 178.592 10:59 14.10.2019
216 Clear 19 1012 89 0 5.86 178.592 10:40 14.10.2019
217 Clear 19 1012 89 0 5.86 178.592 10:20 14.10.2019
218 Clear 19 1012 89 0 5.86 178.592 09:56 14.10.2019
219 Clear 19 1012 89 0 5.86 178.592 09:37 14.10.2019
220 Clouds 20 1014 88 0 6.05 174.878 09:18 14.10.2019
221 Clouds 20 1014 88 0 6.05 174.878 08:44 14.10.2019
222 Clouds 20 1014 88 0 6.05 174.878 08:22 14.10.2019
223 Clouds 20 1014 88 0 6.05 174.878 07:42 14.10.2019
224 Clouds 20 1014 88 0 6.05 174.878 07:19 14.10.2019
225 Clouds 20 1014 88 0 6.05 174.878 06:48 14.10.2019
226 Clouds 20 1015 87 0 4.49 176.769 06:20 14.10.2019
227 Clouds 20 1015 87 0 4.49 176.769 05:49 14.10.2019
228 Clouds 20 1015 87 0 4.49 176.769 04:43 14.10.2019
229 Clear 21 1009 77 10000 6.7 170 03:28 14.10.2019
230 Clear 21 1009 77 10000 6.7 170 02:42 14.10.2019
231 Clear 22 1009 73 10000 7.7 170 01:23 14.10.2019
232 Clouds 23 1009 73 10000 7.7 180 00:56 14.10.2019
233 Clouds 23 1009 73 10000 7.7 180 00:19 14.10.2019
234 Clouds 24 1009 69 10000 7.7 180 23:45 13.10.2019
235 Clouds 24 1009 69 10000 7.7 180 23:20 13.10.2019
236 Clouds 25 1009 61 10000 8.7 200 22:58 13.10.2019
237 Clouds 25 1009 61 10000 8.7 200 22:40 13.10.2019
238 Clouds 25 1009 61 10000 8.7 200 22:21 13.10.2019
239 Clouds 25 1011 61 10000 8.7 200 21:58 13.10.2019
240 Clouds 25 1011 61 10000 8.7 200 21:37 13.10.2019
241 Clouds 25 1011 61 10000 8.7 200 21:19 13.10.2019
242 Clouds 25 1011 61 10000 8.7 200 21:19 13.10.2019
243 Clouds 24 1012 69 10000 7.7 200 20:57 13.10.2019
244 Clouds 24 1012 69 10000 7.7 200 20:38 13.10.2019
245 Clouds 24 1012 69 10000 7.7 200 20:20 13.10.2019
246 Clouds 24 1012 69 10000 7.2 180 19:58 13.10.2019
247 Clouds 24 1012 69 10000 7.2 180 19:39 13.10.2019
248 Clouds 24 1012 69 10000 7.2 180 19:39 13.10.2019
249 Clouds 24 1012 69 10000 7.2 180 19:21 13.10.2019
250 -273 0 0 0 0 0 18:56 13.10.2019
251 Clouds 23 1012 69 10000 8.2 170 18:36 13.10.2019
252 Clouds 23 1012 69 10000 8.2 170 18:18 13.10.2019
253 Clouds 23 1012 69 10000 7.2 180 17:55 13.10.2019
254 Clouds 23 1012 69 10000 7.2 180 17:36 13.10.2019
255 Clouds 23 1012 69 10000 7.2 180 17:18 13.10.2019
256 Clouds 21 1012 77 10000 6.2 180 16:41 13.10.2019
257 Clouds 21 1012 77 10000 6.2 180 16:18 13.10.2019
258 Clouds 20 1012 88 10000 6.2 190 15:56 13.10.2019
259 Clouds 20 1012 88 10000 6.2 190 15:37 13.10.2019
260 Clouds 20 1012 88 10000 6.2 190 15:37 13.10.2019
261 Clouds 20 1012 88 10000 6.2 190 15:18 13.10.2019
262 Clouds 20 1012 88 10000 6.2 190 15:18 13.10.2019
263 Clouds 19 1011 93 10000 5.1 180 14:56 13.10.2019
264 Clouds 19 1011 93 10000 5.1 180 14:38 13.10.2019
265 Clouds 19 1011 93 10000 5.1 180 14:18 13.10.2019
266 Clouds 20 1013 89 0 6.45 181.964 13:39 13.10.2019
267 Clouds 20 1014 88 0 6.42 181.983 13:21 13.10.2019
268 Clouds 20 1014 88 0 6.42 181.983 12:57 13.10.2019
269 Clouds 20 1014 88 0 6.42 181.983 12:39 13.10.2019
270 Clouds 20 1012 88 0 5.65 193.244 12:20 13.10.2019
271 Clouds 20 1012 88 0 5.65 193.244 11:58 13.10.2019
272 Clouds 20 1012 88 0 5.65 193.244 11:38 13.10.2019
273 Clouds 20 1012 88 0 5.65 193.244 11:38 13.10.2019
274 Clouds 20 1012 88 0 5.65 193.244 11:19 13.10.2019
275 Clouds 20 1012 88 0 5.65 193.244 10:42 13.10.2019
276 Clouds 20 1012 88 0 5.65 193.244 10:23 13.10.2019
277 Clouds 20 1012 88 0 5.65 193.244 09:58 13.10.2019
278 Clouds 20 1012 88 0 5.65 193.244 09:58 13.10.2019
279 Clouds 20 1012 88 0 5.65 193.244 09:38 13.10.2019
280 Clouds 20 1013 87 0 4.79 183.643 09:19 13.10.2019
281 Clouds 20 1014 85 0 4.75 181.387 08:43 13.10.2019
282 Clouds 20 1014 85 0 4.75 181.387 08:23 13.10.2019
283 Clouds 20 1014 85 0 4.75 181.387 07:50 13.10.2019
284 Clouds 20 1014 85 0 4.75 181.387 07:30 13.10.2019
285 Clouds 20 1014 85 0 4.75 181.387 06:49 13.10.2019
286 Clouds 20 1013 85 0 5.21 193.019 05:59 13.10.2019
287 Clouds 20 1013 85 0 5.21 193.019 04:59 13.10.2019
288 Clouds 20 1013 85 0 5.21 193.019 04:33 13.10.2019
289 Clouds 21 1009 83 10000 6.2 180 02:48 13.10.2019
290 Clouds 21 1009 83 10000 6.2 180 02:23 13.10.2019
291 Clouds 21 1008 83 10000 6.7 180 01:34 13.10.2019
292 Clouds 22 1008 78 10000 6.7 180 00:52 13.10.2019
293 Clouds 22 1008 78 10000 6.7 180 00:52 13.10.2019
294 Clouds 22 1008 78 10000 6.7 180 00:22 13.10.2019
295 Clouds 21 1008 83 10000 6.2 180 23:58 12.10.2019
296 Clouds 21 1008 83 10000 6.2 180 23:39 12.10.2019
297 Clouds 21 1008 83 10000 6.2 180 23:21 12.10.2019
298 Clouds 21 1009 83 10000 6.2 170 22:58 12.10.2019
299 Clouds 21 1009 83 10000 6.2 170 22:58 12.10.2019
300 Clouds 21 1009 83 10000 6.2 170 22:39 12.10.2019
301 Clouds 21 1009 83 10000 6.2 170 22:20 12.10.2019
302 Clouds 23 1010 73 10000 6.2 180 21:55 12.10.2019
303 -273 0 0 0 0 0 21:55 12.10.2019
304 Clouds 23 1010 73 10000 6.2 180 21:37 12.10.2019
305 Clouds 23 1010 73 10000 6.2 180 21:19 12.10.2019
306 Drizzle 21 1011 83 10000 6.2 190 20:43 12.10.2019
307 Drizzle 21 1011 83 10000 6.2 190 20:25 12.10.2019
308 Clouds 23 1012 73 10000 6.7 190 19:40 12.10.2019
309 Clouds 23 1012 73 10000 6.7 190 19:22 12.10.2019
310 Clouds 23 1012 73 10000 6.7 190 19:22 12.10.2019
311 Clouds 21 1012 83 0 5.1 170 18:59 12.10.2019
312 Clouds 21 1012 83 0 5.1 170 18:40 12.10.2019
313 Clouds 21 1012 83 0 5.1 170 18:22 12.10.2019
314 Clouds 20 1014 85 0 5.78 195.906 17:44 12.10.2019
315 Drizzle 20 1012 88 5000 6.2 180 17:19 12.10.2019
316 Clouds 20 1011 88 10000 3.6 190 16:55 12.10.2019
317 Clouds 20 1011 88 10000 3.6 190 16:36 12.10.2019
318 Clouds 20 1011 88 10000 3.6 190 16:36 12.10.2019
319 Clouds 20 1011 88 10000 3.6 190 16:18 12.10.2019
320 Clouds 20 1011 88 10000 3.6 190 15:44 12.10.2019
321 Clouds 20 1011 88 10000 3.6 190 15:25 12.10.2019
322 Clouds 20 1010 88 10000 4.1 190 14:43 12.10.2019
323 Clouds 20 1010 88 10000 4.1 190 14:22 12.10.2019
324 Clouds 19 1012 86 0 5.09 197.135 13:59 12.10.2019
325 Clouds 19 1012 86 0 5.09 197.135 13:40 12.10.2019
326 Clouds 19 1012 85 0 4.63 198.341 13:21 12.10.2019
327 Clouds 19 1012 85 0 4.63 198.341 12:40 12.10.2019
328 Clouds 19 1012 85 0 4.63 198.341 12:40 12.10.2019
329 Clouds 19 1011 87 0 5.19 205.968 12:21 12.10.2019
330 Clouds 19 1011 87 0 5.19 205.968 11:59 12.10.2019
331 Clouds 19 1011 87 0 5.19 205.968 11:39 12.10.2019
332 Clouds 19 1011 87 0 5.19 205.968 11:20 12.10.2019
333 Clouds 19 1011 87 0 5.19 205.968 10:44 12.10.2019
334 Clouds 19 1011 87 0 5.19 205.968 10:24 12.10.2019
335 Clouds 19 1011 87 0 5.19 205.968 09:58 12.10.2019
336 Clouds 19 1011 87 0 5.19 205.968 09:39 12.10.2019
337 Clouds 19 1012 87 0 5.55 205.517 09:21 12.10.2019
338 Clouds 19 1012 87 0 5.67 203.997 08:57 12.10.2019
339 Clouds 19 1012 87 0 5.67 203.997 08:38 12.10.2019
340 Clouds 19 1012 87 0 5.67 203.997 08:19 12.10.2019
341 Clouds 19 1012 87 0 5.67 203.997 07:34 12.10.2019
342 Clouds 19 1012 87 0 5.67 203.997 06:56 12.10.2019
343 Clouds 19 1013 86 0 6.48 194.034 05:47 12.10.2019
344 Clouds 19 1013 86 0 6.48 194.034 05:23 12.10.2019
345 Clouds 19 1013 86 0 6.48 194.034 04:24 12.10.2019
346 Clouds 20 1008 82 10000 6.2 170 03:30 12.10.2019
347 Clouds 21 1007 77 10000 7.2 160 01:38 12.10.2019
348 Clouds 21 1007 77 10000 7.2 160 01:19 12.10.2019
349 Clouds 22 1007 73 10000 7.2 170 00:40 12.10.2019
350 Clouds 22 1007 73 10000 7.2 180 23:57 11.10.2019
351 Clouds 22 1007 73 10000 7.2 180 23:39 11.10.2019
352 Clouds 22 1007 73 10000 7.2 180 23:20 11.10.2019
353 Clouds 22 1007 73 10000 7.2 180 23:20 11.10.2019
354 Clouds 22 1008 73 10000 9.3 170 22:40 11.10.2019
355 Clouds 22 1008 73 10000 9.3 170 22:21 11.10.2019
356 Clouds 23 1009 73 10000 9.3 160 21:56 11.10.2019
357 Clouds 23 1009 73 10000 9.3 160 21:38 11.10.2019
358 Clouds 23 1009 73 10000 9.3 160 21:19 11.10.2019
359 Clouds 23 1010 69 10000 8.2 170 20:43 11.10.2019
360 Clouds 23 1010 69 10000 8.2 170 20:25 11.10.2019
361 Clouds 23 1011 69 10000 8.2 160 19:56 11.10.2019
362 Clouds 23 1011 69 10000 8.2 160 19:38 11.10.2019
363 Clouds 23 1011 69 10000 8.2 160 19:18 11.10.2019
364 Clouds 22 1012 73 10000 8.2 150 18:57 11.10.2019
365 Clouds 22 1012 73 10000 8.2 150 18:37 11.10.2019
366 Clouds 22 1012 73 10000 8.2 150 18:19 11.10.2019
367 Clouds 22 1012 73 10000 8.2 160 17:57 11.10.2019
368 Clouds 22 1012 73 10000 8.2 160 17:37 11.10.2019
369 Clouds 22 1012 73 10000 8.2 160 17:18 11.10.2019
370 Clouds 21 1011 77 10000 6.2 170 16:42 11.10.2019
371 Clouds 21 1011 77 10000 6.2 170 16:21 11.10.2019
372 Clouds 20 1010 77 10000 5.7 170 15:59 11.10.2019
373 Clouds 20 1010 77 10000 5.7 170 15:39 11.10.2019
374 Clouds 20 1010 77 10000 5.7 170 15:19 11.10.2019
375 Clouds 19 1009 82 10000 6.2 170 14:47 11.10.2019
376 Clouds 19 1009 82 10000 6.2 170 14:29 11.10.2019
377 Clouds 19 1012 87 0 6.38 178.67 13:57 11.10.2019
378 Clouds 19 1012 87 0 6.38 178.67 13:38 11.10.2019
379 Clouds 19 1012 87 0 5.78 181.438 13:19 11.10.2019
380 Clouds 19 1012 87 0 5.78 181.438 12:56 11.10.2019
381 Clouds 19 1012 87 0 5.78 181.438 12:38 11.10.2019
382 Clouds 19 1011 89 0 5.67 184.251 12:18 11.10.2019
383 Clouds 19 1011 89 0 5.67 184.251 11:41 11.10.2019
384 Clouds 19 1011 89 0 5.67 184.251 11:22 11.10.2019
385 Clouds 19 1011 89 0 5.67 184.251 11:22 11.10.2019
386 Clouds 19 1011 89 0 5.67 184.251 10:58 11.10.2019
387 Clouds 19 1011 89 0 5.67 184.251 10:58 11.10.2019
388 Clouds 19 1011 89 0 5.67 184.251 10:40 11.10.2019
389 Clouds 19 1011 89 0 5.67 184.251 10:22 11.10.2019
390 Clouds 19 1011 89 0 5.67 184.251 09:55 11.10.2019
391 Clouds 19 1011 89 0 5.62 184.969 09:37 11.10.2019
392 Clear 19 1012 89 0 4.18 182.907 09:18 11.10.2019
393 -273 0 0 0 0 0 08:54 11.10.2019
394 -273 0 0 0 0 0 08:54 11.10.2019
395 Clear 19 1012 89 0 4.18 182.907 08:36 11.10.2019
396 Clear 19 1012 89 0 4.18 182.907 08:18 11.10.2019
397 Clear 19 1012 89 0 4.18 182.907 07:41 11.10.2019
398 Clear 19 1012 89 0 4.18 182.907 07:22 11.10.2019
399 Clear 19 1012 89 0 4.18 182.907 06:47 11.10.2019
400 Clear 19 1012 87 0 4.45 168.432 06:22 11.10.2019
401 Clear 19 1012 87 0 4.45 168.432 05:37 11.10.2019
402 Clear 19 1012 87 0 4.45 168.432 04:59 11.10.2019
403 Clear 19 1012 87 0 4.45 168.432 04:24 11.10.2019
404 Clear 20 1008 82 10000 6.2 160 02:18 11.10.2019
405 Clear 22 1007 73 10000 7.2 160 00:43 11.10.2019
406 Clear 22 1007 73 10000 7.2 160 00:25 11.10.2019
407 Clouds 23 1007 64 10000 6.7 170 23:42 10.10.2019
408 Clouds 23 1007 64 10000 6.7 170 23:21 10.10.2019
409 Clouds 22 1008 68 10000 7.2 190 22:57 10.10.2019
410 Clouds 22 1008 68 10000 7.2 190 22:38 10.10.2019
411 Clouds 22 1008 68 10000 7.2 190 22:19 10.10.2019
412 Clouds 23 1009 64 10000 7.2 170 21:54 10.10.2019
413 Clouds 23 1009 64 10000 7.2 170 21:36 10.10.2019
414 Clouds 23 1009 64 10000 7.2 170 21:18 10.10.2019
415 Clouds 23 1010 64 10000 7.2 180 20:41 10.10.2019
416 Clouds 23 1010 64 10000 7.2 180 20:21 10.10.2019
417 Clouds 22 1011 68 10000 6.7 170 19:58 10.10.2019
418 Clouds 22 1011 68 10000 6.7 170 19:39 10.10.2019
419 Clouds 22 1011 68 10000 6.7 170 19:19 10.10.2019
420 Clouds 21 1012 77 10000 6.2 150 18:54 10.10.2019
421 Clouds 21 1012 77 10000 6.2 150 18:36 10.10.2019
422 Clouds 21 1012 77 10000 6.2 150 18:36 10.10.2019
423 Clouds 21 1012 77 10000 6.2 150 18:18 10.10.2019
424 Clouds 20 1011 82 10000 5.7 180 17:40 10.10.2019
425 Clouds 20 1011 82 10000 5.7 180 17:20 10.10.2019
426 Clouds 20 1011 77 10000 5.7 180 16:58 10.10.2019
427 Clouds 20 1011 77 10000 5.7 180 16:39 10.10.2019
428 Clouds 20 1011 77 10000 5.7 180 16:21 10.10.2019
429 Clouds 19 1011 88 10000 5.1 170 15:43 10.10.2019
430 Clouds 19 1011 88 10000 5.1 170 15:23 10.10.2019
431 Clouds 18 1010 93 10000 5.1 170 14:59 10.10.2019
432 Clouds 18 1010 93 10000 5.1 170 14:37 10.10.2019
433 Clouds 18 1010 93 10000 5.1 170 14:19 10.10.2019
434 Clouds 19 1012 83 0 4.88 161.031 13:58 10.10.2019
435 Clouds 19 1012 83 0 4.88 161.031 13:39 10.10.2019
436 Clouds 19 1012 84 0 4.88 166.112 13:18 10.10.2019
437 Clouds 19 1012 84 0 4.88 166.112 12:42 10.10.2019
438 Clouds 19 1012 84 0 4.7 170.836 12:21 10.10.2019
439 Clouds 19 1012 84 0 4.7 170.836 11:58 10.10.2019
440 Clouds 19 1012 84 0 4.7 170.836 11:40 10.10.2019
441 Clouds 19 1012 84 0 4.7 170.836 11:19 10.10.2019
442 Clouds 19 1012 84 0 4.7 170.836 10:57 10.10.2019
443 Clouds 19 1012 84 0 4.7 170.836 10:39 10.10.2019
444 Clouds 19 1012 84 0 4.7 170.836 10:20 10.10.2019
445 Clouds 19 1012 84 0 4.7 170.836 09:41 10.10.2019
446 Clouds 19 1013 84 0 4.12 169.801 09:23 10.10.2019
447 Clouds 19 1013 86 0 4.36 173.926 08:59 10.10.2019
448 Clouds 19 1013 86 0 4.36 173.926 08:40 10.10.2019
449 Clouds 19 1013 86 0 4.36 173.926 08:21 10.10.2019
450 Clouds 19 1013 86 0 4.36 173.926 07:47 10.10.2019
451 Clouds 19 1013 86 0 4.36 173.926 07:26 10.10.2019
452 Clouds 19 1013 86 0 4.36 173.926 06:55 10.10.2019
453 Clouds 19 1013 86 0 4.36 173.926 06:36 10.10.2019
454 Clouds 19 1014 86 0 5.18 174.819 05:39 10.10.2019
455 Clouds 19 1014 86 0 5.18 174.819 05:18 10.10.2019
456 Clouds 19 1014 86 0 5.18 174.819 04:34 10.10.2019
457 Clouds 20 1010 82 10000 6.2 170 02:29 10.10.2019
458 Clouds 20 1009 82 10000 6.2 160 01:37 10.10.2019
459 Clouds 20 1009 82 10000 6.2 160 01:37 10.10.2019
460 Clouds 20 1009 82 10000 6.2 160 01:18 10.10.2019
461 Clouds 21 1009 77 10000 6.7 160 00:29 10.10.2019
462 Clouds 22 1009 73 10000 6.7 150 23:42 09.10.2019
463 Clouds 22 1009 73 10000 6.7 150 23:23 09.10.2019
464 Clouds 22 1009 73 10000 7.7 160 22:59 09.10.2019
465 Clouds 22 1009 73 10000 7.7 160 22:59 09.10.2019
466 Clouds 22 1009 73 10000 7.7 160 22:40 09.10.2019
467 Clouds 22 1009 73 10000 7.7 160 22:22 09.10.2019
468 Clouds 22 1009 73 10000 7.7 180 21:42 09.10.2019
469 Clouds 22 1009 73 10000 7.7 180 21:21 09.10.2019
470 Clouds 22 1009 73 10000 7.7 180 21:21 09.10.2019
471 Clouds 23 1011 69 10000 6.7 170 20:56 09.10.2019
472 Clouds 23 1011 69 10000 6.7 170 20:38 09.10.2019
473 Clouds 23 1011 69 10000 6.7 170 20:19 09.10.2019
474 Clouds 22 1011 73 10000 5.7 150 19:59 09.10.2019
475 Clouds 22 1011 73 10000 5.7 150 19:59 09.10.2019
476 Clouds 22 1011 73 10000 5.7 150 19:59 09.10.2019
477 Clouds 22 1011 73 10000 5.7 150 19:40 09.10.2019
478 Clouds 22 1011 73 10000 5.7 150 19:22 09.10.2019
479 Clouds 21 1011 83 10000 6.2 150 18:38 09.10.2019
480 Clouds 21 1011 83 10000 6.2 150 18:20 09.10.2019
481 Clouds 20 1011 82 10000 6.2 150 17:58 09.10.2019
482 Clouds 20 1011 82 10000 6.2 150 17:58 09.10.2019
483 Clouds 20 1011 82 10000 6.2 150 17:39 09.10.2019
484 Clouds 20 1011 82 10000 6.2 150 17:21 09.10.2019
485 Clouds 19 1011 88 10000 5.7 160 16:56 09.10.2019
486 Clouds 19 1011 88 10000 5.7 160 16:56 09.10.2019
487 Clouds 19 1011 88 10000 5.7 160 16:37 09.10.2019
488 Clouds 19 1011 88 10000 5.7 160 16:18 09.10.2019
489 Clouds 19 1011 88 10000 5.7 160 16:18 09.10.2019
490 Clouds 19 1011 88 10000 5.1 160 15:55 09.10.2019
491 Clouds 19 1011 88 10000 5.1 160 15:36 09.10.2019
492 Clouds 19 1011 88 10000 5.1 160 15:18 09.10.2019
493 Clouds 18 1010 93 10000 4.1 160 14:44 09.10.2019
494 Clouds 18 1010 93 10000 4.1 160 14:19 09.10.2019
495 Rain 19 1012 87 0 5 173.799 13:58 09.10.2019
496 Rain 19 1012 87 0 5 173.799 13:36 09.10.2019
497 Clouds 19 1012 84 0 5 174.64 13:18 09.10.2019
498 Clouds 19 1012 84 0 5 174.64 12:42 09.10.2019
499 Clouds 19 1011 88 0 4.67 169.472 12:22 09.10.2019
500 Clouds 19 1011 88 0 4.67 169.472 12:22 09.10.2019
501 Clouds 19 1011 88 0 4.67 169.472 11:58 09.10.2019
502 Clouds 19 1011 88 0 4.67 169.472 11:39 09.10.2019
503 Clouds 19 1011 88 0 4.67 169.472 11:20 09.10.2019
504 Clouds 19 1011 88 0 4.67 169.472 10:57 09.10.2019
505 Clouds 19 1011 88 0 4.67 169.472 10:57 09.10.2019
506 Clouds 19 1011 88 0 4.67 169.472 10:39 09.10.2019
507 Clouds 19 1011 88 0 4.67 169.472 10:18 09.10.2019
508 Clouds 19 1011 88 0 4.67 169.472 09:42 09.10.2019
509 Clouds 19 1013 87 0 3.97 164.942 09:19 09.10.2019
510 Clouds 19 1013 87 0 3.97 164.942 08:56 09.10.2019
511 Clouds 19 1013 87 0 4.26 170.004 08:37 09.10.2019
512 Clouds 19 1013 87 0 4.26 170.004 08:18 09.10.2019
513 Clouds 19 1013 87 0 4.26 170.004 07:42 09.10.2019
514 Clouds 19 1013 87 0 4.26 170.004 07:22 09.10.2019
515 Clouds 19 1013 87 0 4.26 170.004 06:52 09.10.2019
516 Clouds 19 1013 86 0 4.6 163.876 06:20 09.10.2019
517 Clouds 19 1013 86 0 4.6 163.876 06:20 09.10.2019
518 Clouds 19 1013 86 0 4.6 163.876 05:46 09.10.2019
519 Clouds 19 1013 86 0 4.6 163.876 04:27 09.10.2019
520 Clouds 19 1009 88 10000 6.7 160 02:54 09.10.2019
521 Clouds 20 1009 88 10000 7.2 150 01:44 09.10.2019
522 Clouds 20 1009 88 10000 7.2 150 01:21 09.10.2019
523 Clouds 21 1008 83 10000 6.7 160 00:57 09.10.2019
524 Clouds 21 1008 83 10000 6.7 160 00:38 09.10.2019
525 Clouds 21 1008 83 10000 6.7 160 00:20 09.10.2019
526 Clouds 22 1008 78 10000 7.2 160 23:39 08.10.2019
527 Clouds 22 1008 78 10000 7.2 160 23:19 08.10.2019
528 Clouds 22 1008 78 10000 7.2 160 23:19 08.10.2019
529 Clouds 22 1009 78 10000 7.2 170 22:57 08.10.2019
530 Clouds 22 1009 78 10000 7.2 170 22:38 08.10.2019
531 Clouds 22 1009 78 10000 7.2 170 22:19 08.10.2019
532 Clouds 22 1010 78 10000 8.2 160 21:57 08.10.2019
533 Clouds 22 1010 78 10000 8.2 160 21:39 08.10.2019
534 Clouds 22 1010 78 10000 8.2 160 21:19 08.10.2019
535 Clouds 22 1010 78 10000 8.2 160 21:19 08.10.2019
536 Clouds 23 1011 73 10000 9.3 150 20:56 08.10.2019
537 Clouds 23 1011 73 10000 9.3 150 20:37 08.10.2019
538 Clouds 23 1011 73 10000 9.3 150 20:19 08.10.2019
539 Clouds 22 1012 78 10000 7.7 150 19:56 08.10.2019
540 Clouds 22 1012 78 10000 7.7 150 19:37 08.10.2019
541 Clouds 22 1012 78 10000 7.7 150 19:19 08.10.2019
542 Clouds 22 1012 73 10000 8.7 170 18:46 08.10.2019
543 Clouds 22 1012 73 10000 8.7 170 18:27 08.10.2019
544 Drizzle 20 1012 88 10000 7.7 170 17:59 08.10.2019
545 Drizzle 20 1012 88 10000 7.7 170 17:40 08.10.2019
546 Drizzle 20 1012 88 10000 7.7 170 17:40 08.10.2019
547 Drizzle 20 1012 88 10000 7.7 170 17:40 08.10.2019
548 Drizzle 20 1012 88 10000 7.7 170 17:20 08.10.2019
549 Drizzle 20 1012 88 10000 7.7 170 17:20 08.10.2019
550 Drizzle 19 1012 93 10000 6.7 170 16:56 08.10.2019
551 Drizzle 19 1012 93 10000 6.7 170 16:37 08.10.2019
552 Drizzle 19 1012 93 10000 6.7 170 16:19 08.10.2019
553 Drizzle 19 1011 88 8000 5.1 160 15:40 08.10.2019
554 Drizzle 19 1011 88 8000 5.1 160 15:21 08.10.2019
555 Rain 18 1011 93 10000 4.6 180 14:57 08.10.2019
556 Rain 18 1011 93 10000 4.6 180 14:38 08.10.2019
557 Rain 18 1011 93 10000 4.6 180 14:38 08.10.2019
558 Rain 18 1011 93 10000 4.6 180 14:20 08.10.2019
559 Rain 20 1013 86 0 6.06 170.975 13:55 08.10.2019
560 Rain 20 1013 86 0 6.06 170.975 13:37 08.10.2019
561 Rain 20 1013 86 0 6.06 170.975 13:18 08.10.2019
562 Rain 20 1013 86 0 6.04 175.716 12:41 08.10.2019
563 Rain 20 1012 86 0 6.46 179.76 12:20 08.10.2019
564 Rain 20 1012 86 0 6.46 179.76 11:58 08.10.2019
565 Rain 20 1012 86 0 6.46 179.76 11:39 08.10.2019
566 Rain 20 1012 86 0 6.46 179.76 11:21 08.10.2019
567 Rain 20 1012 86 0 6.46 179.76 10:54 08.10.2019
568 Rain 20 1012 86 0 6.46 179.76 10:54 08.10.2019
569 Rain 20 1012 86 0 6.46 179.76 10:36 08.10.2019
570 Rain 20 1012 86 0 6.46 179.76 10:18 08.10.2019
571 Rain 20 1012 86 0 6.46 179.76 09:40 08.10.2019
572 Rain 20 1013 88 0 6.19 169.857 09:22 08.10.2019
573 Rain 20 1013 88 0 6.19 169.857 08:45 08.10.2019
574 Rain 20 1013 88 0 6.25 173.564 08:25 08.10.2019
575 Rain 20 1013 88 0 6.25 173.564 07:58 08.10.2019
576 Rain 20 1013 88 0 6.25 173.564 07:40 08.10.2019
577 Rain 20 1013 88 0 6.25 173.564 07:19 08.10.2019
578 Rain 20 1013 88 0 6.25 173.564 06:46 08.10.2019
579 Clouds 20 1014 86 0 5.41 172.938 06:23 08.10.2019
580 Clouds 20 1014 86 0 5.41 172.938 05:43 08.10.2019
581 Clouds 20 1014 86 0 5.41 172.938 05:43 08.10.2019
582 Clouds 20 1014 86 0 5.41 172.938 05:19 08.10.2019
583 Clouds 19 1009 88 10000 6.7 170 03:32 08.10.2019
584 Clouds 19 1009 88 10000 6.7 170 02:43 08.10.2019
585 Clouds 19 1009 88 10000 6.7 170 02:25 08.10.2019
586 Clouds 20 1009 82 10000 8.2 160 01:41 08.10.2019
587 Clouds 20 1009 88 10000 7.2 170 00:56 08.10.2019
588 Clouds 20 1009 88 10000 7.2 170 00:25 08.10.2019
589 Clouds 22 1008 73 10000 7.7 170 23:56 07.10.2019
590 Clouds 22 1008 73 10000 7.7 170 23:37 07.10.2019
591 Clouds 22 1008 73 10000 7.7 170 23:19 07.10.2019
592 Clouds 23 1009 69 10000 9.3 170 22:54 07.10.2019
593 Clouds 23 1009 69 10000 9.3 170 22:54 07.10.2019
594 Clouds 23 1009 69 10000 9.3 170 22:36 07.10.2019
595 Clouds 23 1009 69 10000 9.3 170 22:18 07.10.2019
596 Clouds 23 1010 69 10000 8.2 200 21:54 07.10.2019
597 Clouds 23 1010 69 10000 8.2 200 21:36 07.10.2019
598 Clouds 23 1010 69 10000 8.2 200 21:18 07.10.2019
599 Clouds 23 1010 69 10000 8.2 200 21:18 07.10.2019
600 Clouds 22 1011 73 10000 8.2 140 20:54 07.10.2019
601 Clouds 22 1011 73 10000 8.2 140 20:36 07.10.2019
602 Clouds 22 1011 73 10000 8.2 140 20:18 07.10.2019
603 Clouds 22 1012 73 10000 8.7 160 19:41 07.10.2019
604 Clouds 22 1012 73 10000 8.7 160 19:20 07.10.2019
605 Rain 21 1013 77 10000 8.7 170 18:59 07.10.2019
606 Rain 21 1013 77 10000 8.7 170 18:40 07.10.2019
607 Rain 21 1013 77 10000 8.7 170 18:19 07.10.2019
608 Rain 21 1013 77 10000 8.7 170 18:19 07.10.2019
609 Rain 20 1012 88 10000 7.2 150 17:55 07.10.2019
610 Rain 20 1012 88 10000 7.2 150 17:37 07.10.2019
611 Rain 20 1012 88 10000 7.2 150 17:18 07.10.2019
612 Clouds 20 1012 82 10000 5.1 150 16:43 07.10.2019
613 Clouds 20 1012 82 10000 5.1 150 16:25 07.10.2019
614 Drizzle 19 1012 88 10000 5.1 160 15:46 07.10.2019
615 Drizzle 19 1012 88 10000 5.1 160 15:27 07.10.2019
616 Drizzle 18 1011 93 10000 5.1 150 14:59 07.10.2019
617 Drizzle 18 1011 93 10000 5.1 150 14:59 07.10.2019
618 Drizzle 18 1011 93 10000 5.1 150 14:40 07.10.2019
619 Drizzle 18 1011 93 10000 5.1 150 14:22 07.10.2019
620 Clouds 20 1013 86 0 4.95 162.824 13:44 07.10.2019
621 Clouds 20 1013 84 0 4.47 164.889 13:21 07.10.2019
622 Clouds 20 1013 84 0 4.47 164.889 13:21 07.10.2019
623 Clouds 20 1013 84 0 4.47 164.889 12:57 07.10.2019
624 Clouds 20 1013 84 0 4.47 164.889 12:39 07.10.2019
625 Rain 20 1012 85 0 4.69 158.922 12:19 07.10.2019
626 Rain 20 1012 85 0 4.69 158.922 11:58 07.10.2019
627 Rain 20 1012 85 0 4.69 158.922 11:39 07.10.2019
628 Rain 20 1012 85 0 4.69 158.922 11:20 07.10.2019
629 Rain 20 1012 85 0 4.69 158.922 10:42 07.10.2019
630 Rain 20 1012 85 0 4.69 158.922 10:21 07.10.2019
631 Rain 20 1012 85 0 4.69 158.922 09:56 07.10.2019
632 Rain 20 1012 85 0 4.69 158.922 09:38 07.10.2019
633 Rain 20 1014 84 0 4.92 150.122 09:19 07.10.2019
634 Clouds 20 1014 82 0 4.65 153.832 08:42 07.10.2019
635 Clouds 20 1014 82 0 4.65 153.832 08:20 07.10.2019
636 Clouds 20 1014 82 0 4.65 153.832 07:46 07.10.2019
637 Clouds 20 1014 82 0 4.65 153.832 07:27 07.10.2019
638 Clouds 20 1014 82 0 4.65 153.832 06:56 07.10.2019
639 Clouds 20 1014 82 0 4.65 153.832 06:37 07.10.2019
640 Clouds 20 1014 84 0 5.28 154.498 05:54 07.10.2019
641 Clouds 20 1014 84 0 5.28 154.498 05:25 07.10.2019
642 Clouds 20 1014 84 0 5.28 154.498 04:44 07.10.2019
643 Clouds 20 1014 84 0 5.28 154.498 03:45 07.10.2019
644 Drizzle 20 1010 82 10000 7.7 170 03:23 07.10.2019
645 Drizzle 20 1010 82 10000 7.7 170 02:23 07.10.2019
646 Clouds 20 1009 88 10000 8.2 150 01:57 07.10.2019
647 Clouds 20 1009 88 10000 8.2 150 01:22 07.10.2019
648 Clouds 21 1009 83 10000 7.7 150 00:44 07.10.2019
649 Clouds 21 1009 83 10000 7.7 150 00:23 07.10.2019
650 Clouds 22 1009 78 10000 8.2 140 23:56 06.10.2019
651 Clouds 22 1009 78 10000 8.2 140 23:38 06.10.2019
652 Clouds 22 1009 78 10000 8.2 140 23:18 06.10.2019
653 Clouds 23 1009 73 10000 9.3 150 22:42 06.10.2019
654 Clouds 23 1009 73 10000 9.3 150 22:22 06.10.2019
655 Clouds 22 1011 78 10000 9.8 160 21:58 06.10.2019
656 Clouds 22 1011 78 10000 9.8 160 21:58 06.10.2019
657 Clouds 22 1011 78 10000 9.8 160 21:38 06.10.2019
658 Clouds 22 1011 78 10000 9.8 160 21:19 06.10.2019
659 Clouds 22 1012 78 10000 9.8 170 20:59 06.10.2019
660 Clouds 22 1012 78 10000 9.8 170 20:40 06.10.2019
661 Clouds 22 1012 78 10000 9.8 170 20:21 06.10.2019
662 Clouds 22 1013 78 10000 9.3 160 19:58 06.10.2019
663 Clouds 22 1013 78 10000 9.3 160 19:38 06.10.2019
664 Clouds 22 1013 78 10000 9.3 160 19:20 06.10.2019
665 Drizzle 21 1014 83 10000 6.7 160 18:57 06.10.2019
666 Drizzle 21 1014 83 10000 6.7 160 18:39 06.10.2019
667 Drizzle 21 1014 83 10000 6.7 160 18:20 06.10.2019
668 Drizzle 21 1014 83 10000 8.2 170 17:59 06.10.2019
669 Drizzle 21 1014 83 10000 8.2 170 17:39 06.10.2019
670 Drizzle 21 1014 83 10000 8.2 170 17:19 06.10.2019
671 Drizzle 19 1013 93 10000 6.7 140 16:43 06.10.2019
672 Drizzle 19 1013 93 10000 6.7 140 16:24 06.10.2019
673 Rain 19 1013 93 10000 6.7 140 15:59 06.10.2019
674 Rain 19 1013 93 10000 6.7 140 15:41 06.10.2019
675 Rain 19 1013 93 10000 6.7 140 15:18 06.10.2019
676 Drizzle 18 1011 93 10000 6.2 150 14:43 06.10.2019
677 Drizzle 18 1011 93 10000 6.2 150 14:24 06.10.2019
678 Rain 20 1013 84 0 6.34 159.742 13:58 06.10.2019
679 Rain 20 1013 84 0 6.34 159.742 13:39 06.10.2019
680 Rain 20 1014 86 0 6.33 159.705 13:20 06.10.2019
681 Rain 20 1014 86 0 6.33 159.705 12:57 06.10.2019
682 Rain 20 1014 86 0 6.33 159.705 12:57 06.10.2019
683 Rain 20 1014 86 0 6.33 159.705 12:38 06.10.2019
684 Rain 20 1013 87 0 6.58 165.507 12:20 06.10.2019
685 Rain 20 1013 87 0 6.58 165.507 11:56 06.10.2019
686 Rain 20 1013 87 0 6.58 165.507 11:37 06.10.2019
687 Rain 20 1013 87 0 6.58 165.507 11:37 06.10.2019
688 Rain 20 1013 87 0 6.58 165.507 11:18 06.10.2019
689 Rain 20 1013 87 0 6.58 165.507 10:42 06.10.2019
690 Rain 20 1013 87 0 6.58 165.507 10:24 06.10.2019
691 Rain 20 1013 87 0 6.58 165.507 09:56 06.10.2019
692 Rain 20 1013 87 0 6.58 165.507 09:38 06.10.2019
693 Rain 20 1014 86 0 6.2 156.596 09:18 06.10.2019
694 Rain 20 1014 86 0 6.2 156.596 08:40 06.10.2019
695 Rain 20 1014 83 0 6.04 155.605 08:20 06.10.2019
696 Rain 20 1014 83 0 6.04 155.605 07:44 06.10.2019
697 Rain 20 1014 83 0 6.04 155.605 07:18 06.10.2019
698 Clouds 20 1015 85 0 6.23 161.911 06:19 06.10.2019
699 Clouds 20 1015 85 0 6.23 161.911 05:28 06.10.2019
700 Clouds 20 1015 85 0 6.23 161.911 03:35 06.10.2019
701 Clouds 20 1011 88 10000 7.7 170 02:42 06.10.2019
702 Clouds 20 1011 88 10000 7.7 170 02:19 06.10.2019
703 Clouds 21 1010 83 10000 7.2 170 01:38 06.10.2019
704 Clouds 21 1010 83 10000 7.2 170 01:20 06.10.2019
705 Drizzle 22 1010 78 10000 7.7 170 00:45 06.10.2019
706 Drizzle 22 1010 78 10000 7.7 170 00:24 06.10.2019
707 Drizzle 22 1010 78 10000 7.7 160 23:44 05.10.2019
708 Drizzle 22 1010 78 10000 7.7 160 23:22 05.10.2019
709 Drizzle 22 1011 78 10000 8.7 160 22:57 05.10.2019
710 Drizzle 22 1011 78 10000 8.7 160 22:38 05.10.2019
711 Drizzle 22 1011 78 10000 8.7 160 22:38 05.10.2019
712 Drizzle 22 1011 78 10000 8.7 160 22:19 05.10.2019
713 Clouds 23 1012 73 10000 9.3 150 21:42 05.10.2019
714 Clouds 23 1012 73 10000 9.3 150 21:42 05.10.2019
715 Clouds 23 1012 73 10000 9.3 150 21:24 05.10.2019
716 Drizzle 23 1013 78 8000 7.2 160 20:59 05.10.2019
717 Drizzle 23 1013 78 8000 7.2 160 20:40 05.10.2019
718 Drizzle 23 1013 78 8000 7.2 160 20:20 05.10.2019
719 Clouds 22 1013 78 10000 8.7 150 19:56 05.10.2019
720 Clouds 22 1013 78 10000 8.7 150 19:37 05.10.2019
721 Clouds 22 1013 78 10000 8.7 150 19:37 05.10.2019
722 Clouds 22 1013 78 10000 8.7 150 19:18 05.10.2019
723 Clouds 22 1014 78 10000 7.2 160 18:55 05.10.2019
724 Clouds 22 1014 78 10000 7.2 160 18:36 05.10.2019
725 Clouds 22 1014 78 10000 7.2 160 18:18 05.10.2019
726 Drizzle 21 1014 88 10000 7.7 150 17:42 05.10.2019
727 Drizzle 21 1014 88 10000 7.7 150 17:21 05.10.2019
728 Drizzle 20 1014 88 10000 6.7 160 16:55 05.10.2019
729 Drizzle 20 1014 88 10000 6.7 160 16:55 05.10.2019
730 Drizzle 20 1014 88 10000 6.7 160 16:36 05.10.2019
731 Drizzle 20 1014 88 10000 6.7 160 16:18 05.10.2019
732 Drizzle 19 1013 93 10000 7.2 160 15:55 05.10.2019
733 Drizzle 19 1013 93 10000 7.2 160 15:37 05.10.2019
734 Drizzle 19 1013 93 10000 7.2 160 15:18 05.10.2019
735 Drizzle 18 1013 100 8000 5.1 180 14:41 05.10.2019
736 Drizzle 18 1013 100 8000 5.1 180 14:22 05.10.2019
737 Clouds 20 1015 84 0 6.26 151.59 13:44 05.10.2019
738 Rain 20 1015 86 0 6.2 154.587 13:26 05.10.2019
739 Rain 20 1015 86 0 6.2 154.587 12:58 05.10.2019
740 Rain 20 1015 86 0 6.2 154.587 12:40 05.10.2019
741 Rain 20 1014 87 0 6.61 155.625 12:18 05.10.2019
742 Rain 20 1014 87 0 6.61 155.625 11:39 05.10.2019
743 Rain 20 1014 87 0 6.61 155.625 11:20 05.10.2019
744 Rain 20 1014 87 0 6.61 155.625 10:55 05.10.2019
745 Rain 20 1014 87 0 6.61 155.625 10:37 05.10.2019
746 Rain 20 1014 87 0 6.61 155.625 10:18 05.10.2019
747 Rain 20 1014 87 0 6.61 155.625 09:40 05.10.2019
748 Rain 20 1015 86 0 7.18 159.235 09:22 05.10.2019
749 Rain 20 1015 86 0 6.92 159.903 08:42 05.10.2019
750 Rain 20 1015 86 0 6.92 159.903 08:22 05.10.2019
751 Rain 20 1015 86 0 6.92 159.903 07:59 05.10.2019
752 Rain 20 1015 86 0 6.92 159.903 07:38 05.10.2019
753 Rain 20 1015 86 0 6.92 159.903 07:19 05.10.2019
754 Rain 20 1015 86 0 6.92 159.903 06:28 05.10.2019
755 Clouds 20 1016 86 0 6.39 160.493 05:59 05.10.2019
756 Clouds 20 1016 86 0 6.39 160.493 04:42 05.10.2019
757 Clouds 20 1012 88 10000 7.2 160 03:29 05.10.2019
758 Clouds 22 1012 83 10000 7.2 170 01:55 05.10.2019
759 Clouds 22 1012 83 10000 7.2 170 01:23 05.10.2019
760 Clouds 22 1012 83 10000 7.7 160 00:45 05.10.2019
761 Clouds 22 1012 83 10000 7.7 160 00:26 05.10.2019
762 Drizzle 22 1012 78 8000 9.3 150 23:45 04.10.2019
763 Drizzle 22 1012 78 8000 9.3 150 23:26 04.10.2019
764 Clouds 23 1013 73 10000 10.3 160 22:59 04.10.2019
765 Clouds 23 1013 73 10000 10.3 160 22:39 04.10.2019
766 Clouds 23 1013 73 10000 10.3 160 22:20 04.10.2019
767 Clouds 23 1013 78 10000 8.7 160 21:57 04.10.2019
768 Clouds 23 1013 78 10000 8.7 160 21:38 04.10.2019
769 Clouds 23 1013 78 10000 8.7 160 21:19 04.10.2019
770 Drizzle 22 1014 83 10000 9.3 160 20:55 04.10.2019
771 Drizzle 22 1014 83 10000 9.3 160 20:55 04.10.2019
772 Drizzle 22 1014 83 10000 9.3 160 20:36 04.10.2019
773 Drizzle 22 1014 83 10000 9.3 160 20:18 04.10.2019
774 Drizzle 22 1015 83 10000 7.2 160 19:45 04.10.2019
775 Drizzle 22 1015 83 10000 7.2 160 19:26 04.10.2019
776 Drizzle 21 1015 88 8000 8.2 160 18:57 04.10.2019
777 Drizzle 21 1015 88 8000 8.2 160 18:38 04.10.2019
778 Drizzle 21 1015 88 8000 8.2 160 18:19 04.10.2019
779 Drizzle 20 1015 94 5000 6.7 160 17:42 04.10.2019
780 Drizzle 20 1015 94 5000 6.7 160 17:42 04.10.2019
781 Drizzle 20 1015 94 5000 6.7 160 17:22 04.10.2019
782 Drizzle 20 1014 88 10000 4.6 150 16:59 04.10.2019
783 Drizzle 20 1014 88 10000 4.6 150 16:41 04.10.2019
784 Drizzle 20 1014 88 10000 4.6 150 16:19 04.10.2019
785 Drizzle 20 1014 88 10000 4.6 150 16:19 04.10.2019
786 Drizzle 19 1014 93 8000 5.1 170 15:58 04.10.2019
787 Drizzle 19 1014 93 8000 5.1 170 15:39 04.10.2019
788 Drizzle 19 1014 93 8000 5.1 170 15:20 04.10.2019
789 Drizzle 19 1013 93 8000 5.7 170 14:57 04.10.2019
790 Drizzle 19 1013 93 8000 5.7 170 14:39 04.10.2019
791 Drizzle 19 1013 93 8000 5.7 170 14:21 04.10.2019
792 Rain 20 1015 83 0 6.76 155.073 13:45 04.10.2019
793 Rain 20 1015 82 0 6.34 156.895 13:22 04.10.2019
794 Rain 20 1015 82 0 6.34 156.895 12:55 04.10.2019
795 Rain 20 1015 82 0 6.34 156.895 12:55 04.10.2019
796 Rain 20 1015 82 0 6.34 156.895 12:36 04.10.2019
797 Clouds 20 1014 82 0 5.88 163.659 12:18 04.10.2019
798 Clouds 20 1014 82 0 5.88 163.659 11:42 04.10.2019
799 Clouds 20 1014 82 0 5.88 163.659 11:42 04.10.2019
800 Clouds 20 1014 82 0 5.88 163.659 11:22 04.10.2019
801 Clouds 20 1014 82 0 5.88 163.659 10:42 04.10.2019
802 Clouds 20 1014 82 0 5.88 163.659 10:22 04.10.2019
803 Clouds 20 1014 82 0 5.88 163.659 09:58 04.10.2019
804 Clouds 20 1014 82 0 5.88 163.659 09:58 04.10.2019
805 Clouds 20 1014 82 0 5.88 163.659 09:58 04.10.2019
806 Clouds 20 1014 82 0 5.88 163.659 09:40 04.10.2019
807 Clouds 20 1014 82 0 5.88 163.659 09:40 04.10.2019
808 Clouds 20 1015 82 0 5.76 159.345 09:22 04.10.2019
809 Clouds 20 1015 82 0 5.76 159.345 08:45 04.10.2019
810 Clouds 20 1015 82 0 5.76 159.345 08:26 04.10.2019
811 Clouds 20 1015 82 0 5.76 159.345 07:47 04.10.2019
812 Clouds 20 1015 82 0 5.76 159.345 07:24 04.10.2019
813 Clouds 20 1015 82 0 5.76 159.345 06:56 04.10.2019
814 Clouds 20 1015 82 0 5.76 159.345 06:37 04.10.2019
815 Clouds 20 1016 83 0 5.84 148.2 06:18 04.10.2019
816 Clouds 20 1016 83 0 5.84 148.2 05:19 04.10.2019
817 Clouds 20 1016 83 0 5.84 148.2 04:35 04.10.2019
818 Drizzle 20 1012 94 10000 4.6 160 02:56 04.10.2019
819 Drizzle 20 1012 94 10000 4.6 160 02:37 04.10.2019
820 Drizzle 20 1012 94 10000 4.6 160 02:37 04.10.2019
821 Drizzle 21 1012 88 10000 6.7 160 01:43 04.10.2019
822 Drizzle 21 1012 88 10000 6.7 160 01:25 04.10.2019
823 Drizzle 22 1011 83 10000 7.2 160 00:29 04.10.2019
824 Clouds 23 1011 73 10000 7.2 150 23:38 03.10.2019
825 Clouds 23 1011 73 10000 7.2 150 23:20 03.10.2019
826 Clouds 24 1012 69 10000 7.7 160 22:57 03.10.2019
827 Clouds 24 1012 69 10000 7.7 160 22:39 03.10.2019
828 Clouds 24 1012 69 10000 7.7 160 22:21 03.10.2019
829 Clouds 24 1013 69 10000 8.2 160 21:56 03.10.2019
830 Clouds 24 1013 69 10000 8.2 160 21:37 03.10.2019
831 Clouds 24 1013 69 10000 8.2 160 21:37 03.10.2019
832 Clouds 24 1013 69 10000 8.2 160 21:19 03.10.2019
833 Clouds 24 1013 69 10000 7.2 170 20:56 03.10.2019
834 Clouds 24 1013 69 10000 7.2 170 20:37 03.10.2019
835 Clouds 24 1013 69 10000 7.2 170 20:19 03.10.2019
836 Clouds 23 1014 73 10000 7.2 150 19:55 03.10.2019
837 Clouds 23 1014 73 10000 7.2 150 19:36 03.10.2019
838 Clouds 23 1014 73 10000 7.2 150 19:18 03.10.2019
839 Clouds 22 1014 78 10000 6.7 160 18:40 03.10.2019
840 Clouds 22 1014 78 10000 6.7 160 18:19 03.10.2019
841 Clouds 21 1014 83 10000 6.2 160 17:59 03.10.2019
842 Clouds 21 1014 83 10000 6.2 160 17:41 03.10.2019
843 Clouds 21 1014 83 10000 6.2 160 17:20 03.10.2019
844 Drizzle 20 1013 88 10000 5.1 170 16:44 03.10.2019
845 Drizzle 20 1013 88 10000 5.1 170 16:26 03.10.2019
846 Drizzle 20 1013 88 10000 5.1 180 15:57 03.10.2019
847 Drizzle 20 1013 88 10000 5.1 180 15:39 03.10.2019
848 Drizzle 20 1013 88 10000 5.1 180 15:21 03.10.2019
849 Drizzle 20 1012 88 10000 6.2 170 14:47 03.10.2019
850 Drizzle 20 1012 88 10000 6.2 170 14:27 03.10.2019
851 Clouds 20 1013 84 0 5.97 178.838 13:59 03.10.2019
852 Clouds 20 1013 84 0 5.97 178.838 13:41 03.10.2019
853 Clouds 20 1013 84 0 6.19 182.267 13:19 03.10.2019
854 Clouds 20 1013 84 0 6.19 182.267 12:56 03.10.2019
855 Clouds 20 1013 84 0 6.19 182.267 12:38 03.10.2019
856 Clouds 20 1013 82 0 4.79 177.041 12:19 03.10.2019
857 Clouds 20 1013 82 0 4.79 177.041 11:41 03.10.2019
858 Clouds 20 1013 82 0 4.79 177.041 11:41 03.10.2019
859 Clouds 20 1013 82 0 4.79 177.041 11:23 03.10.2019
860 Clouds 20 1013 82 0 4.79 177.041 10:59 03.10.2019
861 Clouds 20 1013 82 0 4.79 177.041 10:40 03.10.2019
862 Clouds 20 1013 82 0 4.79 177.041 10:19 03.10.2019
863 Clouds 20 1013 82 0 4.79 177.041 09:58 03.10.2019
864 Clouds 20 1013 82 0 4.79 177.041 09:40 03.10.2019
865 Clouds 20 1014 82 0 4.77 175.573 09:20 03.10.2019
866 Clouds 20 1014 82 0 5.06 176.581 08:45 03.10.2019
867 Clouds 20 1014 82 0 5.06 176.581 08:27 03.10.2019
868 Clouds 20 1014 82 0 5.06 176.581 08:27 03.10.2019
869 Clouds 20 1014 82 0 5.06 176.581 07:57 03.10.2019
870 Clouds 20 1014 82 0 5.06 176.581 07:39 03.10.2019
871 Clouds 20 1014 82 0 5.06 176.581 07:19 03.10.2019
872 Clouds 20 1014 82 0 5.06 176.581 06:46 03.10.2019
873 Clouds 20 1014 83 0 5.83 177.189 06:20 03.10.2019
874 Clouds 20 1014 83 0 5.83 177.189 05:43 03.10.2019
875 Clouds 20 1014 83 0 5.83 177.189 04:56 03.10.2019
876 Clouds 20 1014 83 0 5.83 177.189 04:25 03.10.2019
877 Drizzle 21 1010 88 10000 6.2 160 03:23 03.10.2019
878 Drizzle 21 1010 88 10000 6.2 160 02:38 03.10.2019
879 Drizzle 22 1009 83 10000 7.2 170 01:51 03.10.2019
880 Drizzle 22 1009 83 10000 7.2 170 01:32 03.10.2019
881 Clouds 22 1009 78 10000 5.1 170 00:47 03.10.2019
882 Clouds 22 1009 78 10000 5.1 170 00:18 03.10.2019
883 Clouds 23 1010 73 10000 6.7 170 23:43 02.10.2019
884 Clouds 23 1010 73 10000 6.7 170 23:21 02.10.2019
885 Clouds 23 1010 73 10000 9.3 160 22:44 02.10.2019
886 Clouds 23 1010 73 10000 9.3 160 22:44 02.10.2019
887 Clouds 23 1010 73 10000 9.3 160 22:21 02.10.2019
888 Rain 23 1011 73 10000 8.2 180 21:56 02.10.2019
889 Rain 23 1011 73 10000 8.2 180 21:56 02.10.2019
890 Rain 23 1011 73 10000 8.2 180 21:38 02.10.2019
891 Rain 23 1011 73 10000 8.2 180 21:20 02.10.2019
892 Clouds 21 1013 83 0 5.72 175.328 20:56 02.10.2019
893 Drizzle 22 1011 83 5000 8.7 180 20:38 02.10.2019
894 Drizzle 22 1011 83 5000 8.7 180 20:20 02.10.2019
895 Clouds 23 1012 78 10000 7.2 190 19:54 02.10.2019
896 Clouds 23 1012 78 10000 7.2 190 19:36 02.10.2019
897 Clouds 23 1012 78 10000 7.2 190 19:18 02.10.2019
898 Clouds 22 1012 78 10000 6.7 170 18:42 02.10.2019
899 Clouds 22 1012 78 10000 6.7 170 18:22 02.10.2019
900 Clouds 22 1012 83 10000 9.3 160 17:59 02.10.2019
901 Clouds 22 1012 83 10000 9.3 160 17:40 02.10.2019
902 Clouds 22 1012 83 10000 9.3 160 17:21 02.10.2019
903 Drizzle 20 1012 88 10000 7.7 170 16:57 02.10.2019
904 Drizzle 20 1012 88 10000 7.7 170 16:57 02.10.2019
905 Drizzle 20 1012 88 10000 7.7 170 16:38 02.10.2019
906 Drizzle 20 1011 88 10000 6.7 170 16:20 02.10.2019
907 Drizzle 20 1011 88 10000 6.7 170 15:55 02.10.2019
908 Drizzle 20 1011 88 10000 6.7 170 15:37 02.10.2019
909 Drizzle 20 1011 88 10000 6.7 170 15:18 02.10.2019
910 Clouds 20 1009 88 10000 7.7 180 14:43 02.10.2019
911 Clouds 20 1009 88 10000 7.7 180 14:23 02.10.2019
912 Clouds 20 1012 85 0 6.37 177.533 13:57 02.10.2019
913 Clouds 20 1012 85 0 6.37 177.533 13:38 02.10.2019
914 Clouds 20 1012 85 0 6.13 179.299 13:19 02.10.2019
915 Clouds 20 1012 85 0 6.13 179.299 12:40 02.10.2019
916 Rain 20 1011 85 0 6.03 193.278 12:22 02.10.2019
917 Rain 20 1011 85 0 6.03 193.278 11:56 02.10.2019
918 Rain 20 1011 85 0 6.03 193.278 11:36 02.10.2019
919 Rain 20 1011 85 0 6.03 193.278 11:18 02.10.2019
920 Rain 20 1011 85 0 6.03 193.278 11:18 02.10.2019
921 Rain 20 1011 85 0 6.03 193.278 10:38 02.10.2019
922 Rain 20 1011 85 0 6.03 193.278 10:18 02.10.2019
923 Rain 20 1011 85 0 6.03 193.278 09:40 02.10.2019
924 Clouds 20 1012 84 0 6.58 183.301 09:20 02.10.2019
925 Clouds 20 1012 84 0 6.58 183.301 08:55 02.10.2019
926 Clouds 21 1012 84 0 6.41 184.677 08:36 02.10.2019
927 Clouds 21 1012 84 0 6.41 184.677 08:18 02.10.2019
928 Clouds 21 1012 84 0 6.41 184.677 07:39 02.10.2019
929 Clouds 21 1012 84 0 6.41 184.677 07:21 02.10.2019
930 Clouds 21 1012 84 0 6.41 184.677 06:47 02.10.2019
931 Clouds 21 1012 86 0 5.87 183.788 05:56 02.10.2019
932 Clouds 21 1012 86 0 5.87 183.788 05:25 02.10.2019
933 Clouds 21 1012 86 0 5.87 183.788 04:53 02.10.2019
934 Clouds 21 1012 86 0 5.87 183.788 03:52 02.10.2019
935 Clouds 21 1009 88 10000 9.3 170 02:43 02.10.2019
936 Clouds 21 1009 88 10000 9.3 170 02:23 02.10.2019
937 Clouds 22 1008 83 10000 8.7 170 01:40 02.10.2019
938 Clouds 23 1008 78 10000 7.7 170 00:50 02.10.2019
939 Clouds 23 1008 78 10000 7.7 170 00:27 02.10.2019
940 Clouds 23 1009 78 10000 9.3 170 23:44 01.10.2019
941 Clouds 23 1009 78 10000 9.3 170 23:25 01.10.2019
942 Clouds 24 1010 73 10000 8.7 160 22:59 01.10.2019
943 Clouds 24 1010 73 10000 8.7 160 22:40 01.10.2019
944 Clouds 24 1010 73 10000 8.7 160 22:19 01.10.2019
945 Clouds 24 1010 73 10000 8.7 160 22:19 01.10.2019
946 Clouds 24 1011 73 10000 8.7 170 21:57 01.10.2019
947 Clouds 24 1011 73 10000 8.7 170 21:38 01.10.2019
948 Clouds 24 1011 73 10000 8.7 170 21:19 01.10.2019
949 Clouds 24 1012 73 10000 9.8 170 20:55 01.10.2019
950 Clouds 24 1012 73 10000 9.8 170 20:37 01.10.2019
951 Clouds 24 1012 73 10000 9.8 170 20:18 01.10.2019
952 Clouds 23 1012 78 10000 11.3 160 19:55 01.10.2019
953 Clouds 23 1012 78 10000 11.3 160 19:37 01.10.2019
954 Clouds 23 1012 78 10000 11.3 160 19:37 01.10.2019
955 Clouds 23 1012 78 10000 11.3 160 19:18 01.10.2019
956 Clouds 22 1013 83 10000 9.8 170 18:40 01.10.2019
957 Clouds 22 1013 83 10000 9.8 170 18:21 01.10.2019
958 Rain 22 1013 83 10000 9.3 160 17:57 01.10.2019
959 Rain 22 1013 83 10000 9.3 160 17:38 01.10.2019
960 Rain 22 1013 83 10000 9.3 160 17:19 01.10.2019
961 Rain 21 1012 88 10000 8.2 160 16:57 01.10.2019
962 Rain 21 1012 88 10000 8.2 160 16:39 01.10.2019
963 Rain 21 1012 88 10000 8.2 160 16:20 01.10.2019
964 Drizzle 21 1011 94 10000 7.2 170 15:42 01.10.2019
965 Drizzle 21 1011 94 10000 7.2 170 15:22 01.10.2019
966 Drizzle 20 1011 94 8000 9.8 170 14:41 01.10.2019
967 Drizzle 20 1011 94 8000 9.8 170 14:20 01.10.2019
968 -273 0 0 0 0 0 14:20 01.10.2019
969 Rain 21 1013 89 0 8.65 174.858 13:57 01.10.2019
970 Rain 21 1013 89 0 8.65 174.858 13:39 01.10.2019
971 Rain 21 1013 89 0 8.59 174.633 13:20 01.10.2019
972 Rain 21 1013 89 0 8.59 174.633 13:20 01.10.2019
973 Rain 21 1013 89 0 8.59 174.633 13:20 01.10.2019
974 Rain 21 1013 89 0 8.59 174.633 12:57 01.10.2019
975 Rain 21 1013 89 0 8.59 174.633 12:57 01.10.2019
976 Rain 21 1013 89 0 8.59 174.633 12:39 01.10.2019
977 Clouds 21 1012 88 0 7.93 179.899 12:18 01.10.2019
978 Clouds 21 1012 88 0 7.93 179.899 11:57 01.10.2019
979 Clouds 21 1012 88 0 7.93 179.899 11:37 01.10.2019
980 Clouds 21 1012 88 0 7.93 179.899 11:18 01.10.2019
981 Clouds 21 1012 88 0 7.93 179.899 10:48 01.10.2019
982 Clouds 21 1012 88 0 7.93 179.899 10:28 01.10.2019
983 Clouds 21 1012 88 0 7.93 179.899 09:47 01.10.2019
984 Clouds 21 1012 88 0 7.93 179.899 09:26 01.10.2019
985 Rain 21 1013 87 0 6.79 183.176 08:46 01.10.2019
986 Rain 21 1013 87 0 6.79 183.176 08:27 01.10.2019
987 Rain 21 1013 87 0 6.79 183.176 07:58 01.10.2019
988 Rain 21 1013 87 0 6.79 183.176 07:40 01.10.2019
989 Rain 21 1013 87 0 6.79 183.176 07:20 01.10.2019
990 Rain 21 1013 87 0 6.79 183.176 06:42 01.10.2019
991 Clouds 21 1013 86 0 6.27 187.133 06:18 01.10.2019
992 Clouds 21 1013 86 0 6.27 187.133 05:44 01.10.2019
993 Clouds 21 1013 86 0 6.27 187.133 05:44 01.10.2019
994 Clouds 21 1013 86 0 6.27 187.133 04:46 01.10.2019
995 Clouds 21 1013 86 0 6.27 187.133 03:49 01.10.2019
996 Clouds 21 1010 83 10000 7.2 170 02:20 01.10.2019
997 Clouds 22 1009 78 10000 7.7 170 01:56 01.10.2019
998 Clouds 22 1009 78 10000 7.2 180 00:52 01.10.2019
999 Clouds 22 1009 78 10000 7.2 180 00:25 01.10.2019
1000 Clouds 23 1009 73 10000 8.2 180 23:42 30.09.2019
1001 Clouds 23 1009 73 10000 8.2 180 23:42 30.09.2019
1002 Clouds 23 1009 73 10000 8.2 180 23:23 30.09.2019
1003 Clouds 24 1010 73 10000 7.7 170 22:59 30.09.2019
1004 Clouds 24 1010 73 10000 7.7 170 22:59 30.09.2019
1005 Clouds 24 1010 73 10000 7.7 170 22:40 30.09.2019
1006 Clouds 24 1010 73 10000 7.7 170 22:21 30.09.2019
1007 Clouds 24 1011 73 10000 8.2 170 21:55 30.09.2019
1008 Clouds 24 1011 73 10000 8.2 170 21:37 30.09.2019
1009 Clouds 24 1011 73 10000 8.2 170 21:19 30.09.2019
1010 Clouds 24 1012 73 10000 9.3 160 20:55 30.09.2019
1011 Clouds 24 1012 73 10000 9.3 160 20:37 30.09.2019
1012 Clouds 24 1012 73 10000 9.3 160 20:19 30.09.2019
1013 Clouds 24 1012 73 10000 9.3 160 20:19 30.09.2019
1014 Clouds 23 1013 78 10000 8.7 180 19:55 30.09.2019
1015 Clouds 23 1013 78 10000 8.7 180 19:37 30.09.2019
1016 Clouds 23 1013 78 10000 8.7 180 19:18 30.09.2019
1017 Clouds 23 1013 78 10000 8.7 180 19:18 30.09.2019
1018 Clouds 23 1013 78 10000 8.7 180 19:18 30.09.2019
1019 Clouds 23 1014 78 10000 8.2 170 18:41 30.09.2019
1020 Clouds 23 1014 78 10000 8.2 170 18:22 30.09.2019
1021 Rain 22 1013 83 10000 8.7 160 17:57 30.09.2019
1022 Rain 22 1013 83 10000 8.7 160 17:39 30.09.2019
1023 Rain 22 1013 83 10000 8.7 160 17:20 30.09.2019
1024 Clouds 22 1013 83 10000 7.2 170 16:54 30.09.2019
1025 Clouds 22 1013 83 10000 7.2 170 16:36 30.09.2019
1026 Clouds 22 1013 83 10000 7.2 170 16:18 30.09.2019
1027 Clouds 22 1013 83 10000 7.2 170 16:18 30.09.2019
1028 Clouds 21 1012 83 10000 5.7 170 15:39 30.09.2019
1029 Clouds 21 1012 83 10000 5.7 170 15:39 30.09.2019
1030 Clouds 21 1012 83 10000 5.7 170 15:20 30.09.2019
1031 Clouds 20 1012 88 10000 4.1 180 14:59 30.09.2019
1032 Clouds 20 1012 88 10000 4.1 180 14:38 30.09.2019
1033 Clouds 20 1012 88 10000 4.1 180 14:19 30.09.2019
1034 Clouds 20 1014 86 0 6.15 185.311 14:00 30.09.2019
1035 Clouds 20 1014 86 0 6.15 185.311 13:41 30.09.2019
1036 Clouds 20 1014 86 0 6.05 185.092 13:22 30.09.2019
1037 Clouds 20 1014 86 0 6.05 185.092 12:57 30.09.2019
1038 Clouds 20 1014 86 0 6.05 185.092 12:38 30.09.2019
1039 Clouds 20 1013 85 0 5.18 189.622 12:18 30.09.2019
1040 Clouds 20 1013 85 0 5.18 189.622 11:43 30.09.2019
1041 Clouds 20 1013 85 0 5.18 189.622 11:21 30.09.2019
1042 Clouds 20 1013 85 0 5.18 189.622 10:57 30.09.2019
1043 Clouds 20 1013 85 0 5.18 189.622 10:38 30.09.2019
1044 Clouds 20 1013 85 0 5.18 189.622 10:18 30.09.2019
1045 Clouds 20 1013 85 0 5.18 189.622 10:18 30.09.2019
1046 Clouds 20 1013 85 0 5.18 189.622 09:55 30.09.2019
1047 Clouds 20 1013 85 0 5.18 189.622 09:55 30.09.2019
1048 Clouds 20 1013 85 0 5.18 189.622 09:36 30.09.2019
1049 Clouds 20 1014 85 0 5.15 180.456 09:18 30.09.2019
1050 Clouds 20 1014 85 0 5.15 180.456 08:45 30.09.2019
1051 Clouds 20 1014 84 0 4.76 184.278 08:27 30.09.2019
1052 Clouds 20 1014 84 0 4.76 184.278 07:40 30.09.2019
1053 Clouds 20 1014 84 0 4.76 184.278 07:19 30.09.2019
1054 Clouds 20 1014 84 0 4.76 184.278 06:47 30.09.2019
1055 Clouds 20 1014 84 0 4.76 184.278 06:27 30.09.2019
1056 Clouds 20 1015 83 0 5.26 176.151 05:40 30.09.2019
1057 Clouds 21 1011 83 10000 5.1 180 02:53 30.09.2019
1058 Clouds 21 1011 83 10000 5.1 180 02:25 30.09.2019
1059 Clouds 22 1010 78 10000 5.7 190 01:24 30.09.2019
1060 Clouds 22 1010 78 10000 5.7 190 01:24 30.09.2019
1061 Clouds 22 1010 78 10000 5.7 190 01:24 30.09.2019
1062 Clouds 22 1010 78 10000 6.2 190 00:38 30.09.2019
1063 Clouds 22 1010 78 10000 6.2 190 00:19 30.09.2019
1064 Clouds 22 1010 78 10000 6.7 150 23:42 29.09.2019
1065 Clouds 22 1010 78 10000 6.7 150 23:21 29.09.2019
1066 Clouds 22 1011 78 10000 5.7 160 22:45 29.09.2019
1067 Clouds 22 1011 78 10000 5.7 160 22:25 29.09.2019
1068 Clouds 23 1011 73 10000 6.7 170 21:59 29.09.2019
1069 Clouds 23 1011 73 10000 6.7 170 21:39 29.09.2019
1070 Clouds 23 1011 73 10000 6.7 170 21:20 29.09.2019
1071 Clouds 23 1013 73 10000 4.1 150 20:59 29.09.2019
1072 Clouds 23 1013 73 10000 4.1 150 20:41 29.09.2019
1073 Clouds 23 1013 73 10000 4.1 150 20:19 29.09.2019
1074 Clouds 23 1013 73 10000 4.1 150 20:19 29.09.2019
1075 Clouds 23 1013 73 10000 4.6 150 19:57 29.09.2019
1076 Clouds 23 1013 73 10000 4.6 150 19:37 29.09.2019
1077 Clouds 23 1013 73 10000 4.6 150 19:18 29.09.2019
1078 Clouds 23 1013 73 10000 4.1 160 18:55 29.09.2019
1079 Clouds 23 1013 73 10000 4.1 160 18:37 29.09.2019
1080 Clouds 22 1014 78 10000 4.6 170 18:18 29.09.2019
1081 Clouds 22 1014 78 10000 4.6 170 18:18 29.09.2019
1082 Clouds 22 1014 78 10000 4.6 170 17:55 29.09.2019
1083 Clouds 22 1014 78 10000 4.6 170 17:55 29.09.2019
1084 Clouds 22 1014 78 10000 4.6 170 17:55 29.09.2019
1085 Clouds 22 1014 78 10000 4.6 170 17:54 29.09.2019
1086 Clouds 22 1014 78 10000 4.6 170 17:36 29.09.2019
1087 Clouds 22 1014 78 10000 4.6 170 17:18 29.09.2019
1088 Clouds 22 1013 78 10000 4.1 140 16:41 29.09.2019
1089 Clouds 22 1013 78 10000 4.1 140 16:20 29.09.2019
1090 Clouds 21 1013 83 10000 3.6 140 15:59 29.09.2019
1091 Clouds 21 1013 83 10000 3.6 140 15:38 29.09.2019
1092 Clouds 21 1013 83 10000 3.6 140 15:19 29.09.2019
1093 Clouds 21 1012 83 10000 4.1 160 14:58 29.09.2019
1094 Clouds 21 1012 83 10000 4.1 160 14:38 29.09.2019
1095 Clouds 21 1012 83 10000 4.1 160 14:19 29.09.2019
1096 Clouds 20 1014 84 0 3.04 139.777 13:56 29.09.2019
1097 Clouds 20 1014 84 0 3.04 139.777 13:36 29.09.2019
1098 Clouds 20 1014 83 0 2.69 137.247 13:18 29.09.2019
1099 Clouds 20 1014 83 0 2.69 137.247 12:56 29.09.2019
1100 Clouds 20 1014 83 0 2.69 137.247 12:38 29.09.2019
1101 Clouds 20 1012 84 0 2.69 155.104 12:20 29.09.2019
1102 Clouds 20 1012 84 0 2.69 155.104 11:41 29.09.2019
1103 Clouds 20 1012 84 0 2.69 155.104 11:20 29.09.2019
1104 Clouds 20 1012 84 0 2.69 155.104 10:58 29.09.2019
1105 Clouds 20 1012 84 0 2.69 155.104 10:39 29.09.2019
1106 Clouds 20 1012 84 0 2.69 155.104 10:20 29.09.2019
1107 Clouds 20 1012 84 0 2.69 155.104 09:57 29.09.2019
1108 Clouds 20 1012 84 0 2.69 155.104 09:39 29.09.2019
1109 Clear 20 1015 83 0 3.21 147.919 09:19 29.09.2019
1110 Clear 20 1015 83 0 3.21 147.919 08:42 29.09.2019
1111 Clear 20 1014 83 0 3.39 150.222 08:22 29.09.2019
1112 Clear 20 1014 83 0 3.39 150.222 07:44 29.09.2019
1113 Clear 20 1014 83 0 3.39 150.222 07:26 29.09.2019
1114 Clear 20 1014 83 0 3.39 150.222 06:49 29.09.2019
1115 Clear 20 1014 84 0 4.54 141.285 05:58 29.09.2019
1116 Clear 20 1014 84 0 4.54 141.285 04:45 29.09.2019
1117 Clear 20 1014 84 0 4.54 141.285 04:45 29.09.2019
1118 Clear 20 1014 84 0 4.54 141.285 04:23 29.09.2019
1119 Clouds 21 1011 77 10000 5.1 150 02:58 29.09.2019
1120 Clouds 21 1011 77 10000 5.1 150 02:19 29.09.2019
1121 Clouds 22 1010 78 10000 6.2 140 01:40 29.09.2019
1122 Clouds 23 1010 73 10000 7.2 170 00:55 29.09.2019
1123 Clouds 23 1010 73 10000 7.2 170 00:36 29.09.2019
1124 Clouds 23 1010 73 10000 7.2 170 00:18 29.09.2019
1125 Clouds 24 1010 69 10000 6.7 180 23:37 28.09.2019
1126 Clouds 24 1010 69 10000 6.7 180 23:19 28.09.2019
1127 Clouds 25 1011 61 10000 7.2 160 22:40 28.09.2019
1128 Clouds 25 1011 61 10000 7.2 160 22:21 28.09.2019
1129 Clouds 25 1012 65 10000 7.7 180 21:57 28.09.2019
1130 Clouds 25 1012 65 10000 7.7 180 21:39 28.09.2019
1131 Clouds 25 1012 65 10000 7.7 180 21:21 28.09.2019
1132 Clouds 25 1013 61 10000 6.2 190 20:57 28.09.2019
1133 Clouds 25 1013 61 10000 6.2 190 20:57 28.09.2019
1134 Clouds 25 1013 61 10000 6.2 190 20:38 28.09.2019
1135 Clouds 25 1013 61 10000 6.2 190 20:18 28.09.2019
1136 Clouds 24 1014 64 10000 4.1 190 19:56 28.09.2019
1137 Clouds 24 1014 64 10000 4.1 190 19:56 28.09.2019
1138 Clouds 24 1014 64 10000 4.1 190 19:37 28.09.2019
1139 Clouds 24 1014 64 10000 4.1 190 19:37 28.09.2019
1140 Clouds 24 1014 64 10000 4.1 190 19:37 28.09.2019
1141 Clouds 24 1014 64 10000 4.1 190 19:19 28.09.2019
1142 Clouds 23 1014 69 10000 4.6 180 18:54 28.09.2019
1143 Clouds 23 1014 69 10000 4.6 180 18:36 28.09.2019
1144 Clouds 23 1014 69 10000 4.6 180 18:18 28.09.2019
1145 Clouds 22 1015 73 10000 4.6 190 17:42 28.09.2019
1146 Clouds 22 1015 73 10000 4.6 190 17:22 28.09.2019
1147 Clouds 22 1014 73 10000 4.1 180 16:58 28.09.2019
1148 Clouds 22 1014 73 10000 4.1 180 16:38 28.09.2019
1149 Clouds 22 1014 73 10000 4.1 180 16:20 28.09.2019
1150 Clouds 22 1013 78 10000 4.1 170 15:41 28.09.2019
1151 Clouds 22 1013 78 10000 4.1 170 15:22 28.09.2019
1152 Clouds 20 1013 88 10000 5.1 180 14:56 28.09.2019
1153 Clouds 20 1013 88 10000 5.1 180 14:56 28.09.2019
1154 Clouds 20 1013 88 10000 5.1 180 14:37 28.09.2019
1155 Clouds 20 1013 88 10000 5.1 180 14:19 28.09.2019
1156 Clouds 20 1015 81 0 4.13 190.177 13:55 28.09.2019
1157 Clouds 20 1015 81 0 4.13 190.177 13:55 28.09.2019
1158 Clouds 20 1015 81 0 4.13 190.177 13:36 28.09.2019
1159 Clear 20 1015 84 0 4.47 189.867 13:18 28.09.2019
1160 Clear 20 1015 84 0 4.47 189.867 12:39 28.09.2019
1161 Clear 20 1014 84 0 5.11 201.768 12:18 28.09.2019
1162 Clear 20 1014 84 0 5.11 201.768 11:42 28.09.2019
1163 Clear 20 1014 84 0 5.11 201.768 11:21 28.09.2019
1164 Clear 20 1014 84 0 5.11 201.768 10:59 28.09.2019
1165 Clear 20 1014 84 0 5.11 201.768 10:39 28.09.2019
1166 Clear 20 1014 84 0 5.11 201.768 10:19 28.09.2019
1167 Clear 20 1014 84 0 5.11 201.768 09:41 28.09.2019
1168 Clear 20 1015 82 0 4.68 222.096 09:22 28.09.2019
1169 Clear 20 1015 82 0 4.68 222.096 08:48 28.09.2019
1170 Clear 20 1015 82 0 4.68 222.096 08:48 28.09.2019
1171 Clear 20 1015 83 0 5.11 217.478 08:30 28.09.2019
1172 Clear 20 1015 83 0 5.11 217.478 07:59 28.09.2019
1173 Clear 20 1015 83 0 5.11 217.478 07:41 28.09.2019
1174 Clear 20 1015 83 0 5.11 217.478 07:19 28.09.2019
1175 Clear 20 1015 83 0 5.11 217.478 06:45 28.09.2019
1176 Clear 20 1015 83 0 5.11 217.478 06:25 28.09.2019
1177 Clear 20 1015 81 0 4.97 210.414 05:41 28.09.2019
1178 Clear 20 1015 81 0 4.97 210.414 05:19 28.09.2019
1179 Clear 20 1015 81 0 4.97 210.414 04:36 28.09.2019
1180 Clear 20 1015 81 0 4.97 210.414 03:42 28.09.2019
1181 Clouds 21 1011 83 10000 4.1 190 03:18 28.09.2019
1182 Clouds 21 1011 83 10000 4.1 190 02:41 28.09.2019
1183 Clouds 21 1011 83 10000 4.1 190 02:23 28.09.2019
1184 Clouds 22 1011 73 10000 5.1 180 01:43 28.09.2019
1185 Clouds 22 1011 73 10000 5.1 180 01:23 28.09.2019
1186 Clouds 23 1010 73 10000 5.7 220 00:48 28.09.2019
1187 Clouds 23 1010 73 10000 5.7 220 00:29 28.09.2019
1188 Clouds 24 1011 64 10000 6.2 200 23:39 27.09.2019
1189 Clouds 24 1011 64 10000 6.2 200 23:21 27.09.2019
1190 Clouds 24 1012 64 10000 4.6 210 22:57 27.09.2019
1191 Clouds 24 1012 64 10000 4.6 210 22:38 27.09.2019
1192 Clouds 24 1012 64 10000 4.6 210 22:18 27.09.2019
1193 Clouds 24 1013 64 10000 6.7 170 21:54 27.09.2019
1194 Clouds 24 1013 64 10000 6.7 170 21:36 27.09.2019
1195 Clouds 24 1013 64 10000 6.7 170 21:18 27.09.2019
1196 Clouds 24 1014 64 10000 4.1 180 20:41 27.09.2019
1197 Clouds 24 1014 64 10000 4.1 180 20:20 27.09.2019
1198 Clouds 24 1015 64 10000 5.1 180 19:58 27.09.2019
1199 Clouds 24 1015 64 10000 5.1 180 19:39 27.09.2019
1200 Clouds 24 1015 64 10000 5.1 180 19:21 27.09.2019
1201 Clouds 24 1015 64 10000 6.7 180 18:43 27.09.2019
1202 Clouds 24 1015 64 10000 6.7 180 18:25 27.09.2019
1203 Clouds 23 1015 69 10000 6.2 180 17:57 27.09.2019
1204 Clouds 23 1015 69 10000 6.2 180 17:39 27.09.2019
1205 Clouds 23 1015 69 10000 6.2 180 17:20 27.09.2019
1206 Clouds 22 1015 73 10000 4.6 190 16:57 27.09.2019
1207 Clouds 22 1015 73 10000 4.6 190 16:38 27.09.2019
1208 Clouds 22 1015 73 10000 4.6 190 16:18 27.09.2019
1209 Clouds 20 1014 88 10000 4.1 180 15:47 27.09.2019
1210 Clouds 20 1014 88 10000 4.1 180 15:21 27.09.2019
1211 Clouds 20 1014 88 10000 4.1 180 15:21 27.09.2019
1212 Clouds 20 1013 88 10000 4.1 190 14:59 27.09.2019
1213 Clouds 20 1013 88 10000 4.1 190 14:41 27.09.2019
1214 Clouds 20 1013 88 10000 4.1 190 14:21 27.09.2019
1215 Clear 20 1015 81 0 5.99 193.154 13:58 27.09.2019
1216 Clear 20 1015 81 0 5.99 193.154 13:40 27.09.2019
1217 Clear 19 1015 84 0 5.8 197.691 13:21 27.09.2019
1218 Clear 19 1015 84 0 5.8 197.691 13:21 27.09.2019
1219 Clear 19 1015 84 0 5.8 197.691 12:54 27.09.2019
1220 Clear 19 1014 84 0 5.69 210.798 12:24 27.09.2019
1221 Clear 19 1014 84 0 5.69 210.798 11:58 27.09.2019
1222 Clear 19 1014 84 0 5.69 210.798 11:38 27.09.2019
1223 Clear 19 1014 84 0 5.69 210.798 11:20 27.09.2019
1224 Clear 19 1014 84 0 5.69 210.798 10:43 27.09.2019
1225 Clear 19 1014 84 0 5.69 210.798 10:23 27.09.2019
1226 Clear 19 1014 84 0 5.69 210.798 09:58 27.09.2019
1227 Clear 19 1014 84 0 5.69 210.798 09:40 27.09.2019
1228 Clear 19 1015 83 0 4.77 214.845 09:19 27.09.2019
1229 Clear 19 1015 83 0 4.77 214.845 08:42 27.09.2019
1230 Clear 19 1015 82 0 4.94 215.986 08:21 27.09.2019
1231 Clear 19 1015 82 0 4.94 215.986 07:55 27.09.2019
1232 Clear 19 1015 82 0 4.94 215.986 07:37 27.09.2019
1233 Clear 19 1015 82 0 4.94 215.986 07:18 27.09.2019
1234 Clear 19 1015 82 0 4.94 215.986 06:40 27.09.2019
1235 Clear 20 1015 81 0 4.22 206.213 06:21 27.09.2019
1236 Clear 20 1015 81 0 4.22 206.213 05:45 27.09.2019
1237 Clear 20 1015 81 0 4.22 206.213 05:26 27.09.2019
1238 Clear 20 1015 81 0 4.22 206.213 03:39 27.09.2019
1239 Clouds 22 1010 78 10000 5.1 200 01:56 27.09.2019
1240 Clouds 22 1010 78 10000 5.1 200 01:31 27.09.2019
1241 Clouds 22 1010 78 10000 6.2 210 00:41 27.09.2019
1242 Clouds 22 1011 78 10000 4.1 210 23:57 26.09.2019
1243 Clouds 22 1011 78 10000 4.1 210 23:39 26.09.2019
1244 Clouds 22 1011 78 10000 4.1 210 23:19 26.09.2019
1245 Clouds 22 1011 78 10000 6.7 190 22:58 26.09.2019
1246 Clouds 22 1011 78 10000 6.7 190 22:39 26.09.2019
1247 Clouds 22 1011 78 10000 6.7 190 22:18 26.09.2019
1248 Clouds 23 1012 78 10000 6.7 180 21:58 26.09.2019
1249 Clouds 23 1012 78 10000 6.7 180 21:37 26.09.2019
1250 Clouds 23 1012 78 10000 6.7 180 21:19 26.09.2019
1251 Clouds 23 1014 73 10000 5.7 190 20:58 26.09.2019
1252 Clouds 23 1014 73 10000 5.7 190 20:39 26.09.2019
1253 Clouds 23 1014 73 10000 5.7 190 20:21 26.09.2019
1254 Clouds 21 1015 88 10000 4.6 190 19:56 26.09.2019
1255 Clouds 21 1015 88 10000 4.6 190 19:37 26.09.2019
1256 Drizzle 21 1015 88 10000 4.6 170 19:18 26.09.2019
1257 Drizzle 21 1015 88 10000 4.6 170 19:18 26.09.2019
1258 Drizzle 21 1015 88 10000 4.6 170 18:42 26.09.2019
1259 Drizzle 21 1015 88 10000 4.6 170 18:22 26.09.2019
1260 Drizzle 20 1015 94 8000 5.7 170 17:59 26.09.2019
1261 Drizzle 20 1015 94 8000 5.7 170 17:37 26.09.2019
1262 Drizzle 20 1015 94 8000 5.7 170 17:19 26.09.2019
1263 -273 0 0 0 0 0 16:55 26.09.2019
1264 Rain 20 1014 94 10000 6.2 180 16:37 26.09.2019
1265 Rain 20 1014 94 10000 6.2 180 16:18 26.09.2019
1266 Rain 20 1013 88 10000 4.6 180 15:41 26.09.2019
1267 Rain 20 1013 88 10000 4.6 180 15:22 26.09.2019
1268 Rain 20 1013 88 10000 4.6 190 14:58 26.09.2019
1269 Rain 20 1013 88 10000 4.6 190 14:39 26.09.2019
1270 Rain 20 1013 88 10000 4.6 190 14:21 26.09.2019
1271 Rain 19 1015 90 0 6.03 179.857 13:55 26.09.2019
1272 Rain 19 1015 90 0 6.03 179.857 13:37 26.09.2019
1273 Rain 19 1014 89 0 5.65 181.846 13:18 26.09.2019
1274 Rain 19 1014 89 0 5.65 181.846 12:41 26.09.2019
1275 Rain 19 1013 90 0 5.97 187.993 12:22 26.09.2019
1276 Rain 19 1013 90 0 5.97 187.993 11:55 26.09.2019
1277 Rain 19 1013 90 0 5.97 187.993 11:37 26.09.2019
1278 Rain 19 1013 90 0 5.97 187.993 11:37 26.09.2019
1279 Rain 19 1013 90 0 5.97 187.993 11:19 26.09.2019
1280 Rain 19 1013 90 0 5.97 187.993 10:42 26.09.2019
1281 Rain 19 1013 90 0 5.97 187.993 10:23 26.09.2019
1282 Rain 19 1013 90 0 5.97 187.993 09:57 26.09.2019
1283 Rain 19 1013 90 0 5.97 187.993 09:39 26.09.2019
1284 Rain 19 1013 90 0 5.97 187.993 09:39 26.09.2019
1285 Clouds 19 1015 90 0 6.08 184.957 09:18 26.09.2019
1286 Clear 19 1015 90 0 6.01 184.416 08:47 26.09.2019
1287 Clear 19 1015 90 0 6.01 184.416 08:29 26.09.2019
1288 Clear 19 1015 90 0 6.01 184.416 07:45 26.09.2019
1289 Clear 19 1015 90 0 6.01 184.416 07:22 26.09.2019
1290 Clear 19 1015 90 0 6.01 184.416 06:50 26.09.2019
1291 Clear 19 1015 90 0 6.01 184.416 06:28 26.09.2019
1292 Clear 20 1016 90 0 4.15 182.461 05:51 26.09.2019
1293 Clear 20 1016 90 0 4.15 182.461 05:25 26.09.2019
1294 Clouds 21 1012 83 10000 4.6 180 03:18 26.09.2019
1295 Clouds 22 1011 78 10000 5.1 180 01:55 26.09.2019
1296 Clouds 22 1011 78 10000 5.1 180 01:55 26.09.2019
1297 Clouds 22 1011 78 10000 5.1 180 01:32 26.09.2019
1298 Clouds 23 1011 73 10000 5.1 200 00:58 26.09.2019
1299 Clouds 23 1011 73 10000 5.1 200 00:38 26.09.2019
1300 Clouds 23 1011 73 10000 5.1 200 00:20 26.09.2019
1301 Clouds 24 1011 69 10000 6.2 180 23:42 25.09.2019
1302 Clouds 24 1011 69 10000 6.2 180 23:19 25.09.2019
1303 Clouds 23 1012 73 10000 7.7 180 22:43 25.09.2019
1304 Clouds 23 1012 73 10000 7.7 180 22:21 25.09.2019
1305 Clouds 23 1012 73 10000 7.7 180 22:21 25.09.2019
1306 Clouds 23 1013 78 10000 8.2 160 21:58 25.09.2019
1307 Clouds 23 1013 78 10000 8.2 160 21:40 25.09.2019
1308 Clouds 23 1013 78 10000 8.2 160 21:19 25.09.2019
1309 Clouds 23 1014 78 10000 7.7 170 20:58 25.09.2019
1310 Clouds 23 1014 78 10000 7.7 170 20:40 25.09.2019
1311 Clouds 23 1014 78 10000 7.7 170 20:22 25.09.2019
1312 Clouds 23 1015 78 10000 6.7 160 19:55 25.09.2019
1313 Clouds 23 1015 78 10000 6.7 160 19:36 25.09.2019
1314 Rain 22 1015 83 10000 7.2 160 19:18 25.09.2019
1315 Rain 22 1015 83 10000 7.2 160 18:55 25.09.2019
1316 Rain 22 1015 83 10000 7.2 160 18:37 25.09.2019
1317 Rain 21 1015 88 10000 7.7 170 18:18 25.09.2019
1318 Rain 21 1015 88 10000 7.7 170 17:39 25.09.2019
1319 Rain 21 1015 88 10000 7.7 170 17:19 25.09.2019
1320 Drizzle 20 1015 94 10000 6.7 170 16:56 25.09.2019
1321 Drizzle 20 1015 94 10000 6.7 170 16:36 25.09.2019
1322 Drizzle 20 1015 94 10000 6.7 170 16:18 25.09.2019
1323 Rain 20 1014 94 10000 5.1 180 15:41 25.09.2019
1324 Rain 20 1014 94 10000 5.1 180 15:41 25.09.2019
1325 Rain 20 1014 94 10000 5.1 180 15:41 25.09.2019
1326 Rain 20 1014 94 10000 5.1 180 15:23 25.09.2019
1327 Rain 19 1013 93 8000 6.7 170 14:57 25.09.2019
1328 Rain 19 1013 93 8000 6.7 170 14:39 25.09.2019
1329 Rain 19 1013 93 8000 6.7 170 14:39 25.09.2019
1330 Rain 19 1013 93 8000 6.7 170 14:21 25.09.2019
1331 Rain 20 1015 93 0 5.9 177.349 13:42 25.09.2019
1332 Rain 20 1016 93 0 5.76 176.516 13:24 25.09.2019
1333 Rain 20 1016 93 0 5.76 176.516 12:59 25.09.2019
1334 Rain 20 1016 93 0 5.76 176.516 12:39 25.09.2019
1335 Clouds 20 1014 93 0 6.69 188.566 12:21 25.09.2019
1336 Clouds 20 1014 93 0 6.69 188.566 11:55 25.09.2019
1337 Clouds 20 1014 93 0 6.69 188.566 11:36 25.09.2019
1338 Clouds 20 1014 93 0 6.69 188.566 11:18 25.09.2019
1339 Clouds 20 1014 93 0 6.69 188.566 10:43 25.09.2019
1340 Clouds 20 1014 93 0 6.69 188.566 10:24 25.09.2019
1341 Clouds 20 1014 93 0 6.69 188.566 09:56 25.09.2019
1342 Clouds 20 1014 93 0 6.69 188.566 09:37 25.09.2019
1343 Clouds 20 1016 93 0 5.69 187.865 09:19 25.09.2019
1344 Clouds 20 1015 92 0 5.78 190.964 08:42 25.09.2019
1345 Clouds 20 1015 92 0 5.78 190.964 08:21 25.09.2019
1346 Clouds 20 1015 92 0 5.78 190.964 07:57 25.09.2019
1347 Clouds 20 1015 92 0 5.78 190.964 07:38 25.09.2019
1348 Clouds 20 1015 92 0 5.78 190.964 07:19 25.09.2019
1349 Clouds 20 1015 92 0 5.78 190.964 06:43 25.09.2019
1350 Clouds 20 1016 92 0 5.59 187.872 06:21 25.09.2019
1351 Clouds 20 1016 92 0 5.59 187.872 05:27 25.09.2019
1352 Clouds 20 1016 92 0 5.59 187.872 04:50 25.09.2019
1353 Clouds 21 1013 83 10000 5.1 180 02:18 25.09.2019
1354 Clouds 23 1012 73 10000 6.7 190 00:44 25.09.2019
1355 Clouds 23 1012 73 10000 6.7 190 00:24 25.09.2019
1356 Clouds 24 1012 69 10000 6.2 170 23:55 24.09.2019
1357 Clouds 24 1012 69 10000 6.2 170 23:36 24.09.2019
1358 Clouds 24 1012 69 10000 6.2 170 23:36 24.09.2019
1359 Clouds 24 1012 69 10000 6.2 170 23:18 24.09.2019
1360 Clouds 24 1013 69 10000 6.7 160 22:39 24.09.2019
1361 Clouds 24 1013 69 10000 6.7 160 22:20 24.09.2019
1362 Clouds 23 1013 73 10000 7.7 170 21:56 24.09.2019
1363 Clouds 23 1013 73 10000 7.7 170 21:37 24.09.2019
1364 Clouds 23 1013 73 10000 7.7 170 21:19 24.09.2019
1365 Clouds 23 1014 73 10000 7.2 170 20:57 24.09.2019
1366 Clouds 23 1014 73 10000 7.2 170 20:38 24.09.2019
1367 Clouds 23 1014 73 10000 7.2 170 20:20 24.09.2019
1368 Clouds 23 1015 73 10000 7.2 170 19:43 24.09.2019
1369 Clouds 23 1015 73 10000 7.2 170 19:21 24.09.2019
1370 Clouds 23 1015 73 10000 7.2 170 18:59 24.09.2019
1371 Clouds 23 1015 73 10000 7.2 170 18:40 24.09.2019
1372 Clouds 23 1015 73 10000 7.2 170 18:21 24.09.2019
1373 Clouds 22 1015 78 10000 7.2 180 17:57 24.09.2019
1374 Clouds 22 1015 78 10000 7.2 180 17:38 24.09.2019
1375 Clouds 22 1015 78 10000 7.2 180 17:20 24.09.2019
1376 Clouds 20 1015 88 10000 6.2 160 16:55 24.09.2019
1377 Clouds 20 1015 88 10000 6.2 160 16:37 24.09.2019
1378 Clouds 20 1015 88 10000 6.2 160 16:18 24.09.2019
1379 Clouds 20 1014 88 10000 5.1 150 15:41 24.09.2019
1380 Clouds 20 1014 88 10000 5.1 150 15:23 24.09.2019
1381 Clouds 19 1013 88 10000 4.1 160 14:41 24.09.2019
1382 Clouds 19 1013 88 10000 4.1 160 14:19 24.09.2019
1383 Rain 20 1015 93 0 4.32 167.696 13:45 24.09.2019
1384 Rain 19 1015 91 0 4.3 164.457 13:24 24.09.2019
1385 Rain 19 1015 91 0 4.3 164.457 12:59 24.09.2019
1386 Rain 19 1015 91 0 4.3 164.457 12:39 24.09.2019
1387 Clouds 19 1014 91 0 3.7 160.581 12:18 24.09.2019
1388 Clouds 19 1014 91 0 3.7 160.581 11:43 24.09.2019
1389 Clouds 19 1014 91 0 3.7 160.581 11:43 24.09.2019
1390 Clouds 19 1014 91 0 3.7 160.581 11:22 24.09.2019
1391 Clouds 19 1014 91 0 3.7 160.581 10:57 24.09.2019
1392 Clouds 19 1014 91 0 3.7 160.581 10:37 24.09.2019
1393 Clouds 19 1014 91 0 3.7 160.581 10:19 24.09.2019
1394 Clouds 19 1014 91 0 3.7 160.581 09:46 24.09.2019
1395 Clouds 19 1014 91 0 3.7 160.581 09:27 24.09.2019
1396 Clouds 19 1015 91 0 3.55 146.583 08:57 24.09.2019
1397 Clouds 19 1015 90 0 3.94 152.119 08:38 24.09.2019
1398 Clouds 19 1015 90 0 3.94 152.119 08:20 24.09.2019
1399 Clouds 19 1015 90 0 3.94 152.119 07:52 24.09.2019
1400 Clouds 19 1015 90 0 3.94 152.119 07:25 24.09.2019
1401 Clouds 19 1015 90 0 3.94 152.119 06:56 24.09.2019
1402 Clouds 19 1015 90 0 3.94 152.119 06:32 24.09.2019
1403 Clear 19 1015 90 0 4.12 144.063 05:51 24.09.2019
1404 Clear 19 1015 90 0 4.12 144.063 05:20 24.09.2019
1405 Clear 19 1015 90 0 4.12 144.063 03:44 24.09.2019
1406 Clouds 20 1011 82 10000 6.2 150 02:48 24.09.2019
1407 Clouds 20 1011 82 10000 6.2 150 02:30 24.09.2019
1408 Clouds 22 1010 78 10000 6.7 140 00:44 24.09.2019
1409 Clouds 22 1010 78 10000 6.7 140 00:26 24.09.2019
1410 Clouds 22 1011 78 10000 6.7 150 23:58 23.09.2019
1411 Clouds 22 1011 78 10000 6.7 150 23:40 23.09.2019
1412 Clouds 22 1011 78 10000 6.7 150 23:20 23.09.2019
1413 Clouds 22 1012 78 10000 6.7 160 22:39 23.09.2019
1414 Clouds 22 1012 78 10000 6.7 160 22:21 23.09.2019
1415 Clouds 23 1012 73 10000 6.7 160 21:58 23.09.2019
1416 Clouds 23 1012 73 10000 6.7 160 21:39 23.09.2019
1417 Clouds 23 1012 73 10000 6.7 160 21:19 23.09.2019
1418 Rain 22 1014 83 10000 7.7 140 20:41 23.09.2019
1419 Rain 22 1014 83 10000 7.7 140 20:20 23.09.2019
1420 Rain 22 1015 83 10000 4.6 130 19:59 23.09.2019
1421 Rain 22 1015 83 10000 4.6 130 19:39 23.09.2019
1422 Rain 22 1015 83 10000 4.6 130 19:21 23.09.2019
1423 Rain 21 1015 88 10000 6.2 140 18:55 23.09.2019
1424 Rain 21 1015 88 10000 6.2 140 18:37 23.09.2019
1425 Rain 21 1015 88 10000 6.2 140 18:37 23.09.2019
1426 Rain 21 1015 88 10000 5.1 170 18:18 23.09.2019
1427 Rain 21 1015 88 10000 5.1 170 17:55 23.09.2019
1428 Rain 21 1015 88 10000 5.1 170 17:55 23.09.2019
1429 Rain 21 1015 88 10000 5.1 170 17:36 23.09.2019
1430 Rain 21 1015 88 10000 5.1 170 17:36 23.09.2019
1431 Rain 21 1015 88 10000 5.1 170 17:18 23.09.2019
1432 Rain 20 1015 88 10000 4.6 150 16:39 23.09.2019
1433 Rain 20 1015 88 10000 4.6 150 16:21 23.09.2019
1434 Drizzle 19 1015 93 8000 5.1 160 15:59 23.09.2019
1435 Drizzle 19 1015 93 8000 5.1 160 15:40 23.09.2019
1436 Drizzle 19 1015 93 8000 5.1 160 15:19 23.09.2019
1437 Rain 19 1014 93 10000 5.1 150 14:57 23.09.2019
1438 Rain 19 1014 93 10000 5.1 150 14:36 23.09.2019
1439 Rain 19 1014 93 10000 5.1 150 14:18 23.09.2019
1440 Rain 19 1015 90 0 3.95 146.865 13:40 23.09.2019
1441 Rain 19 1016 88 0 3.74 145.68 13:19 23.09.2019
1442 Rain 19 1016 88 0 3.74 145.68 13:19 23.09.2019
1443 Rain 19 1016 88 0 3.74 145.68 12:59 23.09.2019
1444 Rain 19 1016 88 0 3.74 145.68 12:40 23.09.2019
1445 Clouds 19 1014 86 0 3.73 169.672 12:21 23.09.2019
1446 Clouds 19 1014 86 0 3.73 169.672 11:45 23.09.2019
1447 Clouds 19 1014 86 0 3.73 169.672 11:26 23.09.2019
1448 Clouds 19 1014 86 0 3.73 169.672 10:57 23.09.2019
1449 Clouds 19 1014 86 0 3.73 169.672 10:39 23.09.2019
1450 Clouds 19 1014 86 0 3.73 169.672 10:20 23.09.2019
1451 Clouds 19 1014 86 0 3.73 169.672 10:20 23.09.2019
1452 Clouds 19 1014 86 0 3.73 169.672 09:40 23.09.2019
1453 Clouds 19 1015 83 0 4 165.588 09:21 23.09.2019
1454 Clouds 19 1015 83 0 4 165.588 08:57 23.09.2019
1455 Clouds 19 1015 83 0 4.09 169.328 08:38 23.09.2019
1456 Clouds 19 1015 83 0 4.09 169.328 08:18 23.09.2019
1457 Clouds 19 1015 83 0 4.09 169.328 07:33 23.09.2019
1458 Clouds 19 1015 83 0 4.09 169.328 06:50 23.09.2019
1459 Clouds 19 1016 81 0 4.44 163.688 06:18 23.09.2019
1460 Clouds 19 1016 81 0 4.44 163.688 05:22 23.09.2019
1461 Clouds 19 1016 81 0 4.44 163.688 04:55 23.09.2019
1462 Clouds 19 1016 81 0 4.44 163.688 03:56 23.09.2019
1463 Clouds 20 1011 82 10000 6.2 140 01:22 23.09.2019
1464 Clouds 21 1011 73 10000 8.2 170 00:23 23.09.2019
1465 Clouds 22 1011 68 10000 7.7 170 23:57 22.09.2019
1466 Clouds 22 1011 68 10000 7.7 170 23:33 22.09.2019
1467 Clouds 22 1011 68 10000 7.7 170 23:33 22.09.2019
1468 Clouds 23 1012 64 10000 8.2 160 22:59 22.09.2019
1469 Clouds 23 1012 64 10000 8.2 160 22:41 22.09.2019
1470 Clouds 23 1012 64 10000 8.2 160 22:23 22.09.2019
1471 Clouds 23 1012 64 10000 8.2 160 22:23 22.09.2019
1472 Clouds 23 1013 64 10000 7.2 150 21:55 22.09.2019
1473 Clouds 23 1013 64 10000 7.2 150 21:37 22.09.2019
1474 Clouds 23 1013 64 10000 7.2 150 21:37 22.09.2019
1475 Clouds 23 1013 64 10000 7.2 150 21:19 22.09.2019
1476 Clouds 22 1013 68 10000 8.7 170 20:42 22.09.2019
1477 Clouds 22 1013 68 10000 8.7 170 20:23 22.09.2019
1478 Clouds 23 1014 64 10000 7.7 170 19:55 22.09.2019
1479 Clouds 23 1014 64 10000 7.7 170 19:55 22.09.2019
1480 Clouds 23 1014 64 10000 7.7 170 19:37 22.09.2019
1481 Clouds 21 1015 73 10000 6.7 160 19:18 22.09.2019
1482 Clouds 21 1015 73 10000 6.7 160 18:42 22.09.2019
1483 Clouds 21 1015 73 10000 6.7 160 18:20 22.09.2019
1484 Clouds 21 1015 68 10000 7.2 160 17:59 22.09.2019
1485 Clouds 21 1015 68 10000 7.2 160 17:41 22.09.2019
1486 Clouds 21 1015 68 10000 7.2 160 17:20 22.09.2019
1487 Clouds 20 1014 82 10000 6.2 170 16:45 22.09.2019
1488 Clouds 20 1014 82 10000 6.2 170 16:27 22.09.2019
1489 Clouds 20 1014 72 10000 6.7 170 15:57 22.09.2019
1490 Clouds 20 1014 72 10000 6.7 170 15:38 22.09.2019
1491 Clouds 20 1014 72 10000 6.7 170 15:19 22.09.2019
1492 Clouds 20 1013 72 10000 5.7 170 14:43 22.09.2019
1493 Clouds 20 1013 72 10000 5.7 170 14:25 22.09.2019
1494 Clouds 19 1015 80 0 6.58 156.784 13:59 22.09.2019
1495 Clouds 19 1015 80 0 6.58 156.784 13:40 22.09.2019
1496 Clouds 19 1015 80 0 6.58 156.784 13:40 22.09.2019
1497 Clouds 19 1015 79 0 6.19 156.362 13:21 22.09.2019
1498 Clouds 19 1015 79 0 6.19 156.362 12:44 22.09.2019
1499 Clouds 19 1014 78 0 5.91 168.02 12:24 22.09.2019
1500 Clouds 19 1014 78 0 5.91 168.02 11:59 22.09.2019
1501 Clouds 19 1014 78 0 5.91 168.02 11:40 22.09.2019
1502 Clouds 19 1014 78 0 5.91 168.02 11:22 22.09.2019
1503 Clouds 19 1014 78 0 5.91 168.02 10:44 22.09.2019
1504 Clouds 19 1014 78 0 5.91 168.02 10:20 22.09.2019
1505 Clouds 19 1014 78 0 5.91 168.02 09:58 22.09.2019
1506 Clouds 19 1014 78 0 5.91 168.02 09:38 22.09.2019
1507 Clouds 19 1017 80 0 6.49 162.084 09:19 22.09.2019
1508 Clouds 19 1017 80 0 6.55 164.793 08:45 22.09.2019
1509 Clouds 19 1017 80 0 6.55 164.793 08:24 22.09.2019
1510 Clouds 19 1017 80 0 6.55 164.793 08:24 22.09.2019
1511 Clouds 19 1017 80 0 6.55 164.793 07:55 22.09.2019
1512 Clouds 19 1017 80 0 6.55 164.793 07:36 22.09.2019
1513 Clouds 19 1017 80 0 6.55 164.793 07:18 22.09.2019
1514 Clouds 19 1017 80 0 6.55 164.793 06:53 22.09.2019
1515 Clouds 19 1016 81 0 5.3 171.235 05:25 22.09.2019
1516 Clouds 21 1012 73 10000 7.2 160 03:31 22.09.2019
1517 Clouds 21 1012 73 10000 7.2 160 02:37 22.09.2019
1518 Clouds 21 1012 73 10000 7.2 160 02:18 22.09.2019
1519 Clouds 22 1011 68 10000 8.2 170 00:58 22.09.2019
1520 Clouds 22 1011 68 10000 8.2 170 00:33 22.09.2019
1521 Clouds 24 1011 60 10000 8.2 170 23:57 21.09.2019
1522 Clouds 24 1011 60 10000 8.2 170 23:39 21.09.2019
1523 Clouds 23 1012 64 10000 8.2 170 22:59 21.09.2019
1524 Clouds 23 1012 64 10000 8.2 170 22:38 21.09.2019
1525 Clouds 23 1012 64 10000 8.2 170 22:38 21.09.2019
1526 Clouds 23 1012 64 10000 8.2 170 22:20 21.09.2019
1527 Clouds 24 1012 60 10000 9.3 180 21:42 21.09.2019
1528 Clouds 24 1012 60 10000 9.3 180 21:20 21.09.2019
1529 Clouds 24 1013 60 10000 9.3 170 20:58 21.09.2019
1530 Clouds 24 1013 60 10000 9.3 170 20:38 21.09.2019
1531 Clouds 24 1013 60 10000 9.3 170 20:38 21.09.2019
1532 Clouds 24 1013 60 10000 9.3 170 20:19 21.09.2019
1533 Clouds 24 1013 60 10000 9.3 170 20:19 21.09.2019
1534 Clouds 23 1014 64 10000 9.3 170 19:46 21.09.2019
1535 Clouds 23 1014 64 10000 9.3 170 19:22 21.09.2019
1536 Clouds 23 1014 69 10000 8.2 170 18:42 21.09.2019
1537 Clouds 23 1014 69 10000 8.2 170 18:22 21.09.2019
1538 Rain 19 1017 81 0 6.36 170.206 17:44 21.09.2019
1539 Clouds 21 1014 77 10000 7.2 180 17:24 21.09.2019
1540 Clouds 21 1014 77 10000 7.2 180 16:58 21.09.2019
1541 Clouds 21 1014 77 10000 7.2 180 16:40 21.09.2019
1542 Clouds 21 1014 77 10000 7.2 180 16:20 21.09.2019
1543 Clouds 20 1014 82 10000 6.7 170 15:45 21.09.2019
1544 Clouds 20 1014 82 10000 6.7 170 15:23 21.09.2019
1545 Clouds 20 1013 77 10000 6.2 190 14:50 21.09.2019
1546 Clouds 20 1013 77 10000 6.2 190 14:32 21.09.2019
1547 Clouds 19 1015 82 0 7.4 174.728 13:55 21.09.2019
1548 Clouds 19 1015 82 0 7.4 174.728 13:37 21.09.2019
1549 Clouds 19 1015 81 0 7.31 176.134 13:18 21.09.2019
1550 Clouds 19 1015 81 0 7.31 176.134 12:55 21.09.2019
1551 Clouds 19 1015 81 0 7.31 176.134 12:36 21.09.2019
1552 Clouds 19 1014 83 0 6.21 185.889 12:18 21.09.2019
1553 Clouds 19 1014 83 0 6.21 185.889 11:42 21.09.2019
1554 Clouds 19 1014 83 0 6.21 185.889 11:23 21.09.2019
1555 Clouds 19 1014 83 0 6.21 185.889 10:43 21.09.2019
1556 Clouds 19 1014 83 0 6.21 185.889 10:24 21.09.2019
1557 Clouds 19 1014 83 0 6.21 185.889 09:57 21.09.2019
1558 Clouds 19 1014 83 0 6.21 185.889 09:38 21.09.2019
1559 Clouds 19 1016 84 0 6.63 170.973 09:20 21.09.2019
1560 Clouds 19 1016 84 0 6.63 170.973 08:51 21.09.2019
1561 Clouds 19 1016 82 0 6.74 174.16 08:27 21.09.2019
1562 Clouds 19 1016 82 0 6.74 174.16 07:41 21.09.2019
1563 Clouds 19 1016 82 0 6.74 174.16 07:23 21.09.2019
1564 Clouds 19 1016 82 0 6.74 174.16 06:49 21.09.2019
1565 Clouds 19 1016 82 0 6.74 174.16 06:49 21.09.2019
1566 Clouds 19 1016 82 0 6.74 174.16 06:30 21.09.2019
1567 Clouds 19 1016 84 0 6.12 173.361 04:50 21.09.2019
1568 Clouds 19 1016 84 0 6.12 173.361 04:50 21.09.2019
1569 Clouds 19 1016 84 0 6.12 173.361 04:32 21.09.2019
1570 Clouds 20 1011 77 10000 5.1 170 02:30 21.09.2019
1571 Clouds 20 1011 82 10000 6.2 180 01:53 21.09.2019
1572 Clouds 20 1011 82 10000 6.2 180 01:34 21.09.2019
1573 Clouds 20 1011 82 10000 6.2 180 00:39 21.09.2019
1574 Clouds 20 1011 82 10000 6.2 180 00:18 21.09.2019
1575 Clouds 21 1011 83 10000 7.2 180 23:42 20.09.2019
1576 Clouds 21 1011 83 10000 7.2 180 23:42 20.09.2019
1577 Clouds 21 1011 83 10000 7.2 180 23:22 20.09.2019
1578 Clouds 22 1011 78 10000 8.2 180 22:41 20.09.2019
1579 Clouds 22 1011 78 10000 8.2 180 22:23 20.09.2019
1580 Clouds 22 1012 78 10000 7.7 180 21:56 20.09.2019
1581 Clouds 22 1012 78 10000 7.7 180 21:56 20.09.2019
1582 Clouds 22 1012 78 10000 7.7 180 21:37 20.09.2019
1583 Clouds 22 1012 78 10000 7.7 180 21:18 20.09.2019
1584 Clouds 23 1013 73 10000 7.2 180 20:42 20.09.2019
1585 Clouds 23 1013 73 10000 7.2 180 20:42 20.09.2019
1586 Clouds 23 1013 73 10000 7.2 180 20:21 20.09.2019
1587 Clouds 23 1013 73 10000 7.2 180 20:21 20.09.2019
1588 Clouds 23 1013 73 10000 7.2 180 20:21 20.09.2019
1589 Clouds 23 1013 73 10000 7.7 180 19:59 20.09.2019
1590 Clouds 23 1013 73 10000 7.7 180 19:40 20.09.2019
1591 Clouds 21 1013 83 10000 7.2 180 19:20 20.09.2019
1592 Clouds 21 1013 83 10000 7.2 180 18:40 20.09.2019
1593 Clouds 21 1013 83 10000 7.2 180 18:21 20.09.2019
1594 Drizzle 20 1013 88 10000 7.2 180 17:59 20.09.2019
1595 Drizzle 20 1013 88 10000 7.2 180 17:41 20.09.2019
1596 Drizzle 20 1013 88 10000 7.2 180 17:22 20.09.2019
1597 Clouds 20 1013 88 10000 6.7 170 16:41 20.09.2019
1598 Clouds 20 1013 88 10000 6.7 170 16:19 20.09.2019
1599 Clouds 19 1012 93 10000 6.7 160 15:43 20.09.2019
1600 Clouds 19 1012 93 10000 6.7 160 15:24 20.09.2019
1601 Clouds 19 1012 93 10000 6.7 160 14:59 20.09.2019
1602 Clouds 19 1014 88 0 7.17 188.391 14:41 20.09.2019
1603 Clouds 19 1014 88 0 7.17 188.391 14:18 20.09.2019
1604 Clouds 19 1014 88 0 7.17 188.391 13:47 20.09.2019
1605 Clouds 19 1015 88 0 7.24 192.494 13:27 20.09.2019
1606 Clouds 19 1015 88 0 7.24 192.494 12:57 20.09.2019
1607 Clouds 19 1015 88 0 7.24 192.494 12:36 20.09.2019
1608 Clouds 19 1013 88 0 7.61 194.392 12:18 20.09.2019
1609 Clouds 19 1013 88 0 7.61 194.392 11:48 20.09.2019
1610 Clouds 19 1013 88 0 7.61 194.392 11:20 20.09.2019
1611 Clouds 19 1013 88 0 7.61 194.392 10:43 20.09.2019
1612 Clouds 19 1013 88 0 7.61 194.392 10:24 20.09.2019
1613 Clouds 19 1013 88 0 7.61 194.392 09:55 20.09.2019
1614 Clouds 19 1013 88 0 7.61 194.392 09:36 20.09.2019
1615 Clouds 19 1013 88 0 7.61 194.392 09:36 20.09.2019
1616 Clouds 19 1015 88 0 6.39 191.85 09:18 20.09.2019
1617 Clouds 19 1015 88 0 6.39 191.85 08:41 20.09.2019
1618 Clouds 19 1015 88 0 6.39 191.85 08:21 20.09.2019
1619 Clouds 19 1015 88 0 6.39 191.85 07:45 20.09.2019
1620 Clouds 19 1015 90 0 6.38 191.722 07:25 20.09.2019
1621 Clouds 19 1015 90 0 6.38 191.722 06:44 20.09.2019
1622 Clouds 19 1015 89 0 5.79 189.822 06:20 20.09.2019
1623 Clouds 19 1015 89 0 5.79 189.822 05:42 20.09.2019
1624 Drizzle 19 1010 93 10000 6.2 160 03:30 20.09.2019
1625 Drizzle 19 1010 93 10000 6.2 160 02:45 20.09.2019
1626 Clouds 20 1010 88 10000 6.2 170 01:44 20.09.2019
1627 Clouds 20 1009 82 10000 7.2 160 00:46 20.09.2019
1628 Clouds 21 1009 83 10000 7.2 150 23:59 19.09.2019
1629 Clouds 21 1009 83 10000 7.2 150 23:41 19.09.2019
1630 Clouds 21 1009 83 10000 7.2 150 23:18 19.09.2019
1631 Clouds 22 1010 83 10000 8.2 160 22:41 19.09.2019
1632 Clouds 22 1010 83 10000 8.2 160 22:41 19.09.2019
1633 Clouds 22 1010 83 10000 8.2 160 22:23 19.09.2019
1634 Clouds 22 1011 83 10000 7.2 160 21:58 19.09.2019
1635 Clouds 22 1011 83 10000 7.2 160 21:39 19.09.2019
1636 Clouds 22 1011 83 10000 7.2 160 21:39 19.09.2019
1637 Clouds 22 1011 83 10000 7.2 160 21:20 19.09.2019
1638 Clouds 19 1014 86 0 5.5 175.188 20:59 19.09.2019
1639 Clouds 19 1015 85 0 5.38 179.158 20:40 19.09.2019
1640 Clouds 19 1015 85 0 5.38 179.158 20:19 19.09.2019
1641 Clouds 19 1015 85 0 5.38 179.158 19:54 19.09.2019
1642 Clouds 19 1015 85 0 5.38 179.158 19:54 19.09.2019
1643 Drizzle 20 1013 88 3000 5.1 170 19:36 19.09.2019
1644 Drizzle 20 1013 88 3000 5.1 170 19:36 19.09.2019
1645 Drizzle 20 1013 88 3000 5.1 170 19:18 19.09.2019
1646 Drizzle 19 1014 93 5000 5.7 170 18:41 19.09.2019
1647 Drizzle 19 1014 93 2000 4.1 160 18:22 19.09.2019
1648 Drizzle 19 1014 93 2000 4.1 160 17:43 19.09.2019
1649 Drizzle 19 1014 93 2000 4.1 160 17:24 19.09.2019
1650 Drizzle 19 1014 93 3000 5.7 170 16:59 19.09.2019
1651 Drizzle 19 1014 93 3000 5.7 170 16:40 19.09.2019
1652 Drizzle 19 1014 93 3000 5.7 170 16:40 19.09.2019
1653 Drizzle 19 1014 93 3000 5.7 170 16:20 19.09.2019
1654 Clouds 19 1016 86 0 5.3 165.526 15:41 19.09.2019
1655 Clouds 19 1015 87 0 5.38 168.782 15:21 19.09.2019
1656 Clouds 19 1015 87 0 5.38 168.782 14:58 19.09.2019
1657 Clouds 19 1015 87 0 5.38 168.782 14:39 19.09.2019
1658 Clouds 19 1015 87 0 5.38 168.782 14:20 19.09.2019
1659 Clouds 19 1015 87 0 5.38 168.782 13:40 19.09.2019
1660 Clouds 19 1014 85 0 5.08 169.144 13:21 19.09.2019
1661 Clouds 19 1014 85 0 5.08 169.144 12:58 19.09.2019
1662 Clouds 19 1014 85 0 5.08 169.144 12:36 19.09.2019
1663 Clouds 19 1013 87 0 5.18 176.073 12:18 19.09.2019
1664 Clouds 19 1013 87 0 5.18 176.073 11:41 19.09.2019
1665 Clouds 19 1013 87 0 5.18 176.073 11:41 19.09.2019
1666 Clouds 19 1013 87 0 5.18 176.073 11:21 19.09.2019
1667 Clouds 19 1013 87 0 5.18 176.073 10:58 19.09.2019
1668 Clouds 19 1013 87 0 5.18 176.073 10:37 19.09.2019
1669 Clouds 19 1013 87 0 5.18 176.073 10:18 19.09.2019
1670 Clouds 19 1013 87 0 5.18 176.073 09:42 19.09.2019
1671 Clouds 19 1015 88 0 4.47 175.465 09:22 19.09.2019
1672 Clouds 19 1015 88 0 4.47 175.465 08:56 19.09.2019
1673 Clouds 19 1016 88 0 4.59 177.325 08:37 19.09.2019
1674 Clouds 19 1016 88 0 4.59 177.325 08:19 19.09.2019
1675 Clouds 19 1016 88 0 4.59 177.325 07:43 19.09.2019
1676 Clouds 19 1016 88 0 4.59 177.325 07:22 19.09.2019
1677 Clouds 19 1016 88 0 4.59 177.325 06:47 19.09.2019
1678 Clouds 19 1016 88 0 4.59 177.325 06:27 19.09.2019
1679 Clouds 19 1015 87 0 4.14 177.024 05:52 19.09.2019
1680 Clouds 19 1015 87 0 4.14 177.024 04:44 19.09.2019
1681 Clouds 19 1015 87 0 4.14 177.024 03:51 19.09.2019
1682 Clouds 20 1011 82 10000 5.1 170 02:30 19.09.2019
1683 Clouds 20 1011 82 10000 5.1 190 01:23 19.09.2019
1684 Clouds 20 1011 77 10000 5.1 180 00:50 19.09.2019
1685 Clouds 20 1011 77 10000 5.1 180 00:25 19.09.2019
1686 Clouds 20 1011 77 10000 5.1 180 00:25 19.09.2019
1687 Clouds 21 1011 77 10000 5.1 190 23:42 18.09.2019
1688 Clouds 21 1011 77 10000 5.1 190 23:21 18.09.2019
1689 Clouds 22 1011 73 10000 5.7 170 22:47 18.09.2019
1690 Clouds 22 1011 73 10000 5.7 170 22:23 18.09.2019
1691 Clouds 21 1012 68 10000 6.2 180 21:59 18.09.2019
1692 Clouds 21 1012 68 10000 6.2 180 21:59 18.09.2019
1693 Clouds 21 1012 68 10000 6.2 180 21:40 18.09.2019
1694 Clouds 21 1012 68 10000 6.2 180 21:19 18.09.2019
1695 Clouds 22 1013 68 10000 6.7 170 20:58 18.09.2019
1696 Clouds 22 1013 68 10000 6.7 170 20:40 18.09.2019
1697 Clouds 22 1013 68 10000 6.7 170 20:40 18.09.2019
1698 Clouds 22 1013 68 10000 6.7 170 20:22 18.09.2019
1699 Clouds 22 1013 68 10000 6.7 170 20:22 18.09.2019
1700 Clouds 22 1013 68 10000 6.7 170 19:58 18.09.2019
1701 Clouds 22 1013 68 10000 6.7 170 19:39 18.09.2019
1702 Clouds 21 1014 77 10000 5.1 160 19:19 18.09.2019
1703 Clouds 21 1014 77 10000 5.1 160 18:56 18.09.2019
1704 Clouds 21 1014 77 10000 5.1 160 18:37 18.09.2019
1705 Clouds 21 1014 77 10000 5.1 140 18:19 18.09.2019
1706 Clouds 21 1014 77 10000 5.1 140 18:19 18.09.2019
1707 Clouds 21 1014 77 10000 5.1 140 17:57 18.09.2019
1708 Clouds 21 1014 77 10000 5.1 140 17:39 18.09.2019
1709 Clouds 21 1014 77 10000 5.1 140 17:19 18.09.2019
1710 Clouds 19 1016 83 0 4.11 154.857 16:56 18.09.2019
1711 Clouds 19 1016 83 0 4.11 154.857 16:37 18.09.2019
1712 Clouds 18 1013 88 10000 4.1 140 16:18 18.09.2019
1713 Clouds 18 1013 88 10000 4.1 140 15:55 18.09.2019
1714 Clouds 18 1013 88 10000 4.1 140 15:36 18.09.2019
1715 Clouds 18 1013 88 10000 4.1 140 15:18 18.09.2019
1716 Clouds 17 1012 88 10000 2.6 150 14:57 18.09.2019
1717 Clouds 17 1012 88 10000 2.6 150 14:37 18.09.2019
1718 Clouds 17 1012 88 10000 2.6 150 14:37 18.09.2019
1719 Clouds 17 1012 88 10000 2.6 150 14:19 18.09.2019
1720 Clouds 19 1015 83 0 3.78 151.774 13:40 18.09.2019
1721 Clouds 19 1015 82 0 3.69 160.425 13:19 18.09.2019
1722 Clouds 19 1015 82 0 3.69 160.425 12:53 18.09.2019
1723 Clouds 19 1015 82 0 3.69 160.425 12:31 18.09.2019
1724 Clear 18 1014 87 0 3.22 150.809 11:57 18.09.2019
1725 Clear 18 1014 87 0 3.22 150.809 11:38 18.09.2019
1726 Clear 18 1014 87 0 3.22 150.809 11:19 18.09.2019
1727 Clear 18 1014 87 0 3.22 150.809 10:40 18.09.2019
1728 Clear 18 1014 87 0 3.22 150.809 10:21 18.09.2019
1729 Clear 18 1014 87 0 3.22 150.809 09:58 18.09.2019
1730 Clear 18 1014 87 0 3.22 150.809 09:38 18.09.2019
1731 Clouds 18 1015 85 0 2.49 168.677 09:20 18.09.2019
1732 Clouds 18 1015 86 0 3.04 166.718 08:44 18.09.2019
1733 Clouds 18 1015 86 0 3.04 166.718 08:25 18.09.2019
1734 Clouds 18 1015 86 0 3.04 166.718 07:58 18.09.2019
1735 Clouds 18 1015 86 0 3.04 166.718 07:40 18.09.2019
1736 Clouds 18 1015 86 0 3.04 166.718 07:22 18.09.2019
1737 Clouds 18 1015 86 0 3.04 166.718 06:40 18.09.2019
1738 Clouds 19 1015 85 0 4.21 165.218 05:50 18.09.2019
1739 Clouds 19 1015 85 0 4.21 165.218 04:52 18.09.2019
1740 Clouds 19 1012 82 10000 5.1 160 02:54 18.09.2019
1741 Clouds 19 1012 82 10000 5.1 160 02:28 18.09.2019
1742 Clouds 20 1011 72 10000 6.2 140 01:21 18.09.2019
1743 Clouds 22 1011 64 10000 7.2 150 00:48 18.09.2019
1744 Clouds 22 1011 64 10000 7.2 150 00:20 18.09.2019
1745 Clouds 22 1011 64 10000 7.7 150 23:44 17.09.2019
1746 Clouds 22 1011 64 10000 7.7 150 23:22 17.09.2019
1747 Clouds 22 1012 64 10000 7.2 160 22:43 17.09.2019
1748 Clouds 22 1012 64 10000 7.2 160 22:24 17.09.2019
1749 Clouds 22 1013 64 10000 7.2 160 21:55 17.09.2019
1750 Clouds 22 1013 64 10000 7.2 160 21:55 17.09.2019
1751 Clouds 22 1013 64 10000 7.2 160 21:37 17.09.2019
1752 Clouds 22 1013 64 10000 7.2 160 21:19 17.09.2019
1753 Clouds 22 1013 68 10000 7.2 170 20:58 17.09.2019
1754 Clouds 22 1013 68 10000 7.2 170 20:40 17.09.2019
1755 Clouds 22 1013 68 10000 7.2 170 20:21 17.09.2019
1756 Clouds 22 1014 73 10000 7.2 170 19:58 17.09.2019
1757 Clouds 22 1014 73 10000 7.2 170 19:39 17.09.2019
1758 Clouds 21 1015 83 10000 7.2 160 19:19 17.09.2019
1759 Clouds 21 1015 83 10000 7.2 160 19:19 17.09.2019
1760 Clouds 21 1015 83 10000 7.2 160 18:56 17.09.2019
1761 Clouds 21 1015 83 10000 7.2 160 18:38 17.09.2019
1762 Clouds 21 1015 83 10000 7.2 160 18:19 17.09.2019
1763 Rain 19 1015 82 10000 6.2 150 17:44 17.09.2019
1764 Rain 19 1015 82 10000 6.2 150 17:19 17.09.2019
1765 Clouds 19 1014 88 10000 4.1 130 16:56 17.09.2019
1766 Clouds 19 1014 88 10000 4.1 130 16:37 17.09.2019
1767 Clouds 19 1014 88 10000 4.1 130 16:19 17.09.2019
1768 Rain 18 1014 93 10000 5.1 150 15:39 17.09.2019
1769 Rain 18 1014 93 10000 5.1 150 15:20 17.09.2019
1770 Clouds 19 1015 82 0 5.52 156.463 14:56 17.09.2019
1771 Clouds 19 1015 82 0 5.52 156.463 14:37 17.09.2019
1772 Clouds 19 1015 82 0 5.52 156.463 14:19 17.09.2019
1773 Clouds 19 1015 82 0 5.52 156.463 13:43 17.09.2019
1774 Clouds 19 1015 81 0 5.68 156.576 13:25 17.09.2019
1775 Clouds 19 1015 81 0 5.68 156.576 13:25 17.09.2019
1776 Clouds 19 1015 81 0 5.68 156.576 12:56 17.09.2019
1777 Clouds 19 1015 81 0 5.68 156.576 12:38 17.09.2019
1778 Clouds 19 1014 82 0 5.28 168.105 12:18 17.09.2019
1779 Clouds 19 1014 82 0 5.28 168.105 12:18 17.09.2019
1780 Clouds 19 1014 82 0 5.28 168.105 11:43 17.09.2019
1781 Clouds 19 1014 82 0 5.28 168.105 11:25 17.09.2019
1782 Clouds 19 1014 82 0 5.28 168.105 10:56 17.09.2019
1783 Clouds 19 1014 82 0 5.28 168.105 10:37 17.09.2019
1784 Clouds 19 1014 82 0 5.28 168.105 10:19 17.09.2019
1785 Clouds 19 1014 82 0 5.28 168.105 09:41 17.09.2019
1786 Clouds 19 1015 84 0 6.05 161.215 09:21 17.09.2019
1787 Clouds 19 1015 84 0 6.05 161.215 08:50 17.09.2019
1788 Clouds 19 1015 83 0 5.97 158.067 08:32 17.09.2019
1789 Clouds 19 1015 83 0 5.97 158.067 07:59 17.09.2019
1790 Clouds 19 1015 83 0 5.97 158.067 07:39 17.09.2019
1791 Clouds 19 1015 83 0 5.97 158.067 07:39 17.09.2019
1792 Clouds 19 1015 83 0 5.97 158.067 07:19 17.09.2019
1793 Clouds 19 1015 83 0 5.97 158.067 06:45 17.09.2019
1794 Clear 19 1015 86 0 5.1 161.175 06:19 17.09.2019
1795 Clear 19 1015 86 0 5.1 161.175 05:44 17.09.2019
1796 Clear 19 1015 86 0 5.1 161.175 04:29 17.09.2019
1797 Clouds 20 1010 82 10000 4.1 160 02:57 17.09.2019
1798 Clouds 20 1010 82 10000 4.1 160 02:38 17.09.2019
1799 Clouds 20 1010 82 10000 5.1 160 01:24 17.09.2019
1800 Clouds 21 1010 77 10000 6.2 170 00:33 17.09.2019
1801 Clouds 22 1010 68 10000 6.2 170 23:39 16.09.2019
1802 Clouds 22 1010 68 10000 6.2 170 23:19 16.09.2019
1803 Clouds 22 1011 68 10000 6.2 160 22:43 16.09.2019
1804 Clouds 22 1011 68 10000 6.2 160 22:25 16.09.2019
1805 Clouds 23 1012 69 10000 7.2 160 21:59 16.09.2019
1806 Clouds 23 1012 69 10000 7.2 160 21:40 16.09.2019
1807 Clouds 23 1012 69 10000 7.2 160 21:21 16.09.2019
1808 Clouds 23 1013 64 10000 8.2 170 20:59 16.09.2019
1809 Clouds 23 1013 64 10000 8.2 170 20:39 16.09.2019
1810 Clouds 23 1013 64 10000 8.2 170 20:39 16.09.2019
1811 Clouds 23 1013 64 10000 8.2 170 20:19 16.09.2019
1812 Clouds 23 1013 64 10000 7.7 160 19:56 16.09.2019
1813 Clouds 23 1013 64 10000 7.7 160 19:37 16.09.2019
1814 Clouds 23 1014 64 10000 7.2 170 19:18 16.09.2019
1815 Clouds 23 1014 64 10000 7.2 170 18:43 16.09.2019
1816 Clouds 23 1014 64 10000 7.2 170 18:25 16.09.2019
1817 Clouds 22 1014 68 10000 6.2 160 17:55 16.09.2019
1818 Clouds 22 1014 68 10000 6.2 160 17:37 16.09.2019
1819 Clouds 22 1014 68 10000 6.2 160 17:19 16.09.2019
1820 Clouds 19 1016 82 0 6.29 173.4 16:43 16.09.2019
1821 Clouds 20 1013 82 10000 5.1 170 16:21 16.09.2019
1822 Clouds 20 1013 82 10000 5.1 170 15:57 16.09.2019
1823 Clouds 20 1013 82 10000 5.1 170 15:57 16.09.2019
1824 Clouds 20 1013 82 10000 5.1 170 15:38 16.09.2019
1825 Clouds 20 1013 82 10000 5.1 170 15:38 16.09.2019
1826 Clouds 20 1013 82 10000 5.1 170 15:20 16.09.2019
1827 Clouds 19 1012 82 10000 4.6 160 14:57 16.09.2019
1828 Clouds 19 1012 82 10000 4.6 160 14:38 16.09.2019
1829 Clouds 19 1012 82 10000 4.6 160 14:20 16.09.2019
1830 Clouds 19 1014 85 0 6.15 174.214 13:40 16.09.2019
1831 Clouds 19 1015 85 0 6.26 173.791 13:22 16.09.2019
1832 Clouds 19 1015 85 0 6.26 173.791 12:54 16.09.2019
1833 Clouds 19 1015 85 0 6.26 173.791 12:54 16.09.2019
1834 Clouds 19 1015 85 0 6.26 173.791 12:54 16.09.2019
1835 Clouds 19 1015 85 0 6.26 173.791 12:36 16.09.2019
1836 Clouds 19 1013 87 0 5.45 188.745 12:18 16.09.2019
1837 Clouds 19 1013 87 0 5.45 188.745 11:44 16.09.2019
1838 Clouds 19 1013 87 0 5.45 188.745 11:21 16.09.2019
1839 Clouds 19 1013 87 0 5.45 188.745 10:40 16.09.2019
1840 Clouds 19 1013 87 0 5.45 188.745 10:40 16.09.2019
1841 Clouds 19 1013 87 0 5.45 188.745 10:40 16.09.2019
1842 Clouds 19 1013 87 0 5.45 188.745 10:21 16.09.2019
1843 Clouds 19 1013 87 0 5.45 188.745 09:58 16.09.2019
1844 Clouds 19 1013 87 0 5.45 188.745 09:40 16.09.2019
1845 Clouds 19 1014 85 0 4.83 184.348 09:20 16.09.2019
1846 Clouds 19 1014 85 0 4.83 184.348 08:47 16.09.2019
1847 Clouds 19 1015 85 0 4.5 183.044 08:28 16.09.2019
1848 Clouds 19 1015 85 0 4.5 183.044 07:57 16.09.2019
1849 Clouds 19 1015 85 0 4.5 183.044 07:38 16.09.2019
1850 Clouds 19 1015 85 0 4.5 183.044 07:20 16.09.2019
1851 Clouds 19 1015 85 0 4.5 183.044 07:20 16.09.2019
1852 Clouds 19 1015 85 0 4.5 183.044 06:46 16.09.2019
1853 Clouds 19 1015 85 0 4.5 183.044 06:46 16.09.2019
1854 Clouds 19 1015 85 0 4.5 183.044 06:28 16.09.2019
1855 Clouds 19 1015 83 0 3.97 171.88 05:53 16.09.2019
1856 Clouds 19 1015 83 0 3.97 171.88 05:32 16.09.2019
1857 Clouds 19 1015 83 0 3.97 171.88 04:49 16.09.2019
1858 Clouds 20 1010 82 10000 7.2 170 02:58 16.09.2019
1859 Clouds 22 1009 78 10000 6.7 170 00:44 16.09.2019
1860 Clouds 22 1009 78 10000 6.7 170 00:26 16.09.2019
1861 Clouds 23 1009 73 10000 7.2 180 23:44 15.09.2019
1862 Clouds 23 1009 73 10000 7.2 180 23:21 15.09.2019
1863 Clouds 22 1010 73 10000 7.7 180 22:58 15.09.2019
1864 Clouds 22 1010 73 10000 7.7 180 22:37 15.09.2019
1865 Clouds 22 1010 73 10000 7.7 180 22:18 15.09.2019
1866 Clouds 23 1011 69 10000 8.7 160 21:55 15.09.2019
1867 Clouds 23 1011 69 10000 8.7 160 21:55 15.09.2019
1868 Clouds 23 1011 69 10000 8.7 160 21:36 15.09.2019
1869 Clouds 23 1011 69 10000 8.7 160 21:36 15.09.2019
1870 Clouds 23 1011 69 10000 8.7 160 21:18 15.09.2019
1871 Clouds 24 1012 69 10000 9.3 160 20:42 15.09.2019
1872 Clouds 24 1012 69 10000 9.3 160 20:24 15.09.2019
1873 Clouds 22 1013 73 10000 9.3 170 19:46 15.09.2019
1874 Clouds 22 1013 73 10000 9.3 170 19:26 15.09.2019
1875 Clouds 22 1013 73 10000 8.2 170 18:55 15.09.2019
1876 Clouds 22 1013 73 10000 8.2 170 18:36 15.09.2019
1877 Clouds 22 1013 73 10000 9.3 160 18:18 15.09.2019
1878 Clouds 22 1013 73 10000 9.3 160 17:41 15.09.2019
1879 Clouds 22 1013 73 10000 9.3 160 17:21 15.09.2019
1880 Clouds 21 1013 77 10000 7.2 160 16:55 15.09.2019
1881 Clouds 21 1013 77 10000 7.2 160 16:36 15.09.2019
1882 Clouds 21 1013 77 10000 7.2 160 16:18 15.09.2019
1883 Clouds 20 1012 82 10000 6.2 160 15:41 15.09.2019
1884 Clouds 20 1012 82 10000 6.2 160 15:21 15.09.2019
1885 Clouds 19 1011 88 10000 5.7 160 14:58 15.09.2019
1886 Clouds 19 1011 88 10000 5.7 160 14:40 15.09.2019
1887 Clouds 19 1011 88 10000 5.7 160 14:20 15.09.2019
1888 Clouds 19 1014 85 0 6.4 174.135 13:47 15.09.2019
1889 Clouds 19 1014 84 0 6.35 174.893 13:24 15.09.2019
1890 Clouds 19 1014 84 0 6.35 174.893 12:56 15.09.2019
1891 Clouds 19 1014 84 0 6.35 174.893 12:38 15.09.2019
1892 Clouds 19 1013 87 0 6.14 176.384 12:18 15.09.2019
1893 Clouds 19 1013 87 0 6.14 176.384 11:42 15.09.2019
1894 Clouds 19 1013 87 0 6.14 176.384 11:22 15.09.2019
1895 Clouds 19 1013 87 0 6.14 176.384 11:22 15.09.2019
1896 Clouds 19 1013 87 0 6.14 176.384 10:58 15.09.2019
1897 Clouds 19 1013 87 0 6.14 176.384 10:39 15.09.2019
1898 Clouds 19 1013 87 0 6.14 176.384 10:20 15.09.2019
1899 Clouds 19 1013 87 0 6.14 176.384 09:40 15.09.2019
1900 Clouds 19 1015 86 0 5.38 176.334 09:20 15.09.2019
1901 Clouds 19 1015 86 0 5.38 176.334 08:48 15.09.2019
1902 Clouds 19 1015 86 0 5.46 175.727 08:29 15.09.2019
1903 Clouds 19 1015 86 0 5.46 175.727 07:51 15.09.2019
1904 Clouds 19 1015 86 0 5.46 175.727 07:33 15.09.2019
1905 Clouds 19 1015 86 0 5.46 175.727 06:43 15.09.2019
1906 Clouds 19 1014 85 0 4.98 176.595 04:38 15.09.2019
1907 Clouds 20 1010 82 10000 6.7 170 02:55 15.09.2019
1908 Clear 21 1009 77 10000 7.7 160 01:49 15.09.2019
1909 Clear 21 1009 77 10000 7.7 160 01:28 15.09.2019
1910 Clouds 21 1009 77 10000 7.2 160 00:50 15.09.2019
1911 Clouds 21 1009 77 10000 7.2 160 00:24 15.09.2019
1912 Clouds 22 1010 73 10000 7.2 160 23:59 14.09.2019
1913 Clouds 22 1010 73 10000 7.2 160 23:41 14.09.2019
1914 Clouds 22 1010 73 10000 7.2 160 23:22 14.09.2019
1915 Clouds 23 1010 69 10000 6.7 170 22:59 14.09.2019
1916 Clouds 23 1010 69 10000 6.7 170 22:41 14.09.2019
1917 Clouds 23 1010 69 10000 6.7 170 22:22 14.09.2019
1918 Clouds 23 1011 69 10000 7.2 170 21:59 14.09.2019
1919 Clouds 23 1011 69 10000 7.2 170 21:39 14.09.2019
1920 Clouds 23 1011 69 10000 7.2 170 21:20 14.09.2019
1921 Clouds 22 1012 73 10000 7.2 160 20:56 14.09.2019
1922 Clouds 22 1012 73 10000 7.2 160 20:38 14.09.2019
1923 Clouds 22 1012 73 10000 7.2 160 20:19 14.09.2019
1924 Clouds 22 1012 73 10000 6.7 160 19:45 14.09.2019
1925 Clouds 22 1012 73 10000 6.7 160 19:21 14.09.2019
1926 Clouds 21 1013 77 10000 7.2 160 18:57 14.09.2019
1927 Clouds 21 1013 77 10000 7.2 160 18:37 14.09.2019
1928 Clouds 20 1012 77 10000 6.2 160 18:19 14.09.2019
1929 Clouds 20 1012 77 10000 6.2 160 17:43 14.09.2019
1930 Clouds 20 1012 77 10000 6.2 160 17:22 14.09.2019
1931 Clouds 20 1012 82 10000 5.7 170 16:47 14.09.2019
1932 Clouds 20 1012 82 10000 5.7 170 16:47 14.09.2019
1933 Clouds 20 1012 82 10000 5.7 170 16:26 14.09.2019
1934 Clouds 19 1012 88 10000 6.2 170 15:58 14.09.2019
1935 Clouds 19 1012 88 10000 6.2 170 15:40 14.09.2019
1936 Clouds 19 1012 88 10000 6.2 170 15:20 14.09.2019
1937 Clouds 19 1011 82 10000 6.2 170 14:43 14.09.2019
1938 Clouds 19 1011 82 10000 6.2 170 14:43 14.09.2019
1939 Clouds 19 1011 82 10000 6.2 170 14:19 14.09.2019
1940 Clouds 19 1011 82 10000 6.2 170 14:19 14.09.2019
1941 Clouds 19 1013 81 0 6.35 165.014 13:48 14.09.2019
1942 Clouds 19 1013 81 0 6.35 165.014 13:48 14.09.2019
1943 Clouds 19 1013 81 0 6.31 165.052 13:23 14.09.2019
1944 Clouds 19 1013 81 0 6.31 165.052 12:58 14.09.2019
1945 Clouds 19 1013 81 0 6.31 165.052 12:37 14.09.2019
1946 Clouds 19 1013 81 0 6.82 169.013 12:18 14.09.2019
1947 Clouds 19 1013 81 0 6.82 169.013 11:40 14.09.2019
1948 Clouds 19 1013 81 0 6.82 169.013 11:19 14.09.2019
1949 Clouds 19 1013 81 0 6.82 169.013 10:38 14.09.2019
1950 Clouds 19 1013 81 0 6.82 169.013 10:20 14.09.2019
1951 Clouds 19 1013 81 0 6.82 169.013 09:57 14.09.2019
1952 Clouds 19 1013 81 0 6.82 169.013 09:38 14.09.2019
1953 Clouds 19 1014 81 0 6.22 171.147 09:19 14.09.2019
1954 Clouds 19 1014 81 0 6.37 171.135 08:46 14.09.2019
1955 Clouds 19 1014 81 0 6.37 171.135 08:23 14.09.2019
1956 Clouds 19 1014 81 0 6.37 171.135 07:46 14.09.2019
1957 Clouds 19 1014 81 0 6.37 171.135 07:28 14.09.2019
1958 Clouds 19 1014 81 0 6.37 171.135 06:40 14.09.2019
1959 Clouds 19 1013 82 0 5.94 171.811 06:21 14.09.2019
1960 Clouds 19 1013 82 0 5.94 171.811 05:21 14.09.2019
1961 Clouds 19 1013 82 0 5.94 171.811 03:43 14.09.2019
1962 Clouds 20 1009 77 10000 6.2 160 02:52 14.09.2019
1963 Clouds 21 1008 77 10000 6.7 160 01:50 14.09.2019
1964 Clouds 21 1008 77 10000 6.7 160 01:22 14.09.2019
1965 Clouds 21 1008 77 10000 6.7 170 00:57 14.09.2019
1966 Clouds 21 1008 77 10000 6.7 170 00:37 14.09.2019
1967 Clouds 22 1007 73 10000 7.7 180 00:19 14.09.2019
1968 Clouds 22 1007 73 10000 7.7 180 23:38 13.09.2019
1969 Clouds 22 1007 73 10000 7.7 180 23:19 13.09.2019
1970 Clouds 22 1007 73 10000 7.7 180 23:19 13.09.2019
1971 Clouds 22 1007 73 10000 8.2 170 22:56 13.09.2019
1972 Clouds 22 1007 73 10000 8.2 170 22:38 13.09.2019
1973 Clouds 22 1007 73 10000 8.2 170 22:38 13.09.2019
1974 Clouds 22 1007 73 10000 8.2 170 22:19 13.09.2019
1975 Clouds 22 1009 73 10000 8.2 170 21:41 13.09.2019
1976 Clouds 22 1009 73 10000 8.2 170 21:19 13.09.2019
1977 Clouds 22 1009 73 10000 9.8 170 20:58 13.09.2019
1978 Clouds 22 1009 73 10000 9.8 170 20:39 13.09.2019
1979 Clouds 22 1009 73 10000 9.8 170 20:20 13.09.2019
1980 Clouds 22 1010 78 10000 10.3 170 19:55 13.09.2019
1981 Clouds 22 1010 78 10000 10.3 170 19:37 13.09.2019
1982 Clouds 21 1010 83 10000 9.3 170 19:18 13.09.2019
1983 Clouds 21 1010 83 10000 9.3 170 19:18 13.09.2019
1984 Clouds 21 1010 83 10000 9.3 170 18:39 13.09.2019
1985 Clouds 20 1010 88 10000 9.3 170 18:20 13.09.2019
1986 Clouds 20 1010 88 10000 9.3 170 17:58 13.09.2019
1987 Clouds 20 1010 88 10000 9.3 170 17:37 13.09.2019
1988 Clouds 20 1010 88 10000 9.3 170 17:18 13.09.2019
1989 Clouds 20 1010 88 10000 9.3 170 17:18 13.09.2019
1990 Clouds 19 1014 84 0 8.27 168.434 16:40 13.09.2019
1991 Clouds 18 1009 93 10000 9.8 170 16:20 13.09.2019
1992 Clouds 18 1009 93 10000 9.8 170 15:45 13.09.2019
1993 Clouds 18 1009 93 10000 9.8 170 15:27 13.09.2019
1994 Drizzle 18 1008 93 8000 8.2 170 14:56 13.09.2019
1995 Drizzle 18 1008 93 8000 8.2 170 14:38 13.09.2019
1996 Drizzle 18 1008 93 8000 8.2 170 14:19 13.09.2019
1997 Clouds 19 1012 85 0 7.59 163.163 13:44 13.09.2019
1998 Clouds 19 1013 84 0 7.38 162.939 13:22 13.09.2019
1999 Clouds 19 1013 84 0 7.38 162.939 12:46 13.09.2019
2000 Clouds 19 1013 84 0 7.38 162.939 12:26 13.09.2019
2001 Clouds 19 1011 86 0 7.16 173.404 11:57 13.09.2019
2002 Clouds 19 1011 86 0 7.16 173.404 11:21 13.09.2019
2003 Clouds 19 1011 86 0 7.16 173.404 10:59 13.09.2019
2004 Clouds 19 1011 86 0 7.16 173.404 10:37 13.09.2019
2005 Clouds 19 1011 86 0 7.16 173.404 10:18 13.09.2019
2006 Clouds 19 1011 86 0 7.16 173.404 09:43 13.09.2019
2007 Clouds 19 1011 86 0 7.16 173.404 09:43 13.09.2019
2008 Clouds 19 1013 86 0 6.18 177.57 09:21 13.09.2019
2009 Clouds 19 1013 86 0 6.18 177.57 08:58 13.09.2019
2010 Clouds 19 1013 86 0 5.94 177.549 08:39 13.09.2019
2011 Clouds 19 1013 86 0 5.94 177.549 08:39 13.09.2019
2012 Clouds 19 1013 86 0 5.94 177.549 08:20 13.09.2019
2013 Clouds 19 1013 86 0 5.94 177.549 07:41 13.09.2019
2014 Clouds 19 1013 86 0 5.94 177.549 07:22 13.09.2019
2015 Clouds 19 1013 86 0 5.94 177.549 06:38 13.09.2019
2016 Clouds 20 1013 87 0 5.83 171.624 05:36 13.09.2019
2017 Clouds 20 1013 87 0 5.83 171.624 04:34 13.09.2019
2018 Clouds 20 1009 88 10000 6.7 170 03:33 13.09.2019
2019 Clouds 20 1009 88 10000 6.7 170 02:20 13.09.2019
2020 Clouds 21 1008 77 10000 6.7 170 01:37 13.09.2019
2021 Clouds 22 1008 78 10000 7.7 170 00:59 13.09.2019
2022 Clouds 22 1008 78 10000 7.7 170 00:35 13.09.2019
2023 Clouds 23 1009 73 10000 7.7 170 23:53 12.09.2019
2024 Clouds 23 1009 73 10000 7.7 170 23:26 12.09.2019
2025 Clouds 23 1009 73 10000 6.7 160 22:58 12.09.2019
2026 Clouds 23 1009 73 10000 6.7 160 22:39 12.09.2019
2027 Clouds 23 1009 73 10000 6.7 160 22:21 12.09.2019
2028 Clouds 23 1009 73 10000 7.2 170 21:55 12.09.2019
2029 Clouds 23 1009 73 10000 7.2 170 21:37 12.09.2019
2030 Clouds 23 1009 73 10000 7.2 170 21:18 12.09.2019
2031 Rain 22 1010 83 10000 7.7 170 20:44 12.09.2019
2032 Rain 22 1010 83 10000 7.7 170 20:23 12.09.2019
2033 Clouds 22 1011 78 10000 7.7 170 19:57 12.09.2019
2034 Clouds 22 1011 78 10000 7.7 170 19:39 12.09.2019
2035 Clouds 22 1011 78 10000 7.7 170 19:39 12.09.2019
2036 Clouds 22 1011 78 10000 8.2 160 19:19 12.09.2019
2037 Clouds 22 1011 78 10000 8.2 160 18:56 12.09.2019
2038 Clouds 22 1011 78 10000 8.2 160 18:36 12.09.2019
2039 Clouds 21 1011 83 10000 7.2 160 18:18 12.09.2019
2040 Clouds 21 1011 83 10000 7.2 160 17:40 12.09.2019
2041 Clouds 21 1011 83 10000 7.2 160 17:20 12.09.2019
2042 Clouds 21 1011 83 10000 7.2 160 17:20 12.09.2019
2043 Clouds 20 1011 88 10000 6.7 160 16:56 12.09.2019
2044 Clouds 20 1011 88 10000 6.7 160 16:37 12.09.2019
2045 Clouds 20 1011 88 10000 6.7 160 16:19 12.09.2019
2046 Clouds 19 1010 88 10000 6.7 160 15:41 12.09.2019
2047 Clouds 19 1010 88 10000 6.7 160 15:23 12.09.2019
2048 Clouds 19 1009 88 10000 6.2 160 14:45 12.09.2019
2049 Clouds 19 1009 88 10000 6.2 160 14:22 12.09.2019
2050 Clouds 19 1012 89 0 7.12 171.529 13:58 12.09.2019
2051 Clouds 19 1012 89 0 7.12 171.529 13:37 12.09.2019
2052 Clouds 19 1013 89 0 7.07 172.797 13:18 12.09.2019
2053 Clouds 19 1013 89 0 7.07 172.797 12:44 12.09.2019
2054 Clouds 19 1012 89 0 6.66 177.994 12:19 12.09.2019
2055 Clouds 19 1012 89 0 6.66 177.994 11:55 12.09.2019
2056 Clouds 19 1012 89 0 6.66 177.994 11:37 12.09.2019
2057 Clouds 19 1012 89 0 6.66 177.994 11:19 12.09.2019
2058 Clouds 19 1012 89 0 6.66 177.994 10:44 12.09.2019
2059 Clouds 19 1012 89 0 6.66 177.994 10:24 12.09.2019
2060 Clouds 19 1012 89 0 6.66 177.994 09:44 12.09.2019
2061 Clouds 19 1013 89 0 6.17 175.368 09:21 12.09.2019
2062 Clouds 19 1013 89 0 6.17 175.368 08:58 12.09.2019
2063 Rain 19 1013 90 0 6.19 176.171 08:39 12.09.2019
2064 Rain 19 1013 90 0 6.19 176.171 08:21 12.09.2019
2065 Rain 19 1013 90 0 6.19 176.171 07:39 12.09.2019
2066 Rain 19 1013 90 0 6.19 176.171 07:19 12.09.2019
2067 Rain 19 1013 90 0 6.19 176.171 06:50 12.09.2019
2068 Rain 19 1013 90 0 6.19 176.171 06:50 12.09.2019
2069 Clouds 19 1013 90 0 5.6 175.052 06:19 12.09.2019
2070 Clouds 19 1013 90 0 5.6 175.052 05:48 12.09.2019
2071 Clouds 19 1013 90 0 5.6 175.052 05:27 12.09.2019
2072 Clouds 19 1013 90 0 5.6 175.052 04:34 12.09.2019
2073 Clouds 22 1008 78 10000 6.7 160 01:48 12.09.2019
2074 Clouds 22 1008 78 10000 6.7 160 01:30 12.09.2019
2075 Clouds 22 1008 78 10000 7.7 170 00:51 12.09.2019
2076 Clouds 22 1008 78 10000 7.7 170 00:31 12.09.2019
2077 Clouds 22 1008 78 10000 7.7 170 23:57 11.09.2019
2078 Clouds 22 1008 78 10000 7.7 170 23:37 11.09.2019
2079 Clouds 22 1008 78 10000 7.7 170 23:19 11.09.2019
2080 Clouds 23 1009 73 10000 6.7 160 22:55 11.09.2019
2081 Clouds 23 1009 73 10000 6.7 160 22:36 11.09.2019
2082 Clouds 23 1009 73 10000 6.7 160 22:18 11.09.2019
2083 Clouds 23 1009 73 10000 7.7 170 21:41 11.09.2019
2084 Clouds 23 1009 73 10000 7.7 170 21:23 11.09.2019
2085 Clouds 22 1011 78 10000 7.7 160 20:56 11.09.2019
2086 Clouds 22 1011 78 10000 7.7 160 20:38 11.09.2019
2087 Clouds 22 1011 78 10000 7.7 160 20:19 11.09.2019
2088 Clouds 23 1012 73 10000 7.2 170 19:56 11.09.2019
2089 Clouds 23 1012 73 10000 7.2 170 19:37 11.09.2019
2090 Clouds 23 1012 73 10000 6.7 170 19:19 11.09.2019
2091 Clouds 23 1012 73 10000 6.7 170 18:44 11.09.2019
2092 Clouds 23 1012 73 10000 6.7 170 18:26 11.09.2019
2093 Clouds 21 1012 77 10000 6.2 180 18:00 11.09.2019
2094 Clouds 21 1012 77 10000 6.2 180 17:41 11.09.2019
2095 Clouds 21 1012 77 10000 6.2 180 17:22 11.09.2019
2096 Clouds 20 1012 88 10000 6.2 170 16:56 11.09.2019
2097 Clouds 20 1012 88 10000 6.2 170 16:38 11.09.2019
2098 Clouds 20 1012 88 10000 6.2 170 16:19 11.09.2019
2099 Rain 19 1012 93 8000 5.1 140 15:46 11.09.2019
2100 Rain 19 1012 93 8000 5.1 140 15:46 11.09.2019
2101 Rain 19 1012 93 8000 5.1 140 15:23 11.09.2019
2102 Clouds 19 1013 83 0 5.4 152.376 14:58 11.09.2019
2103 Clouds 19 1013 83 0 5.4 152.376 14:38 11.09.2019
2104 Clouds 19 1013 83 0 5.4 152.376 14:20 11.09.2019
2105 Clouds 19 1013 83 0 5.4 152.376 13:57 11.09.2019
2106 Clouds 19 1013 83 0 5.4 152.376 13:36 11.09.2019
2107 Clouds 19 1013 84 0 5.42 153.251 13:18 11.09.2019
2108 Clouds 19 1013 84 0 5.42 153.251 12:41 11.09.2019
2109 Clouds 19 1013 84 0 5.6 166.837 12:21 11.09.2019
2110 Clouds 19 1013 84 0 5.6 166.837 11:56 11.09.2019
2111 Clouds 19 1013 84 0 5.6 166.837 11:36 11.09.2019
2112 Clouds 19 1013 84 0 5.6 166.837 11:18 11.09.2019
2113 Clouds 19 1013 84 0 5.6 166.837 11:18 11.09.2019
2114 Clouds 19 1013 84 0 5.6 166.837 10:40 11.09.2019
2115 Clouds 19 1013 84 0 5.6 166.837 10:22 11.09.2019
2116 Clouds 19 1013 84 0 5.6 166.837 09:41 11.09.2019
2117 Clouds 19 1014 83 0 5.81 171.65 09:20 11.09.2019
2118 Clouds 19 1014 83 0 5.81 171.65 09:20 11.09.2019
2119 Clouds 19 1014 83 0 5.81 171.65 08:59 11.09.2019
2120 Clouds 19 1014 83 0 6.13 176.934 08:39 11.09.2019
2121 Clouds 19 1014 83 0 6.13 176.934 08:21 11.09.2019
2122 Clouds 19 1014 83 0 6.13 176.934 07:45 11.09.2019
2123 Clouds 19 1014 83 0 6.13 176.934 07:23 11.09.2019
2124 Clouds 19 1014 83 0 6.13 176.934 06:52 11.09.2019
2125 Clouds 19 1014 83 0 6.13 176.934 06:33 11.09.2019
2126 Clouds 19 1014 82 0 6.57 177.505 05:46 11.09.2019
2127 Clouds 19 1014 82 0 6.57 177.505 05:28 11.09.2019
2128 Clouds 19 1014 82 0 6.57 177.505 04:46 11.09.2019
2129 Clouds 20 1011 82 10000 6.2 170 03:33 11.09.2019
2130 Clouds 20 1011 82 10000 6.2 170 02:49 11.09.2019
2131 Clouds 20 1011 82 10000 6.2 170 02:20 11.09.2019
2132 Clouds 23 1011 69 10000 6.2 170 00:52 11.09.2019
2133 Clouds 23 1011 69 10000 6.2 170 00:23 11.09.2019
2134 Clouds 23 1011 69 10000 6.7 180 23:55 10.09.2019
2135 Clouds 23 1011 69 10000 6.7 180 23:37 10.09.2019
2136 Clouds 23 1011 69 10000 6.7 180 23:18 10.09.2019
2137 Clouds 23 1011 69 10000 6.7 170 22:41 10.09.2019
2138 Clouds 23 1011 69 10000 6.7 170 22:19 10.09.2019
2139 Clouds 23 1011 69 10000 6.7 170 22:19 10.09.2019
2140 Clouds 24 1012 64 10000 6.2 170 21:55 10.09.2019
2141 Clouds 24 1012 64 10000 6.2 170 21:37 10.09.2019
2142 Clouds 24 1012 64 10000 6.2 170 21:37 10.09.2019
2143 Clouds 24 1012 64 10000 6.2 170 21:37 10.09.2019
2144 Clouds 24 1012 64 10000 6.2 170 21:18 10.09.2019
2145 Clouds 22 1013 73 10000 7.2 160 20:57 10.09.2019
2146 Clouds 22 1013 73 10000 7.2 160 20:38 10.09.2019
2147 Clouds 22 1013 73 10000 7.2 160 20:19 10.09.2019
2148 Clouds 22 1013 73 10000 7.2 160 20:19 10.09.2019
2149 Clouds 23 1014 69 10000 7.2 160 19:56 10.09.2019
2150 Clouds 23 1014 69 10000 7.2 160 19:37 10.09.2019
2151 Clouds 22 1014 68 10000 6.7 160 19:18 10.09.2019
2152 Clouds 22 1014 68 10000 6.7 160 18:46 10.09.2019
2153 Clouds 22 1014 68 10000 6.7 160 18:23 10.09.2019
2154 Clouds 21 1014 77 10000 6.2 160 17:59 10.09.2019
2155 Clouds 21 1014 77 10000 6.2 160 17:41 10.09.2019
2156 Clouds 21 1014 77 10000 6.2 160 17:21 10.09.2019
2157 Clouds 21 1014 77 10000 6.2 160 17:21 10.09.2019
2158 Clouds 20 1013 77 10000 6.2 170 16:57 10.09.2019
2159 Clouds 20 1013 77 10000 6.2 170 16:38 10.09.2019
2160 Clouds 20 1013 77 10000 6.2 170 16:19 10.09.2019
2161 Clouds 20 1012 77 10000 6.2 160 15:44 10.09.2019
2162 Clouds 20 1012 77 10000 6.2 160 15:23 10.09.2019
2163 Clouds 19 1012 88 10000 5.1 150 14:59 10.09.2019
2164 Clouds 19 1012 88 10000 5.1 150 14:59 10.09.2019
2165 Clouds 19 1012 88 10000 5.1 150 14:39 10.09.2019
2166 Clouds 19 1012 88 10000 5.1 150 14:21 10.09.2019
2167 Clouds 19 1014 81 0 6.31 144.212 13:48 10.09.2019
2168 Clouds 19 1014 81 0 6.04 141.318 13:24 10.09.2019
2169 Clouds 19 1014 81 0 6.04 141.318 12:55 10.09.2019
2170 Clouds 19 1014 81 0 6.04 141.318 12:55 10.09.2019
2171 Clouds 19 1014 81 0 6.04 141.318 12:36 10.09.2019
2172 Clouds 19 1013 81 0 5.61 149.136 12:18 10.09.2019
2173 Clouds 19 1013 81 0 5.61 149.136 11:42 10.09.2019
2174 Clouds 19 1013 81 0 5.61 149.136 11:22 10.09.2019
2175 Clouds 19 1013 81 0 5.61 149.136 10:57 10.09.2019
2176 Clouds 19 1013 81 0 5.61 149.136 10:36 10.09.2019
2177 Clouds 19 1013 81 0 5.61 149.136 10:18 10.09.2019
2178 Clouds 19 1013 81 0 5.61 149.136 09:44 10.09.2019
2179 Clouds 19 1014 80 0 5.94 152.779 09:20 10.09.2019
2180 Clouds 19 1014 81 0 5.77 153.804 08:49 10.09.2019
2181 Clouds 19 1014 81 0 5.77 153.804 08:29 10.09.2019
2182 Clouds 19 1014 81 0 5.77 153.804 07:59 10.09.2019
2183 Clouds 19 1014 81 0 5.77 153.804 07:41 10.09.2019
2184 Clouds 19 1014 81 0 5.77 153.804 07:41 10.09.2019
2185 Clouds 19 1014 81 0 5.77 153.804 07:23 10.09.2019
2186 Clouds 19 1014 81 0 5.77 153.804 06:42 10.09.2019
2187 Clouds 19 1015 81 0 6.28 164.421 06:20 10.09.2019
2188 Clouds 19 1015 81 0 6.28 164.421 04:19 10.09.2019
2189 Clouds 20 1012 82 10000 7.2 160 02:39 10.09.2019
2190 Clouds 20 1012 82 10000 7.2 160 02:39 10.09.2019
2191 Clouds 20 1012 82 10000 7.2 160 02:39 10.09.2019
2192 Clouds 20 1012 82 10000 7.2 160 02:39 10.09.2019
2193 Clouds 20 1012 82 10000 7.2 160 02:39 10.09.2019
2194 Clouds 21 1011 77 10000 6.7 170 02:20 10.09.2019
2195 Clouds 21 1011 77 10000 6.7 170 02:20 10.09.2019
2196 Clouds 21 1011 77 10000 6.7 170 01:50 10.09.2019
2197 Clouds 21 1011 77 10000 7.7 160 01:22 10.09.2019
2198 Clouds 21 1011 77 10000 7.7 160 00:36 10.09.2019
2199 Drizzle 21 1011 83 10000 7.7 170 23:58 09.09.2019
2200 Drizzle 21 1011 83 10000 7.7 170 23:40 09.09.2019
2201 Clouds 22 1012 73 10000 8.2 170 23:18 09.09.2019
2202 Clouds 22 1012 73 10000 8.2 170 22:54 09.09.2019
2203 Clouds 22 1012 73 10000 8.2 170 22:36 09.09.2019
2204 Clouds 22 1012 73 10000 8.7 160 22:18 09.09.2019
2205 Clouds 22 1012 73 10000 8.7 160 21:55 09.09.2019
2206 Clouds 22 1012 73 10000 8.7 160 21:36 09.09.2019
2207 Clouds 23 1013 73 10000 8.7 160 21:18 09.09.2019
2208 Clouds 23 1013 73 10000 8.7 160 20:55 09.09.2019
2209 Clouds 23 1013 73 10000 8.7 160 20:36 09.09.2019
2210 Clouds 23 1013 73 10000 8.7 160 20:36 09.09.2019
2211 Clouds 20 1015 86 0 5.85 169.915 20:18 09.09.2019
2212 Clouds 20 1015 86 0 5.85 169.915 19:55 09.09.2019
2213 Clouds 20 1015 86 0 5.85 169.915 19:36 09.09.2019
2214 Clouds 23 1014 69 10000 8.2 160 19:18 09.09.2019
2215 Clouds 23 1014 69 10000 8.2 160 19:18 09.09.2019
2216 Clouds 23 1014 69 10000 8.2 160 18:41 09.09.2019
2217 Clouds 22 1014 73 10000 7.7 160 18:22 09.09.2019
2218 Clouds 22 1014 73 10000 7.7 160 17:59 09.09.2019
2219 Clouds 22 1014 73 10000 7.7 160 17:41 09.09.2019
2220 Clouds 22 1014 78 10000 7.2 170 17:21 09.09.2019
2221 Clouds 22 1014 78 10000 7.2 170 16:57 09.09.2019
2222 Clouds 22 1014 78 10000 7.2 170 16:38 09.09.2019
2223 Clouds 20 1013 88 10000 7.2 170 16:20 09.09.2019
2224 Clouds 20 1013 88 10000 7.2 170 15:56 09.09.2019
2225 Clouds 20 1013 88 10000 7.2 170 15:37 09.09.2019
2226 Clouds 20 1012 88 10000 6.7 160 15:19 09.09.2019
2227 Clouds 20 1012 88 10000 6.7 160 14:57 09.09.2019
2228 Clouds 20 1012 88 10000 6.7 160 14:38 09.09.2019
2229 Clouds 19 1014 87 0 5.48 167.473 14:19 09.09.2019
2230 Clouds 19 1014 87 0 5.48 167.473 13:44 09.09.2019
2231 Clouds 19 1014 86 0 5.56 165.031 13:21 09.09.2019
2232 Clouds 19 1014 86 0 5.56 165.031 12:58 09.09.2019
2233 Clouds 19 1014 86 0 5.56 165.031 12:40 09.09.2019
2234 Clouds 19 1014 86 0 6.04 167.951 12:20 09.09.2019
2235 Clouds 19 1014 86 0 6.04 167.951 11:47 09.09.2019
2236 Clouds 19 1014 86 0 6.04 167.951 11:47 09.09.2019
2237 Clouds 19 1014 86 0 6.04 167.951 11:23 09.09.2019
2238 Clouds 19 1014 86 0 6.04 167.951 10:59 09.09.2019
2239 Clouds 19 1014 86 0 6.04 167.951 10:41 09.09.2019
2240 Clouds 19 1014 86 0 6.04 167.951 10:20 09.09.2019
2241 Clouds 19 1014 86 0 6.04 167.951 09:57 09.09.2019
2242 Clouds 19 1014 86 0 6.04 167.951 09:57 09.09.2019
2243 Clouds 19 1014 86 0 6.04 167.951 09:37 09.09.2019
2244 Clouds 19 1014 86 0 6.04 167.951 09:37 09.09.2019
2245 Clouds 20 1014 84 0 6.06 170.662 09:19 09.09.2019
2246 Clouds 20 1015 84 0 6.07 170.843 08:38 09.09.2019
2247 Clouds 20 1015 84 0 6.07 170.843 08:19 09.09.2019
2248 Clouds 20 1015 84 0 6.07 170.843 07:45 09.09.2019
2249 Clouds 20 1015 84 0 6.07 170.843 07:22 09.09.2019
2250 Clouds 20 1015 84 0 6.07 170.843 06:56 09.09.2019
2251 Clouds 20 1015 84 0 6.07 170.843 06:31 09.09.2019
2252 Clouds 20 1016 84 0 5.99 164.303 04:54 09.09.2019
2253 Clouds 21 1011 83 10000 6.2 150 02:43 09.09.2019
2254 Clouds 21 1010 83 10000 7.2 150 01:50 09.09.2019
2255 Clouds 22 1010 78 10000 7.2 160 00:39 09.09.2019
2256 Clouds 23 1011 73 10000 7.2 160 00:20 09.09.2019
2257 Clouds 23 1011 73 10000 7.2 160 23:41 08.09.2019
2258 Clouds 23 1011 73 10000 7.2 160 23:23 08.09.2019
2259 Clouds 23 1011 69 10000 8.2 170 22:43 08.09.2019
2260 Clouds 23 1011 69 10000 8.2 170 22:23 08.09.2019
2261 Clouds 24 1012 64 10000 9.3 160 21:59 08.09.2019
2262 Clouds 24 1012 64 10000 9.3 160 21:40 08.09.2019
2263 Clouds 24 1012 64 10000 9.3 160 21:22 08.09.2019
2264 Clouds 24 1013 64 10000 8.2 170 20:56 08.09.2019
2265 Clouds 24 1013 64 10000 8.2 170 20:37 08.09.2019
2266 Clouds 24 1013 64 10000 8.2 170 20:37 08.09.2019
2267 Clouds 24 1014 64 10000 7.7 170 20:19 08.09.2019
2268 Clouds 24 1014 64 10000 7.7 170 19:40 08.09.2019
2269 Clouds 23 1014 69 10000 8.7 150 19:21 08.09.2019
2270 Clouds 23 1014 69 10000 8.7 150 18:59 08.09.2019
2271 Clouds 23 1014 69 10000 8.7 150 18:39 08.09.2019
2272 Clouds 22 1014 78 10000 9.3 160 18:20 08.09.2019
2273 Clouds 22 1014 78 10000 9.3 160 17:59 08.09.2019
2274 Clouds 22 1014 78 10000 9.3 160 17:37 08.09.2019
2275 Clouds 22 1014 78 10000 9.3 160 17:37 08.09.2019
2276 Clouds 22 1013 78 10000 8.2 150 17:19 08.09.2019
2277 Clouds 22 1013 78 10000 8.2 150 16:57 08.09.2019
2278 Clouds 22 1013 78 10000 8.2 150 16:39 08.09.2019
2279 Clouds 21 1013 83 10000 7.2 160 16:20 08.09.2019
2280 Clouds 21 1013 83 10000 7.2 160 15:42 08.09.2019
2281 Clouds 21 1013 83 10000 7.2 160 15:24 08.09.2019
2282 Clouds 20 1012 82 10000 6.7 150 14:59 08.09.2019
2283 Clouds 20 1012 82 10000 6.7 150 14:40 08.09.2019
2284 Clouds 20 1012 82 10000 6.7 150 14:40 08.09.2019
2285 Clouds 20 1012 82 10000 6.7 150 14:40 08.09.2019
2286 Clouds 20 1012 82 10000 6.7 150 14:40 08.09.2019
2287 Clouds 20 1012 82 10000 6.7 150 14:21 08.09.2019
2288 Clouds 20 1014 85 0 7.28 164.583 13:58 08.09.2019
2289 Clouds 20 1014 85 0 7.28 164.583 13:40 08.09.2019
2290 Clouds 20 1015 84 0 7.15 165.309 13:21 08.09.2019
2291 Clouds 20 1015 84 0 7.15 165.309 13:21 08.09.2019
2292 Clouds 20 1015 84 0 7.15 165.309 12:55 08.09.2019
2293 Clouds 20 1015 84 0 7.15 165.309 12:37 08.09.2019
2294 Clouds 20 1014 85 0 6.46 176.415 12:18 08.09.2019
2295 Clouds 20 1014 85 0 6.46 176.415 11:56 08.09.2019
2296 Clouds 20 1014 85 0 6.46 176.415 11:37 08.09.2019
2297 Clouds 20 1014 85 0 6.46 176.415 11:18 08.09.2019
2298 Clouds 20 1014 85 0 6.46 176.415 10:42 08.09.2019
2299 Clouds 20 1014 85 0 6.46 176.415 10:23 08.09.2019
2300 Clouds 20 1014 85 0 6.46 176.415 09:56 08.09.2019
2301 Clouds 20 1014 85 0 6.46 176.415 09:37 08.09.2019
2302 Clouds 20 1015 84 0 5.59 173.362 09:19 08.09.2019
2303 Clouds 20 1015 83 0 5.42 175.501 08:39 08.09.2019
2304 Clouds 20 1015 83 0 5.42 175.501 08:19 08.09.2019
2305 Clouds 20 1015 83 0 5.42 175.501 07:42 08.09.2019
2306 Clouds 20 1015 83 0 5.42 175.501 07:21 08.09.2019
2307 Clouds 20 1015 83 0 5.42 175.501 06:57 08.09.2019
2308 Clouds 20 1015 83 0 5.42 175.501 06:34 08.09.2019
2309 Clouds 20 1015 83 0 5.37 173.028 05:40 08.09.2019
2310 Clouds 20 1015 83 0 5.37 173.028 04:58 08.09.2019
2311 Clouds 21 1011 83 10000 5.1 150 03:23 08.09.2019
2312 Clouds 21 1011 83 10000 5.1 150 02:36 08.09.2019
2313 Clouds 22 1011 78 10000 6.7 160 01:53 08.09.2019
2314 Clouds 22 1011 78 10000 6.7 160 01:25 08.09.2019
2315 Clouds 23 1010 69 10000 6.2 180 00:47 08.09.2019
2316 Clouds 23 1010 69 10000 6.2 180 00:28 08.09.2019
2317 Clouds 24 1011 64 10000 7.2 150 23:39 07.09.2019
2318 Clouds 24 1011 64 10000 7.2 150 23:21 07.09.2019
2319 Clouds 24 1011 64 10000 8.2 190 22:59 07.09.2019
2320 Clouds 24 1011 64 10000 8.2 190 22:40 07.09.2019
2321 Clouds 24 1011 64 10000 8.2 190 22:22 07.09.2019
2322 Clouds 24 1012 64 10000 7.2 160 21:54 07.09.2019
2323 Clouds 24 1012 64 10000 7.2 160 21:36 07.09.2019
2324 Clouds 24 1013 64 10000 6.7 180 21:18 07.09.2019
2325 Clouds 24 1013 64 10000 6.7 180 20:39 07.09.2019
2326 Clouds 23 1013 73 10000 7.2 170 20:20 07.09.2019
2327 Clouds 23 1013 73 10000 7.2 170 19:55 07.09.2019
2328 Clouds 23 1013 73 10000 7.2 170 19:37 07.09.2019
2329 Clouds 23 1014 73 10000 5.7 180 19:19 07.09.2019
2330 Clouds 23 1014 73 10000 5.7 180 18:56 07.09.2019
2331 Clouds 23 1014 73 10000 5.7 180 18:37 07.09.2019
2332 Clouds 22 1013 83 10000 6.2 150 18:18 07.09.2019
2333 Clouds 22 1013 83 10000 6.2 150 17:56 07.09.2019
2334 Clouds 22 1013 83 10000 6.2 150 17:38 07.09.2019
2335 Clouds 22 1013 83 10000 5.1 180 17:18 07.09.2019
2336 Clouds 22 1013 83 10000 5.1 180 16:43 07.09.2019
2337 Clouds 22 1013 83 10000 5.1 180 16:21 07.09.2019
2338 Clouds 21 1012 83 10000 4.1 160 15:55 07.09.2019
2339 Clouds 21 1012 83 10000 4.1 160 15:55 07.09.2019
2340 Clouds 21 1012 83 10000 4.1 160 15:36 07.09.2019
2341 Clouds 20 1010 82 10000 4.1 180 15:18 07.09.2019
2342 Clouds 20 1010 82 10000 4.1 180 14:54 07.09.2019
2343 Clouds 20 1010 82 10000 4.1 180 14:54 07.09.2019
2344 Clouds 20 1010 82 10000 4.1 180 14:36 07.09.2019
2345 Clouds 20 1014 81 0 6.21 166.183 14:18 07.09.2019
2346 Clouds 20 1014 81 0 6.21 166.183 13:43 07.09.2019
2347 Clouds 20 1014 81 0 5.87 168.673 13:25 07.09.2019
2348 Clouds 20 1014 81 0 5.87 168.673 12:46 07.09.2019
2349 Clouds 20 1014 81 0 5.87 168.673 12:26 07.09.2019
2350 Rain 20 1013 82 0 5.1 177.662 11:59 07.09.2019
2351 Rain 20 1013 82 0 5.1 177.662 11:40 07.09.2019
2352 Rain 20 1013 82 0 5.1 177.662 11:20 07.09.2019
2353 Rain 20 1013 82 0 5.1 177.662 10:41 07.09.2019
2354 Rain 20 1013 82 0 5.1 177.662 10:22 07.09.2019
2355 Rain 20 1013 82 0 5.1 177.662 09:57 07.09.2019
2356 Rain 20 1013 82 0 5.1 177.662 09:38 07.09.2019
2357 Clouds 20 1015 83 0 5.9 176.444 09:20 07.09.2019
2358 Clouds 20 1015 83 0 5.9 176.444 09:20 07.09.2019
2359 Clouds 20 1014 83 0 5.65 180.558 08:44 07.09.2019
2360 Clouds 20 1014 83 0 5.65 180.558 08:26 07.09.2019
2361 Clouds 20 1014 83 0 5.65 180.558 07:47 07.09.2019
2362 Clouds 20 1014 83 0 5.65 180.558 07:28 07.09.2019
2363 Clouds 20 1014 83 0 5.65 180.558 06:52 07.09.2019
2364 Clouds 20 1014 84 0 5.85 179.138 06:20 07.09.2019
2365 Clouds 20 1014 84 0 5.85 179.138 04:49 07.09.2019
2366 Clouds 20 1014 84 0 5.85 179.138 04:23 07.09.2019
2367 Clouds 22 1011 78 10000 7.2 170 02:49 07.09.2019
2368 Clouds 23 1010 73 10000 6.7 170 01:53 07.09.2019
2369 Clouds 23 1010 73 10000 6.7 170 01:23 07.09.2019
2370 Clouds 24 1010 73 10000 7.7 180 00:40 07.09.2019
2371 Clouds 24 1011 73 10000 6.7 160 00:19 07.09.2019
2372 Clouds 24 1011 73 10000 6.7 160 23:40 06.09.2019
2373 Clouds 24 1011 73 10000 6.7 160 23:22 06.09.2019
2374 Clouds 24 1011 69 10000 7.7 160 22:58 06.09.2019
2375 Clouds 24 1011 69 10000 7.7 160 22:38 06.09.2019
2376 Clouds 24 1011 73 10000 9.3 170 22:19 06.09.2019
2377 Clouds 24 1011 73 10000 9.3 170 21:57 06.09.2019
2378 Clouds 24 1011 73 10000 9.3 170 21:39 06.09.2019
2379 Clouds 23 1013 78 10000 7.7 170 21:20 06.09.2019
2380 Clouds 23 1013 78 10000 7.7 170 20:57 06.09.2019
2381 Clouds 23 1013 78 10000 7.7 170 20:38 06.09.2019
2382 Clouds 23 1013 83 10000 8.2 160 20:18 06.09.2019
2383 Clouds 23 1013 83 10000 8.2 160 19:42 06.09.2019
2384 Clouds 23 1013 83 10000 8.2 160 19:24 06.09.2019
2385 Rain 21 1013 88 10000 6.2 170 18:58 06.09.2019
2386 Rain 21 1013 88 10000 6.2 170 18:40 06.09.2019
2387 Clouds 21 1015 84 0 5.95 166.707 18:22 06.09.2019
2388 Clouds 21 1015 84 0 5.95 166.707 17:56 06.09.2019
2389 Clouds 21 1015 84 0 5.95 166.707 17:56 06.09.2019
2390 Drizzle 20 1014 94 3000 6.7 180 17:37 06.09.2019
2391 Clouds 21 1015 84 0 5.95 166.707 17:18 06.09.2019
2392 Drizzle 21 1013 88 10000 5.7 160 16:38 06.09.2019
2393 Drizzle 20 1013 94 8000 5.1 160 16:18 06.09.2019
2394 Drizzle 20 1013 94 8000 5.1 160 15:41 06.09.2019
2395 Drizzle 20 1013 94 8000 5.1 160 15:23 06.09.2019
2396 Drizzle 20 1013 94 8000 4.6 150 14:48 06.09.2019
2397 Clouds 20 1014 86 0 5.93 163.886 14:20 06.09.2019
2398 Clouds 20 1014 86 0 5.93 163.886 13:45 06.09.2019
2399 Clouds 20 1014 86 0 5.75 164.505 13:25 06.09.2019
2400 Clouds 20 1014 86 0 5.75 164.505 12:59 06.09.2019
2401 Clouds 20 1014 86 0 5.75 164.505 12:37 06.09.2019
2402 Clouds 20 1013 86 0 5.02 169.571 12:18 06.09.2019
2403 Clouds 20 1013 86 0 5.02 169.571 11:42 06.09.2019
2404 Clouds 20 1013 86 0 5.02 169.571 11:24 06.09.2019
2405 Clouds 20 1013 86 0 5.02 169.571 10:58 06.09.2019
2406 Clouds 20 1013 86 0 5.02 169.571 10:39 06.09.2019
2407 Clouds 20 1013 86 0 5.09 174.284 10:21 06.09.2019
2408 Clouds 20 1013 86 0 5.09 174.284 09:40 06.09.2019
2409 Clouds 21 1015 87 0 4.38 166.653 09:21 06.09.2019
2410 Clouds 21 1015 87 0 4.38 166.653 08:57 06.09.2019
2411 Clouds 21 1015 87 0 4.38 166.653 08:38 06.09.2019
2412 Clouds 21 1015 87 0 4.38 166.653 08:20 06.09.2019
2413 Clouds 21 1015 87 0 4.38 166.653 08:20 06.09.2019
2414 Clouds 21 1015 87 0 4.38 166.653 07:45 06.09.2019
2415 Clouds 21 1015 87 0 4.38 166.653 07:26 06.09.2019
2416 Clouds 21 1015 87 0 4.38 166.653 06:54 06.09.2019
2417 Clouds 21 1014 89 0 5.78 171.699 05:58 06.09.2019
2418 Clouds 21 1014 89 0 5.78 171.699 05:19 06.09.2019
2419 Clouds 21 1014 89 0 5.78 171.699 04:41 06.09.2019
2420 Clouds 21 1014 89 0 5.78 171.699 03:42 06.09.2019
2421 Clouds 22 1011 83 10000 7.2 180 01:51 06.09.2019
2422 Clouds 23 1010 78 10000 8.2 170 00:32 06.09.2019
2423 Clouds 24 1010 73 10000 7.2 140 23:44 05.09.2019
2424 Clouds 24 1010 73 10000 7.2 140 23:24 05.09.2019
2425 Clouds 24 1011 73 10000 6.7 170 22:47 05.09.2019
2426 Clouds 24 1011 73 10000 6.7 170 22:47 05.09.2019
2427 Clouds 24 1011 73 10000 6.7 170 22:28 05.09.2019
2428 Clouds 24 1011 73 10000 7.7 170 21:58 05.09.2019
2429 Clouds 24 1011 73 10000 7.7 170 21:40 05.09.2019
2430 Clouds 24 1011 73 10000 7.7 170 21:40 05.09.2019
2431 Clouds 23 1012 78 10000 7.2 160 21:21 05.09.2019
2432 Clouds 23 1012 78 10000 7.2 160 20:58 05.09.2019
2433 Clouds 23 1012 78 10000 7.2 160 20:40 05.09.2019
2434 Clouds 23 1013 78 10000 6.7 170 20:22 05.09.2019
2435 Clouds 23 1013 78 10000 6.7 170 19:59 05.09.2019
2436 Clouds 23 1013 78 10000 6.7 170 19:41 05.09.2019
2437 Clouds 23 1013 78 10000 6.7 170 19:22 05.09.2019
2438 Clouds 23 1013 78 10000 7.2 160 18:45 05.09.2019
2439 Clouds 23 1013 78 10000 7.2 160 18:45 05.09.2019
2440 Clouds 23 1013 78 10000 7.2 160 18:27 05.09.2019
2441 Drizzle 21 1014 88 10000 7.2 150 17:59 05.09.2019
2442 Drizzle 21 1014 88 10000 7.2 150 17:40 05.09.2019
2443 Drizzle 21 1014 88 10000 7.2 150 17:22 05.09.2019
2444 Drizzle 21 1012 88 8000 6.7 170 16:57 05.09.2019
2445 Drizzle 21 1012 88 8000 6.7 170 16:57 05.09.2019
2446 Drizzle 21 1012 88 8000 6.7 170 16:57 05.09.2019
2447 Drizzle 21 1012 88 8000 6.7 170 16:39 05.09.2019
2448 Clouds 20 1012 94 10000 4.6 160 16:18 05.09.2019
2449 Clouds 20 1012 94 10000 4.6 160 15:40 05.09.2019
2450 Drizzle 20 1012 88 10000 5.7 150 15:19 05.09.2019
2451 Drizzle 20 1012 88 10000 5.7 150 15:19 05.09.2019
2452 Drizzle 20 1012 88 10000 5.7 150 15:19 05.09.2019
2453 Drizzle 20 1012 88 10000 5.7 150 14:57 05.09.2019
2454 Drizzle 20 1012 88 10000 5.7 150 14:38 05.09.2019
2455 Clouds 21 1013 91 0 5.43 162.146 14:18 05.09.2019
2456 Clouds 21 1013 91 0 5.43 162.146 13:43 05.09.2019
2457 Clear 20 1013 91 0 5.79 163.794 13:20 05.09.2019
2458 Clear 20 1013 91 0 5.79 163.794 12:45 05.09.2019
2459 Clear 20 1013 91 0 5.79 163.794 12:26 05.09.2019
2460 Clear 20 1012 92 0 4.96 158.636 11:57 05.09.2019
2461 Clear 20 1012 92 0 4.96 158.636 11:39 05.09.2019
2462 Clear 20 1012 92 0 4.96 158.636 11:18 05.09.2019
2463 Clear 20 1012 92 0 4.96 158.636 10:41 05.09.2019
2464 Clear 20 1012 92 0 4.96 158.636 10:22 05.09.2019
2465 Clear 20 1012 92 0 4.96 158.636 09:57 05.09.2019
2466 Clear 20 1012 92 0 5.05 160.235 09:38 05.09.2019
2467 Clouds 20 1014 93 0 3.56 153.853 09:18 05.09.2019
2468 Clouds 20 1014 93 0 3.56 153.853 08:45 05.09.2019
2469 Clouds 20 1014 93 0 3.56 153.853 08:26 05.09.2019
2470 Clouds 20 1014 93 0 3.56 153.853 07:45 05.09.2019
2471 Clouds 20 1014 93 0 3.56 153.853 07:27 05.09.2019
2472 Clouds 20 1014 93 0 3.56 153.853 06:53 05.09.2019
2473 Clouds 20 1014 93 0 3.56 153.853 06:29 05.09.2019
2474 Clouds 21 1014 93 0 4.04 164.175 05:50 05.09.2019
2475 Clouds 21 1014 93 0 4.04 164.175 05:30 05.09.2019
2476 Clouds 21 1014 93 0 4.04 164.175 04:48 05.09.2019
2477 Clouds 21 1014 93 0 4.04 164.175 04:24 05.09.2019
2478 Clouds 21 1014 93 0 4.04 164.175 03:38 05.09.2019
2479 Clouds 22 1010 83 10000 7.2 160 02:45 05.09.2019
2480 Clouds 22 1009 83 10000 6.2 160 02:20 05.09.2019
2481 Clouds 22 1009 83 10000 6.2 160 01:26 05.09.2019
2482 Clouds 24 1009 73 10000 6.7 180 00:42 05.09.2019
2483 Clouds 24 1010 73 10000 8.7 160 00:20 05.09.2019
2484 Clouds 24 1010 73 10000 8.7 160 23:46 04.09.2019
2485 Clouds 24 1010 73 10000 8.7 160 23:46 04.09.2019
2486 Clouds 24 1010 73 10000 8.7 160 23:23 04.09.2019
2487 Clouds 24 1010 73 10000 7.2 160 22:59 04.09.2019
2488 Clouds 24 1010 73 10000 7.2 160 22:38 04.09.2019
2489 Clouds 24 1011 73 10000 7.2 170 22:18 04.09.2019
2490 Clouds 24 1011 73 10000 7.2 170 21:39 04.09.2019
2491 Clouds 24 1012 73 10000 8.2 150 21:20 04.09.2019
2492 Clouds 24 1012 73 10000 8.2 150 20:56 04.09.2019
2493 Clouds 24 1012 73 10000 8.2 150 20:37 04.09.2019
2494 Rain 23 1013 83 10000 6.2 180 20:18 04.09.2019
2495 Rain 23 1013 83 10000 6.2 180 19:45 04.09.2019
2496 Rain 23 1013 83 10000 6.2 180 19:25 04.09.2019
2497 Rain 23 1013 83 10000 6.2 180 19:25 04.09.2019
2498 Rain 23 1014 83 10000 6.7 160 18:58 04.09.2019
2499 Rain 23 1014 83 10000 6.7 160 18:38 04.09.2019
2500 Rain 23 1014 83 10000 6.7 160 18:19 04.09.2019
2501 Clouds 23 1013 83 10000 5.7 160 17:41 04.09.2019
2502 Clouds 23 1013 83 10000 5.7 160 17:23 04.09.2019
2503 Rain 21 1013 88 10000 6.2 170 16:57 04.09.2019
2504 Rain 21 1013 88 10000 6.2 170 16:39 04.09.2019
2505 Rain 20 1012 94 10000 6.2 160 16:20 04.09.2019
2506 Rain 20 1012 94 10000 6.2 160 15:43 04.09.2019
2507 Rain 20 1012 94 10000 6.2 160 15:22 04.09.2019
2508 Drizzle 20 1011 94 8000 4.6 160 14:59 04.09.2019
2509 Drizzle 20 1011 94 8000 4.6 160 14:39 04.09.2019
2510 Rain 21 1013 93 0 5.37 164.383 14:21 04.09.2019
2511 Rain 21 1013 93 0 5.37 164.383 14:00 04.09.2019
2512 Rain 21 1013 93 0 5.37 164.383 13:39 04.09.2019
2513 Clouds 21 1013 90 0 5.7 168.371 13:21 04.09.2019
2514 Clouds 21 1013 90 0 5.7 168.371 12:44 04.09.2019
2515 Clouds 21 1013 90 0 5.7 168.371 12:44 04.09.2019
2516 Clouds 21 1013 90 0 5.7 168.371 12:26 04.09.2019
2517 Clouds 21 1012 91 0 4.65 175.212 11:58 04.09.2019
2518 Clouds 21 1012 91 0 4.65 175.212 11:39 04.09.2019
2519 Clouds 21 1012 91 0 4.65 175.212 11:20 04.09.2019
2520 Clouds 21 1012 91 0 4.65 175.212 10:56 04.09.2019
2521 Clouds 21 1012 91 0 4.65 175.212 10:38 04.09.2019
2522 Clouds 21 1012 91 0 4.65 175.212 10:19 04.09.2019
2523 Clouds 21 1012 91 0 4.7 172.177 09:45 04.09.2019
2524 Clouds 21 1013 91 0 4.75 174.447 09:21 04.09.2019
2525 Clouds 21 1013 91 0 4.75 174.447 08:42 04.09.2019
2526 Clouds 21 1013 91 0 4.75 174.447 08:24 04.09.2019
2527 Clouds 21 1013 91 0 4.75 174.447 07:59 04.09.2019
2528 Clouds 21 1013 91 0 4.75 174.447 07:36 04.09.2019
2529 Clouds 21 1013 91 0 4.75 174.447 06:53 04.09.2019
2530 Clouds 21 1013 91 0 4.75 174.447 06:33 04.09.2019
2531 Clouds 21 1012 92 0 4.08 188.622 04:54 04.09.2019
2532 Clouds 21 1012 92 0 4.08 188.622 04:22 04.09.2019
2533 Clouds 22 1008 88 10000 4.6 150 02:46 04.09.2019
2534 Clouds 23 1007 78 10000 6.2 160 01:18 04.09.2019
2535 Clouds 24 1007 73 10000 7.2 170 00:41 04.09.2019
2536 Clouds 24 1008 73 10000 5.1 170 00:22 04.09.2019
2537 Clouds 24 1008 73 10000 5.1 170 23:48 03.09.2019
2538 Clouds 24 1008 73 10000 5.1 170 23:26 03.09.2019
2539 Clouds 25 1008 69 10000 6.7 170 22:41 03.09.2019
2540 Clouds 24 1009 73 10000 5.7 190 22:22 03.09.2019
2541 Clouds 24 1009 73 10000 5.7 190 21:57 03.09.2019
2542 Clouds 24 1009 73 10000 5.7 190 21:38 03.09.2019
2543 Clouds 23 1010 78 10000 6.2 170 21:20 03.09.2019
2544 Clouds 23 1010 78 10000 6.2 170 20:56 03.09.2019
2545 Clouds 23 1010 78 10000 6.2 170 20:36 03.09.2019
2546 Clouds 23 1010 78 10000 6.2 170 20:18 03.09.2019
2547 Clouds 23 1011 78 10000 6.7 160 19:43 03.09.2019
2548 Clouds 23 1011 78 10000 6.7 160 19:20 03.09.2019
2549 Drizzle 22 1011 88 8000 8.2 160 18:57 03.09.2019
2550 Drizzle 22 1011 88 8000 8.2 160 18:57 03.09.2019
2551 Drizzle 22 1011 88 8000 8.2 160 18:38 03.09.2019
2552 Drizzle 22 1011 88 8000 8.2 160 18:19 03.09.2019
2553 Rain 22 1012 83 10000 7.2 150 17:55 03.09.2019
2554 Rain 22 1012 83 10000 7.2 150 17:55 03.09.2019
2555 Rain 22 1012 83 10000 7.2 150 17:55 03.09.2019
2556 Rain 22 1012 83 10000 7.2 150 17:36 03.09.2019
2557 Rain 21 1011 88 10000 4.6 160 17:18 03.09.2019
2558 Rain 21 1011 88 10000 4.6 160 16:42 03.09.2019
2559 Rain 21 1011 88 10000 4.6 160 16:22 03.09.2019
2560 Drizzle 20 1011 94 5000 5.1 160 15:55 03.09.2019
2561 Drizzle 20 1011 94 5000 5.1 160 15:37 03.09.2019
2562 Clouds 21 1012 91 0 4.94 177.387 15:19 03.09.2019
2563 Rain 20 1010 94 10000 4.1 160 14:41 03.09.2019
2564 Rain 20 1010 94 10000 4.1 160 14:22 03.09.2019
2565 Clouds 21 1012 91 0 4.94 177.387 13:58 03.09.2019
2566 Clouds 21 1012 91 0 4.94 177.387 13:38 03.09.2019
2567 Clear 21 1012 90 0 5.12 179.978 13:20 03.09.2019
2568 Clear 21 1012 90 0 5.12 179.978 12:57 03.09.2019
2569 Clear 21 1012 90 0 5.12 179.978 12:39 03.09.2019
2570 Clear 21 1012 90 0 5.12 179.978 12:39 03.09.2019
2571 Clear 21 1011 89 0 5.18 170.716 12:21 03.09.2019
2572 Clear 21 1011 89 0 5.18 170.716 11:43 03.09.2019
2573 Clear 21 1011 89 0 5.18 170.716 11:23 03.09.2019
2574 Clear 21 1011 89 0 5.18 170.716 11:23 03.09.2019
2575 Clear 21 1011 89 0 5.18 170.716 10:58 03.09.2019
2576 Clear 21 1011 89 0 5.18 170.716 10:39 03.09.2019
2577 Clear 21 1011 89 0 5.18 170.716 10:20 03.09.2019
2578 Clear 21 1011 89 0 5.18 170.716 09:48 03.09.2019
2579 Clear 21 1011 89 0 5.18 170.716 09:48 03.09.2019
2580 Clouds 21 1011 88 0 5.24 172.236 09:30 03.09.2019
2581 Clouds 21 1013 88 0 5.63 170.867 08:56 03.09.2019
2582 Clouds 21 1013 88 0 5.63 170.867 08:37 03.09.2019
2583 Clouds 21 1013 88 0 5.63 170.867 08:19 03.09.2019
2584 Clouds 21 1013 88 0 5.63 170.867 07:42 03.09.2019
2585 Clouds 21 1013 88 0 5.63 170.867 07:23 03.09.2019
2586 Clouds 21 1013 88 0 5.63 170.867 06:45 03.09.2019
2587 Clouds 21 1013 89 0 4.68 162.738 06:18 03.09.2019
2588 Clouds 21 1013 89 0 4.68 162.738 03:43 03.09.2019
2589 Drizzle 21 1009 94 8000 4.1 150 02:47 03.09.2019
2590 Drizzle 21 1009 94 8000 4.1 150 02:25 03.09.2019
2591 Drizzle 21 1009 94 3000 5.1 160 01:51 03.09.2019
2592 Drizzle 21 1009 94 3000 5.1 160 01:32 03.09.2019
2593 Drizzle 22 1008 88 2000 4.1 180 00:44 03.09.2019
2594 Clouds 21 1011 86 0 4.97 183.701 00:23 03.09.2019
2595 Clouds 24 1009 78 10000 6.2 160 23:40 02.09.2019
2596 Rain 24 1009 78 10000 6.7 160 23:20 02.09.2019
2597 Rain 24 1009 78 10000 6.7 160 23:20 02.09.2019
2598 Rain 24 1009 78 10000 6.7 160 22:56 02.09.2019
2599 Rain 24 1009 78 10000 6.7 160 22:38 02.09.2019
2600 Rain 24 1010 78 10000 7.2 170 22:19 02.09.2019
2601 Rain 24 1010 78 10000 7.2 170 21:57 02.09.2019
2602 Rain 24 1010 78 10000 7.2 170 21:38 02.09.2019
2603 Rain 24 1011 78 10000 4.6 190 21:20 02.09.2019
2604 Rain 24 1011 78 10000 4.6 190 20:57 02.09.2019
2605 Rain 24 1011 78 10000 4.6 190 20:39 02.09.2019
2606 Drizzle 22 1012 88 8000 6.7 150 20:18 02.09.2019
2607 Drizzle 22 1012 88 8000 6.7 150 19:55 02.09.2019
2608 Drizzle 22 1012 88 8000 6.7 150 19:55 02.09.2019
2609 Drizzle 22 1012 88 8000 6.7 150 19:37 02.09.2019
2610 Drizzle 22 1012 88 8000 6.7 150 19:18 02.09.2019
2611 Clouds 22 1011 88 10000 7.7 170 18:38 02.09.2019
2612 Clouds 22 1011 88 10000 7.7 170 18:38 02.09.2019
2613 Clouds 22 1011 88 10000 7.7 170 18:20 02.09.2019
2614 Rain 21 1011 94 10000 7.2 160 17:56 02.09.2019
2615 Rain 21 1011 94 10000 7.2 160 17:38 02.09.2019
2616 Drizzle 21 1011 94 8000 4.1 170 17:19 02.09.2019
2617 Drizzle 21 1011 94 8000 4.1 170 16:41 02.09.2019
2618 Drizzle 20 1010 100 8000 4.6 160 16:21 02.09.2019
2619 Drizzle 20 1010 100 8000 4.6 160 15:55 02.09.2019
2620 Drizzle 20 1010 100 8000 4.6 160 15:37 02.09.2019
2621 Rain 20 1009 94 10000 5.1 160 15:18 02.09.2019
2622 Rain 20 1009 94 10000 5.1 160 14:56 02.09.2019
2623 Rain 20 1009 94 10000 5.1 160 14:36 02.09.2019
2624 Clouds 21 1012 88 0 4.77 179.532 14:18 02.09.2019
2625 Clouds 21 1012 88 0 4.77 179.532 13:43 02.09.2019
2626 Rain 21 1012 87 0 5.25 181.036 13:24 02.09.2019
2627 Rain 21 1012 87 0 5.25 181.036 12:47 02.09.2019
2628 Rain 21 1012 87 0 5.25 181.036 12:27 02.09.2019
2629 Clouds 21 1011 87 0 5.21 176.359 11:59 02.09.2019
2630 Clouds 21 1011 87 0 5.21 176.359 11:40 02.09.2019
2631 Clouds 21 1011 87 0 5.21 176.359 11:22 02.09.2019
2632 Clouds 21 1011 87 0 5.21 176.359 10:58 02.09.2019
2633 Clouds 21 1011 87 0 5.21 176.359 10:39 02.09.2019
2634 Clouds 21 1011 87 0 5.21 176.359 10:20 02.09.2019
2635 Clouds 21 1011 87 0 5.21 176.359 09:57 02.09.2019
2636 Clouds 21 1011 87 0 4.94 175.968 09:37 02.09.2019
2637 Rain 21 1012 88 0 3.93 174.562 09:18 02.09.2019
2638 Rain 21 1012 88 0 3.93 174.562 08:39 02.09.2019
2639 Rain 21 1012 88 0 3.93 174.562 08:18 02.09.2019
2640 Rain 21 1012 88 0 3.93 174.562 07:41 02.09.2019
2641 Rain 21 1012 88 0 3.93 174.562 07:21 02.09.2019
2642 Rain 21 1012 88 0 3.93 174.562 06:48 02.09.2019
2643 Rain 21 1012 88 0 3.93 174.562 06:29 02.09.2019
2644 Clouds 21 1013 87 0 4.58 165.188 05:49 02.09.2019
2645 Clouds 21 1013 87 0 4.58 165.188 05:19 02.09.2019
2646 Clouds 21 1013 87 0 4.58 165.188 04:21 02.09.2019
2647 Clouds 22 1008 83 10000 6.2 160 01:48 02.09.2019
2648 Clouds 23 1008 78 10000 7.2 160 00:49 02.09.2019
2649 Clouds 23 1008 78 10000 7.2 160 00:31 02.09.2019
2650 Clouds 24 1008 73 10000 7.7 150 23:46 01.09.2019
2651 Clouds 24 1008 73 10000 7.7 150 23:23 01.09.2019
2652 Clouds 24 1009 78 10000 6.7 160 22:59 01.09.2019
2653 Clouds 24 1009 78 10000 6.7 160 22:40 01.09.2019
2654 Rain 24 1010 78 10000 6.2 160 22:19 01.09.2019
2655 Rain 24 1010 78 10000 6.2 160 21:57 01.09.2019
2656 Rain 24 1010 78 10000 6.2 160 21:39 01.09.2019
2657 Rain 24 1011 78 10000 6.7 160 21:20 01.09.2019
2658 Rain 24 1011 78 10000 6.7 160 20:57 01.09.2019
2659 Rain 24 1011 78 10000 6.7 160 20:38 01.09.2019
2660 Rain 23 1012 83 10000 6.2 170 20:18 01.09.2019
2661 Rain 23 1012 83 10000 6.2 170 19:57 01.09.2019
2662 Rain 23 1012 83 10000 6.2 170 19:37 01.09.2019
2663 Rain 23 1012 83 10000 6.2 170 19:19 01.09.2019
2664 Rain 23 1012 83 10000 4.6 160 18:43 01.09.2019
2665 Rain 23 1012 83 10000 4.6 160 18:25 01.09.2019
2666 Drizzle 21 1012 94 8000 4.6 180 17:55 01.09.2019
2667 Drizzle 21 1012 94 8000 4.6 180 17:55 01.09.2019
2668 Drizzle 21 1012 94 8000 4.6 180 17:37 01.09.2019
2669 Clouds 21 1015 87 0 5.73 167.671 17:18 01.09.2019
2670 Clouds 21 1015 87 0 5.73 167.671 17:18 01.09.2019
2671 Drizzle 22 1012 88 10000 4.6 180 16:39 01.09.2019
2672 Drizzle 21 1011 88 10000 4.1 150 16:19 01.09.2019
2673 Drizzle 21 1011 88 10000 4.1 150 15:47 01.09.2019
2674 Drizzle 21 1011 88 10000 4.1 150 15:29 01.09.2019
2675 Drizzle 20 1011 94 10000 4.1 150 14:57 01.09.2019
2676 Drizzle 20 1011 94 10000 4.1 150 14:38 01.09.2019
2677 Clouds 20 1012 89 0 5.67 167.596 14:20 01.09.2019
2678 Clouds 20 1012 89 0 5.67 167.596 13:43 01.09.2019
2679 Clouds 21 1012 89 0 5.53 167.445 13:24 01.09.2019
2680 Clouds 21 1012 89 0 5.53 167.445 12:59 01.09.2019
2681 Clouds 21 1012 89 0 5.53 167.445 12:40 01.09.2019
2682 Clouds 21 1012 89 0 5.53 167.445 12:40 01.09.2019
2683 Clouds 20 1011 90 0 4.84 166.426 12:21 01.09.2019
2684 Clouds 20 1011 90 0 4.84 166.426 12:21 01.09.2019
2685 Clouds 20 1011 90 0 4.84 166.426 11:40 01.09.2019
2686 Clouds 20 1011 90 0 4.84 166.426 11:20 01.09.2019
2687 Clouds 20 1011 90 0 4.84 166.426 10:58 01.09.2019
2688 Clouds 20 1011 90 0 4.84 166.426 10:58 01.09.2019
2689 Clouds 20 1011 90 0 4.84 166.426 10:39 01.09.2019
2690 Clouds 20 1011 90 0 4.84 166.426 10:20 01.09.2019
2691 Clouds 20 1011 89 0 5 168.209 09:42 01.09.2019
2692 Clear 21 1013 87 0 4.18 166.306 09:24 01.09.2019
2693 Clear 21 1013 87 0 4.18 166.306 08:44 01.09.2019
2694 Clear 21 1013 87 0 4.18 166.306 08:23 01.09.2019
2695 Clear 21 1013 87 0 4.18 166.306 07:49 01.09.2019
2696 Clear 21 1013 87 0 4.18 166.306 07:31 01.09.2019
2697 Clear 21 1013 87 0 4.18 166.306 06:42 01.09.2019
2698 Clear 21 1014 87 0 5.16 169.065 06:19 01.09.2019
2699 Clear 21 1014 87 0 5.16 169.065 05:38 01.09.2019
2700 Clear 21 1014 87 0 5.16 169.065 04:27 01.09.2019
2701 Clear 21 1014 87 0 5.16 169.065 03:39 01.09.2019
2702 Clouds 22 1010 88 10000 5.1 180 02:57 01.09.2019
2703 Clouds 22 1010 88 10000 5.1 180 02:26 01.09.2019
2704 Clouds 23 1009 83 10000 5.1 160 01:41 01.09.2019
2705 Clouds 23 1009 83 10000 4.6 170 01:22 01.09.2019
2706 Clouds 23 1009 83 10000 4.6 170 00:42 01.09.2019
2707 Rain 24 1009 83 10000 5.7 160 00:21 01.09.2019
2708 Rain 24 1009 83 10000 5.7 160 23:48 31.08.2019
2709 Rain 24 1010 78 10000 6.2 160 23:21 31.08.2019
2710 Rain 24 1010 78 10000 6.2 160 22:56 31.08.2019
2711 Rain 24 1010 78 10000 6.2 160 22:56 31.08.2019
2712 Rain 24 1010 78 10000 6.2 160 22:38 31.08.2019
2713 Rain 23 1011 88 10000 5.1 170 22:20 31.08.2019
2714 Rain 23 1011 88 10000 5.1 170 21:54 31.08.2019
2715 Rain 23 1011 88 10000 5.1 170 21:36 31.08.2019
2716 Drizzle 22 1012 88 10000 6.2 170 21:18 31.08.2019
2717 Drizzle 22 1012 88 10000 6.2 170 20:42 31.08.2019
2718 Drizzle 22 1012 88 10000 6.2 170 20:23 31.08.2019
2719 Clouds 21 1013 88 0 5.33 168.349 19:43 31.08.2019
2720 Drizzle 23 1013 83 10000 4.6 190 19:23 31.08.2019
2721 Drizzle 23 1013 83 10000 4.6 190 18:58 31.08.2019
2722 Rain 23 1013 83 10000 5.1 180 18:38 31.08.2019
2723 Drizzle 22 1013 88 10000 5.1 170 18:19 31.08.2019
2724 Drizzle 22 1013 88 10000 5.1 170 17:55 31.08.2019
2725 Drizzle 22 1013 88 10000 5.1 170 17:37 31.08.2019
2726 Drizzle 21 1013 94 10000 4.6 180 17:18 31.08.2019
2727 Drizzle 21 1013 94 10000 4.6 180 16:55 31.08.2019
2728 Drizzle 21 1013 94 10000 4.6 180 16:36 31.08.2019
2729 Drizzle 21 1012 94 8000 6.7 160 16:18 31.08.2019
2730 Drizzle 21 1012 94 8000 6.7 160 15:41 31.08.2019
2731 Drizzle 20 1011 100 5000 6.7 170 15:18 31.08.2019
2732 Drizzle 20 1011 100 5000 6.7 170 15:18 31.08.2019
2733 Drizzle 20 1011 100 5000 6.7 170 14:42 31.08.2019
2734 Drizzle 20 1011 100 5000 6.7 170 14:24 31.08.2019
2735 Rain 21 1012 90 0 5.88 176.43 13:59 31.08.2019
2736 Rain 21 1012 90 0 5.88 176.43 13:38 31.08.2019
2737 Clouds 20 1013 90 0 6.07 173.64 13:19 31.08.2019
2738 Clouds 20 1013 90 0 6.07 173.64 12:54 31.08.2019
2739 Clouds 20 1013 90 0 6.07 173.64 12:36 31.08.2019
2740 Clouds 20 1012 90 0 5.24 188.195 12:18 31.08.2019
2741 Clouds 20 1012 90 0 5.24 188.195 11:42 31.08.2019
2742 Clouds 20 1012 90 0 5.24 188.195 11:24 31.08.2019
2743 Clouds 20 1012 90 0 5.24 188.195 10:55 31.08.2019
2744 Clouds 20 1012 90 0 5.24 188.195 10:36 31.08.2019
2745 Clouds 20 1012 90 0 5.24 188.195 10:18 31.08.2019
2746 Clouds 20 1012 89 0 5.09 192.827 09:40 31.08.2019
2747 Clouds 20 1012 89 0 5.09 192.827 09:40 31.08.2019
2748 Clear 21 1014 89 0 4.76 192.612 09:21 31.08.2019
2749 Clear 21 1014 89 0 4.76 192.612 08:45 31.08.2019
2750 Clear 21 1014 89 0 4.76 192.612 08:27 31.08.2019
2751 Clear 21 1014 89 0 4.76 192.612 07:43 31.08.2019
2752 Clear 21 1014 89 0 4.76 192.612 07:23 31.08.2019
2753 Clear 21 1014 89 0 4.76 192.612 06:59 31.08.2019
2754 Clear 21 1013 89 0 4.69 182.567 06:23 31.08.2019
2755 Clear 21 1013 89 0 4.69 182.567 05:35 31.08.2019
2756 Clear 21 1013 89 0 4.69 182.567 04:45 31.08.2019
2757 Clear 21 1013 89 0 4.69 182.567 04:27 31.08.2019
2758 Clear 21 1013 89 0 4.69 182.567 03:42 31.08.2019
2759 Clouds 23 1009 83 10000 4.1 160 02:00 31.08.2019
2760 Clouds 23 1009 83 10000 4.1 160 01:41 31.08.2019
2761 Clouds 23 1009 83 10000 4.1 160 01:41 31.08.2019
2762 Clouds 24 1009 78 10000 5.1 170 01:22 31.08.2019
2763 Clouds 24 1009 78 10000 5.1 170 00:42 31.08.2019
2764 Clouds 24 1009 78 10000 5.1 170 00:42 31.08.2019
2765 Clouds 24 1009 78 10000 5.1 170 00:24 31.08.2019
2766 Clouds 24 1009 78 10000 7.2 170 23:47 30.08.2019
2767 Clouds 24 1010 78 10000 6.7 160 23:18 30.08.2019
2768 Clouds 24 1010 78 10000 6.7 160 22:55 30.08.2019
2769 Clouds 24 1010 78 10000 6.7 160 22:55 30.08.2019
2770 Clouds 24 1010 78 10000 6.7 160 22:37 30.08.2019
2771 Rain 24 1011 78 10000 4.1 190 22:18 30.08.2019
2772 Rain 24 1011 78 10000 4.1 190 21:54 30.08.2019
2773 Rain 24 1011 78 10000 4.1 190 21:36 30.08.2019
2774 Drizzle 23 1012 83 10000 5.7 180 21:18 30.08.2019
2775 Drizzle 23 1012 83 10000 5.7 180 20:41 30.08.2019
2776 Clouds 24 1012 73 10000 5.1 180 20:21 30.08.2019
2777 Clouds 24 1012 73 10000 5.1 180 19:59 30.08.2019
2778 Clouds 24 1012 73 10000 5.1 180 19:40 30.08.2019
2779 Clouds 24 1012 73 10000 5.1 180 19:19 30.08.2019
2780 Clouds 24 1013 73 10000 6.7 200 18:55 30.08.2019
2781 Clouds 24 1013 73 10000 6.7 200 18:37 30.08.2019
2782 Clouds 24 1013 73 10000 6.7 200 18:37 30.08.2019
2783 Clouds 24 1013 73 10000 6.7 200 18:18 30.08.2019
2784 Clouds 23 1013 83 10000 6.2 200 17:55 30.08.2019
2785 Clouds 23 1013 83 10000 6.2 200 17:55 30.08.2019
2786 Clouds 23 1013 83 10000 6.2 200 17:37 30.08.2019
2787 Rain 21 1012 88 10000 5.1 170 17:18 30.08.2019
2788 Rain 21 1012 88 10000 5.1 170 16:43 30.08.2019
2789 Rain 21 1012 88 10000 5.1 170 16:22 30.08.2019
2790 Rain 21 1012 88 10000 5.7 170 15:44 30.08.2019
2791 Rain 21 1012 88 10000 5.7 170 15:24 30.08.2019
2792 Clouds 21 1011 88 10000 5.1 180 14:55 30.08.2019
2793 Clouds 21 1011 88 10000 5.1 180 14:55 30.08.2019
2794 Clouds 21 1011 88 10000 5.1 180 14:36 30.08.2019
2795 Clouds 21 1012 90 0 5.48 179.77 14:18 30.08.2019
2796 Clouds 21 1012 90 0 5.48 179.77 13:41 30.08.2019
2797 Rain 21 1013 89 0 5.53 187.856 13:22 30.08.2019
2798 Rain 21 1013 89 0 5.53 187.856 12:55 30.08.2019
2799 Rain 21 1013 89 0 5.53 187.856 12:55 30.08.2019
2800 Rain 21 1013 89 0 5.53 187.856 12:36 30.08.2019
2801 Clouds 21 1012 88 0 3.91 187.695 12:18 30.08.2019
2802 Clouds 21 1012 88 0 3.91 187.695 12:18 30.08.2019
2803 Clouds 21 1012 88 0 3.91 187.695 11:41 30.08.2019
2804 Clouds 21 1012 88 0 3.91 187.695 11:23 30.08.2019
2805 Clouds 21 1012 88 0 3.91 187.695 10:39 30.08.2019
2806 Clouds 21 1012 88 0 3.91 187.695 10:20 30.08.2019
2807 Clouds 21 1012 88 0 3.91 187.695 09:57 30.08.2019
2808 Clouds 21 1012 88 0 3.91 187.695 09:37 30.08.2019
2809 Rain 21 1013 86 0 3.75 196.992 09:18 30.08.2019
2810 Rain 21 1013 86 0 3.75 196.992 08:44 30.08.2019
2811 Rain 21 1013 86 0 3.75 196.992 08:25 30.08.2019
2812 Rain 21 1013 86 0 3.75 196.992 07:57 30.08.2019
2813 Rain 21 1013 86 0 3.75 196.992 07:37 30.08.2019
2814 Rain 21 1013 86 0 3.75 196.992 07:19 30.08.2019
2815 Rain 21 1013 86 0 3.75 196.992 06:40 30.08.2019
2816 Clouds 21 1013 87 0 3.71 171.339 06:21 30.08.2019
2817 Clouds 21 1013 87 0 3.71 171.339 05:32 30.08.2019
2818 Clouds 21 1013 87 0 3.71 171.339 03:57 30.08.2019
2819 Clouds 21 1013 87 0 3.71 171.339 03:57 30.08.2019
2820 Clouds 21 1013 87 0 3.71 171.339 03:37 30.08.2019
2821 Clouds 23 1008 78 10000 5.1 190 02:42 30.08.2019
2822 Clouds 23 1008 78 10000 5.7 180 02:19 30.08.2019
2823 Clouds 24 1007 73 10000 6.7 200 00:57 30.08.2019
2824 Clouds 24 1008 78 10000 7.2 190 00:23 30.08.2019
2825 Clouds 24 1008 78 10000 7.2 190 23:48 29.08.2019
2826 Clouds 24 1008 78 10000 7.2 190 23:23 29.08.2019
2827 Clouds 24 1008 78 10000 7.2 190 23:23 29.08.2019
2828 Clouds 24 1008 78 10000 7.7 190 22:56 29.08.2019
2829 Clouds 24 1008 78 10000 7.7 190 22:37 29.08.2019
2830 Clouds 24 1009 78 10000 6.7 170 22:19 29.08.2019
2831 Clouds 24 1009 78 10000 6.7 170 21:41 29.08.2019
2832 Clouds 24 1010 78 10000 7.2 180 21:21 29.08.2019
2833 Clouds 24 1010 78 10000 7.2 180 20:59 29.08.2019
2834 Clouds 24 1010 78 10000 7.2 180 20:40 29.08.2019
2835 Clouds 24 1010 78 10000 7.2 180 20:19 29.08.2019
2836 Rain 24 1011 73 10000 5.1 190 19:47 29.08.2019
2837 Rain 24 1011 73 10000 5.1 190 19:27 29.08.2019
2838 Rain 23 1011 83 10000 6.2 190 18:59 29.08.2019
2839 Rain 23 1011 83 10000 6.2 190 18:41 29.08.2019
2840 Rain 23 1011 83 10000 6.2 190 18:19 29.08.2019
2841 Drizzle 22 1011 83 10000 6.7 180 17:56 29.08.2019
2842 Drizzle 22 1011 83 10000 6.7 180 17:36 29.08.2019
2843 Drizzle 22 1011 83 10000 6.7 180 17:18 29.08.2019
2844 Clouds 21 1013 89 0 5.29 178.33 16:43 29.08.2019
2845 Clouds 22 1011 88 10000 5.1 180 16:23 29.08.2019
2846 Clouds 22 1011 88 10000 5.1 180 15:54 29.08.2019
2847 Clouds 22 1011 88 10000 5.1 180 15:36 29.08.2019
2848 Rain 21 1010 94 10000 5.7 170 15:18 29.08.2019
2849 Rain 21 1010 94 10000 5.7 170 14:42 29.08.2019
2850 Clouds 21 1011 90 0 5.76 174.106 14:21 29.08.2019
2851 Clouds 21 1011 90 0 5.76 174.106 13:57 29.08.2019
2852 Clouds 21 1011 90 0 5.76 174.106 13:39 29.08.2019
2853 Clouds 21 1011 90 0 5.63 174.122 13:19 29.08.2019
2854 Clouds 21 1011 90 0 5.63 174.122 12:57 29.08.2019
2855 Clouds 21 1011 90 0 5.63 174.122 12:38 29.08.2019
2856 Clouds 21 1011 91 0 6.66 180.956 12:20 29.08.2019
2857 Clouds 21 1011 91 0 6.66 180.956 11:56 29.08.2019
2858 Clouds 21 1011 91 0 6.66 180.956 11:36 29.08.2019
2859 Clouds 21 1011 91 0 6.66 180.956 11:18 29.08.2019
2860 Clouds 21 1011 91 0 6.66 180.956 10:41 29.08.2019
2861 Clouds 21 1011 91 0 6.66 180.956 10:22 29.08.2019
2862 Clear 21 1011 91 0 6.34 180.669 09:42 29.08.2019
2863 Clouds 21 1013 91 0 6.5 176.559 09:20 29.08.2019
2864 Clouds 21 1013 91 0 6.5 176.559 08:56 29.08.2019
2865 Clouds 21 1013 91 0 6.5 176.559 08:36 29.08.2019
2866 Clouds 21 1013 91 0 6.5 176.559 08:18 29.08.2019
2867 Clouds 21 1013 91 0 6.5 176.559 07:41 29.08.2019
2868 Clouds 21 1013 91 0 6.5 176.559 07:23 29.08.2019
2869 Clouds 21 1013 91 0 6.5 176.559 06:41 29.08.2019
2870 Clouds 21 1013 90 0 6.56 180.707 05:54 29.08.2019
2871 Clouds 21 1013 90 0 6.56 180.707 05:33 29.08.2019
2872 Clouds 21 1013 90 0 6.56 180.707 04:49 29.08.2019
2873 Clouds 21 1013 90 0 6.56 180.707 04:28 29.08.2019
2874 Clouds 24 1008 78 10000 6.2 200 02:21 29.08.2019
2875 Clouds 24 1008 78 10000 6.2 200 01:41 29.08.2019
2876 Clouds 24 1007 78 10000 5.7 190 00:51 29.08.2019
2877 Clouds 24 1008 78 10000 6.7 200 00:24 29.08.2019
2878 Clouds 24 1008 78 10000 6.7 200 23:59 28.08.2019
2879 Clouds 24 1008 78 10000 6.7 200 23:40 28.08.2019
2880 Clouds 24 1008 78 10000 6.7 200 23:22 28.08.2019
2881 Clouds 24 1008 78 10000 6.7 200 23:22 28.08.2019
2882 Clouds 24 1009 78 10000 6.7 180 22:56 28.08.2019
2883 Clouds 24 1009 78 10000 6.7 180 22:38 28.08.2019
2884 Rain 25 1009 73 10000 7.2 170 22:18 28.08.2019
2885 Rain 25 1009 73 10000 7.2 170 22:18 28.08.2019
2886 Rain 25 1009 73 10000 7.2 170 21:43 28.08.2019
2887 Rain 25 1009 73 10000 7.2 170 21:25 28.08.2019
2888 Rain 24 1011 78 10000 8.2 190 20:59 28.08.2019
2889 Rain 24 1011 78 10000 8.2 190 20:40 28.08.2019
2890 Clouds 24 1011 78 10000 8.2 190 20:22 28.08.2019
2891 Clouds 24 1011 78 10000 8.2 190 20:22 28.08.2019
2892 Clouds 24 1011 78 10000 8.2 190 19:43 28.08.2019
2893 Clouds 24 1011 78 10000 8.2 190 19:22 28.08.2019
2894 Clouds 23 1012 88 10000 7.7 190 18:59 28.08.2019
2895 Clouds 23 1012 88 10000 7.7 190 18:39 28.08.2019
2896 Clouds 23 1012 83 10000 6.7 180 18:21 28.08.2019
2897 Clouds 23 1012 83 10000 6.7 180 17:39 28.08.2019
2898 Rain 22 1012 88 10000 7.2 180 17:19 28.08.2019
2899 Rain 22 1012 88 10000 7.2 180 16:55 28.08.2019
2900 Rain 22 1012 88 10000 7.2 180 16:37 28.08.2019
2901 Rain 21 1011 94 10000 7.7 180 16:18 28.08.2019
2902 Rain 21 1011 94 10000 7.7 180 15:38 28.08.2019
2903 Drizzle 21 1010 94 5000 6.7 180 15:20 28.08.2019
2904 Drizzle 21 1010 94 5000 6.7 180 14:58 28.08.2019
2905 Drizzle 21 1010 94 5000 6.7 180 14:39 28.08.2019
2906 Rain 21 1012 90 0 6.1 185.789 14:20 28.08.2019
2907 Rain 21 1012 90 0 6.1 185.789 13:58 28.08.2019
2908 Rain 21 1012 90 0 6.1 185.789 13:38 28.08.2019
2909 Rain 20 1012 90 0 6.13 184.781 13:19 28.08.2019
2910 Rain 20 1012 90 0 6.13 184.781 12:42 28.08.2019
2911 Clouds 20 1012 89 0 6.28 196.718 12:24 28.08.2019
2912 Clouds 20 1012 89 0 6.28 196.718 11:57 28.08.2019
2913 Clouds 20 1012 89 0 6.28 196.718 11:38 28.08.2019
2914 Clouds 20 1012 89 0 6.28 196.718 11:20 28.08.2019
2915 Clouds 20 1012 89 0 6.28 196.718 10:55 28.08.2019
2916 Clouds 20 1012 89 0 6.28 196.718 10:37 28.08.2019
2917 Clouds 20 1012 89 0 6.28 196.718 10:18 28.08.2019
2918 Clouds 20 1012 89 0 6.28 196.718 09:41 28.08.2019
2919 Clouds 20 1012 89 0 6.28 196.718 09:41 28.08.2019
2920 Clouds 20 1012 89 0 5.92 205.114 09:20 28.08.2019
2921 Clouds 20 1012 89 0 5.92 205.114 08:39 28.08.2019
2922 Clouds 20 1012 89 0 5.92 205.114 08:21 28.08.2019
2923 Clouds 20 1012 89 0 5.92 205.114 07:45 28.08.2019
2924 Clouds 20 1012 89 0 5.92 205.114 07:26 28.08.2019
2925 Clouds 20 1012 89 0 5.92 205.114 06:59 28.08.2019
2926 Clouds 20 1012 89 0 5.92 205.114 06:40 28.08.2019
2927 Clouds 21 1012 88 0 5.7 195.791 05:44 28.08.2019
2928 Clouds 22 1008 88 10000 6.7 190 03:32 28.08.2019
2929 Clouds 23 1007 83 10000 6.7 180 01:50 28.08.2019
2930 Clouds 23 1007 83 10000 6.7 180 01:29 28.08.2019
2931 Clouds 24 1007 83 10000 6.7 190 00:41 28.08.2019
2932 Rain 23 1007 88 10000 7.7 180 23:59 27.08.2019
2933 Rain 23 1007 88 10000 7.7 180 23:40 27.08.2019
2934 Rain 23 1007 88 10000 7.7 180 23:40 27.08.2019
2935 Rain 23 1008 88 8000 7.2 180 23:21 27.08.2019
2936 Rain 23 1008 88 8000 7.2 180 22:56 27.08.2019
2937 Rain 23 1008 88 8000 7.2 180 22:38 27.08.2019
2938 Clouds 20 1010 90 0 6.57 181.299 22:19 27.08.2019
2939 Clouds 20 1010 90 0 6.04 186.85 21:55 27.08.2019
2940 Clouds 20 1010 90 0 6.04 186.85 21:36 27.08.2019
2941 Clouds 20 1012 90 0 6.24 181.837 21:18 27.08.2019
2942 Clouds 20 1012 90 0 6.24 181.837 20:41 27.08.2019
2943 Drizzle 22 1011 94 5000 7.2 190 20:21 27.08.2019
2944 Drizzle 22 1011 94 5000 7.2 190 19:58 27.08.2019
2945 Drizzle 22 1011 94 5000 7.2 190 19:39 27.08.2019
2946 Drizzle 22 1011 94 5000 7.2 190 19:21 27.08.2019
2947 Drizzle 22 1011 94 5000 6.2 180 18:43 27.08.2019
2948 Drizzle 22 1011 94 5000 6.2 180 18:19 27.08.2019
2949 Drizzle 22 1011 94 5000 6.2 180 18:19 27.08.2019
2950 Drizzle 22 1011 94 5000 6.2 180 17:59 27.08.2019
2951 Drizzle 21 1011 94 8000 5.1 180 17:41 27.08.2019
2952 Drizzle 21 1011 94 8000 5.1 180 17:22 27.08.2019
2953 Drizzle 21 1010 94 8000 4.1 210 16:47 27.08.2019
2954 Drizzle 21 1010 94 8000 4.1 210 16:28 27.08.2019
2955 Rain 21 1009 94 8000 4.6 190 15:58 27.08.2019
2956 Rain 21 1009 94 8000 4.6 190 15:39 27.08.2019
2957 Drizzle 21 1009 94 5000 5.1 190 15:20 27.08.2019
2958 Drizzle 21 1009 94 5000 5.1 190 14:54 27.08.2019
2959 Drizzle 21 1009 94 5000 5.1 190 14:36 27.08.2019
2960 Rain 20 1011 90 0 5.3 182.464 14:18 27.08.2019
2961 Rain 20 1011 90 0 5.3 182.464 13:41 27.08.2019
2962 Clouds 20 1011 90 0 5.59 181.978 13:20 27.08.2019
2963 Clouds 20 1011 90 0 5.59 181.978 12:42 27.08.2019
2964 Clouds 20 1011 88 0 5.05 195.73 12:21 27.08.2019
2965 Clouds 20 1011 88 0 5.05 195.73 11:57 27.08.2019
2966 Clouds 20 1011 88 0 5.05 195.73 11:37 27.08.2019
2967 Clouds 20 1011 88 0 5.05 195.73 11:19 27.08.2019
2968 Clouds 20 1011 88 0 5.05 195.73 10:41 27.08.2019
2969 Clouds 20 1011 88 0 5.05 195.73 10:20 27.08.2019
2970 Clouds 20 1011 88 0 5.05 195.73 09:55 27.08.2019
2971 Clouds 20 1011 88 0 5.05 195.73 09:37 27.08.2019
2972 Clouds 20 1011 88 0 5.05 195.73 09:37 27.08.2019
2973 Clear 20 1012 88 0 6.02 191.776 09:18 27.08.2019
2974 Clear 20 1012 88 0 6.02 191.776 08:44 27.08.2019
2975 Clear 20 1012 88 0 6.02 191.776 08:24 27.08.2019
2976 Clear 20 1012 88 0 6.02 191.776 07:43 27.08.2019
2977 Clear 20 1012 88 0 6.02 191.776 07:21 27.08.2019
2978 Clear 20 1012 88 0 6.02 191.776 06:59 27.08.2019
2979 Clear 20 1012 88 0 6.02 191.776 06:40 27.08.2019
2980 Clear 20 1012 88 0 5.93 182.212 06:19 27.08.2019
2981 Clear 20 1012 88 0 5.93 182.212 05:24 27.08.2019
2982 Clear 20 1012 88 0 5.93 182.212 03:43 27.08.2019
2983 Clouds 22 1007 88 10000 5.7 180 02:28 27.08.2019
2984 Rain 22 1007 94 10000 6.2 170 01:46 27.08.2019
2985 Rain 23 1007 88 10000 6.7 170 01:24 27.08.2019
2986 Rain 23 1007 88 10000 6.7 170 00:48 27.08.2019
2987 Rain 23 1007 88 10000 6.7 170 00:26 27.08.2019
2988 Drizzle 22 1007 88 10000 5.7 150 23:40 26.08.2019
2989 Drizzle 22 1007 88 10000 5.7 150 23:21 26.08.2019
2990 Clouds 24 1007 73 10000 6.7 170 22:57 26.08.2019
2991 Clouds 24 1007 73 10000 6.7 170 22:36 26.08.2019
2992 Clouds 24 1007 73 10000 6.7 170 22:18 26.08.2019
2993 Clouds 24 1008 73 10000 5.1 190 21:39 26.08.2019
2994 Clouds 24 1008 73 10000 5.1 190 21:21 26.08.2019
2995 Clouds 23 1009 78 10000 6.2 170 20:57 26.08.2019
2996 Clouds 23 1009 78 10000 6.2 170 20:39 26.08.2019
2997 Clouds 23 1009 78 10000 6.2 170 20:19 26.08.2019
2998 Clouds 23 1010 83 10000 6.2 160 19:54 26.08.2019
2999 Clouds 23 1010 83 10000 6.2 160 19:36 26.08.2019
3000 Clouds 23 1010 83 10000 6.2 160 19:18 26.08.2019
3001 Clouds 23 1010 83 10000 5.1 170 18:38 26.08.2019
3002 Clouds 23 1010 83 10000 5.1 170 18:20 26.08.2019
3003 Rain 22 1010 88 10000 5.1 160 17:55 26.08.2019
3004 Rain 22 1010 88 10000 5.1 160 17:37 26.08.2019
3005 Rain 22 1010 88 10000 5.1 160 17:18 26.08.2019
3006 Rain 21 1010 94 10000 4.1 160 16:55 26.08.2019
3007 Rain 21 1010 94 10000 4.1 160 16:37 26.08.2019
3008 Rain 21 1010 94 10000 4.1 160 16:18 26.08.2019
3009 Drizzle 21 1010 94 8000 5.7 170 15:41 26.08.2019
3010 Drizzle 21 1010 94 8000 5.7 170 15:21 26.08.2019
3011 Drizzle 21 1009 88 8000 3.6 150 14:45 26.08.2019
3012 Drizzle 21 1009 88 8000 3.6 150 14:23 26.08.2019
3013 Clouds 20 1011 88 0 5.2 155.986 13:59 26.08.2019
3014 Clouds 20 1011 88 0 5.2 155.986 13:38 26.08.2019
3015 Clouds 20 1011 87 0 5.05 157.897 13:19 26.08.2019
3016 Clouds 20 1011 87 0 5.05 157.897 12:43 26.08.2019
3017 Clouds 20 1011 87 0 5.59 164.48 12:23 26.08.2019
3018 Clouds 20 1011 87 0 5.59 164.48 11:56 26.08.2019
3019 Clouds 20 1011 87 0 5.59 164.48 11:36 26.08.2019
3020 Clouds 20 1011 87 0 5.59 164.48 11:18 26.08.2019
3021 Clouds 20 1011 87 0 5.59 164.48 10:42 26.08.2019
3022 Clouds 20 1011 87 0 5.59 164.48 10:20 26.08.2019
3023 Clouds 20 1011 87 0 5.59 164.48 09:47 26.08.2019
3024 Clouds 20 1011 89 0 5.71 162.409 09:26 26.08.2019
3025 Clouds 20 1011 89 0 5.71 162.409 09:26 26.08.2019
3026 Clouds 20 1012 88 0 4.93 166.829 08:59 26.08.2019
3027 Clouds 20 1012 88 0 4.93 166.829 08:41 26.08.2019
3028 Clouds 20 1012 88 0 4.93 166.829 08:22 26.08.2019
3029 Clouds 20 1012 88 0 4.93 166.829 07:59 26.08.2019
3030 Clouds 20 1012 88 0 4.93 166.829 07:59 26.08.2019
3031 Clouds 20 1012 88 0 4.93 166.829 07:38 26.08.2019
3032 Clouds 20 1012 88 0 4.93 166.829 07:20 26.08.2019
3033 Clouds 20 1012 88 0 4.93 166.829 06:40 26.08.2019
3034 Clear 20 1013 89 0 5.87 170.921 06:21 26.08.2019
3035 Clear 20 1013 89 0 5.87 170.921 05:48 26.08.2019
3036 Clear 20 1013 89 0 5.87 170.921 04:24 26.08.2019
3037 Clouds 22 1008 83 10000 7.7 160 02:48 26.08.2019
3038 Clouds 22 1008 83 10000 6.2 170 01:26 26.08.2019
3039 Clouds 23 1008 78 10000 7.2 170 00:46 26.08.2019
3040 Clouds 23 1008 78 10000 7.2 170 00:27 26.08.2019
3041 Clouds 24 1008 73 10000 7.2 180 23:55 25.08.2019
3042 Clouds 24 1008 73 10000 7.2 180 23:36 25.08.2019
3043 Clouds 24 1008 73 10000 7.2 180 23:18 25.08.2019
3044 Clouds 25 1009 73 10000 7.7 180 22:41 25.08.2019
3045 Clouds 25 1009 73 10000 7.7 180 22:21 25.08.2019
3046 Clouds 24 1010 78 10000 6.7 170 21:59 25.08.2019
3047 Clouds 24 1010 78 10000 6.7 170 21:41 25.08.2019
3048 Clouds 24 1010 78 10000 6.7 170 21:19 25.08.2019
3049 Clouds 24 1010 78 10000 7.7 180 20:56 25.08.2019
3050 Clouds 24 1010 78 10000 7.7 180 20:38 25.08.2019
3051 Clouds 24 1010 78 10000 7.7 180 20:19 25.08.2019
3052 Clouds 24 1011 78 10000 8.7 170 19:42 25.08.2019
3053 Clouds 24 1011 78 10000 8.7 170 19:23 25.08.2019
3054 Clouds 24 1011 78 10000 7.7 170 18:59 25.08.2019
3055 Clouds 24 1011 78 10000 7.7 170 18:40 25.08.2019
3056 Rain 22 1012 88 10000 5.7 170 18:22 25.08.2019
3057 Rain 22 1012 88 10000 5.7 170 17:59 25.08.2019
3058 Rain 22 1012 88 10000 5.7 170 17:40 25.08.2019
3059 Rain 22 1012 88 10000 5.7 170 17:20 25.08.2019
3060 Rain 21 1011 94 8000 5.1 170 16:41 25.08.2019
3061 Rain 21 1011 94 8000 5.1 170 16:23 25.08.2019
3062 Drizzle 21 1011 94 8000 4.1 190 15:50 25.08.2019
3063 Drizzle 21 1011 94 8000 4.1 190 15:27 25.08.2019
3064 Drizzle 21 1010 94 5000 3.1 180 14:59 25.08.2019
3065 Drizzle 21 1010 94 5000 3.1 180 14:39 25.08.2019
3066 Drizzle 21 1010 94 5000 3.1 180 14:20 25.08.2019
3067 Clouds 20 1012 88 0 6.94 176.049 13:45 25.08.2019
3068 Clouds 20 1013 89 0 6.82 176.552 13:21 25.08.2019
3069 Clouds 20 1013 89 0 6.82 176.552 13:21 25.08.2019
3070 Clouds 20 1013 89 0 6.82 176.552 12:56 25.08.2019
3071 Clouds 20 1013 89 0 6.82 176.552 12:37 25.08.2019
3072 Clouds 20 1012 89 0 6.59 179.365 12:19 25.08.2019
3073 Clouds 20 1012 89 0 6.59 179.365 11:54 25.08.2019
3074 Clouds 20 1012 89 0 6.59 179.365 11:36 25.08.2019
3075 Clouds 20 1012 89 0 6.59 179.365 11:18 25.08.2019
3076 Clouds 20 1012 89 0 6.59 179.365 10:40 25.08.2019
3077 Clouds 20 1012 89 0 6.59 179.365 10:20 25.08.2019
3078 Clouds 20 1012 89 0 6.59 179.365 09:56 25.08.2019
3079 Clouds 20 1012 90 0 6.72 180.273 09:37 25.08.2019
3080 Clouds 20 1014 91 0 4.39 168.286 09:19 25.08.2019
3081 Clouds 20 1014 91 0 4.39 168.286 08:42 25.08.2019
3082 Clouds 20 1014 91 0 4.39 168.286 08:21 25.08.2019
3083 Clouds 20 1014 91 0 4.39 168.286 07:35 25.08.2019
3084 Clouds 20 1014 91 0 4.39 168.286 06:51 25.08.2019
3085 Clouds 20 1014 92 0 3.92 163.728 06:22 25.08.2019
3086 Clouds 20 1014 92 0 3.92 163.728 04:41 25.08.2019
3087 Clouds 22 1010 88 10000 5.1 170 03:31 25.08.2019
3088 Clouds 22 1010 88 10000 5.1 170 02:39 25.08.2019
3089 Clouds 23 1009 83 10000 5.1 170 01:24 25.08.2019
3090 Clouds 23 1009 88 10000 5.7 180 00:39 25.08.2019
3091 Clouds 23 1009 88 10000 5.7 180 00:20 25.08.2019
3092 Drizzle 23 1009 88 10000 6.2 180 23:50 24.08.2019
3093 Drizzle 23 1009 88 10000 6.2 180 23:22 24.08.2019
3094 Clouds 24 1009 78 10000 7.2 170 22:55 24.08.2019
3095 Clouds 24 1009 78 10000 7.2 170 22:37 24.08.2019
3096 Clouds 24 1009 78 10000 7.2 170 22:19 24.08.2019
3097 Drizzle 23 1010 88 8000 7.2 180 21:55 24.08.2019
3098 Drizzle 23 1010 88 8000 7.2 180 21:36 24.08.2019
3099 Drizzle 23 1010 88 8000 7.2 180 21:18 24.08.2019
3100 Drizzle 23 1011 88 8000 6.2 170 20:42 24.08.2019
3101 Drizzle 23 1011 88 8000 6.2 170 20:21 24.08.2019
3102 Drizzle 22 1012 88 8000 6.2 170 19:59 24.08.2019
3103 Drizzle 22 1012 88 8000 6.2 170 19:41 24.08.2019
3104 Drizzle 22 1012 88 8000 6.2 170 19:22 24.08.2019
3105 Drizzle 22 1013 88 5000 5.7 160 18:59 24.08.2019
3106 Drizzle 22 1013 88 5000 5.7 160 18:38 24.08.2019
3107 Drizzle 22 1013 88 5000 5.7 160 18:19 24.08.2019
3108 Rain 21 1013 94 5000 4.1 170 17:43 24.08.2019
3109 Rain 21 1013 94 5000 4.1 170 17:24 24.08.2019
3110 Rain 20 1015 91 0 5.36 157.81 16:44 24.08.2019
3111 Rain 20 1015 91 0 5.36 157.81 16:20 24.08.2019
3112 Rain 20 1015 91 0 5.36 157.81 15:57 24.08.2019
3113 Rain 20 1011 100 5000 4.1 180 15:38 24.08.2019
3114 Rain 20 1011 100 5000 4.1 180 15:20 24.08.2019
3115 Clouds 20 1011 94 10000 3.1 170 14:42 24.08.2019
3116 Clouds 20 1011 94 10000 3.1 170 14:21 24.08.2019
3117 Rain 20 1013 91 0 5.68 167.167 13:56 24.08.2019
3118 Rain 20 1013 91 0 5.68 167.167 13:37 24.08.2019
3119 Rain 19 1013 92 0 5.4 169.873 13:18 24.08.2019
3120 Rain 19 1013 92 0 5.4 169.873 12:42 24.08.2019
3121 Rain 19 1013 92 0 5.2 176.628 12:23 24.08.2019
3122 Rain 19 1013 92 0 5.2 176.628 11:55 24.08.2019
3123 Rain 19 1013 92 0 5.2 176.628 11:37 24.08.2019
3124 Rain 19 1013 92 0 5.2 176.628 11:18 24.08.2019
3125 Rain 19 1013 92 0 5.2 176.628 10:41 24.08.2019
3126 Rain 19 1013 92 0 5.2 176.628 10:21 24.08.2019
3127 Rain 19 1013 92 0 5.2 176.628 09:44 24.08.2019
3128 Clouds 20 1014 90 0 4.54 178.321 09:20 24.08.2019
3129 Clouds 20 1014 90 0 4.54 178.321 08:44 24.08.2019
3130 Clouds 20 1014 90 0 4.54 178.321 08:26 24.08.2019
3131 Clouds 20 1014 90 0 4.54 178.321 07:54 24.08.2019
3132 Clouds 20 1014 90 0 4.54 178.321 07:54 24.08.2019
3133 Clouds 20 1014 90 0 4.54 178.321 07:33 24.08.2019
3134 Clouds 20 1014 90 0 4.54 178.321 06:58 24.08.2019
3135 Clouds 20 1013 90 0 5.34 160.633 06:23 24.08.2019
3136 Clouds 20 1013 90 0 5.34 160.633 05:40 24.08.2019
3137 Clouds 20 1013 90 0 5.34 160.633 03:51 24.08.2019
3138 Clouds 22 1010 88 10000 5.1 150 03:32 24.08.2019
3139 Clouds 22 1010 88 10000 5.1 150 02:23 24.08.2019
3140 Clouds 23 1009 83 10000 5.7 170 01:29 24.08.2019
3141 Clouds 23 1009 83 10000 5.1 170 00:49 24.08.2019
3142 Clouds 23 1009 83 10000 5.1 170 00:24 24.08.2019
3143 Clouds 23 1009 83 10000 6.2 180 23:47 23.08.2019
3144 Clouds 23 1009 83 10000 6.2 180 23:21 23.08.2019
3145 Clouds 23 1010 83 10000 6.2 180 22:46 23.08.2019
3146 Clouds 23 1010 83 10000 6.2 180 22:27 23.08.2019
3147 Clouds 23 1011 78 10000 5.1 170 21:56 23.08.2019
3148 Clouds 23 1011 78 10000 5.1 170 21:37 23.08.2019
3149 Clouds 23 1011 78 10000 5.1 170 21:19 23.08.2019
3150 Rain 23 1012 83 10000 4.6 170 20:53 23.08.2019
3151 Rain 23 1012 83 10000 4.6 170 20:35 23.08.2019
3152 Rain 22 1013 88 10000 4.1 170 19:47 23.08.2019
3153 Rain 22 1013 88 10000 4.1 170 19:19 23.08.2019
3154 Clouds 22 1013 88 10000 3.1 170 18:58 23.08.2019
3155 Clouds 22 1013 88 10000 3.1 170 18:40 23.08.2019
3156 Clouds 22 1013 88 10000 3.1 170 18:40 23.08.2019
3157 Clouds 22 1013 88 10000 3.1 170 18:21 23.08.2019
3158 Clouds 21 1013 94 10000 3.1 160 17:45 23.08.2019
3159 Clouds 21 1013 94 10000 3.1 160 17:45 23.08.2019
3160 Clouds 21 1013 94 10000 3.1 160 17:26 23.08.2019
3161 Rain 20 1013 100 8000 4.1 170 16:57 23.08.2019
3162 Rain 20 1013 100 8000 4.1 170 16:39 23.08.2019
3163 Rain 20 1013 100 8000 4.1 170 16:21 23.08.2019
3164 Drizzle 20 1013 94 1500 3.1 160 15:40 23.08.2019
3165 Drizzle 20 1013 94 1500 3.1 160 15:22 23.08.2019
3166 Clouds 19 1013 88 0 5.35 152.673 14:57 23.08.2019
3167 Drizzle 20 1012 94 3000 4.1 150 14:39 23.08.2019
3168 Drizzle 20 1012 94 3000 4.1 150 14:20 23.08.2019
3169 Clouds 19 1013 88 0 5.35 152.673 13:42 23.08.2019
3170 Clouds 19 1013 90 0 5.35 151.987 13:23 23.08.2019
3171 Clouds 19 1013 90 0 5.35 151.987 13:00 23.08.2019
3172 Clouds 19 1013 90 0 5.35 151.987 12:41 23.08.2019
3173 Clear 19 1013 90 0 4.61 160.609 12:22 23.08.2019
3174 Clear 19 1013 90 0 4.61 160.609 11:58 23.08.2019
3175 Clear 19 1013 90 0 4.61 160.609 11:39 23.08.2019
3176 Clear 19 1013 90 0 4.61 160.609 11:19 23.08.2019
3177 Clear 19 1013 90 0 4.61 160.609 10:56 23.08.2019
3178 Clear 19 1013 90 0 4.61 160.609 10:38 23.08.2019
3179 Clouds 19 1013 90 0 4.69 157.74 10:18 23.08.2019
3180 Clouds 19 1013 90 0 4.69 157.74 09:43 23.08.2019
3181 Clear 19 1014 90 0 3.87 175.431 09:20 23.08.2019
3182 Clear 19 1014 90 0 3.87 175.431 08:45 23.08.2019
3183 Clear 19 1014 90 0 3.87 175.431 08:22 23.08.2019
3184 Clear 19 1014 90 0 3.87 175.431 07:57 23.08.2019
3185 Clear 19 1014 90 0 3.87 175.431 07:38 23.08.2019
3186 Clear 19 1014 90 0 3.87 175.431 07:20 23.08.2019
3187 Clear 19 1014 90 0 3.87 175.431 06:41 23.08.2019
3188 Clear 19 1014 89 0 3.96 175.485 06:21 23.08.2019
3189 Clear 19 1014 89 0 3.96 175.485 05:44 23.08.2019
3190 Clear 19 1014 89 0 3.96 175.485 05:23 23.08.2019
3191 Clear 19 1014 89 0 3.96 175.485 03:38 23.08.2019
3192 Clouds 21 1010 83 10000 5.1 170 02:37 23.08.2019
3193 Clouds 21 1010 83 10000 5.1 170 02:19 23.08.2019
3194 Clouds 23 1010 73 10000 6.2 170 00:46 23.08.2019
3195 Clouds 23 1010 73 10000 6.2 170 00:23 23.08.2019
3196 Clouds 23 1010 73 10000 7.2 190 23:53 22.08.2019
3197 Clouds 23 1010 73 10000 7.2 190 23:33 22.08.2019
3198 Clouds 24 1010 64 10000 6.7 180 22:59 22.08.2019
3199 Clouds 24 1010 64 10000 6.7 180 22:59 22.08.2019
3200 Clouds 24 1010 64 10000 6.7 180 22:41 22.08.2019
3201 Clouds 24 1010 64 10000 6.7 180 22:22 22.08.2019
3202 Clouds 24 1011 64 10000 6.7 190 21:57 22.08.2019
3203 Clouds 24 1011 64 10000 6.7 190 21:39 22.08.2019
3204 Clouds 24 1011 64 10000 6.7 190 21:20 22.08.2019
3205 Clouds 24 1013 69 10000 5.1 200 20:57 22.08.2019
3206 Clouds 24 1013 69 10000 5.1 200 20:38 22.08.2019
3207 Clouds 24 1013 69 10000 5.1 200 20:18 22.08.2019
3208 Clouds 24 1013 69 10000 5.1 200 20:18 22.08.2019
3209 Clouds 23 1013 73 10000 5.1 170 19:56 22.08.2019
3210 Clouds 23 1013 73 10000 5.1 170 19:37 22.08.2019
3211 Clouds 23 1013 73 10000 5.1 170 19:19 22.08.2019
3212 Clouds 22 1014 78 10000 3.1 160 18:56 22.08.2019
3213 Clouds 22 1014 78 10000 3.1 160 18:37 22.08.2019
3214 Clouds 22 1014 78 10000 3.1 160 18:18 22.08.2019
3215 Clouds 22 1014 73 10000 3.1 210 17:42 22.08.2019
3216 Clouds 21 1013 83 10000 3.1 180 17:21 22.08.2019
3217 Clouds 21 1013 83 10000 3.1 180 17:21 22.08.2019
3218 Clouds 21 1013 83 10000 3.1 180 16:58 22.08.2019
3219 Clouds 21 1013 83 10000 3.1 180 16:39 22.08.2019
3220 Clouds 21 1013 83 10000 3.1 180 16:20 22.08.2019
3221 Clouds 20 1013 82 10000 3.1 170 15:57 22.08.2019
3222 Clouds 20 1013 82 10000 3.1 170 15:57 22.08.2019
3223 Clouds 20 1013 82 10000 3.1 170 15:38 22.08.2019
3224 Clouds 20 1013 82 10000 3.1 170 15:38 22.08.2019
3225 Clouds 20 1013 82 10000 3.1 170 15:20 22.08.2019
3226 Clouds 20 1012 82 10000 3.1 160 14:56 22.08.2019
3227 Clouds 20 1012 82 10000 3.1 160 14:38 22.08.2019
3228 Clouds 20 1012 82 10000 3.1 160 14:18 22.08.2019
3229 Clouds 19 1014 87 0 4.27 169.816 13:41 22.08.2019
3230 Clouds 19 1014 86 0 4.12 163.758 13:22 22.08.2019
3231 Clouds 19 1014 86 0 4.12 163.758 12:59 22.08.2019
3232 Clouds 19 1014 86 0 4.12 163.758 12:39 22.08.2019
3233 Clouds 19 1013 86 0 4.69 177.578 12:19 22.08.2019
3234 Clouds 19 1013 86 0 4.69 177.578 11:42 22.08.2019
3235 Clouds 19 1013 86 0 4.69 177.578 11:21 22.08.2019
3236 Clouds 19 1013 86 0 4.69 177.578 10:58 22.08.2019
3237 Clouds 19 1013 86 0 4.69 177.578 10:40 22.08.2019
3238 Clouds 19 1013 86 0 4.69 177.578 10:22 22.08.2019
3239 Clouds 19 1013 86 0 4.75 176.297 09:57 22.08.2019
3240 Clouds 19 1013 86 0 4.75 176.297 09:39 22.08.2019
3241 Clouds 19 1014 87 0 5.03 178.086 09:20 22.08.2019
3242 Clouds 19 1014 87 0 5.03 178.086 08:56 22.08.2019
3243 Clouds 19 1014 87 0 5.03 178.086 08:38 22.08.2019
3244 Clouds 19 1014 87 0 5.03 178.086 08:20 22.08.2019
3245 Clouds 19 1014 87 0 5.03 178.086 07:39 22.08.2019
3246 Clouds 19 1014 87 0 5.03 178.086 07:20 22.08.2019
3247 Clouds 19 1014 87 0 5.03 178.086 06:52 22.08.2019
3248 Clouds 19 1014 87 0 4.64 175.967 06:24 22.08.2019
3249 Clouds 19 1014 87 0 4.64 175.967 05:45 22.08.2019
3250 Clouds 19 1014 87 0 4.64 175.967 04:29 22.08.2019
3251 Clouds 20 1011 88 10000 5.1 180 02:47 22.08.2019
3252 Clouds 20 1011 88 10000 5.1 180 02:29 22.08.2019
3253 Clouds 21 1010 83 10000 5.1 170 01:22 22.08.2019
3254 Clouds 21 1010 83 10000 5.1 160 00:44 22.08.2019
3255 Clouds 21 1010 83 10000 5.1 160 00:25 22.08.2019
3256 Rain 21 1010 83 10000 6.2 180 23:50 21.08.2019
3257 Rain 21 1010 83 10000 6.2 180 23:30 21.08.2019
3258 Rain 21 1010 88 10000 5.1 190 22:59 21.08.2019
3259 Rain 21 1010 88 10000 5.1 190 22:41 21.08.2019
3260 Rain 21 1010 88 10000 5.1 190 22:41 21.08.2019
3261 Rain 21 1010 88 10000 5.1 190 22:21 21.08.2019
3262 Clouds 19 1012 88 0 4.17 148.529 21:58 21.08.2019
3263 Clouds 19 1012 88 0 4 151.081 21:38 21.08.2019
3264 Clouds 21 1012 88 10000 6.2 170 21:20 21.08.2019
3265 Clouds 21 1012 88 10000 6.2 170 20:58 21.08.2019
3266 Clouds 21 1012 88 10000 6.2 170 20:39 21.08.2019
3267 Clouds 21 1012 88 10000 6.2 170 20:39 21.08.2019
3268 Clouds 21 1012 88 10000 6.2 170 20:20 21.08.2019
3269 Rain 20 1012 88 10000 6.2 160 19:44 21.08.2019
3270 Rain 20 1012 88 10000 6.2 160 19:25 21.08.2019
3271 Rain 20 1013 94 10000 5.1 160 18:59 21.08.2019
3272 Rain 20 1013 94 10000 5.1 160 18:40 21.08.2019
3273 Rain 20 1013 94 10000 5.1 160 18:22 21.08.2019
3274 Rain 20 1013 94 10000 4.1 150 17:45 21.08.2019
3275 Rain 20 1013 94 10000 4.1 150 17:23 21.08.2019
3276 Rain 20 1012 94 5000 4.1 160 16:58 21.08.2019
3277 Rain 20 1012 94 5000 4.1 160 16:40 21.08.2019
3278 Rain 20 1012 94 5000 4.1 160 16:20 21.08.2019
3279 Clouds 19 1015 90 0 4.88 139.339 15:58 21.08.2019
3280 Rain 19 1012 93 5000 3.6 130 15:39 21.08.2019
3281 Rain 19 1012 93 5000 3.6 130 15:20 21.08.2019
3282 Rain 19 1012 93 5000 2.6 150 14:56 21.08.2019
3283 Rain 19 1012 93 5000 2.6 150 14:38 21.08.2019
3284 Rain 19 1012 93 5000 2.6 150 14:19 21.08.2019
3285 Clouds 19 1013 91 0 5.28 144.101 13:43 21.08.2019
3286 Rain 19 1013 91 0 5.06 148.559 13:21 21.08.2019
3287 Rain 19 1013 91 0 5.06 148.559 12:58 21.08.2019
3288 Rain 19 1013 91 0 5.06 148.559 12:40 21.08.2019
3289 Clouds 20 1012 92 0 4.81 160.442 12:20 21.08.2019
3290 Clouds 20 1012 92 0 4.81 160.442 11:54 21.08.2019
3291 Clouds 20 1012 92 0 4.81 160.442 11:36 21.08.2019
3292 Clouds 20 1012 92 0 4.81 160.442 11:18 21.08.2019
3293 Clouds 20 1012 92 0 4.81 160.442 10:55 21.08.2019
3294 Clouds 20 1012 92 0 4.81 160.442 10:37 21.08.2019
3295 Clouds 20 1012 92 0 4.81 160.442 10:37 21.08.2019
3296 Clouds 20 1012 92 0 4.81 160.442 10:18 21.08.2019
3297 Clouds 20 1012 92 0 4.81 160.442 10:18 21.08.2019
3298 Clouds 20 1012 92 0 4.81 160.442 09:41 21.08.2019
3299 Clouds 19 1013 93 0 3.97 172.313 09:22 21.08.2019
3300 Clouds 19 1013 93 0 3.97 172.313 08:55 21.08.2019
3301 Clouds 19 1013 93 0 3.97 172.313 08:37 21.08.2019
3302 Clouds 19 1013 93 0 3.97 172.313 08:18 21.08.2019
3303 Clouds 19 1013 93 0 3.97 172.313 07:38 21.08.2019
3304 Clouds 19 1013 93 0 3.97 172.313 07:19 21.08.2019
3305 Clouds 19 1013 93 0 3.97 172.313 06:46 21.08.2019
3306 Clouds 20 1014 93 0 4.09 149.767 06:20 21.08.2019
3307 Clouds 20 1014 93 0 4.09 149.767 05:30 21.08.2019
3308 Clouds 20 1014 93 0 4.09 149.767 04:58 21.08.2019
3309 Clouds 20 1010 88 10000 5.1 160 02:45 21.08.2019
3310 Clouds 21 1009 83 10000 5.7 160 01:38 21.08.2019
3311 Clouds 22 1009 78 10000 5.1 180 00:43 21.08.2019
3312 Clouds 22 1009 78 10000 5.1 180 00:43 21.08.2019
3313 Clouds 22 1009 78 10000 5.1 180 00:22 21.08.2019
3314 Rain 22 1009 83 10000 6.2 180 23:46 20.08.2019
3315 Clouds 22 1011 83 10000 6.2 180 23:21 20.08.2019
3316 Clouds 22 1011 83 10000 6.2 180 22:59 20.08.2019
3317 Clouds 22 1011 83 10000 6.2 180 22:41 20.08.2019
3318 Clouds 22 1011 83 10000 6.2 180 22:22 20.08.2019
3319 Clouds 20 1011 92 0 4.7 160.382 21:59 20.08.2019
3320 Clouds 23 1011 78 10000 6.2 170 21:39 20.08.2019
3321 Clouds 23 1011 78 10000 6.2 170 21:20 20.08.2019
3322 Rain 22 1012 83 8000 6.2 170 20:59 20.08.2019
3323 Rain 22 1012 83 8000 6.2 170 20:59 20.08.2019
3324 Rain 22 1012 83 8000 6.2 170 20:41 20.08.2019
3325 Rain 22 1012 83 8000 6.2 170 20:23 20.08.2019
3326 Rain 21 1013 88 8000 6.2 170 19:41 20.08.2019
3327 Rain 21 1013 88 8000 6.2 170 19:22 20.08.2019
3328 Rain 21 1012 83 8000 6.2 180 18:58 20.08.2019
3329 Clouds 20 1013 93 0 4.87 157.062 18:40 20.08.2019
3330 Rain 20 1013 88 8000 5.1 150 18:19 20.08.2019
3331 Rain 20 1013 88 8000 5.1 150 17:57 20.08.2019
3332 Rain 20 1013 88 8000 5.1 150 17:57 20.08.2019
3333 Rain 20 1013 88 8000 5.1 150 17:38 20.08.2019
3334 Drizzle 19 1012 100 8000 5.1 150 17:19 20.08.2019
3335 Drizzle 19 1012 100 8000 5.1 150 16:45 20.08.2019
3336 Drizzle 19 1012 100 8000 5.1 150 16:26 20.08.2019
3337 Drizzle 19 1011 93 8000 5.1 160 15:56 20.08.2019
3338 Drizzle 19 1011 93 8000 5.1 160 15:38 20.08.2019
3339 Rain 20 1013 95 0 3.65 172.4 15:18 20.08.2019
3340 Rain 20 1013 95 0 3.65 172.4 14:43 20.08.2019
3341 Rain 20 1013 95 0 3.65 172.4 14:22 20.08.2019
3342 Rain 20 1013 95 0 3.65 172.4 13:57 20.08.2019
3343 Rain 20 1013 95 0 3.65 172.4 13:38 20.08.2019
3344 Rain 20 1013 95 0 3.41 173.981 13:20 20.08.2019
3345 Rain 20 1013 95 0 3.41 173.981 12:51 20.08.2019
3346 Rain 20 1013 95 0 3.41 173.981 12:51 20.08.2019
3347 Rain 20 1013 95 0 3.41 173.981 12:30 20.08.2019
3348 Rain 20 1013 94 0 3 175.314 11:59 20.08.2019
3349 Rain 20 1013 94 0 3 175.314 11:38 20.08.2019
3350 Rain 20 1013 94 0 3 175.314 11:19 20.08.2019
3351 Rain 20 1013 94 0 3 175.314 11:19 20.08.2019
3352 Rain 20 1013 94 0 3 175.314 11:19 20.08.2019
3353 Rain 20 1013 94 0 3 175.314 10:57 20.08.2019
3354 Rain 20 1013 94 0 3 175.314 10:38 20.08.2019
3355 Rain 20 1013 94 0 3 175.314 10:20 20.08.2019
3356 Rain 20 1013 94 0 3 175.314 09:43 20.08.2019
3357 Clouds 20 1014 92 0 3.04 177.721 09:25 20.08.2019
3358 Clouds 20 1014 92 0 3.04 177.721 08:57 20.08.2019
3359 Clouds 20 1014 92 0 3.04 177.721 08:39 20.08.2019
3360 Clouds 20 1014 92 0 3.04 177.721 08:20 20.08.2019
3361 Clouds 20 1014 92 0 3.04 177.721 07:55 20.08.2019
3362 Clouds 20 1014 92 0 3.04 177.721 07:37 20.08.2019
3363 Clouds 20 1014 92 0 3.04 177.721 07:18 20.08.2019
3364 Clouds 20 1014 92 0 3.04 177.721 07:18 20.08.2019
3365 Clouds 20 1014 92 0 3.04 177.721 06:25 20.08.2019
3366 Clouds 20 1014 92 0 3.04 177.721 06:25 20.08.2019
3367 Clouds 20 1013 91 0 4.01 174.17 05:49 20.08.2019
3368 Clouds 20 1013 91 0 4.01 174.17 04:57 20.08.2019
3369 Clouds 20 1013 91 0 4.01 174.17 03:52 20.08.2019
3370 Rain 20 1009 94 8000 7.7 160 02:42 20.08.2019
3371 Drizzle 21 1008 88 8000 8.2 170 01:38 20.08.2019
3372 Rain 21 1008 83 8000 7.2 160 00:51 20.08.2019
3373 Rain 21 1008 83 8000 7.2 160 00:31 20.08.2019
3374 Clouds 22 1009 83 10000 8.2 160 23:57 19.08.2019
3375 Clouds 22 1009 83 10000 8.2 160 23:38 19.08.2019
3376 Clouds 23 1009 78 10000 8.2 160 23:18 19.08.2019
3377 Clouds 23 1009 78 10000 8.2 160 22:41 19.08.2019
3378 Clouds 23 1009 78 10000 8.2 160 22:22 19.08.2019
3379 Clouds 24 1010 73 0 8.2 160 21:58 19.08.2019
3380 Clouds 24 1010 73 0 8.2 160 21:39 19.08.2019
3381 Clouds 23 1011 78 10000 9.3 170 21:21 19.08.2019
3382 Clouds 23 1011 78 10000 9.3 170 20:59 19.08.2019
3383 Clouds 23 1011 78 10000 9.3 170 20:39 19.08.2019
3384 Clouds 23 1011 78 10000 9.3 170 20:39 19.08.2019
3385 Clouds 23 1012 78 10000 8.2 160 20:20 19.08.2019
3386 Clouds 23 1012 78 10000 8.2 160 19:58 19.08.2019
3387 Clouds 23 1012 78 10000 8.2 160 19:39 19.08.2019
3388 Clouds 23 1012 78 10000 8.2 160 19:19 19.08.2019
3389 Clouds 23 1012 78 10000 8.2 160 19:19 19.08.2019
3390 Rain 22 1013 83 10000 8.2 150 18:44 19.08.2019
3391 Rain 22 1013 83 10000 8.2 150 18:26 19.08.2019
3392 Rain 21 1013 88 10000 7.2 170 17:58 19.08.2019
3393 Rain 21 1013 88 10000 7.2 170 17:40 19.08.2019
3394 Rain 20 1012 88 10000 7.2 160 17:20 19.08.2019
3395 Rain 20 1012 88 10000 7.2 160 16:58 19.08.2019
3396 Rain 20 1012 88 10000 7.2 160 16:37 19.08.2019
3397 Rain 20 1012 88 10000 7.2 160 16:18 19.08.2019
3398 Clouds 19 1012 100 10000 6.7 160 15:45 19.08.2019
3399 Clouds 19 1012 100 10000 6.7 160 15:20 19.08.2019
3400 Drizzle 19 1011 93 8000 6.2 160 14:58 19.08.2019
3401 Drizzle 19 1011 93 8000 6.2 160 14:38 19.08.2019
3402 Drizzle 19 1011 93 8000 6.2 160 14:20 19.08.2019
3403 Rain 19 1013 95 0 4.88 174.006 13:56 19.08.2019
3404 Rain 19 1013 95 0 4.88 174.006 13:36 19.08.2019
3405 Rain 19 1013 95 0 4.4 167.177 13:18 19.08.2019
3406 Rain 19 1013 95 0 4.4 167.177 12:43 19.08.2019
3407 Rain 19 1013 95 0 4.4 167.177 12:43 19.08.2019
3408 Clouds 19 1012 94 0 2.62 175.638 12:23 19.08.2019
3409 Clouds 19 1012 94 0 2.62 175.638 11:56 19.08.2019
3410 Clouds 19 1012 94 0 2.62 175.638 11:36 19.08.2019
3411 Clouds 19 1012 94 0 2.62 175.638 11:18 19.08.2019
3412 Clouds 19 1012 94 0 2.62 175.638 10:39 19.08.2019
3413 Clouds 19 1012 94 0 2.62 175.638 10:19 19.08.2019
3414 Clouds 19 1012 94 0 2.62 175.638 09:55 19.08.2019
3415 Clouds 19 1012 94 0 2.62 175.638 09:37 19.08.2019
3416 Clouds 19 1014 93 0 3.85 195.145 09:19 19.08.2019
3417 Clouds 19 1014 93 0 3.85 195.145 08:42 19.08.2019
3418 Clouds 19 1014 93 0 3.85 195.145 08:22 19.08.2019
3419 Clouds 19 1014 93 0 3.85 195.145 07:54 19.08.2019
3420 Clouds 19 1014 93 0 3.85 195.145 07:34 19.08.2019
3421 Clouds 19 1014 93 0 3.85 195.145 06:59 19.08.2019
3422 Clouds 19 1014 93 0 3.85 195.145 06:36 19.08.2019
3423 Clouds 19 1013 90 0 3.97 188.946 05:27 19.08.2019
3424 Clouds 19 1013 90 0 3.97 188.946 04:33 19.08.2019
3425 Clouds 20 1010 88 10000 5.7 160 03:26 19.08.2019
3426 Clouds 20 1010 88 10000 5.7 160 02:30 19.08.2019
3427 Clouds 20 1010 88 10000 6.7 170 01:37 19.08.2019
3428 Clouds 21 1010 83 10000 6.7 150 00:47 19.08.2019
3429 Clouds 21 1010 83 10000 6.7 150 00:23 19.08.2019
3430 Clouds 22 1010 78 10000 7.2 150 23:43 18.08.2019
3431 Clouds 22 1010 78 10000 7.2 150 23:22 18.08.2019
3432 Clouds 23 1011 73 10000 7.7 170 22:59 18.08.2019
3433 Clouds 23 1011 73 10000 7.7 170 22:40 18.08.2019
3434 Clouds 23 1011 73 10000 7.7 170 22:21 18.08.2019
3435 Clouds 23 1012 73 10000 7.2 160 21:56 18.08.2019
3436 Clouds 23 1012 73 10000 7.2 160 21:38 18.08.2019
3437 Clouds 23 1012 73 10000 7.2 160 21:20 18.08.2019
3438 Clouds 23 1012 73 10000 6.7 170 20:45 18.08.2019
3439 Clouds 23 1012 73 10000 6.7 170 20:26 18.08.2019
3440 Clouds 23 1013 73 10000 7.7 160 19:59 18.08.2019
3441 Clouds 23 1013 73 10000 7.7 160 19:40 18.08.2019
3442 Clouds 23 1013 73 10000 7.7 160 19:40 18.08.2019
3443 Clouds 23 1013 73 10000 7.7 160 19:22 18.08.2019
3444 Clouds 22 1013 78 10000 6.7 160 18:54 18.08.2019
3445 Clouds 22 1013 78 10000 6.7 160 18:36 18.08.2019
3446 Clouds 22 1013 78 10000 6.7 160 18:36 18.08.2019
3447 Clouds 22 1013 78 10000 6.7 160 18:36 18.08.2019
3448 Clouds 22 1013 78 10000 6.7 160 18:36 18.08.2019
3449 Clouds 22 1013 78 10000 6.7 160 18:18 18.08.2019
3450 Clouds 21 1013 83 10000 6.2 170 17:43 18.08.2019
3451 Clouds 21 1013 83 10000 6.2 170 17:19 18.08.2019
3452 Clouds 21 1013 83 10000 6.2 170 17:19 18.08.2019
3453 Clouds 20 1012 82 10000 6.2 160 16:59 18.08.2019
3454 Clouds 20 1012 82 10000 6.2 160 16:41 18.08.2019
3455 Clouds 20 1012 82 10000 6.2 160 16:20 18.08.2019
3456 Clouds 20 1011 88 10000 6.2 160 15:58 18.08.2019
3457 Clouds 20 1011 88 10000 6.2 160 15:39 18.08.2019
3458 Clouds 20 1011 88 10000 6.2 160 15:20 18.08.2019
3459 Clouds 20 1011 88 10000 6.2 160 15:20 18.08.2019
3460 Clouds 19 1011 88 10000 5.1 160 14:56 18.08.2019
3461 Clouds 19 1011 88 10000 5.1 160 14:37 18.08.2019
3462 Clouds 19 1011 88 10000 5.1 160 14:37 18.08.2019
3463 Clouds 19 1011 88 10000 5.1 160 14:18 18.08.2019
3464 Clouds 19 1013 89 0 4.78 159.075 13:43 18.08.2019
3465 Clouds 19 1013 89 0 4.78 159.075 13:24 18.08.2019
3466 Clouds 19 1013 89 0 4.78 159.075 12:59 18.08.2019
3467 Clouds 19 1013 89 0 4.78 159.075 12:39 18.08.2019
3468 Clouds 18 1013 87 0 4.24 185.373 12:21 18.08.2019
3469 Clouds 18 1013 87 0 4.24 185.373 11:43 18.08.2019
3470 Clouds 18 1013 87 0 4.24 185.373 11:23 18.08.2019
3471 Clouds 18 1013 87 0 4.24 185.373 10:59 18.08.2019
3472 Clouds 18 1013 87 0 4.24 185.373 10:40 18.08.2019
3473 Clouds 18 1013 87 0 4.24 185.373 10:19 18.08.2019
3474 Clouds 18 1013 87 0 4.24 185.373 09:43 18.08.2019
3475 Clouds 18 1013 86 0 3.86 174.452 09:20 18.08.2019
3476 Clouds 18 1013 86 0 3.86 174.452 08:44 18.08.2019
3477 Clouds 18 1013 86 0 3.86 174.452 08:25 18.08.2019
3478 Clouds 18 1013 86 0 3.86 174.452 08:25 18.08.2019
3479 Clouds 18 1013 86 0 3.86 174.452 07:57 18.08.2019
3480 Clouds 18 1013 86 0 3.86 174.452 07:30 18.08.2019
3481 Clouds 18 1013 86 0 3.86 174.452 06:33 18.08.2019
3482 Clouds 18 1014 85 0 4.41 164.144 05:42 18.08.2019
3483 Clouds 18 1014 85 0 4.41 164.144 03:51 18.08.2019
3484 Clouds 20 1010 77 10000 6.2 150 02:52 18.08.2019
3485 Clouds 20 1010 77 10000 6.2 150 02:34 18.08.2019
3486 Clouds 21 1010 77 10000 7.2 160 01:57 18.08.2019
3487 Clouds 21 1010 77 10000 7.2 160 01:26 18.08.2019
3488 Clouds 22 1010 68 10000 7.2 170 00:42 18.08.2019
3489 Clouds 22 1010 68 10000 7.2 170 00:20 18.08.2019
3490 Clouds 23 1011 69 10000 6.7 160 23:58 17.08.2019
3491 Clouds 23 1011 69 10000 6.7 160 23:38 17.08.2019
3492 Clouds 23 1011 69 10000 6.7 160 23:19 17.08.2019
3493 Clear 24 1012 60 10000 6.2 170 22:57 17.08.2019
3494 Clear 24 1012 60 10000 6.2 170 22:38 17.08.2019
3495 Clear 24 1012 60 10000 6.2 170 22:20 17.08.2019
3496 Clear 24 1012 60 10000 6.7 160 21:43 17.08.2019
3497 Clear 24 1012 60 10000 6.7 160 21:43 17.08.2019
3498 Clear 24 1012 60 10000 6.7 160 21:25 17.08.2019
3499 Clear 24 1013 60 10000 7.2 160 20:59 17.08.2019
3500 Clear 24 1013 60 10000 7.2 160 20:37 17.08.2019
3501 Clear 24 1013 60 10000 7.2 160 20:18 17.08.2019
3502 Clear 23 1014 64 10000 7.7 150 19:43 17.08.2019
3503 Clear 23 1014 64 10000 7.7 150 19:24 17.08.2019
3504 Clear 22 1014 68 10000 8.2 160 18:55 17.08.2019
3505 Clear 22 1014 68 10000 8.2 160 18:37 17.08.2019
3506 Clear 22 1014 68 10000 8.2 160 18:18 17.08.2019
3507 Clouds 22 1014 68 10000 7.7 140 17:42 17.08.2019
3508 Clouds 22 1014 68 10000 7.7 140 17:22 17.08.2019
3509 Clear 21 1014 73 10000 6.7 150 16:56 17.08.2019
3510 Clear 21 1014 73 10000 6.7 150 16:38 17.08.2019
3511 Clear 21 1014 73 10000 6.7 150 16:19 17.08.2019
3512 Clear 19 1013 82 10000 5.1 140 15:42 17.08.2019
3513 Clear 19 1013 82 10000 5.1 140 15:22 17.08.2019
3514 Clear 18 1013 88 10000 4.6 140 14:58 17.08.2019
3515 Clear 18 1013 88 10000 4.6 140 14:39 17.08.2019
3516 Clear 18 1013 88 10000 4.6 140 14:21 17.08.2019
3517 Clouds 18 1015 83 0 5.45 141.015 13:45 17.08.2019
3518 Clouds 18 1015 83 0 5.45 141.015 13:45 17.08.2019
3519 Clouds 18 1015 83 0 5.72 144.104 13:20 17.08.2019
3520 Clouds 18 1015 83 0 5.72 144.104 12:45 17.08.2019
3521 Clouds 18 1015 83 0 4.78 160.981 12:20 17.08.2019
3522 Clouds 18 1015 83 0 4.78 160.981 11:58 17.08.2019
3523 Clouds 18 1015 83 0 4.78 160.981 11:39 17.08.2019
3524 Clouds 18 1015 83 0 4.78 160.981 11:20 17.08.2019
3525 Clouds 18 1015 83 0 4.78 160.981 10:42 17.08.2019
3526 Clouds 18 1015 83 0 4.78 160.981 10:21 17.08.2019
3527 Clouds 18 1015 83 0 4.78 160.981 09:57 17.08.2019
3528 Clouds 18 1015 83 0 4.78 160.981 09:38 17.08.2019
3529 Clouds 19 1016 84 0 4.62 173.602 09:20 17.08.2019
3530 Clouds 19 1016 84 0 4.62 173.602 08:50 17.08.2019
3531 Clouds 19 1016 84 0 4.62 173.602 08:21 17.08.2019
3532 Clouds 19 1016 84 0 4.62 173.602 07:42 17.08.2019
3533 Clouds 19 1016 84 0 4.62 173.602 07:20 17.08.2019
3534 Clouds 19 1016 87 0 4.99 174.423 06:25 17.08.2019
3535 Clouds 19 1016 87 0 4.99 174.423 04:36 17.08.2019
3536 Clouds 19 1016 87 0 4.99 174.423 04:18 17.08.2019
3537 Clouds 20 1012 82 10000 6.2 180 02:38 17.08.2019
3538 Clouds 20 1012 82 10000 6.7 160 01:39 17.08.2019
3539 Clouds 20 1012 82 10000 6.7 160 01:19 17.08.2019
3540 Clouds 22 1012 68 10000 6.2 170 00:45 17.08.2019
3541 Clouds 22 1012 68 10000 6.2 170 00:21 17.08.2019
3542 Clouds 22 1012 73 10000 7.2 170 23:39 16.08.2019
3543 Clouds 22 1012 73 10000 7.2 170 23:21 16.08.2019
3544 Clouds 22 1013 73 10000 6.7 180 22:42 16.08.2019
3545 Clouds 22 1013 73 10000 6.7 180 22:20 16.08.2019
3546 Clouds 23 1013 73 10000 7.2 170 21:56 16.08.2019
3547 Clouds 23 1013 73 10000 7.2 170 21:38 16.08.2019
3548 Clouds 22 1014 73 10000 7.2 160 21:18 16.08.2019
3549 Clouds 22 1014 73 10000 7.2 160 20:42 16.08.2019
3550 Clouds 22 1014 73 10000 7.2 160 20:20 16.08.2019
3551 Clouds 22 1015 73 10000 6.2 180 19:56 16.08.2019
3552 Clouds 22 1015 73 10000 6.2 180 19:38 16.08.2019
3553 Clouds 22 1015 73 10000 6.2 180 19:19 16.08.2019
3554 Clouds 22 1015 78 10000 5.7 150 18:41 16.08.2019
3555 Clouds 22 1015 78 10000 5.7 150 18:22 16.08.2019
3556 Clouds 20 1015 82 10000 5.1 150 17:46 16.08.2019
3557 Clouds 20 1015 82 10000 5.1 150 17:27 16.08.2019
3558 Clouds 20 1014 82 10000 5.1 160 16:56 16.08.2019
3559 Clouds 20 1014 82 10000 5.1 160 16:38 16.08.2019
3560 Clouds 20 1014 82 10000 5.1 160 16:18 16.08.2019
3561 Clouds 20 1013 82 10000 4.1 170 15:55 16.08.2019
3562 Clouds 20 1013 82 10000 4.1 170 15:37 16.08.2019
3563 Clouds 20 1013 82 10000 4.1 170 15:19 16.08.2019
3564 Clouds 19 1013 88 10000 3.1 150 14:42 16.08.2019
3565 Clouds 19 1013 88 10000 3.1 150 14:19 16.08.2019
3566 Clouds 19 1015 86 0 4.77 157.924 13:59 16.08.2019
3567 Clouds 19 1015 86 0 4.77 157.924 13:38 16.08.2019
3568 Clouds 19 1015 84 0 4.62 166.364 13:20 16.08.2019
3569 Clouds 19 1015 84 0 4.62 166.364 12:40 16.08.2019
3570 Clouds 19 1015 84 0 5.15 179.788 12:20 16.08.2019
3571 Clouds 19 1015 84 0 5.15 179.788 11:43 16.08.2019
3572 Clouds 19 1015 84 0 5.15 179.788 11:24 16.08.2019
3573 Clouds 19 1015 84 0 5.15 179.788 10:58 16.08.2019
3574 Clouds 19 1015 84 0 5.15 179.788 10:40 16.08.2019
3575 Clouds 19 1015 84 0 5.15 179.788 10:18 16.08.2019
3576 Clouds 19 1015 84 0 5.15 179.788 09:38 16.08.2019
3577 Clouds 19 1016 87 0 5.29 188.014 09:19 16.08.2019
3578 Clouds 19 1016 87 0 5.29 188.014 09:19 16.08.2019
3579 Clouds 19 1016 87 0 5.29 188.014 08:56 16.08.2019
3580 Clouds 19 1016 87 0 5.29 188.014 08:38 16.08.2019
3581 Clouds 19 1016 87 0 5.29 188.014 08:18 16.08.2019
3582 Clouds 19 1016 87 0 5.29 188.014 07:44 16.08.2019
3583 Clouds 19 1016 87 0 5.29 188.014 07:24 16.08.2019
3584 Clouds 19 1016 87 0 5.29 188.014 06:34 16.08.2019
3585 Clouds 19 1016 89 0 5.4 184.934 05:58 16.08.2019
3586 Clouds 19 1016 89 0 5.4 184.934 05:32 16.08.2019
3587 Drizzle 19 1012 93 8000 5.1 170 03:19 16.08.2019
3588 Drizzle 21 1011 88 10000 7.2 170 01:44 16.08.2019
3589 Drizzle 21 1011 88 10000 7.2 170 01:24 16.08.2019
3590 Clouds 21 1011 88 10000 7.2 170 00:43 16.08.2019
3591 Clouds 21 1011 88 10000 7.2 170 00:22 16.08.2019
3592 Clouds 23 1012 78 10000 8.2 160 23:46 15.08.2019
3593 Clouds 23 1012 78 10000 8.2 160 23:24 15.08.2019
3594 Clouds 23 1012 78 10000 9.3 160 22:59 15.08.2019
3595 Clouds 23 1012 78 10000 9.3 160 22:40 15.08.2019
3596 Clouds 23 1012 78 10000 9.3 160 22:21 15.08.2019
3597 Clouds 23 1012 73 10000 8.7 160 21:56 15.08.2019
3598 Clouds 23 1012 73 10000 8.7 160 21:38 15.08.2019
3599 Clouds 23 1012 73 10000 8.7 160 21:18 15.08.2019
3600 Clouds 23 1014 78 10000 8.7 160 20:43 15.08.2019
3601 Clouds 23 1014 78 10000 8.7 160 20:22 15.08.2019
3602 Clouds 23 1014 78 10000 8.7 160 19:58 15.08.2019
3603 Clouds 23 1014 78 10000 8.7 160 19:39 15.08.2019
3604 Clouds 23 1014 78 10000 8.7 160 19:21 15.08.2019
3605 Clouds 23 1014 78 10000 8.7 160 19:21 15.08.2019
3606 Clouds 22 1014 83 10000 8.2 160 18:47 15.08.2019
3607 Clouds 22 1014 83 10000 8.2 160 18:23 15.08.2019
3608 Clouds 22 1014 83 8000 7.7 160 17:58 15.08.2019
3609 Clouds 22 1014 83 8000 7.7 160 17:38 15.08.2019
3610 Clouds 22 1014 83 8000 7.7 160 17:19 15.08.2019
3611 Clouds 22 1014 83 8000 7.7 160 17:19 15.08.2019
3612 Clouds 20 1014 88 8000 6.7 170 16:57 15.08.2019
3613 Clouds 20 1014 88 8000 6.7 170 16:38 15.08.2019
3614 Clouds 20 1014 88 8000 6.7 170 16:20 15.08.2019
3615 Clouds 20 1013 88 10000 6.2 160 15:38 15.08.2019
3616 Clouds 20 1013 88 10000 6.2 160 15:20 15.08.2019
3617 Clouds 20 1013 88 10000 5.1 160 14:56 15.08.2019
3618 Clouds 20 1013 88 10000 5.1 160 14:37 15.08.2019
3619 Clouds 20 1013 88 10000 5.1 160 14:18 15.08.2019
3620 Clouds 19 1014 91 0 4.94 177.283 13:55 15.08.2019
3621 Clouds 19 1014 91 0 4.94 177.283 13:36 15.08.2019
3622 Clouds 19 1014 91 0 5.05 175.773 13:18 15.08.2019
3623 Clouds 19 1014 91 0 5.05 175.773 12:40 15.08.2019
3624 Clouds 19 1014 90 0 4.33 182.262 12:20 15.08.2019
3625 Clouds 19 1014 90 0 4.33 182.262 11:57 15.08.2019
3626 Clouds 19 1014 90 0 4.33 182.262 11:37 15.08.2019
3627 Clouds 19 1014 90 0 4.33 182.262 11:18 15.08.2019
3628 Clouds 19 1014 90 0 4.33 182.262 10:58 15.08.2019
3629 Clouds 19 1014 90 0 4.33 182.262 10:37 15.08.2019
3630 Clouds 19 1014 90 0 4.33 182.262 10:18 15.08.2019
3631 Clouds 19 1014 90 0 4.33 182.262 09:42 15.08.2019
3632 Clouds 20 1015 90 0 4 194.432 09:22 15.08.2019
3633 Clouds 20 1015 90 0 4 194.432 08:39 15.08.2019
3634 Clouds 20 1015 90 0 4 194.432 08:21 15.08.2019
3635 Clouds 20 1015 90 0 4 194.432 07:56 15.08.2019
3636 Clouds 20 1015 90 0 4 194.432 07:37 15.08.2019
3637 Clouds 20 1015 90 0 4 194.432 07:18 15.08.2019
3638 Clouds 20 1015 90 0 4 194.432 06:43 15.08.2019
3639 Clouds 20 1014 91 0 4.96 196.41 06:22 15.08.2019
3640 Clouds 20 1014 91 0 4.96 196.41 05:29 15.08.2019
3641 Clouds 20 1014 91 0 4.96 196.41 04:56 15.08.2019
3642 Clouds 20 1014 91 0 4.96 196.41 03:51 15.08.2019
3643 Clouds 20 1011 88 10000 5.7 170 02:53 15.08.2019
3644 Clouds 20 1011 88 10000 5.7 170 02:24 15.08.2019
3645 Clouds 21 1010 88 10000 5.7 160 01:39 15.08.2019
3646 Clouds 22 1009 83 10000 6.2 160 00:54 15.08.2019
3647 Clouds 22 1009 83 10000 6.2 160 00:36 15.08.2019
3648 Clouds 22 1009 83 10000 6.2 160 00:18 15.08.2019
3649 Clouds 23 1009 78 10000 6.7 170 23:41 14.08.2019
3650 Clouds 23 1009 78 10000 6.7 170 23:20 14.08.2019
3651 Clouds 23 1010 73 10000 7.7 160 22:59 14.08.2019
3652 Clouds 23 1010 73 10000 7.7 160 22:40 14.08.2019
3653 Clouds 23 1010 73 10000 7.7 160 22:40 14.08.2019
3654 Clouds 23 1010 73 10000 7.7 160 22:21 14.08.2019
3655 Clouds 23 1011 73 10000 7.2 160 21:57 14.08.2019
3656 Clouds 23 1011 73 10000 7.2 160 21:38 14.08.2019
3657 Clouds 23 1011 73 10000 7.2 160 21:19 14.08.2019
3658 Clouds 23 1012 73 10000 6.2 180 20:42 14.08.2019
3659 Clouds 23 1012 73 10000 6.2 180 20:23 14.08.2019
3660 Clouds 23 1012 73 10000 6.2 180 20:23 14.08.2019
3661 Clouds 22 1013 78 10000 5.1 170 19:59 14.08.2019
3662 Clouds 22 1013 78 10000 5.1 170 19:39 14.08.2019
3663 Clouds 22 1012 83 10000 5.1 190 19:21 14.08.2019
3664 Clouds 22 1012 83 10000 5.1 190 18:57 14.08.2019
3665 Clouds 22 1012 83 10000 5.1 190 18:38 14.08.2019
3666 Clouds 22 1012 83 10000 5.1 190 18:20 14.08.2019
3667 Clouds 22 1012 78 10000 5.7 190 17:56 14.08.2019
3668 Clouds 22 1012 78 10000 5.7 190 17:37 14.08.2019
3669 Clouds 22 1012 78 10000 5.7 190 17:19 14.08.2019
3670 Clouds 21 1012 77 10000 6.2 170 16:43 14.08.2019
3671 Clouds 21 1012 77 10000 6.2 170 16:20 14.08.2019
3672 Clouds 19 1011 88 10000 5.1 160 15:55 14.08.2019
3673 Clouds 19 1011 88 10000 5.1 160 15:37 14.08.2019
3674 Clouds 19 1011 88 10000 5.1 160 15:18 14.08.2019
3675 Clouds 19 1011 88 10000 5.1 170 14:41 14.08.2019
3676 Clouds 19 1011 88 10000 5.1 170 14:19 14.08.2019
3677 Clouds 19 1013 89 0 5.28 189.184 13:59 14.08.2019
3678 Clouds 19 1013 89 0 5.28 189.184 13:40 14.08.2019
3679 Clouds 19 1013 89 0 5.66 194.712 13:22 14.08.2019
3680 Clouds 19 1013 89 0 5.66 194.712 12:56 14.08.2019
3681 Clouds 19 1013 89 0 5.66 194.712 12:37 14.08.2019
3682 Clouds 19 1013 89 0 5.66 194.712 12:37 14.08.2019
3683 Clouds 19 1012 90 0 4.66 196.094 12:19 14.08.2019
3684 Clouds 19 1012 90 0 4.66 196.094 11:45 14.08.2019
3685 Clouds 19 1012 90 0 4.66 196.094 11:23 14.08.2019
3686 Clouds 19 1012 90 0 4.66 196.094 10:58 14.08.2019
3687 Clouds 19 1012 90 0 4.66 196.094 10:38 14.08.2019
3688 Clouds 19 1012 90 0 4.66 196.094 10:20 14.08.2019
3689 Clouds 19 1012 90 0 4.66 196.094 09:42 14.08.2019
3690 Clouds 19 1013 89 0 4.21 194.386 09:21 14.08.2019
3691 Clouds 19 1013 87 0 4.31 202.821 08:44 14.08.2019
3692 Clouds 19 1013 87 0 4.31 202.821 08:25 14.08.2019
3693 Clouds 19 1013 87 0 4.31 202.821 07:56 14.08.2019
3694 Clouds 19 1013 87 0 4.31 202.821 07:37 14.08.2019
3695 Clouds 19 1013 87 0 4.31 202.821 06:51 14.08.2019
3696 Clouds 19 1013 87 0 4.31 202.821 06:28 14.08.2019
3697 Clouds 19 1013 88 0 3.6 193.755 05:33 14.08.2019
3698 Clouds 19 1013 88 0 3.6 193.755 03:52 14.08.2019
3699 Clouds 21 1009 83 10000 5.1 150 02:37 14.08.2019
3700 Clear 22 1008 73 10000 5.7 160 01:59 14.08.2019
3701 Clear 22 1008 73 10000 5.7 160 01:30 14.08.2019
3702 Clear 22 1008 73 10000 6.2 170 00:25 14.08.2019
3703 Clear 23 1008 69 10000 6.7 180 23:43 13.08.2019
3704 Clear 23 1008 69 10000 6.7 180 23:19 13.08.2019
3705 Clear 23 1008 64 10000 6.7 170 22:56 13.08.2019
3706 Clear 23 1008 64 10000 6.7 170 22:56 13.08.2019
3707 Clear 23 1008 64 10000 6.7 170 22:56 13.08.2019
3708 Clear 23 1008 64 10000 6.7 170 22:38 13.08.2019
3709 Clear 23 1008 64 10000 6.7 170 22:19 13.08.2019
3710 Clear 23 1009 69 10000 6.2 160 21:54 13.08.2019
3711 Clear 23 1009 69 10000 6.2 160 21:36 13.08.2019
3712 Clear 23 1009 69 10000 6.2 160 21:18 13.08.2019
3713 Clear 23 1009 69 10000 6.2 160 20:42 13.08.2019
3714 Clear 23 1009 69 10000 6.2 160 20:19 13.08.2019
3715 Clouds 23 1010 69 10000 6.7 160 19:56 13.08.2019
3716 Clouds 23 1010 69 10000 6.7 160 19:37 13.08.2019
3717 Clouds 23 1010 69 10000 6.7 160 19:19 13.08.2019
3718 Clouds 22 1010 73 10000 5.1 150 18:41 13.08.2019
3719 Clouds 22 1010 73 10000 5.1 150 18:22 13.08.2019
3720 Clouds 22 1011 73 10000 4.6 150 17:44 13.08.2019
3721 Clouds 22 1011 73 10000 4.6 150 17:25 13.08.2019
3722 Clouds 21 1010 77 10000 5.1 160 16:59 13.08.2019
3723 Clouds 21 1010 77 10000 5.1 160 16:40 13.08.2019
3724 Clouds 21 1010 77 10000 5.1 160 16:21 13.08.2019
3725 Clouds 20 1010 82 10000 3.1 160 15:59 13.08.2019
3726 Clouds 20 1010 82 10000 3.1 160 15:38 13.08.2019
3727 Clouds 20 1010 82 10000 3.1 160 15:19 13.08.2019
3728 Clouds 19 1009 88 10000 2.6 150 14:45 13.08.2019
3729 Clouds 19 1009 88 10000 2.6 150 14:20 13.08.2019
3730 Clouds 18 1012 88 0 2.67 149.717 13:58 13.08.2019
3731 Clouds 18 1012 88 0 2.67 149.717 13:40 13.08.2019
3732 Clear 18 1012 90 0 2.63 157.073 13:20 13.08.2019
3733 Clear 18 1012 90 0 2.63 157.073 12:56 13.08.2019
3734 Clear 18 1012 90 0 2.63 157.073 12:38 13.08.2019
3735 Clear 18 1011 90 0 3.07 189.459 12:19 13.08.2019
3736 Clear 18 1011 90 0 3.07 189.459 11:42 13.08.2019
3737 Clear 18 1011 90 0 3.07 189.459 11:22 13.08.2019
3738 Clear 18 1011 90 0 3.07 189.459 10:57 13.08.2019
3739 Clear 18 1011 90 0 3.07 189.459 10:38 13.08.2019
3740 Clear 18 1011 90 0 3.07 189.459 10:19 13.08.2019
3741 Clear 18 1011 90 0 3.07 189.459 09:45 13.08.2019
3742 Clear 18 1013 90 0 3.79 188.472 09:24 13.08.2019
3743 Clear 18 1013 90 0 3.79 188.472 08:57 13.08.2019
3744 Clear 18 1013 90 0 3.79 188.472 08:39 13.08.2019
3745 Clear 18 1013 90 0 3.79 188.472 08:20 13.08.2019
3746 Clear 18 1013 90 0 3.79 188.472 07:42 13.08.2019
3747 Clear 18 1013 90 0 3.79 188.472 07:21 13.08.2019
3748 Clear 18 1013 90 0 3.79 188.472 06:43 13.08.2019
3749 Clear 19 1013 90 0 3.91 161.635 05:47 13.08.2019
3750 Clear 19 1013 90 0 3.91 161.635 04:24 13.08.2019
3751 Clear 21 1008 77 10000 6.7 160 02:22 13.08.2019
3752 Clear 21 1008 77 10000 6.2 150 01:26 13.08.2019
3753 Clear 22 1007 73 10000 8.2 160 00:47 13.08.2019
3754 Clear 22 1007 73 10000 8.2 160 00:19 13.08.2019
3755 Clear 22 1008 73 10000 7.7 160 23:43 12.08.2019
3756 Clear 22 1008 73 10000 7.7 160 23:21 12.08.2019
3757 Clear 23 1008 69 10000 6.2 190 22:40 12.08.2019
3758 Clear 23 1008 69 10000 6.2 190 22:20 12.08.2019
3759 Clear 23 1009 69 10000 6.2 180 21:57 12.08.2019
3760 Clear 23 1009 69 10000 6.2 180 21:38 12.08.2019
3761 Clear 23 1009 69 10000 6.2 180 21:19 12.08.2019
3762 Clear 23 1010 69 10000 7.2 180 20:58 12.08.2019
3763 Clear 23 1010 69 10000 7.2 180 20:58 12.08.2019
3764 Clear 23 1010 69 10000 7.2 180 20:39 12.08.2019
3765 Clear 23 1010 69 10000 7.2 180 20:20 12.08.2019
3766 Clouds 22 1012 73 10000 7.7 170 19:57 12.08.2019
3767 Clouds 22 1012 73 10000 7.7 170 19:38 12.08.2019
3768 Clouds 22 1012 73 10000 7.7 170 19:20 12.08.2019
3769 Clouds 21 1012 83 10000 5.1 170 18:56 12.08.2019
3770 Clouds 21 1012 83 10000 5.1 170 18:37 12.08.2019
3771 Clouds 21 1012 83 10000 3.1 160 18:19 12.08.2019
3772 Clouds 21 1012 83 10000 3.1 160 17:47 12.08.2019
3773 Clouds 21 1012 83 10000 3.1 160 17:28 12.08.2019
3774 Rain 19 1012 93 10000 3.1 160 16:58 12.08.2019
3775 Rain 19 1012 93 10000 3.1 160 16:39 12.08.2019
3776 -273 0 0 0 0 0 16:20 12.08.2019
3777 Rain 19 1012 93 10000 3.1 160 16:20 12.08.2019
3778 Drizzle 18 1011 100 8000 4.6 180 15:59 12.08.2019
3779 -273 0 0 0 0 0 15:41 12.08.2019
3780 -273 0 0 0 0 0 15:41 12.08.2019
3781 Drizzle 18 1011 100 8000 4.6 180 15:21 12.08.2019
3782 Rain 18 1010 100 10000 4.1 180 14:56 12.08.2019
3783 -273 0 0 0 0 0 14:56 12.08.2019
3784 Rain 18 1010 100 10000 4.1 180 14:38 12.08.2019
3785 Rain 18 1010 100 10000 4.1 180 14:18 12.08.2019
3786 Clouds 18 1012 87 0 5.66 173.773 13:43 12.08.2019
3787 Clouds 18 1013 89 0 6.27 174.245 13:24 12.08.2019
3788 Clouds 18 1013 89 0 6.27 174.245 12:57 12.08.2019
3789 Clouds 18 1013 89 0 6.27 174.245 12:57 12.08.2019
3790 Clouds 18 1013 89 0 6.27 174.245 12:39 12.08.2019
3791 Clear 18 1012 91 0 4.51 175.157 12:18 12.08.2019
3792 Clear 18 1012 91 0 4.51 175.157 11:41 12.08.2019
3793 Clear 18 1012 91 0 4.51 175.157 11:23 12.08.2019
3794 -273 0 0 0 0 0 10:42 12.08.2019
3795 Clear 18 1012 91 0 4.51 175.157 10:23 12.08.2019
3796 Clear 18 1012 91 0 4.51 175.157 09:56 12.08.2019
3797 Clear 18 1012 91 0 4.51 175.157 09:38 12.08.2019
3798 Clouds 18 1013 90 0 3.8 161.584 09:19 12.08.2019
3799 Clouds 18 1013 90 0 3.8 161.584 08:55 12.08.2019
3800 Clouds 18 1013 90 0 3.8 161.584 08:37 12.08.2019
3801 Clouds 18 1013 90 0 3.8 161.584 08:19 12.08.2019
3802 Clouds 18 1013 90 0 3.8 161.584 07:42 12.08.2019
3803 Clouds 18 1013 90 0 3.8 161.584 07:20 12.08.2019
3804 Clouds 18 1013 90 0 3.8 161.584 06:44 12.08.2019
3805 Clouds 19 1013 89 0 4.31 165.125 05:37 12.08.2019
3806 Clouds 20 1009 88 10000 6.2 160 02:44 12.08.2019
3807 Clouds 21 1009 83 10000 4.1 150 01:53 12.08.2019
3808 Clouds 21 1009 83 10000 4.1 150 01:20 12.08.2019
3809 Clouds 22 1008 78 10000 6.2 170 00:56 12.08.2019
3810 Clouds 22 1008 78 10000 6.2 170 00:38 12.08.2019
3811 Clouds 22 1008 78 10000 6.2 170 00:19 12.08.2019
3812 Clouds 22 1009 78 10000 5.7 160 23:41 11.08.2019
3813 Clouds 22 1009 78 10000 5.7 160 23:20 11.08.2019
3814 Clouds 22 1009 78 10000 5.7 160 23:20 11.08.2019
3815 Clouds 23 1009 73 10000 6.2 160 22:58 11.08.2019
3816 Clouds 23 1009 73 10000 6.2 160 22:39 11.08.2019
3817 Clouds 23 1009 73 10000 6.2 160 22:19 11.08.2019
3818 Clouds 22 1010 78 10000 7.2 150 21:58 11.08.2019
3819 Clouds 22 1010 78 10000 7.2 150 21:39 11.08.2019
3820 Clouds 22 1010 78 10000 7.2 150 21:19 11.08.2019
3821 Clouds 22 1011 78 10000 9.8 160 20:45 11.08.2019
3822 Clouds 22 1011 78 10000 9.8 160 20:23 11.08.2019
3823 Rain 22 1012 83 10000 9.3 140 19:56 11.08.2019
3824 Rain 22 1012 83 10000 9.3 140 19:37 11.08.2019
3825 Rain 22 1012 83 10000 9.3 140 19:18 11.08.2019
3826 Rain 21 1012 88 10000 6.2 150 18:40 11.08.2019
3827 Rain 21 1012 88 10000 6.2 150 18:20 11.08.2019
3828 Drizzle 20 1012 88 0 5.1 160 17:56 11.08.2019
3829 Drizzle 20 1012 88 0 5.1 160 17:38 11.08.2019
3830 Drizzle 20 1012 88 0 5.1 160 17:19 11.08.2019
3831 Drizzle 19 1012 93 2000 5.1 150 16:41 11.08.2019
3832 Drizzle 19 1012 93 2000 5.1 150 16:22 11.08.2019
3833 Rain 19 1011 93 8000 5.1 150 15:59 11.08.2019
3834 Rain 19 1011 93 8000 5.1 150 15:41 11.08.2019
3835 Rain 19 1011 93 8000 5.1 150 15:22 11.08.2019
3836 Drizzle 19 1011 93 8000 6.2 160 14:55 11.08.2019
3837 Drizzle 19 1011 93 8000 6.2 160 14:37 11.08.2019
3838 Drizzle 19 1011 93 8000 6.2 160 14:19 11.08.2019
3839 Drizzle 19 1011 93 8000 6.2 160 14:19 11.08.2019
3840 Clouds 19 1013 93 0 4.68 169.182 13:43 11.08.2019
3841 Clouds 19 1013 92 0 4.91 167.465 13:23 11.08.2019
3842 Clouds 19 1013 92 0 4.91 167.465 12:44 11.08.2019
3843 Clouds 19 1012 91 0 5.72 162.957 12:22 11.08.2019
3844 Clouds 19 1012 91 0 5.72 162.957 11:42 11.08.2019
3845 Clouds 19 1012 91 0 5.72 162.957 11:23 11.08.2019
3846 Clouds 19 1012 91 0 5.72 162.957 10:57 11.08.2019
3847 Clouds 19 1012 91 0 5.72 162.957 10:39 11.08.2019
3848 Clouds 19 1012 91 0 5.72 162.957 10:21 11.08.2019
3849 Clouds 19 1012 91 0 5.72 162.957 09:55 11.08.2019
3850 Clouds 19 1012 91 0 5.72 162.957 09:37 11.08.2019
3851 Clouds 19 1013 92 0 5.29 167.202 09:18 11.08.2019
3852 Clouds 19 1013 92 0 4.92 165.777 08:41 11.08.2019
3853 Clouds 19 1013 92 0 4.92 165.777 08:23 11.08.2019
3854 Clouds 19 1013 92 0 4.92 165.777 07:47 11.08.2019
3855 Clouds 19 1013 92 0 4.92 165.777 07:20 11.08.2019
3856 Clouds 19 1013 92 0 4.92 165.777 06:38 11.08.2019
3857 Clouds 19 1014 91 0 5.57 160.391 05:33 11.08.2019
3858 Clouds 20 1010 88 10000 6.2 140 02:54 11.08.2019
3859 Clouds 20 1010 88 10000 6.2 140 02:26 11.08.2019
3860 Clouds 21 1009 83 10000 7.7 150 01:33 11.08.2019
3861 Rain 22 1009 78 10000 6.2 150 00:56 11.08.2019
3862 Rain 22 1009 78 10000 6.2 150 00:36 11.08.2019
3863 Rain 22 1009 78 10000 6.2 150 00:18 11.08.2019
3864 Clouds 23 1009 73 10000 8.2 140 23:37 10.08.2019
3865 Clouds 23 1009 73 10000 8.2 140 23:18 10.08.2019
3866 Clouds 23 1010 73 10000 7.2 150 22:40 10.08.2019
3867 Clouds 23 1010 73 10000 7.2 150 22:22 10.08.2019
3868 Drizzle 22 1011 78 8000 7.7 150 21:41 10.08.2019
3869 Drizzle 22 1011 78 8000 7.7 150 21:22 10.08.2019
3870 Clouds 23 1012 73 10000 7.2 140 20:59 10.08.2019
3871 Clouds 23 1012 73 10000 7.2 140 20:41 10.08.2019
3872 Clouds 23 1012 73 10000 7.2 140 20:20 10.08.2019
3873 Clouds 22 1012 78 10000 8.2 150 19:56 10.08.2019
3874 Clouds 22 1012 78 10000 8.2 150 19:37 10.08.2019
3875 Clouds 22 1012 78 10000 8.2 150 19:18 10.08.2019
3876 Clouds 20 1013 88 10000 8.2 150 18:39 10.08.2019
3877 Clouds 20 1013 88 10000 8.2 150 18:20 10.08.2019
3878 Drizzle 19 1013 93 8000 7.2 140 17:41 10.08.2019
3879 Drizzle 19 1013 93 8000 7.2 140 17:23 10.08.2019
3880 Drizzle 19 1012 100 2000 8.2 150 16:45 10.08.2019
3881 Drizzle 19 1012 100 2000 8.2 150 16:26 10.08.2019
3882 Drizzle 18 1011 100 3000 7.7 150 15:53 10.08.2019
3883 Drizzle 18 1011 100 3000 7.7 150 15:24 10.08.2019
3884 Drizzle 18 1011 100 4000 4.6 150 14:45 10.08.2019
3885 Drizzle 18 1011 100 4000 4.6 150 14:21 10.08.2019
3886 Rain 19 1013 91 0 6.26 153.947 13:42 10.08.2019
3887 Rain 19 1013 91 0 6.03 156.979 13:21 10.08.2019
3888 Rain 19 1013 91 0 6.03 156.979 12:57 10.08.2019
3889 Rain 19 1013 91 0 6.03 156.979 12:39 10.08.2019
3890 Clouds 19 1012 90 0 5.35 163.09 12:21 10.08.2019
3891 Clouds 19 1012 90 0 5.35 163.09 11:42 10.08.2019
3892 Clouds 19 1012 90 0 5.35 163.09 11:23 10.08.2019
3893 Clouds 19 1012 90 0 5.35 163.09 10:58 10.08.2019
3894 Clouds 19 1012 90 0 5.35 163.09 10:37 10.08.2019
3895 Clouds 19 1012 90 0 5.35 163.09 10:19 10.08.2019
3896 Clouds 19 1012 90 0 5.35 163.09 09:43 10.08.2019
3897 Clear 19 1013 91 0 5.27 159.859 09:23 10.08.2019
3898 Clear 19 1014 92 0 5.11 161.569 08:42 10.08.2019
3899 Clear 19 1014 92 0 5.11 161.569 08:22 10.08.2019
3900 Clear 19 1014 92 0 5.11 161.569 07:54 10.08.2019
3901 Clear 19 1014 92 0 5.11 161.569 07:29 10.08.2019
3902 Clear 19 1014 92 0 5.11 161.569 07:29 10.08.2019
3903 Clear 19 1014 92 0 5.11 161.569 06:49 10.08.2019
3904 Clear 19 1014 92 0 5.11 161.569 06:30 10.08.2019
3905 Clear 19 1015 91 0 4.3 159.236 05:28 10.08.2019
3906 Clear 19 1015 91 0 4.3 159.236 04:53 10.08.2019
3907 Clear 21 1011 77 10000 7.2 150 03:32 10.08.2019
3908 Clear 21 1011 77 10000 7.2 150 02:32 10.08.2019
3909 Clear 22 1010 73 10000 6.2 140 01:43 10.08.2019
3910 Clear 22 1010 73 10000 6.2 140 01:23 10.08.2019
3911 Clear 24 1010 64 10000 7.2 150 00:53 10.08.2019
3912 Clear 24 1010 64 10000 7.2 150 00:27 10.08.2019
3913 Clear 24 1010 64 10000 6.7 150 23:59 09.08.2019
3914 Clear 24 1010 64 10000 6.7 150 23:38 09.08.2019
3915 Clear 24 1010 64 10000 6.7 150 23:19 09.08.2019
3916 Clear 23 1011 69 10000 7.2 140 22:40 09.08.2019
3917 Clear 23 1011 69 10000 7.2 140 22:22 09.08.2019
3918 Clear 23 1012 69 10000 7.7 150 21:57 09.08.2019
3919 Clear 23 1012 69 10000 7.7 150 21:39 09.08.2019
3920 Clear 23 1012 69 10000 7.7 150 21:21 09.08.2019
3921 Clear 23 1012 69 10000 7.7 150 21:21 09.08.2019
3922 Clouds 23 1013 73 10000 10.3 150 20:56 09.08.2019
3923 Clouds 23 1013 73 10000 10.3 150 20:38 09.08.2019
3924 Clouds 23 1013 73 10000 10.3 150 20:18 09.08.2019
3925 Clouds 23 1014 73 10000 8.2 150 19:41 09.08.2019
3926 Clouds 23 1014 73 10000 8.2 150 19:22 09.08.2019
3927 Clouds 22 1014 78 10000 7.7 130 18:42 09.08.2019
3928 Clouds 22 1014 78 10000 7.7 130 18:23 09.08.2019
3929 Clouds 22 1014 78 10000 8.2 140 17:59 09.08.2019
3930 Clouds 22 1014 78 10000 8.2 140 17:41 09.08.2019
3931 Clouds 22 1014 78 10000 8.2 140 17:22 09.08.2019
3932 Rain 19 1014 93 10000 6.7 150 16:42 09.08.2019
3933 Rain 19 1014 93 10000 6.7 150 16:24 09.08.2019
3934 Rain 19 1013 88 10000 6.2 150 15:58 09.08.2019
3935 Rain 19 1013 88 10000 6.2 150 15:39 09.08.2019
3936 Rain 19 1013 88 10000 6.2 150 15:20 09.08.2019
3937 Clouds 19 1012 88 10000 7.2 150 14:56 09.08.2019
3938 Clouds 19 1012 88 10000 7.2 150 14:37 09.08.2019
3939 Clouds 19 1012 88 10000 7.2 150 14:19 09.08.2019
3940 Clouds 19 1014 84 0 6.68 145.499 13:44 09.08.2019
3941 Clouds 19 1014 84 0 6.3 144.231 13:20 09.08.2019
3942 Clouds 19 1014 84 0 6.3 144.231 12:47 09.08.2019
3943 Clear 19 1014 86 0 5.56 141.946 12:25 09.08.2019
3944 Clear 19 1014 86 0 5.56 141.946 11:59 09.08.2019
3945 Clear 19 1014 86 0 5.56 141.946 11:40 09.08.2019
3946 Clear 19 1014 86 0 5.56 141.946 11:19 09.08.2019
3947 Clear 19 1014 86 0 5.56 141.946 10:41 09.08.2019
3948 Clear 19 1014 86 0 5.56 141.946 10:22 09.08.2019
3949 Clear 19 1014 86 0 5.56 141.946 10:22 09.08.2019
3950 -273 0 0 0 0 0 09:57 09.08.2019
3951 Clear 19 1014 86 0 5.56 141.946 09:37 09.08.2019
3952 Clear 19 1015 86 0 5.74 144.839 09:18 09.08.2019
3953 Clear 19 1015 86 0 5.57 144.971 08:44 09.08.2019
3954 Clear 19 1015 86 0 5.57 144.971 08:24 09.08.2019
3955 Clear 19 1015 86 0 5.57 144.971 07:53 09.08.2019
3956 Clear 19 1015 86 0 5.57 144.971 07:24 09.08.2019
3957 Clear 19 1015 86 0 5.57 144.971 06:56 09.08.2019
3958 Clear 19 1015 86 0 5.57 144.971 06:36 09.08.2019
3959 Clear 19 1015 86 0 5.27 147.287 05:58 09.08.2019
3960 Clear 19 1015 86 0 5.27 147.287 04:25 09.08.2019
3961 Clouds 21 1012 83 10000 4.1 130 02:23 09.08.2019
3962 Clouds 23 1011 73 10000 5.1 150 00:56 09.08.2019
3963 Clouds 23 1011 73 10000 5.1 150 00:38 09.08.2019
3964 Clouds 23 1011 73 10000 5.1 150 00:20 09.08.2019
3965 Clouds 23 1011 73 10000 6.2 160 23:38 08.08.2019
3966 Clouds 23 1011 73 10000 6.2 160 23:20 08.08.2019
3967 Clouds 23 1012 73 10000 7.2 150 22:59 08.08.2019
3968 Clouds 23 1012 73 10000 7.2 150 22:59 08.08.2019
3969 Clouds 23 1012 73 10000 7.2 150 22:37 08.08.2019
3970 Clouds 23 1012 73 10000 7.2 150 22:37 08.08.2019
3971 Clouds 23 1012 73 10000 7.2 150 22:18 08.08.2019
3972 Clouds 23 1012 73 10000 7.2 150 22:18 08.08.2019
3973 Clouds 24 1013 69 10000 8.2 160 21:58 08.08.2019
3974 Clouds 24 1013 69 10000 8.2 160 21:40 08.08.2019
3975 Clouds 24 1013 69 10000 8.2 160 21:21 08.08.2019
3976 Clouds 23 1013 73 10000 9.3 160 20:43 08.08.2019
3977 Clouds 23 1013 73 10000 9.3 160 20:22 08.08.2019
3978 Rain 22 1014 78 10000 6.2 150 19:59 08.08.2019
3979 Rain 22 1014 78 10000 6.2 150 19:41 08.08.2019
3980 Rain 22 1014 78 10000 6.2 150 19:20 08.08.2019
3981 Rain 22 1015 78 10000 7.2 140 18:43 08.08.2019
3982 Rain 22 1015 78 10000 7.2 140 18:23 08.08.2019
3983 Clouds 22 1015 78 10000 7.7 150 17:55 08.08.2019
3984 Clouds 22 1015 78 10000 7.7 150 17:37 08.08.2019
3985 Clouds 22 1015 78 10000 7.7 150 17:18 08.08.2019
3986 Clouds 21 1015 83 10000 6.2 160 16:42 08.08.2019
3987 Clouds 21 1015 83 10000 6.2 160 16:24 08.08.2019
3988 Clouds 20 1014 88 10000 4.1 150 15:58 08.08.2019
3989 Clouds 20 1014 88 10000 4.1 150 15:39 08.08.2019
3990 Clouds 20 1014 88 10000 4.1 150 15:21 08.08.2019
3991 Clouds 19 1013 93 10000 3.1 150 14:41 08.08.2019
3992 Clouds 19 1013 93 10000 3.1 150 14:23 08.08.2019
3993 Clouds 19 1015 85 0 5.95 167.568 13:58 08.08.2019
3994 Clouds 19 1015 85 0 5.95 167.568 13:38 08.08.2019
3995 Rain 19 1015 85 0 5.86 165.572 13:18 08.08.2019
3996 Rain 19 1015 85 0 5.86 165.572 12:39 08.08.2019
3997 Clouds 20 1014 84 0 5.7 170.845 12:19 08.08.2019
3998 Clouds 20 1014 84 0 5.7 170.845 11:48 08.08.2019
3999 Clouds 20 1014 84 0 5.7 170.845 11:27 08.08.2019
4000 Clouds 20 1014 84 0 5.7 170.845 11:27 08.08.2019
4001 Clouds 20 1014 84 0 5.7 170.845 10:59 08.08.2019
4002 Clouds 20 1014 84 0 5.7 170.845 10:59 08.08.2019
4003 Clouds 20 1014 84 0 5.7 170.845 10:40 08.08.2019
4004 Clouds 20 1014 84 0 5.7 170.845 10:20 08.08.2019
4005 Clouds 20 1014 84 0 5.7 170.845 09:44 08.08.2019
4006 Clear 19 1015 85 0 5.27 159.977 09:25 08.08.2019
4007 Clear 19 1015 85 0 5.27 159.977 08:54 08.08.2019
4008 Clouds 20 1015 85 0 5.04 158.481 08:36 08.08.2019
4009 Clouds 20 1015 85 0 5.04 158.481 08:18 08.08.2019
4010 Clouds 20 1015 85 0 5.04 158.481 07:39 08.08.2019
4011 Clouds 20 1015 85 0 5.04 158.481 07:19 08.08.2019
4012 Clouds 20 1015 85 0 5.04 158.481 06:46 08.08.2019
4013 Clear 20 1015 86 0 5.01 151.581 06:18 08.08.2019
4014 Clear 20 1015 86 0 5.01 151.581 05:42 08.08.2019
4015 Clear 20 1015 86 0 5.01 151.581 04:39 08.08.2019
4016 Clear 20 1015 86 0 5.01 151.581 03:48 08.08.2019
4017 Clouds 21 1011 83 10000 7.2 150 01:59 08.08.2019
4018 Clouds 21 1011 83 10000 7.2 150 01:20 08.08.2019
4019 Clouds 22 1011 78 10000 7.7 150 00:25 08.08.2019
4020 Clouds 23 1010 73 10000 6.7 150 23:41 07.08.2019
4021 Clouds 23 1010 73 10000 6.7 150 23:19 07.08.2019
4022 Clouds 23 1011 73 10000 5.1 160 22:42 07.08.2019
4023 Clouds 23 1011 73 10000 5.1 160 22:21 07.08.2019
4024 Clouds 23 1012 73 10000 6.2 160 21:59 07.08.2019
4025 -273 0 0 0 0 0 21:40 07.08.2019
4026 Clouds 23 1012 73 10000 6.2 160 21:21 07.08.2019
4027 Clouds 23 1013 73 10000 7.7 160 20:59 07.08.2019
4028 Clouds 23 1013 73 10000 7.7 160 20:41 07.08.2019
4029 Clouds 23 1013 73 10000 7.7 160 20:22 07.08.2019
4030 Clouds 23 1013 73 10000 8.2 150 19:56 07.08.2019
4031 Clouds 23 1013 73 10000 8.2 150 19:56 07.08.2019
4032 Clouds 23 1013 73 10000 8.2 150 19:37 07.08.2019
4033 Clouds 23 1013 73 10000 8.2 150 19:18 07.08.2019
4034 Clouds 23 1014 73 10000 6.2 160 18:40 07.08.2019
4035 Clouds 23 1014 73 10000 6.2 160 18:20 07.08.2019
4036 Clouds 22 1014 83 10000 6.7 160 17:56 07.08.2019
4037 Clouds 22 1014 83 10000 6.7 160 17:56 07.08.2019
4038 Clouds 22 1014 83 10000 6.7 160 17:56 07.08.2019
4039 Clouds 22 1014 83 10000 6.7 160 17:38 07.08.2019
4040 Clouds 22 1014 83 10000 6.7 160 17:19 07.08.2019
4041 Clouds 21 1014 83 10000 7.2 170 16:56 07.08.2019
4042 Clouds 21 1014 83 10000 7.2 170 16:56 07.08.2019
4043 Clouds 21 1014 83 10000 7.2 170 16:56 07.08.2019
4044 -273 0 0 0 0 0 16:56 07.08.2019
4045 Clouds 21 1014 83 10000 7.2 170 16:37 07.08.2019
4046 Clouds 21 1014 83 10000 7.2 170 16:19 07.08.2019
4047 Clouds 20 1013 88 10000 6.7 170 15:42 07.08.2019
4048 Clouds 20 1013 88 10000 6.7 170 15:20 07.08.2019
4049 Clouds 20 1013 88 10000 6.7 170 15:20 07.08.2019
4050 Clouds 19 1013 93 10000 6.2 160 14:50 07.08.2019
4051 Clouds 19 1013 93 10000 6.2 160 14:30 07.08.2019
4052 Rain 20 1014 89 0 6.59 166.624 13:59 07.08.2019
4053 Rain 20 1014 89 0 6.59 166.624 13:39 07.08.2019
4054 Clouds 20 1014 90 0 6.37 165.324 13:19 07.08.2019
4055 Clouds 20 1014 90 0 6.37 165.324 12:57 07.08.2019
4056 Clouds 20 1014 90 0 6.37 165.324 12:38 07.08.2019
4057 Clouds 20 1015 90 0 6.6 168.423 12:19 07.08.2019
4058 Clouds 20 1015 90 0 6.6 168.423 11:55 07.08.2019
4059 Clouds 20 1015 90 0 6.6 168.423 11:36 07.08.2019
4060 Clouds 20 1015 90 0 6.6 168.423 11:18 07.08.2019
4061 Clouds 20 1015 90 0 6.6 168.423 10:40 07.08.2019
4062 Clouds 20 1015 90 0 6.6 168.423 10:19 07.08.2019
4063 Clouds 20 1015 90 0 6.6 168.423 09:46 07.08.2019
4064 Rain 20 1016 90 0 5.02 168.699 09:24 07.08.2019
4065 Rain 20 1016 90 0 5.02 168.699 08:59 07.08.2019
4066 Clouds 20 1016 90 0 4.87 170.679 08:41 07.08.2019
4067 Clouds 20 1016 90 0 4.87 170.679 08:23 07.08.2019
4068 Clouds 20 1016 90 0 4.87 170.679 07:45 07.08.2019
4069 Clouds 20 1016 90 0 4.87 170.679 07:26 07.08.2019
4070 Clouds 20 1016 90 0 4.87 170.679 06:41 07.08.2019
4071 Clouds 20 1016 92 0 4.81 161.358 06:20 07.08.2019
4072 Clouds 20 1016 92 0 4.81 161.358 05:40 07.08.2019
4073 Clouds 21 1012 88 10000 5.1 180 03:23 07.08.2019
4074 Clouds 21 1012 88 10000 5.1 180 02:51 07.08.2019
4075 Clouds 21 1012 88 10000 5.1 180 02:26 07.08.2019
4076 Clouds 21 1012 88 10000 6.2 170 01:45 07.08.2019
4077 Clouds 22 1011 83 10000 7.2 170 00:52 07.08.2019
4078 Clouds 22 1011 83 10000 7.2 170 00:22 07.08.2019
4079 Clouds 23 1011 78 10000 6.2 170 23:44 06.08.2019
4080 Clouds 23 1011 78 10000 6.2 170 23:23 06.08.2019
4081 Clouds 24 1011 73 10000 5.3 166.825 22:59 06.08.2019
4082 Clouds 24 1011 73 10000 5.3 166.825 22:38 06.08.2019
4083 Clouds 24 1011 73 10000 5.3 166.825 22:20 06.08.2019
4084 Rain 24 1012 73 10000 6.2 160 21:44 06.08.2019
4085 Rain 24 1012 73 10000 6.2 160 21:26 06.08.2019
4086 Rain 24 1012 73 10000 6.2 160 21:26 06.08.2019
4087 Clouds 24 1012 73 10000 7.2 170 20:59 06.08.2019
4088 Clouds 24 1012 73 10000 7.2 170 20:41 06.08.2019
4089 Clouds 24 1012 73 10000 7.2 170 20:22 06.08.2019
4090 Clouds 23 1013 78 10000 6.7 170 19:47 06.08.2019
4091 Clouds 23 1013 78 10000 6.7 170 19:28 06.08.2019
4092 Drizzle 21 1014 88 4000 6.2 160 18:55 06.08.2019
4093 Drizzle 21 1014 88 4000 6.2 160 18:36 06.08.2019
4094 Drizzle 21 1014 88 4000 6.2 160 18:18 06.08.2019
4095 Clouds 23 1013 78 10000 7.2 170 17:55 06.08.2019
4096 Clouds 23 1013 78 10000 7.2 170 17:36 06.08.2019
4097 Clouds 23 1013 78 10000 7.2 170 17:18 06.08.2019
4098 Clouds 21 1013 88 10000 6.2 170 16:42 06.08.2019
4099 Clouds 21 1013 88 10000 6.2 170 16:21 06.08.2019
4100 Clouds 20 1013 94 10000 5.1 180 15:57 06.08.2019
4101 -273 0 0 0 0 0 15:38 06.08.2019
4102 Clouds 20 1013 94 10000 5.1 180 15:20 06.08.2019
4103 Clouds 19 1012 100 10000 3.1 180 14:44 06.08.2019
4104 Clouds 19 1012 100 10000 3.1 180 14:25 06.08.2019
4105 Clouds 20 1013 91 0 5.69 194.315 13:58 06.08.2019
4106 Clouds 20 1013 91 0 5.69 194.315 13:39 06.08.2019
4107 Clouds 20 1013 91 0 5.98 193.314 13:20 06.08.2019
4108 Clouds 20 1013 91 0 5.98 193.314 12:57 06.08.2019
4109 Clouds 20 1013 91 0 5.98 193.314 12:39 06.08.2019
4110 Clouds 20 1014 90 0 5.71 193.252 12:21 06.08.2019
4111 Clouds 20 1014 90 0 5.71 193.252 11:41 06.08.2019
4112 Clouds 20 1014 90 0 5.71 193.252 11:19 06.08.2019
4113 Clouds 20 1014 90 0 5.71 193.252 10:42 06.08.2019
4114 Clouds 20 1014 90 0 5.71 193.252 10:23 06.08.2019
4115 Clouds 20 1014 90 0 5.71 193.252 09:57 06.08.2019
4116 Clouds 20 1014 90 0 5.71 193.252 09:37 06.08.2019
4117 Clouds 20 1015 91 0 6.33 189.757 09:19 06.08.2019
4118 Clouds 20 1015 91 0 6.16 189.142 08:41 06.08.2019
4119 Clouds 20 1015 91 0 6.16 189.142 08:23 06.08.2019
4120 Clouds 20 1015 91 0 6.16 189.142 07:36 06.08.2019
4121 Clouds 20 1015 91 0 6.16 189.142 06:51 06.08.2019
4122 Clouds 20 1015 91 0 6.16 189.142 06:32 06.08.2019
4123 Clouds 20 1015 91 0 6 181.462 05:48 06.08.2019
4124 Clouds 20 1015 91 0 6 181.462 03:44 06.08.2019
4125 Clouds 22 1011 83 10000 6.2 170 01:51 06.08.2019
4126 Clouds 22 1011 83 10000 6.2 170 01:22 06.08.2019
4127 Clouds 23 1010 78 10000 7.7 180 00:29 06.08.2019
4128 Clouds 23 1010 78 10000 7.2 180 23:44 05.08.2019
4129 Clouds 23 1010 78 10000 7.2 180 23:18 05.08.2019
4130 Clouds 23 1010 78 10000 6.2 170 22:40 05.08.2019
4131 Clouds 23 1010 78 10000 6.2 170 22:22 05.08.2019
4132 Clouds 23 1011 78 10000 5.1 180 21:45 05.08.2019
4133 Clouds 23 1011 78 10000 5.1 180 21:22 05.08.2019
4134 Drizzle 21 1012 94 8000 6.7 170 21:00 05.08.2019
4135 Drizzle 21 1012 94 8000 6.7 170 20:41 05.08.2019
4136 Drizzle 21 1012 94 8000 6.7 170 20:23 05.08.2019
4137 Clouds 23 1012 78 10000 5.1 180 19:59 05.08.2019
4138 Clouds 23 1012 78 10000 5.1 180 19:39 05.08.2019
4139 Clouds 23 1012 78 10000 5.1 180 19:20 05.08.2019
4140 Clouds 22 1013 83 10000 5.1 170 18:43 05.08.2019
4141 Clouds 22 1013 83 10000 5.1 170 18:21 05.08.2019
4142 Rain 21 1013 83 10000 4.6 170 17:57 05.08.2019
4143 Rain 21 1013 83 10000 4.6 170 17:39 05.08.2019
4144 Rain 21 1013 83 10000 4.6 170 17:20 05.08.2019
4145 Rain 20 1012 88 10000 4.6 160 16:43 05.08.2019
4146 Rain 20 1012 88 10000 4.6 160 16:23 05.08.2019
4147 Rain 19 1011 93 10000 2.6 160 15:43 05.08.2019
4148 Rain 19 1011 93 10000 2.6 160 15:20 05.08.2019
4149 Rain 19 1011 93 10000 3.1 150 14:42 05.08.2019
4150 Rain 19 1011 93 10000 3.1 150 14:23 05.08.2019
4151 Rain 20 1013 90 0 4.09 190.662 13:57 05.08.2019
4152 Rain 20 1013 90 0 4.09 190.662 13:57 05.08.2019
4153 Rain 20 1013 90 0 4.09 190.662 13:38 05.08.2019
4154 Clouds 20 1013 89 0 4.09 192.949 13:18 05.08.2019
4155 Clouds 20 1013 89 0 4.09 192.949 12:42 05.08.2019
4156 Clouds 20 1013 89 0 3.92 186.955 12:19 05.08.2019
4157 Clouds 20 1013 89 0 3.92 186.955 11:43 05.08.2019
4158 Clouds 20 1013 89 0 3.92 186.955 11:43 05.08.2019
4159 Clouds 20 1013 89 0 3.92 186.955 11:25 05.08.2019
4160 Clouds 20 1013 89 0 3.92 186.955 10:48 05.08.2019
4161 Clouds 20 1013 89 0 3.92 186.955 10:30 05.08.2019
4162 Clouds 20 1013 89 0 3.92 186.955 09:57 05.08.2019
4163 Clouds 20 1013 89 0 3.92 186.955 09:37 05.08.2019
4164 Clouds 20 1014 87 0 3.94 169.78 09:19 05.08.2019
4165 Clouds 20 1015 88 0 3.87 171.776 08:44 05.08.2019
4166 Clouds 20 1015 88 0 3.87 171.776 08:24 05.08.2019
4167 Clouds 20 1015 88 0 3.87 171.776 07:47 05.08.2019
4168 Clouds 20 1015 88 0 3.87 171.776 07:28 05.08.2019
4169 Clouds 20 1015 88 0 3.87 171.776 06:53 05.08.2019
4170 Clouds 20 1015 87 0 3.63 166.668 06:19 05.08.2019
4171 Clouds 20 1015 87 0 3.63 166.668 05:28 05.08.2019
4172 Clouds 20 1015 87 0 3.63 166.668 04:41 05.08.2019
4173 Clouds 20 1015 87 0 3.63 166.668 03:50 05.08.2019
4174 Clouds 20 1010 94 10000 6.2 150 02:38 05.08.2019
4175 Clouds 21 1010 88 10000 6.7 160 01:41 05.08.2019
4176 Clouds 23 1009 78 10000 6.2 160 00:59 05.08.2019
4177 Clouds 23 1009 78 10000 6.2 160 00:39 05.08.2019
4178 Clouds 23 1009 78 10000 6.2 160 00:18 05.08.2019
4179 Clouds 23 1009 73 10000 7.2 170 23:41 04.08.2019
4180 Clouds 23 1009 73 10000 7.2 170 23:22 04.08.2019
4181 Clouds 24 1010 69 10000 7.7 170 22:57 04.08.2019
4182 Clouds 24 1010 69 10000 7.7 170 22:38 04.08.2019
4183 Clouds 24 1010 69 10000 7.7 170 22:19 04.08.2019
4184 Clouds 24 1011 69 10000 6.7 160 21:45 04.08.2019
4185 Clouds 24 1011 69 10000 6.7 160 21:24 04.08.2019
4186 Clouds 23 1011 73 10000 8.2 160 20:57 04.08.2019
4187 Clouds 23 1011 73 10000 8.2 160 20:38 04.08.2019
4188 Clouds 23 1011 73 10000 8.2 160 20:18 04.08.2019
4189 Clouds 20 1014 86 0 5.39 165.778 19:48 04.08.2019
4190 Clouds 23 1012 73 10000 7.2 170 19:26 04.08.2019
4191 Clouds 23 1012 73 10000 8.2 160 18:44 04.08.2019
4192 Clouds 23 1012 73 10000 8.2 160 18:21 04.08.2019
4193 Clouds 22 1011 83 10000 7.2 160 17:58 04.08.2019
4194 Clouds 22 1011 83 10000 7.2 160 17:40 04.08.2019
4195 Clouds 22 1011 83 10000 7.2 160 17:20 04.08.2019
4196 Rain 21 1012 88 10000 6.7 160 16:42 04.08.2019
4197 Rain 21 1012 88 10000 6.7 160 16:24 04.08.2019
4198 Clouds 20 1011 94 10000 5.1 160 15:45 04.08.2019
4199 Clouds 20 1011 94 10000 5.1 160 15:45 04.08.2019
4200 Clouds 20 1011 94 10000 5.1 160 15:23 04.08.2019
4201 Drizzle 19 1011 93 8000 4.1 150 14:55 04.08.2019
4202 Drizzle 19 1011 93 8000 4.1 150 14:37 04.08.2019
4203 Drizzle 19 1011 93 8000 4.1 150 14:19 04.08.2019
4204 Clouds 20 1013 89 0 5.28 162.96 13:42 04.08.2019
4205 Clouds 20 1013 89 0 5.19 163.753 13:22 04.08.2019
4206 Clouds 20 1013 89 0 5.19 163.753 13:22 04.08.2019
4207 Clouds 20 1013 89 0 5.19 163.753 12:44 04.08.2019
4208 Clouds 20 1012 88 0 5.24 165.238 12:25 04.08.2019
4209 Clouds 20 1012 88 0 5.24 165.238 11:56 04.08.2019
4210 Clouds 20 1012 88 0 5.24 165.238 11:37 04.08.2019
4211 Clouds 20 1012 88 0 5.24 165.238 11:19 04.08.2019
4212 Clouds 20 1012 88 0 5.24 165.238 10:40 04.08.2019
4213 Clouds 20 1012 88 0 5.24 165.238 10:20 04.08.2019
4214 Clouds 20 1012 88 0 5.24 165.238 09:44 04.08.2019
4215 Clouds 20 1014 88 0 4.16 148.977 09:22 04.08.2019
4216 Clouds 20 1014 89 0 4.82 150.846 08:45 04.08.2019
4217 Clouds 20 1014 89 0 4.82 150.846 08:26 04.08.2019
4218 Clouds 20 1014 89 0 4.82 150.846 07:52 04.08.2019
4219 Clouds 20 1014 89 0 4.82 150.846 06:56 04.08.2019
4220 Clouds 20 1014 89 0 4.82 150.846 06:28 04.08.2019
4221 Clouds 20 1014 88 0 4.3 143.538 03:46 04.08.2019
4222 Clouds 22 1010 83 10000 4.1 150 02:24 04.08.2019
4223 Clouds 22 1009 83 10000 4.6 150 01:34 04.08.2019
4224 Clouds 22 1009 83 10000 4.6 150 01:34 04.08.2019
4225 Clouds 22 1009 83 10000 4.6 150 01:34 04.08.2019
4226 Clouds 22 1009 83 10000 4.6 150 01:34 04.08.2019
4227 Clouds 22 1009 83 10000 5.1 160 00:59 04.08.2019
4228 Clouds 22 1009 83 10000 5.1 160 00:40 04.08.2019
4229 Clouds 22 1009 83 10000 5.1 160 00:18 04.08.2019
4230 Clouds 23 1009 78 10000 6.2 150 23:39 03.08.2019
4231 Clouds 23 1009 78 10000 6.2 150 23:18 03.08.2019
4232 Clouds 24 1010 73 10000 7.2 160 22:44 03.08.2019
4233 Clouds 24 1010 73 10000 7.2 160 22:20 03.08.2019
4234 Clouds 23 1011 78 10000 6.7 160 21:42 03.08.2019
4235 Clouds 23 1011 78 10000 6.7 160 21:24 03.08.2019
4236 Clouds 23 1012 78 10000 7.2 170 20:58 03.08.2019
4237 Clouds 23 1012 78 10000 7.2 170 20:40 03.08.2019
4238 Clouds 23 1012 78 10000 7.2 170 20:20 03.08.2019
4239 Clouds 23 1013 78 10000 6.7 150 19:41 03.08.2019
4240 Clouds 23 1013 78 10000 6.7 150 19:23 03.08.2019
4241 Clouds 22 1013 83 10000 7.7 170 18:49 03.08.2019
4242 Clouds 22 1013 83 10000 7.7 170 18:27 03.08.2019
4243 Clouds 21 1012 88 10000 7.2 160 17:48 03.08.2019
4244 Clouds 21 1012 88 10000 7.2 160 17:21 03.08.2019
4245 Drizzle 20 1012 88 10000 4.1 160 16:55 03.08.2019
4246 Drizzle 20 1012 88 10000 4.1 160 16:37 03.08.2019
4247 Drizzle 20 1012 88 10000 4.1 160 16:18 03.08.2019
4248 Drizzle 19 1012 93 8000 3.6 170 15:42 03.08.2019
4249 Drizzle 19 1012 93 8000 3.6 170 15:20 03.08.2019
4250 Drizzle 19 1012 93 8000 4.1 170 14:38 03.08.2019
4251 Drizzle 19 1012 93 8000 4.1 170 14:19 03.08.2019
4252 Clouds 20 1013 87 0 4.63 194.69 13:50 03.08.2019
4253 Clouds 20 1013 87 0 4.69 197.465 13:24 03.08.2019
4254 Clouds 20 1013 87 0 4.69 197.465 12:56 03.08.2019
4255 Clouds 20 1013 87 0 4.69 197.465 12:37 03.08.2019
4256 Clouds 20 1013 86 0 4.87 189.224 12:19 03.08.2019
4257 Clouds 20 1013 86 0 4.87 189.224 11:45 03.08.2019
4258 Clouds 20 1013 86 0 4.87 189.224 11:25 03.08.2019
4259 Clouds 20 1013 86 0 4.87 189.224 10:40 03.08.2019
4260 Clouds 20 1013 86 0 4.87 189.224 10:21 03.08.2019
4261 Clouds 20 1013 86 0 4.87 189.224 09:39 03.08.2019
4262 Clouds 20 1014 87 0 4.49 178.953 09:19 03.08.2019
4263 Clouds 20 1014 86 0 5.22 179.594 08:46 03.08.2019
4264 Clouds 20 1014 86 0 5.22 179.594 07:41 03.08.2019
4265 Clouds 20 1014 86 0 5.22 179.594 07:22 03.08.2019
4266 Clouds 20 1014 86 0 4.09 166.928 06:21 03.08.2019
4267 Clouds 20 1014 86 0 4.09 166.928 03:36 03.08.2019
4268 Clouds 21 1010 88 10000 5.1 170 02:27 03.08.2019
4269 Clouds 22 1009 83 10000 5.7 160 00:59 03.08.2019
4270 Clouds 22 1009 83 10000 5.7 160 00:32 03.08.2019
4271 Clouds 22 1009 83 10000 5.7 160 00:32 03.08.2019
4272 Clouds 22 1009 83 10000 5.7 160 00:32 03.08.2019
4273 Drizzle 22 1010 83 10000 7.2 170 23:55 02.08.2019
4274 Drizzle 22 1010 83 10000 7.2 170 23:37 02.08.2019
4275 Drizzle 22 1010 83 10000 7.2 170 23:18 02.08.2019
4276 Drizzle 23 1010 78 8000 5.7 170 22:40 02.08.2019
4277 Drizzle 23 1010 78 8000 5.7 170 22:22 02.08.2019
4278 Drizzle 23 1011 78 10000 6.7 170 21:56 02.08.2019
4279 Drizzle 23 1011 78 10000 6.7 170 21:38 02.08.2019
4280 Drizzle 23 1011 78 10000 6.7 170 21:20 02.08.2019
4281 Clouds 23 1011 78 10000 5.1 180 20:43 02.08.2019
4282 Clouds 23 1011 78 10000 5.1 180 20:23 02.08.2019
4283 Clouds 23 1012 78 10000 6.7 180 19:55 02.08.2019
4284 Clouds 23 1012 78 10000 6.7 180 19:33 02.08.2019
4285 Rain 22 1012 88 10000 5.1 180 18:57 02.08.2019
4286 Rain 22 1012 88 10000 5.1 180 18:38 02.08.2019
4287 Rain 22 1012 88 10000 5.1 180 18:18 02.08.2019
4288 Rain 21 1012 94 10000 7.2 170 17:39 02.08.2019
4289 Rain 21 1012 94 10000 7.2 170 17:20 02.08.2019
4290 Drizzle 20 1012 94 8000 5.1 190 16:40 02.08.2019
4291 Drizzle 20 1012 94 8000 5.1 190 16:40 02.08.2019
4292 Drizzle 20 1012 94 8000 5.1 190 16:21 02.08.2019
4293 Drizzle 20 1011 94 5000 7.2 180 15:57 02.08.2019
4294 Drizzle 20 1011 94 5000 7.2 180 15:37 02.08.2019
4295 Drizzle 20 1011 94 5000 7.2 180 15:18 02.08.2019
4296 Drizzle 20 1011 94 8000 5.1 170 14:43 02.08.2019
4297 Drizzle 20 1011 94 8000 5.1 170 14:18 02.08.2019
4298 Clouds 20 1012 88 0 6.56 193.471 13:45 02.08.2019
4299 Clouds 20 1013 88 0 6.7 194.376 13:20 02.08.2019
4300 Clouds 20 1013 88 0 6.7 194.376 12:43 02.08.2019
4301 Clouds 20 1012 89 0 6.43 193.377 12:20 02.08.2019
4302 Clouds 20 1012 89 0 6.43 193.377 11:41 02.08.2019
4303 Clouds 20 1012 89 0 6.43 193.377 11:41 02.08.2019
4304 Clouds 20 1012 89 0 6.43 193.377 11:22 02.08.2019
4305 Clouds 20 1012 89 0 6.43 193.377 10:48 02.08.2019
4306 Clouds 20 1012 89 0 6.43 193.377 10:24 02.08.2019
4307 Clouds 20 1012 89 0 6.43 193.377 09:57 02.08.2019
4308 Clouds 20 1012 89 0 6.43 193.377 09:38 02.08.2019
4309 Clouds 20 1012 89 0 6.43 193.377 09:38 02.08.2019
4310 Clouds 20 1014 89 0 5.79 188.93 09:20 02.08.2019
4311 Clouds 20 1014 89 0 5.56 188.057 08:40 02.08.2019
4312 Clouds 20 1014 89 0 5.56 188.057 08:18 02.08.2019
4313 Clouds 20 1014 89 0 5.56 188.057 07:42 02.08.2019
4314 Clouds 20 1014 89 0 5.56 188.057 07:24 02.08.2019
4315 Clouds 20 1014 89 0 5.56 188.057 06:33 02.08.2019
4316 Clouds 20 1014 88 0 5.93 181.267 05:43 02.08.2019
4317 Clouds 21 1011 88 10000 5.7 160 03:34 02.08.2019
4318 Clouds 21 1011 88 10000 5.7 160 02:38 02.08.2019
4319 Clouds 22 1010 83 10000 6.7 180 01:36 02.08.2019
4320 Clouds 23 1009 78 10000 7.2 160 00:31 02.08.2019
4321 Clouds 24 1009 73 10000 8.2 160 23:44 01.08.2019
4322 Clouds 24 1009 73 10000 8.2 160 23:25 01.08.2019
4323 Clouds 24 1010 73 10000 7.7 170 22:44 01.08.2019
4324 Clouds 24 1010 73 10000 7.7 170 22:25 01.08.2019
4325 Clouds 24 1011 73 10000 8.2 160 21:57 01.08.2019
4326 Clouds 24 1011 73 10000 8.2 160 21:38 01.08.2019
4327 Clouds 24 1011 73 10000 8.2 160 21:20 01.08.2019
4328 Clouds 23 1012 78 10000 7.2 170 20:46 01.08.2019
4329 Clouds 23 1012 78 10000 7.2 170 20:46 01.08.2019
4330 Clouds 23 1012 78 10000 7.2 170 20:23 01.08.2019
4331 Clouds 22 1012 83 10000 6.7 160 19:45 01.08.2019
4332 Clouds 22 1012 83 10000 6.7 160 19:24 01.08.2019
4333 Rain 21 1013 88 10000 7.2 150 18:59 01.08.2019
4334 Rain 21 1013 88 10000 7.2 150 18:40 01.08.2019
4335 Rain 21 1013 88 10000 7.2 150 18:22 01.08.2019
4336 Drizzle 20 1013 100 10000 7.2 170 17:46 01.08.2019
4337 Drizzle 20 1013 100 10000 7.2 170 17:27 01.08.2019
4338 Drizzle 20 1012 94 8000 5.1 160 16:44 01.08.2019
4339 Drizzle 20 1012 94 8000 5.1 160 16:22 01.08.2019
4340 Drizzle 20 1011 94 8000 6.2 170 15:46 01.08.2019
4341 Drizzle 20 1011 94 8000 6.2 170 15:21 01.08.2019
4342 Rain 20 1012 90 0 6.13 165.884 14:55 01.08.2019
4343 Rain 20 1012 90 0 6.13 165.884 14:37 01.08.2019
4344 Rain 20 1012 90 0 6.13 165.884 14:18 01.08.2019
4345 Rain 20 1012 90 0 6.13 165.884 14:18 01.08.2019
4346 Rain 20 1012 90 0 6.13 165.884 13:41 01.08.2019
4347 Rain 20 1012 89 0 5.91 164.38 13:22 01.08.2019
4348 Rain 20 1012 89 0 5.91 164.38 12:58 01.08.2019
4349 Rain 20 1012 89 0 5.91 164.38 12:40 01.08.2019
4350 Clouds 20 1012 88 0 6.13 172.762 12:21 01.08.2019
4351 Clouds 20 1012 88 0 6.13 172.762 11:41 01.08.2019
4352 Clouds 20 1012 88 0 6.13 172.762 11:22 01.08.2019
4353 Clouds 20 1012 88 0 6.13 172.762 11:22 01.08.2019
4354 Clouds 20 1012 88 0 6.13 172.762 11:22 01.08.2019
4355 Clouds 20 1012 88 0 6.13 172.762 10:45 01.08.2019
4356 Clouds 20 1012 88 0 6.13 172.762 10:27 01.08.2019
4357 Clouds 20 1012 88 0 6.13 172.762 09:56 01.08.2019
4358 Clouds 20 1012 88 0 6.13 172.762 09:38 01.08.2019
4359 Clouds 20 1013 88 0 6.4 177.968 09:20 01.08.2019
4360 Clouds 20 1013 88 0 6.26 180.586 08:42 01.08.2019
4361 Clouds 20 1013 88 0 6.26 180.586 08:19 01.08.2019
4362 Clouds 20 1013 88 0 6.26 180.586 07:46 01.08.2019
4363 Clouds 20 1013 88 0 6.26 180.586 07:22 01.08.2019
4364 Clouds 20 1013 88 0 6.26 180.586 06:45 01.08.2019
4365 Clouds 20 1013 89 0 6.77 183.287 05:37 01.08.2019
4366 Clouds 20 1013 89 0 6.77 183.287 03:53 01.08.2019
4367 Clouds 22 1009 78 10000 6.2 170 02:26 01.08.2019
4368 Clouds 23 1008 73 10000 7.7 170 00:41 01.08.2019
4369 Clouds 23 1008 73 10000 7.7 170 00:19 01.08.2019
4370 Clouds 23 1009 73 10000 6.2 170 23:42 31.07.2019
4371 Clouds 23 1009 73 10000 6.2 170 23:20 31.07.2019
4372 Clouds 22 1010 78 10000 6.7 180 22:46 31.07.2019
4373 Clouds 22 1010 78 10000 6.7 180 22:28 31.07.2019
4374 Clouds 22 1011 78 10000 6.7 180 21:45 31.07.2019
4375 Clouds 22 1011 78 10000 6.7 180 21:24 31.07.2019
4376 Clouds 23 1012 73 10000 7.2 150 20:51 31.07.2019
4377 Clouds 23 1012 73 10000 7.2 150 20:25 31.07.2019
4378 Drizzle 22 1013 78 10000 5.7 140 19:58 31.07.2019
4379 Drizzle 22 1013 78 10000 5.7 140 19:39 31.07.2019
4380 Drizzle 22 1013 78 10000 5.7 140 19:20 31.07.2019
4381 Drizzle 21 1013 83 10000 6.2 140 18:40 31.07.2019
4382 Drizzle 21 1013 83 10000 6.2 140 18:40 31.07.2019
4383 Drizzle 21 1013 83 10000 6.2 140 18:22 31.07.2019
4384 Drizzle 21 1013 77 10000 5.7 150 17:45 31.07.2019
4385 Drizzle 21 1013 77 10000 5.7 150 17:20 31.07.2019
4386 Drizzle 21 1012 83 8000 5.1 150 16:54 31.07.2019
4387 Drizzle 21 1012 83 8000 5.1 150 16:34 31.07.2019
4388 Drizzle 21 1011 83 8000 5.7 150 16:00 31.07.2019
4389 Drizzle 21 1011 83 8000 5.7 150 15:40 31.07.2019
4390 Drizzle 21 1011 83 8000 5.7 150 15:21 31.07.2019
4391 Clouds 20 1010 88 10000 4.6 150 14:42 31.07.2019
4392 Clouds 20 1010 88 10000 4.6 150 14:20 31.07.2019
4393 Clear 20 1012 87 0 5.97 165.344 13:55 31.07.2019
4394 Clear 20 1012 87 0 5.97 165.344 13:37 31.07.2019
4395 Clouds 20 1012 87 0 5.95 166.753 13:19 31.07.2019
4396 Clouds 20 1012 87 0 5.95 166.753 12:41 31.07.2019
4397 Clouds 20 1011 87 0 6.01 172.877 12:23 31.07.2019
4398 Clouds 20 1011 87 0 6.01 172.877 11:40 31.07.2019
4399 Clouds 20 1011 87 0 6.01 172.877 11:21 31.07.2019
4400 Clouds 20 1011 87 0 6.01 172.877 10:56 31.07.2019
4401 Clouds 20 1011 87 0 6.01 172.877 10:38 31.07.2019
4402 Clouds 20 1011 87 0 6.01 172.877 10:19 31.07.2019
4403 Clouds 20 1011 87 0 6.01 172.877 09:42 31.07.2019
4404 Clouds 20 1013 86 0 6.02 167.708 09:23 31.07.2019
4405 Clouds 20 1013 86 0 6.17 168.457 08:43 31.07.2019
4406 Clouds 20 1013 86 0 6.17 168.457 08:24 31.07.2019
4407 Clouds 20 1013 86 0 6.17 168.457 07:47 31.07.2019
4408 Clouds 20 1013 86 0 6.17 168.457 07:27 31.07.2019
4409 Clouds 20 1013 85 0 5.9 161.224 05:20 31.07.2019
4410 Clouds 20 1013 85 0 5.9 161.224 03:55 31.07.2019
4411 Drizzle 20 1009 94 8000 6.2 160 00:37 31.07.2019
4412 Clouds 20 1011 86 0 4.93 154.454 23:47 30.07.2019
4413 Clouds 20 1011 86 0 4.93 154.454 23:47 30.07.2019
4414 Drizzle 20 1009 94 4000 4.6 170 23:25 30.07.2019
4415 Clouds 20 1011 86 0 4.93 154.454 22:48 30.07.2019
4416 Clouds 20 1011 86 0 4.93 154.454 22:25 30.07.2019
4417 Clouds 23 1011 73 10000 5.7 150 21:57 30.07.2019
4418 Clouds 23 1011 73 10000 5.7 150 21:37 30.07.2019
4419 Clouds 23 1011 69 10000 6.2 150 21:18 30.07.2019
4420 Clouds 23 1011 69 10000 6.2 150 20:43 30.07.2019
4421 Clouds 23 1011 69 10000 6.2 150 20:24 30.07.2019
4422 Clouds 23 1012 73 10000 5.7 170 19:59 30.07.2019
4423 Clouds 23 1012 73 10000 5.7 170 19:40 30.07.2019
4424 Clouds 23 1012 73 10000 5.7 170 19:18 30.07.2019
4425 Clouds 23 1012 73 10000 6.2 170 18:43 30.07.2019
4426 Clouds 23 1012 73 10000 6.2 170 18:19 30.07.2019
4427 Clouds 22 1012 78 10000 6.7 160 17:42 30.07.2019
4428 Clouds 22 1012 78 10000 6.7 160 17:20 30.07.2019
4429 Rain 21 1011 88 10000 7.7 160 16:53 30.07.2019
4430 Rain 21 1011 88 10000 7.7 160 16:22 30.07.2019
4431 Drizzle 20 1010 94 10000 6.7 150 15:58 30.07.2019
4432 Drizzle 20 1010 94 10000 6.7 150 15:38 30.07.2019
4433 Drizzle 19 1010 93 10000 5.1 150 15:19 30.07.2019
4434 Drizzle 19 1010 93 10000 5.1 150 14:42 30.07.2019
4435 Drizzle 19 1010 93 10000 5.1 150 14:21 30.07.2019
4436 Drizzle 19 1010 93 10000 5.1 150 14:21 30.07.2019
4437 Clouds 20 1012 88 0 5.33 165.38 13:47 30.07.2019
4438 Clouds 20 1012 88 0 5.33 165.38 13:29 30.07.2019
4439 Clouds 20 1012 88 0 5.29 162.967 12:59 30.07.2019
4440 Clouds 20 1012 88 0 5.29 162.967 12:40 30.07.2019
4441 Clouds 20 1011 87 0 5.98 170.889 12:22 30.07.2019
4442 Clouds 20 1011 87 0 5.98 170.889 11:42 30.07.2019
4443 Clouds 20 1011 87 0 5.98 170.889 11:20 30.07.2019
4444 Clouds 20 1011 87 0 5.88 170.698 10:49 30.07.2019
4445 Clouds 20 1011 87 0 5.88 170.698 10:29 30.07.2019
4446 Clouds 20 1011 87 0 5.88 170.698 09:55 30.07.2019
4447 Clouds 20 1011 87 0 5.88 170.698 09:37 30.07.2019
4448 Clouds 20 1013 89 0 4.6 164.948 09:19 30.07.2019
4449 Clouds 20 1013 89 0 4.6 164.948 08:32 30.07.2019
4450 Clouds 20 1013 89 0 4.6 164.948 07:50 30.07.2019
4451 Clouds 20 1013 89 0 4.6 164.948 07:31 30.07.2019
4452 Clouds 20 1013 89 0 4.6 164.948 06:48 30.07.2019
4453 Clouds 20 1013 89 0 4.6 164.948 06:28 30.07.2019
4454 Clouds 20 1013 90 0 5.38 159.746 05:34 30.07.2019
4455 Clouds 22 1009 83 10000 6.2 160 03:28 30.07.2019
4456 Clouds 22 1009 83 10000 6.2 160 01:21 30.07.2019
4457 Clouds 23 1009 78 10000 7.2 170 00:22 30.07.2019
4458 Clouds 23 1009 78 10000 7.2 180 23:47 29.07.2019
4459 Clouds 23 1009 78 10000 7.2 180 23:28 29.07.2019
4460 Clouds 23 1010 78 10000 8.2 180 22:58 29.07.2019
4461 Clouds 23 1010 78 10000 8.2 180 22:39 29.07.2019
4462 Clouds 23 1010 78 10000 8.2 180 22:20 29.07.2019
4463 Clouds 23 1011 78 10000 6.7 160 21:59 29.07.2019
4464 Clouds 23 1011 78 10000 6.7 160 21:40 29.07.2019
4465 Clouds 23 1011 78 10000 6.7 160 21:21 29.07.2019
4466 Drizzle 22 1012 83 8000 7.2 160 20:49 29.07.2019
4467 Drizzle 22 1012 83 8000 7.2 160 20:26 29.07.2019
4468 Clouds 20 1013 90 0 6.4 157.866 19:59 29.07.2019
4469 Clouds 20 1013 90 0 6.4 157.866 19:41 29.07.2019
4470 Clouds 20 1013 90 0 6.4 157.866 19:20 29.07.2019
4471 Clouds 22 1013 83 10000 7.2 160 18:43 29.07.2019
4472 Clouds 22 1013 83 10000 7.2 160 18:23 29.07.2019
4473 Clouds 21 1012 88 10000 6.7 150 17:53 29.07.2019
4474 Clouds 21 1012 88 10000 6.7 150 17:35 29.07.2019
4475 Rain 21 1011 88 10000 6.7 150 16:59 29.07.2019
4476 Rain 21 1011 88 10000 6.7 150 16:40 29.07.2019
4477 Rain 21 1011 88 10000 6.7 150 16:22 29.07.2019
4478 Rain 20 1011 94 10000 7.2 140 15:52 29.07.2019
4479 Rain 20 1011 94 10000 7.2 140 15:52 29.07.2019
4480 Rain 20 1011 94 10000 7.2 140 15:52 29.07.2019
4481 Rain 20 1011 94 10000 7.2 140 15:33 29.07.2019
4482 Rain 20 1010 88 10000 6.2 150 14:56 29.07.2019
4483 Rain 20 1010 88 10000 6.2 150 14:37 29.07.2019
4484 Rain 20 1010 88 10000 6.2 150 14:19 29.07.2019
4485 Clouds 20 1012 92 0 6.24 169.284 13:41 29.07.2019
4486 Clouds 20 1012 91 0 5.93 167.402 13:23 29.07.2019
4487 Clouds 20 1012 91 0 5.93 167.402 12:42 29.07.2019
4488 Clear 20 1012 91 0 6.47 175.52 12:23 29.07.2019
4489 Clear 20 1012 91 0 6.47 175.52 11:43 29.07.2019
4490 Clear 20 1012 91 0 6.47 175.52 11:22 29.07.2019
4491 Clear 20 1012 91 0 6.47 175.52 10:45 29.07.2019
4492 Clear 20 1012 91 0 6.47 175.52 10:24 29.07.2019
4493 Clear 20 1012 91 0 6.47 175.52 09:48 29.07.2019
4494 Clear 20 1012 91 0 6.47 175.52 09:28 29.07.2019
4495 Clouds 20 1013 92 0 6.35 175.394 08:57 29.07.2019
4496 Clouds 20 1013 92 0 6.19 176.185 08:31 29.07.2019
4497 Clouds 20 1013 92 0 6.19 176.185 07:58 29.07.2019
4498 Clouds 20 1013 92 0 6.19 176.185 07:36 29.07.2019
4499 Clouds 20 1013 92 0 6.19 176.185 06:45 29.07.2019
4500 Clouds 20 1014 91 0 6.39 170.278 05:43 29.07.2019
4501 Clouds 20 1014 91 0 6.39 170.278 04:49 29.07.2019
4502 Clouds 21 1010 88 10000 5.1 160 01:57 29.07.2019
4503 Clouds 21 1010 88 10000 5.1 160 01:39 29.07.2019
4504 Clouds 21 1010 88 10000 5.1 160 01:18 29.07.2019
4505 Clouds 23 1010 78 10000 6.2 150 00:38 29.07.2019
4506 Clouds 23 1010 78 10000 6.2 150 00:18 29.07.2019
4507 Clouds 24 1011 73 10000 5.7 160 23:38 28.07.2019
4508 Clouds 24 1012 73 10000 7.2 170 22:58 28.07.2019
4509 Clouds 24 1012 73 10000 7.2 170 22:37 28.07.2019
4510 Clouds 24 1012 73 10000 7.2 170 22:18 28.07.2019
4511 Drizzle 24 1012 78 10000 6.2 150 21:42 28.07.2019
4512 Drizzle 24 1012 78 10000 6.2 150 21:18 28.07.2019
4513 Drizzle 23 1013 78 10000 6.2 160 20:43 28.07.2019
4514 Drizzle 23 1013 78 10000 6.2 160 20:25 28.07.2019
4515 Drizzle 22 1014 83 10000 5.1 160 19:42 28.07.2019
4516 Drizzle 22 1014 83 10000 5.1 160 19:21 28.07.2019
4517 Rain 22 1014 83 10000 6.7 140 18:47 28.07.2019
4518 Rain 22 1014 83 10000 6.7 140 18:29 28.07.2019
4519 Rain 21 1013 88 10000 6.2 140 17:58 28.07.2019
4520 Rain 21 1013 88 10000 6.2 140 17:39 28.07.2019
4521 Rain 21 1013 88 10000 6.2 140 17:19 28.07.2019
4522 Rain 20 1013 94 10000 6.2 150 16:45 28.07.2019
4523 Rain 20 1013 94 10000 6.2 150 16:25 28.07.2019
4524 Rain 19 1012 93 10000 7.2 160 15:48 28.07.2019
4525 Rain 19 1012 93 10000 7.2 160 15:27 28.07.2019
4526 Rain 19 1011 93 10000 5.7 150 14:56 28.07.2019
4527 Rain 19 1011 93 10000 5.7 150 14:37 28.07.2019
4528 Rain 19 1011 93 10000 5.7 150 14:18 28.07.2019
4529 Rain 19 1011 93 10000 5.7 150 14:18 28.07.2019
4530 Rain 19 1011 93 10000 5.7 150 14:18 28.07.2019
4531 Clouds 20 1013 93 0 5.45 153.52 13:39 28.07.2019
4532 Clear 20 1013 92 0 5.78 151.13 13:20 28.07.2019
4533 Clear 20 1013 92 0 5.78 151.13 12:45 28.07.2019
4534 Clear 20 1013 92 0 5.78 151.13 12:27 28.07.2019
4535 Clear 20 1012 92 0 5.33 160.583 11:50 28.07.2019
4536 Clear 20 1012 92 0 5.33 160.583 11:29 28.07.2019
4537 Clear 20 1012 92 0 5.33 160.583 10:59 28.07.2019
4538 Clear 20 1012 92 0 5.33 160.583 10:38 28.07.2019
4539 Clear 20 1012 92 0 5.33 160.583 10:18 28.07.2019
4540 Clear 20 1012 92 0 5.33 160.583 09:40 28.07.2019
4541 Clouds 20 1014 92 0 5.07 159.698 09:22 28.07.2019
4542 Clear 20 1014 93 0 4.82 156.9 08:42 28.07.2019
4543 Clear 20 1014 93 0 4.82 156.9 08:22 28.07.2019
4544 Clear 20 1014 93 0 4.82 156.9 07:42 28.07.2019
4545 Clear 20 1014 93 0 4.82 156.9 07:24 28.07.2019
4546 Clear 20 1014 93 0 4.82 156.9 06:35 28.07.2019
4547 Clouds 20 1014 93 0 4.33 152.518 05:20 28.07.2019
4548 Clouds 21 1011 88 10000 5.7 160 02:37 28.07.2019
4549 Clouds 22 1010 83 10000 7.2 150 01:40 28.07.2019
4550 Clouds 23 1010 78 10000 6.7 150 00:54 28.07.2019
4551 Clouds 23 1010 78 10000 6.7 150 00:30 28.07.2019
4552 Clouds 24 1010 73 10000 7.7 140 23:53 27.07.2019
4553 Clouds 24 1010 73 10000 7.7 140 23:27 27.07.2019
4554 Clouds 24 1011 73 10000 7.2 160 22:44 27.07.2019
4555 Clouds 24 1011 73 10000 7.2 160 22:26 27.07.2019
4556 Clouds 24 1011 73 10000 6.2 150 21:47 27.07.2019
4557 Clouds 24 1011 73 10000 6.2 150 21:24 27.07.2019
4558 Clouds 24 1013 73 10000 7.7 150 20:56 27.07.2019
4559 Clouds 24 1013 73 10000 7.7 150 20:37 27.07.2019
4560 Clouds 24 1013 73 10000 7.7 150 20:19 27.07.2019
4561 Clouds 23 1013 83 10000 6.7 170 19:39 27.07.2019
4562 Clouds 23 1013 83 10000 6.7 170 19:21 27.07.2019
4563 Clouds 23 1013 83 10000 5.7 160 18:47 27.07.2019
4564 Clouds 23 1013 83 10000 5.7 160 18:28 27.07.2019
4565 Drizzle 21 1013 88 10000 6.2 160 17:50 27.07.2019
4566 Drizzle 21 1013 88 10000 6.2 160 17:50 27.07.2019
4567 Drizzle 21 1013 88 10000 6.2 160 17:32 27.07.2019
4568 Rain 20 1015 92 0 5.06 145.486 16:55 27.07.2019
4569 Drizzle 21 1013 94 8000 6.7 150 16:37 27.07.2019
4570 Drizzle 20 1012 94 10000 5.7 160 15:56 27.07.2019
4571 Drizzle 20 1012 94 10000 5.7 160 15:36 27.07.2019
4572 Drizzle 20 1012 94 10000 5.7 160 15:18 27.07.2019
4573 Drizzle 20 1012 94 10000 3.6 150 14:41 27.07.2019
4574 Drizzle 20 1012 94 10000 3.6 150 14:23 27.07.2019
4575 Rain 20 1014 91 0 5.23 154.087 13:47 27.07.2019
4576 Rain 20 1015 91 0 5.02 156.61 13:22 27.07.2019
4577 Rain 20 1015 91 0 5.02 156.61 12:50 27.07.2019
4578 Rain 20 1015 91 0 5.02 156.61 12:27 27.07.2019
4579 Clouds 20 1013 91 0 5.44 164.78 11:54 27.07.2019
4580 Clouds 20 1013 91 0 5.44 164.78 11:36 27.07.2019
4581 Clouds 20 1013 91 0 5.44 164.78 11:18 27.07.2019
4582 Clouds 20 1013 91 0 5.44 164.78 10:40 27.07.2019
4583 Clouds 20 1013 91 0 5.44 164.78 10:20 27.07.2019
4584 Clouds 20 1013 91 0 5.44 164.78 09:41 27.07.2019
4585 Clouds 21 1014 89 0 4.95 166.756 09:22 27.07.2019
4586 Clouds 21 1014 89 0 4.88 167.474 08:48 27.07.2019
4587 Clouds 21 1014 89 0 4.88 167.474 08:29 27.07.2019
4588 Clouds 21 1014 89 0 4.88 167.474 07:50 27.07.2019
4589 Clouds 21 1014 89 0 4.88 167.474 07:27 27.07.2019
4590 Clouds 21 1014 89 0 4.88 167.474 06:56 27.07.2019
4591 Clouds 21 1014 89 0 4.88 167.474 06:30 27.07.2019
4592 Clouds 21 1014 89 0 5.08 165.564 05:49 27.07.2019
4593 Clouds 21 1014 89 0 5.08 165.564 04:59 27.07.2019
4594 Clouds 21 1014 89 0 5.08 165.564 04:25 27.07.2019
4595 Clouds 22 1010 83 10000 6.7 140 02:44 27.07.2019
4596 Clouds 22 1010 83 10000 6.7 140 02:26 27.07.2019
4597 Clouds 23 1009 78 10000 7.2 160 01:43 27.07.2019
4598 Clouds 24 1009 69 10000 7.7 150 00:57 27.07.2019
4599 Clouds 24 1009 69 10000 7.7 150 00:32 27.07.2019
4600 Clouds 24 1009 69 10000 7.7 180 23:52 26.07.2019
4601 Clouds 24 1009 69 10000 7.7 180 23:32 26.07.2019
4602 Clouds 24 1009 73 10000 7.2 150 22:46 26.07.2019
4603 Clouds 24 1009 73 10000 7.2 150 22:27 26.07.2019
4604 Clouds 24 1011 73 10000 8.7 140 21:59 26.07.2019
4605 Clouds 24 1011 73 10000 8.7 140 21:37 26.07.2019
4606 Clouds 24 1011 73 10000 8.7 140 21:18 26.07.2019
4607 Clouds 24 1011 73 10000 8.7 140 21:18 26.07.2019
4608 Clouds 24 1011 69 10000 8.7 160 20:42 26.07.2019
4609 Clouds 24 1011 69 10000 8.7 160 20:42 26.07.2019
4610 Clouds 24 1011 69 10000 8.7 160 20:22 26.07.2019
4611 Clouds 24 1012 69 10000 9.8 170 19:42 26.07.2019
4612 Clouds 24 1012 69 10000 9.8 170 19:24 26.07.2019
4613 Clouds 24 1012 69 10000 9.3 160 18:47 26.07.2019
4614 Clouds 24 1012 69 10000 9.3 160 18:23 26.07.2019
4615 Clouds 23 1013 73 10000 6.7 130 17:58 26.07.2019
4616 Clouds 23 1013 73 10000 6.7 130 17:40 26.07.2019
4617 Clouds 23 1013 73 10000 6.7 130 17:18 26.07.2019
4618 Clouds 22 1012 83 10000 5.7 150 16:55 26.07.2019
4619 Clouds 22 1012 83 10000 5.7 150 16:37 26.07.2019
4620 Clouds 22 1012 83 10000 5.7 150 16:18 26.07.2019
4621 Clouds 21 1012 88 10000 4.6 150 15:45 26.07.2019
4622 Clouds 21 1012 88 10000 4.6 150 15:22 26.07.2019
4623 Clouds 20 1011 94 10000 4.6 130 14:58 26.07.2019
4624 Clouds 20 1011 94 10000 4.6 130 14:40 26.07.2019
4625 Clouds 20 1011 94 10000 4.6 130 14:21 26.07.2019
4626 Clouds 21 1013 84 0 5.18 149.775 13:39 26.07.2019
4627 Clouds 21 1014 86 0 5.75 154.955 13:21 26.07.2019
4628 Clouds 21 1014 86 0 5.75 154.955 12:43 26.07.2019
4629 Clouds 21 1013 85 0 4.68 149.305 12:19 26.07.2019
4630 Clouds 21 1013 85 0 4.68 149.305 11:39 26.07.2019
4631 Clouds 21 1013 85 0 4.68 149.305 11:19 26.07.2019
4632 Clouds 21 1013 85 0 4.68 149.305 10:52 26.07.2019
4633 Clouds 21 1013 85 0 4.68 149.305 10:34 26.07.2019
4634 Clouds 21 1013 85 0 4.68 149.305 09:55 26.07.2019
4635 Clouds 21 1013 85 0 4.68 149.305 09:34 26.07.2019
4636 Clouds 21 1015 84 0 4.1 175.217 08:43 26.07.2019
4637 Clouds 21 1015 84 0 4.1 175.217 08:22 26.07.2019
4638 Clouds 21 1015 84 0 4.1 175.217 07:58 26.07.2019
4639 Clouds 21 1015 84 0 4.1 175.217 07:28 26.07.2019
4640 Clouds 21 1015 84 0 4.1 175.217 06:52 26.07.2019
4641 Clouds 21 1015 85 0 4.02 166.675 05:22 26.07.2019
4642 Clouds 21 1015 85 0 4.02 166.675 04:22 26.07.2019
4643 Clouds 22 1011 83 10000 4.6 140 02:41 26.07.2019
4644 Clouds 23 1011 78 10000 6.2 150 01:42 26.07.2019
4645 Clouds 23 1011 73 10000 6.7 150 00:43 26.07.2019
4646 Clouds 21 1012 81 0 5.67 167.413 23:56 25.07.2019
4647 Clouds 24 1011 69 10000 8.2 150 23:24 25.07.2019
4648 Clouds 24 1011 69 10000 8.2 150 22:55 25.07.2019
4649 Clouds 24 1011 69 10000 8.2 150 22:36 25.07.2019
4650 Clouds 24 1011 69 10000 8.2 150 22:18 25.07.2019
4651 Clouds 24 1012 69 10000 8.2 160 21:42 25.07.2019
4652 Clouds 24 1012 69 10000 8.2 160 21:21 25.07.2019
4653 Clouds 25 1012 61 10000 8.7 150 20:47 25.07.2019
4654 Clouds 25 1012 61 10000 8.7 150 20:22 25.07.2019
4655 Clouds 24 1013 69 10000 8.2 150 19:44 25.07.2019
4656 Clouds 24 1013 69 10000 8.2 150 19:44 25.07.2019
4657 Clouds 24 1013 69 10000 8.2 150 19:25 25.07.2019
4658 Clouds 23 1013 69 10000 7.2 130 18:56 25.07.2019
4659 Clouds 23 1013 69 10000 7.2 130 18:38 25.07.2019
4660 Clouds 23 1013 69 10000 7.2 130 18:19 25.07.2019
4661 Clouds 23 1013 73 10000 7.7 140 17:40 25.07.2019
4662 Clouds 23 1013 73 10000 7.7 140 17:22 25.07.2019
4663 Clouds 22 1013 83 10000 6.7 150 16:43 25.07.2019
4664 Clouds 22 1013 83 10000 6.7 150 16:24 25.07.2019
4665 Clouds 21 1012 83 10000 6.2 150 15:51 25.07.2019
4666 Clouds 21 1012 83 10000 6.2 150 15:21 25.07.2019
4667 Clouds 20 1012 88 10000 4.6 140 14:44 25.07.2019
4668 Clouds 20 1012 88 10000 4.6 140 14:25 25.07.2019
4669 Clouds 20 1014 82 0 6.32 154.651 13:59 25.07.2019
4670 Clouds 20 1014 82 0 6.32 154.651 13:40 25.07.2019
4671 Clouds 20 1014 82 0 6.27 157.107 13:22 25.07.2019
4672 Clouds 20 1014 82 0 6.27 157.107 12:35 25.07.2019
4673 Clouds 20 1013 84 0 5.96 153.233 11:59 25.07.2019
4674 Clouds 20 1013 84 0 5.96 153.233 11:40 25.07.2019
4675 Clouds 20 1013 84 0 5.96 153.233 11:22 25.07.2019
4676 Clouds 20 1013 84 0 5.96 153.233 10:45 25.07.2019
4677 Clouds 20 1013 84 0 5.96 153.233 10:24 25.07.2019
4678 Clouds 20 1013 84 0 5.96 153.233 09:46 25.07.2019
4679 Clouds 20 1013 84 0 5.96 153.233 09:27 25.07.2019
4680 Clouds 20 1014 85 0 5.51 152.304 08:49 25.07.2019
4681 Clouds 20 1014 85 0 5.51 152.304 08:29 25.07.2019
4682 Clouds 20 1014 85 0 5.51 152.304 07:40 25.07.2019
4683 Clouds 20 1014 85 0 5.51 152.304 06:46 25.07.2019
4684 Clear 20 1014 85 0 5.47 150.045 06:19 25.07.2019
4685 Clear 20 1014 85 0 5.47 150.045 05:34 25.07.2019
4686 Clear 20 1014 85 0 5.47 150.045 04:45 25.07.2019
4687 Clouds 21 1011 88 10000 7.2 150 02:24 25.07.2019
4688 Clouds 22 1011 78 10000 7.7 160 01:21 25.07.2019
4689 Clouds 23 1010 78 10000 8.2 150 00:23 25.07.2019
4690 Clouds 23 1011 73 10000 11.3 160 23:56 24.07.2019
4691 Clouds 23 1011 73 10000 11.3 160 23:37 24.07.2019
4692 Clouds 23 1011 73 10000 11.3 160 23:18 24.07.2019
4693 Clouds 24 1011 73 10000 7.7 150 22:44 24.07.2019
4694 Clouds 24 1011 73 10000 7.7 150 22:22 24.07.2019
4695 Clouds 24 1012 69 10000 7.2 160 21:55 24.07.2019
4696 Clouds 24 1012 69 10000 7.2 160 21:37 24.07.2019
4697 Clouds 24 1012 69 10000 7.2 160 21:18 24.07.2019
4698 Clouds 24 1013 69 10000 8.2 170 20:40 24.07.2019
4699 Clouds 24 1013 69 10000 8.2 170 20:22 24.07.2019
4700 Clouds 24 1014 73 10000 8.2 170 19:56 24.07.2019
4701 Clouds 24 1014 73 10000 8.2 170 19:38 24.07.2019
4702 Clouds 24 1014 73 10000 8.2 170 19:19 24.07.2019
4703 Clouds 24 1014 73 10000 7.7 170 18:42 24.07.2019
4704 Clouds 24 1014 73 10000 7.7 170 18:23 24.07.2019
4705 Clouds 23 1014 73 10000 7.2 160 17:44 24.07.2019
4706 Clouds 23 1014 73 10000 7.2 160 17:20 24.07.2019
4707 Clouds 21 1017 76 0 5.78 154.402 16:42 24.07.2019
4708 Clouds 21 1013 88 10000 7.2 150 16:22 24.07.2019
4709 Clouds 21 1013 88 10000 7.2 150 15:42 24.07.2019
4710 Clouds 21 1013 88 10000 7.2 150 15:24 24.07.2019
4711 Clouds 20 1012 88 10000 5.7 160 14:57 24.07.2019
4712 Clouds 20 1012 88 10000 5.7 160 14:38 24.07.2019
4713 Clouds 20 1012 88 10000 5.7 160 14:38 24.07.2019
4714 Clouds 20 1012 88 10000 5.7 160 14:38 24.07.2019
4715 Clouds 20 1012 88 10000 5.7 160 14:19 24.07.2019
4716 Clouds 20 1015 78 0 6.31 154.714 13:37 24.07.2019
4717 Clouds 20 1014 78 0 6.03 155.255 13:19 24.07.2019
4718 Clouds 20 1014 78 0 6.03 155.255 12:51 24.07.2019
4719 Clouds 20 1014 78 0 6.03 155.255 12:32 24.07.2019
4720 Clouds 21 1014 78 0 5.91 161.081 11:40 24.07.2019
4721 Clouds 21 1014 78 0 5.91 161.081 11:20 24.07.2019
4722 Clouds 21 1014 78 0 5.91 161.081 10:45 24.07.2019
4723 Clouds 21 1014 78 0 5.91 161.081 10:25 24.07.2019
4724 Clouds 21 1014 78 0 5.91 161.081 09:49 24.07.2019
4725 Clouds 21 1016 80 0 5.72 160.359 09:25 24.07.2019
4726 Clouds 21 1016 80 0 5.72 160.359 08:58 24.07.2019
4727 Clouds 20 1016 82 0 5.81 161.852 08:32 24.07.2019
4728 Clouds 20 1016 82 0 5.81 161.852 07:52 24.07.2019
4729 Clouds 20 1016 82 0 5.81 161.852 07:24 24.07.2019
4730 Clouds 20 1016 82 0 5.81 161.852 06:33 24.07.2019
4731 Clouds 21 1016 81 0 6.1 170.511 05:54 24.07.2019
4732 Clouds 22 1012 78 10000 5.1 160 02:52 24.07.2019
4733 Clouds 23 1011 78 10000 6.2 190 01:30 24.07.2019
4734 Clouds 24 1011 73 10000 6.2 190 00:57 24.07.2019
4735 Clouds 24 1011 73 10000 6.2 190 00:23 24.07.2019
4736 Clouds 24 1011 73 10000 6.2 190 00:23 24.07.2019
4737 Clouds 24 1011 69 10000 6.7 200 23:43 23.07.2019
4738 Clouds 24 1011 69 10000 6.7 200 23:25 23.07.2019
4739 Clouds 24 1012 69 10000 6.2 190 22:41 23.07.2019
4740 Clouds 24 1012 69 10000 6.2 190 22:20 23.07.2019
4741 Clouds 24 1013 69 10000 6.7 190 21:59 23.07.2019
4742 Clouds 24 1013 69 10000 6.7 190 21:41 23.07.2019
4743 Clouds 24 1013 69 10000 6.7 190 21:23 23.07.2019
4744 Clouds 24 1013 69 10000 6.7 190 20:48 23.07.2019
4745 Clouds 24 1013 69 10000 6.7 190 20:26 23.07.2019
4746 Clouds 24 1014 69 10000 6.7 170 19:43 23.07.2019
4747 Clouds 24 1014 69 10000 6.7 170 19:23 23.07.2019
4748 Clouds 23 1014 73 10000 6.2 170 18:52 23.07.2019
4749 Clouds 23 1014 73 10000 6.2 170 18:25 23.07.2019
4750 Clouds 23 1014 83 10000 6.7 170 17:56 23.07.2019
4751 Clouds 23 1014 83 10000 6.7 170 17:38 23.07.2019
4752 Clouds 23 1014 83 10000 6.7 170 17:19 23.07.2019
4753 Clouds 21 1013 88 10000 5.7 180 16:41 23.07.2019
4754 Clouds 21 1013 88 10000 5.7 180 16:21 23.07.2019
4755 Clouds 20 1013 94 10000 3.6 160 15:46 23.07.2019
4756 Clouds 20 1013 94 10000 3.6 160 15:24 23.07.2019
4757 Clouds 20 1012 94 10000 3.1 150 14:40 23.07.2019
4758 Clouds 20 1012 94 10000 3.1 150 14:22 23.07.2019
4759 Clouds 21 1014 82 0 7.35 184.378 13:59 23.07.2019
4760 -273 0 0 0 0 0 13:40 23.07.2019
4761 Clouds 20 1014 83 0 7.41 174.189 13:21 23.07.2019
4762 Clouds 20 1014 83 0 7.41 174.189 12:48 23.07.2019
4763 Clouds 21 1014 85 0 6.77 186.056 12:26 23.07.2019
4764 Clouds 21 1014 85 0 6.77 186.056 11:50 23.07.2019
4765 Clouds 21 1014 85 0 6.77 186.056 11:32 23.07.2019
4766 Clouds 21 1014 85 0 6.77 186.056 10:59 23.07.2019
4767 Clouds 21 1014 85 0 6.77 186.056 10:40 23.07.2019
4768 Clouds 21 1014 85 0 6.77 186.056 10:20 23.07.2019
4769 Clouds 21 1014 85 0 6.77 186.056 09:41 23.07.2019
4770 Clouds 21 1016 85 0 4.88 178.578 09:19 23.07.2019
4771 Rain 21 1016 86 0 5.08 178.06 08:43 23.07.2019
4772 Rain 21 1016 86 0 5.08 178.06 08:19 23.07.2019
4773 Rain 21 1016 86 0 5.08 178.06 07:55 23.07.2019
4774 Rain 21 1016 86 0 5.08 178.06 07:34 23.07.2019
4775 Rain 21 1016 86 0 5.08 178.06 06:44 23.07.2019
4776 Rain 21 1016 86 0 5.08 178.06 06:26 23.07.2019
4777 Clouds 22 1011 88 10000 6.2 190 02:44 23.07.2019
4778 Clouds 23 1010 83 10000 5.7 180 01:31 23.07.2019
4779 Clouds 24 1010 78 10000 5.7 190 00:30 23.07.2019
4780 Clouds 21 1011 86 0 6.67 185.257 23:43 22.07.2019
4781 Clouds 24 1009 78 10000 8.2 180 23:22 22.07.2019
4782 Clouds 24 1009 78 10000 8.2 180 22:59 22.07.2019
4783 Clouds 24 1009 78 10000 8.2 180 22:41 22.07.2019
4784 Clouds 24 1009 78 10000 8.2 180 22:20 22.07.2019
4785 Drizzle 24 1011 83 8000 7.7 170 21:42 22.07.2019
4786 Drizzle 24 1011 83 8000 7.7 170 21:21 22.07.2019
4787 Clouds 21 1014 86 0 6.37 183.202 20:48 22.07.2019
4788 Clouds 24 1011 78 10000 7.7 180 20:29 22.07.2019
4789 Drizzle 24 1012 78 10000 8.2 180 19:55 22.07.2019
4790 Drizzle 24 1012 78 10000 8.2 180 19:36 22.07.2019
4791 Drizzle 24 1012 78 10000 8.2 180 19:18 22.07.2019
4792 Clouds 23 1013 83 10000 6.2 170 18:41 22.07.2019
4793 Clouds 23 1013 83 10000 6.2 170 18:22 22.07.2019
4794 Clouds 23 1013 83 10000 8.2 180 17:42 22.07.2019
4795 Clouds 23 1013 83 10000 8.2 180 17:24 22.07.2019
4796 Clouds 22 1012 88 10000 5.7 170 16:42 22.07.2019
4797 Clouds 22 1012 88 10000 5.7 170 16:21 22.07.2019
4798 Clouds 21 1011 88 10000 6.2 160 15:59 22.07.2019
4799 Clouds 21 1011 88 10000 6.2 160 15:38 22.07.2019
4800 Clouds 21 1011 88 10000 6.2 160 15:18 22.07.2019
4801 Clouds 21 1012 87 0 7.12 183.123 14:43 22.07.2019
4802 Clouds 21 1012 87 0 7.12 183.123 14:20 22.07.2019
4803 Clouds 21 1012 87 0 7.12 183.123 13:47 22.07.2019
4804 Clouds 21 1012 87 0 7.12 183.123 13:28 22.07.2019
4805 Clouds 21 1012 87 0 7.12 183.123 12:46 22.07.2019
4806 Clouds 21 1012 87 0 7.12 183.123 12:27 22.07.2019
4807 Clouds 21 1012 90 0 6.93 186.241 11:45 22.07.2019
4808 Clouds 21 1012 90 0 6.93 186.241 11:25 22.07.2019
4809 Clouds 21 1012 90 0 6.93 186.241 10:53 22.07.2019
4810 Clouds 21 1012 90 0 6.93 186.241 10:30 22.07.2019
4811 Clouds 21 1012 90 0 6.93 186.241 09:45 22.07.2019
4812 Clouds 21 1014 91 0 6.33 188.912 09:25 22.07.2019
4813 Clouds 21 1014 91 0 6.33 188.912 08:47 22.07.2019
4814 Clouds 21 1014 91 0 6.33 188.912 08:26 22.07.2019
4815 Clouds 21 1014 91 0 6.33 188.912 07:58 22.07.2019
4816 Clouds 21 1014 91 0 6.33 188.912 07:40 22.07.2019
4817 Clouds 21 1014 91 0 6.33 188.912 07:21 22.07.2019
4818 Clouds 21 1013 91 0 5.61 187.628 03:57 22.07.2019
4819 Clouds 21 1011 90 0 6.27 191.717 02:42 22.07.2019
4820 Clouds 21 1011 90 0 6.35 193.55 00:57 22.07.2019
4821 Clouds 21 1011 90 0 6.35 193.55 00:26 22.07.2019
4822 Clouds 24 1009 78 10000 8.2 170 23:55 21.07.2019
4823 Clouds 24 1009 78 10000 8.2 170 23:31 21.07.2019
4824 Clouds 21 1010 89 0 6.85 191.712 22:42 21.07.2019
4825 Clouds 25 1010 73 10000 7.7 180 22:22 21.07.2019
4826 Clouds 25 1010 73 10000 7.7 180 21:57 21.07.2019
4827 Clouds 25 1010 73 10000 7.7 180 21:37 21.07.2019
4828 Clouds 25 1010 73 10000 7.7 180 21:19 21.07.2019
4829 Clouds 25 1011 73 10000 7.2 180 20:44 21.07.2019
4830 Clouds 25 1011 73 10000 7.2 180 20:25 21.07.2019
4831 Clouds 25 1011 73 10000 7.2 180 20:25 21.07.2019
4832 Clouds 24 1011 78 10000 6.7 170 19:55 21.07.2019
4833 Clouds 24 1011 78 10000 6.7 170 19:36 21.07.2019
4834 Clouds 24 1011 78 10000 6.7 170 19:18 21.07.2019
4835 Clouds 24 1012 73 10000 5.1 160 18:44 21.07.2019
4836 Clouds 24 1012 73 10000 5.1 160 18:25 21.07.2019
4837 Clouds 22 1012 83 10000 4.1 140 17:42 21.07.2019
4838 Clouds 22 1012 83 10000 4.1 140 17:20 21.07.2019
4839 Clouds 22 1012 83 10000 4.1 140 17:20 21.07.2019
4840 Rain 21 1012 94 8000 5.1 150 16:45 21.07.2019
4841 Rain 21 1012 94 8000 5.1 150 16:25 21.07.2019
4842 Clouds 21 1014 88 0 5.94 184.023 15:54 21.07.2019
4843 Clouds 21 1014 88 0 5.94 184.023 15:36 21.07.2019
4844 Drizzle 21 1010 94 3000 5.1 150 15:18 21.07.2019
4845 Drizzle 21 1010 94 3000 5.1 150 14:41 21.07.2019
4846 Drizzle 21 1010 94 3000 5.1 150 14:21 21.07.2019
4847 Clouds 21 1011 88 0 5.07 184.954 13:44 21.07.2019
4848 Clouds 21 1011 88 0 5.07 184.954 13:44 21.07.2019
4849 Clouds 21 1012 88 0 4.96 181.248 13:25 21.07.2019
4850 Clouds 21 1012 88 0 4.96 181.248 12:42 21.07.2019
4851 Clear 21 1011 88 0 5.15 182.549 12:24 21.07.2019
4852 Clear 21 1011 88 0 5.15 182.549 11:47 21.07.2019
4853 Clear 21 1011 88 0 5.15 182.549 11:28 21.07.2019
4854 Clear 21 1011 88 0 5.15 182.549 10:55 21.07.2019
4855 Clear 21 1011 88 0 5.15 182.549 10:37 21.07.2019
4856 Clear 21 1011 88 0 5.15 182.549 10:18 21.07.2019
4857 Clear 21 1011 88 0 5.15 182.549 09:36 21.07.2019
4858 Clear 21 1012 88 0 5.48 188.474 08:52 21.07.2019
4859 Clear 21 1012 89 0 5.38 186.906 08:34 21.07.2019
4860 Clear 21 1012 89 0 5.38 186.906 07:59 21.07.2019
4861 Clear 21 1012 89 0 5.38 186.906 07:32 21.07.2019
4862 Clear 21 1012 89 0 5.38 186.906 06:38 21.07.2019
4863 Clear 21 1011 88 0 6 185.047 04:21 21.07.2019
4864 Clouds 23 1007 78 10000 7.2 160 01:57 21.07.2019
4865 Clouds 24 1006 73 10000 6.7 160 00:48 21.07.2019
4866 Clouds 24 1006 73 10000 6.7 160 00:22 21.07.2019
4867 Clouds 25 1007 69 10000 6.7 160 23:48 20.07.2019
4868 Clouds 25 1007 69 10000 6.7 160 23:28 20.07.2019
4869 Clouds 24 1008 78 10000 7.2 170 22:58 20.07.2019
4870 Clouds 24 1008 78 10000 7.2 170 22:40 20.07.2019
4871 Clouds 24 1008 78 10000 7.2 170 22:19 20.07.2019
4872 Clouds 25 1008 73 10000 6.2 170 21:43 20.07.2019
4873 Clouds 25 1008 73 10000 6.2 170 21:24 20.07.2019
4874 Clouds 25 1009 69 10000 5.1 170 20:43 20.07.2019
4875 Clouds 25 1009 69 10000 5.1 170 20:23 20.07.2019
4876 Clouds 24 1009 73 10000 7.2 160 19:51 20.07.2019
4877 Clouds 24 1009 73 10000 7.2 160 19:29 20.07.2019
4878 Rain 23 1011 83 10000 6.7 160 18:56 20.07.2019
4879 Rain 23 1011 83 10000 6.7 160 18:37 20.07.2019
4880 Rain 23 1011 83 10000 6.7 160 18:18 20.07.2019
4881 Drizzle 23 1011 83 10000 7.2 160 17:43 20.07.2019
4882 Drizzle 23 1011 83 10000 7.2 160 17:19 20.07.2019
4883 Clouds 22 1010 83 10000 3.1 160 16:40 20.07.2019
4884 Clouds 22 1010 83 10000 3.1 160 16:22 20.07.2019
4885 Clouds 21 1010 88 10000 2.6 150 15:42 20.07.2019
4886 Clouds 21 1010 88 10000 2.6 150 15:42 20.07.2019
4887 Clouds 21 1010 88 10000 2.6 150 15:21 20.07.2019
4888 Clouds 20 1009 94 10000 2.1 130 14:49 20.07.2019
4889 Clouds 20 1009 94 10000 2.1 130 14:30 20.07.2019
4890 Clouds 20 1011 84 0 4.09 164.239 13:58 20.07.2019
4891 Clouds 20 1011 84 0 4.09 164.239 13:38 20.07.2019
4892 Clouds 20 1011 84 0 3.97 159.407 13:19 20.07.2019
4893 Clouds 20 1011 84 0 3.97 159.407 12:49 20.07.2019
4894 Clouds 20 1010 82 0 3.06 155.821 12:19 20.07.2019
4895 Clouds 20 1010 82 0 3.06 155.821 11:46 20.07.2019
4896 Clouds 20 1010 82 0 3.06 155.821 11:21 20.07.2019
4897 Clouds 20 1010 82 0 3.06 155.821 10:42 20.07.2019
4898 Clouds 20 1010 82 0 3.06 155.821 10:23 20.07.2019
4899 Clouds 20 1010 82 0 3.06 155.821 09:51 20.07.2019
4900 Clouds 20 1011 81 0 2.7 173.641 09:25 20.07.2019
4901 Clouds 20 1011 82 0 2.96 174.261 08:51 20.07.2019
4902 Clouds 20 1011 82 0 2.96 174.261 08:24 20.07.2019
4903 Clouds 20 1011 82 0 2.96 174.261 07:39 20.07.2019
4904 Clouds 20 1011 82 0 2.96 174.261 06:46 20.07.2019
4905 Clouds 20 1011 81 0 2.97 159.369 05:25 20.07.2019
4906 Clouds 20 1011 81 0 2.97 159.369 04:31 20.07.2019
4907 Rain 22 1007 83 10000 5.1 150 01:55 20.07.2019
4908 Rain 23 1007 78 10000 6.7 150 00:52 20.07.2019
4909 Rain 23 1007 78 10000 6.7 150 00:33 20.07.2019
4910 Rain 23 1007 78 10000 5.1 160 23:57 19.07.2019
4911 Rain 23 1007 78 10000 5.1 160 23:39 19.07.2019
4912 Rain 23 1007 78 10000 5.1 160 23:20 19.07.2019
4913 Clouds 23 1008 83 10000 6.2 150 22:41 19.07.2019
4914 Clouds 23 1008 83 10000 6.2 150 22:20 19.07.2019
4915 Clouds 23 1008 83 10000 6.2 150 22:20 19.07.2019
4916 Rain 23 1009 83 10000 7.2 150 21:43 19.07.2019
4917 Rain 23 1009 83 10000 7.2 150 21:25 19.07.2019
4918 Clouds 20 1012 83 0 5.44 154.649 20:44 19.07.2019
4919 Clouds 20 1012 83 0 5.44 154.649 20:25 19.07.2019
4920 Rain 23 1010 88 8000 7.2 150 19:40 19.07.2019
4921 Rain 23 1010 88 8000 7.2 150 19:19 19.07.2019
4922 Drizzle 21 1011 94 5000 6.2 140 18:41 19.07.2019
4923 Drizzle 21 1011 94 5000 6.2 140 18:19 19.07.2019
4924 Rain 22 1010 88 10000 5.1 150 17:47 19.07.2019
4925 Rain 22 1010 88 10000 5.1 150 17:26 19.07.2019
4926 Drizzle 20 1010 94 8000 5.1 160 16:48 19.07.2019
4927 Drizzle 20 1010 94 8000 5.1 160 16:25 19.07.2019
4928 Drizzle 20 1009 94 8000 6.2 160 15:49 19.07.2019
4929 Drizzle 20 1009 94 8000 6.2 160 15:30 19.07.2019
4930 Clouds 20 1011 83 0 6.57 155.112 14:56 19.07.2019
4931 Drizzle 20 1008 94 3000 6.2 150 14:38 19.07.2019
4932 Drizzle 20 1008 94 3000 6.2 150 14:20 19.07.2019
4933 Clouds 20 1011 83 0 6.57 155.112 13:43 19.07.2019
4934 Clouds 20 1011 83 0 6.57 155.112 13:43 19.07.2019
4935 Clouds 21 1011 84 0 6.62 154.724 13:23 19.07.2019
4936 Clouds 21 1011 84 0 6.62 154.724 12:49 19.07.2019
4937 Clouds 21 1011 84 0 6.62 154.724 12:30 19.07.2019
4938 Clouds 21 1011 84 0 6.62 154.724 12:30 19.07.2019
4939 Clouds 21 1010 85 0 6.18 163.555 11:47 19.07.2019
4940 Clouds 21 1010 85 0 6.18 163.555 11:20 19.07.2019
4941 Clouds 21 1010 85 0 6.18 163.555 10:58 19.07.2019
4942 Clouds 21 1010 85 0 6.18 163.555 10:39 19.07.2019
4943 Clouds 21 1010 85 0 6.18 163.555 10:20 19.07.2019
4944 Clouds 21 1010 85 0 6.18 163.555 09:44 19.07.2019
4945 Clouds 21 1011 86 0 6.33 152.876 09:22 19.07.2019
4946 Clouds 21 1011 86 0 6.33 152.876 09:22 19.07.2019
4947 Clouds 21 1011 86 0 6.06 153.963 08:50 19.07.2019
4948 Clouds 21 1011 86 0 6.06 153.963 08:32 19.07.2019
4949 Clouds 21 1011 86 0 6.06 153.963 07:34 19.07.2019
4950 Clouds 21 1011 86 0 6.06 153.963 06:47 19.07.2019
4951 Clouds 21 1012 86 0 6.28 156.431 05:39 19.07.2019
4952 Clouds 22 1008 83 10000 5.7 170 01:56 19.07.2019
4953 Clouds 21 1010 87 0 6.01 149.663 00:58 19.07.2019
4954 Clouds 25 1008 73 10000 6.2 180 00:21 19.07.2019
4955 Clouds 25 1008 73 10000 6.2 180 23:41 18.07.2019
4956 Clouds 25 1008 73 10000 6.2 180 23:23 18.07.2019
4957 Clouds 24 1009 78 10000 6.7 160 22:55 18.07.2019
4958 Clouds 24 1009 78 10000 6.7 160 22:36 18.07.2019
4959 Clouds 24 1009 78 10000 6.7 160 22:18 18.07.2019
4960 Clouds 24 1010 78 10000 6.2 150 21:39 18.07.2019
4961 Clouds 24 1010 78 10000 6.2 150 21:19 18.07.2019
4962 Clouds 21 1012 87 0 5.5 145.24 20:46 18.07.2019
4963 Clouds 21 1012 87 0 5.5 145.24 20:25 18.07.2019
4964 Rain 24 1011 78 10000 5.1 160 19:50 18.07.2019
4965 Rain 24 1011 78 10000 5.1 160 19:27 18.07.2019
4966 Drizzle 23 1012 88 10000 5.1 150 18:52 18.07.2019
4967 Drizzle 23 1012 88 10000 5.1 150 18:23 18.07.2019
4968 Clouds 22 1012 88 10000 4.6 150 17:57 18.07.2019
4969 Clouds 22 1012 88 10000 4.6 150 17:37 18.07.2019
4970 Clouds 22 1012 88 10000 4.6 150 17:19 18.07.2019
4971 Drizzle 21 1012 94 8000 5.1 140 16:49 18.07.2019
4972 Drizzle 21 1012 94 8000 5.1 140 16:49 18.07.2019
4973 Drizzle 21 1012 94 8000 5.1 140 16:25 18.07.2019
4974 Drizzle 20 1011 100 8000 4.6 150 15:56 18.07.2019
4975 Drizzle 20 1011 100 8000 4.6 150 15:36 18.07.2019
4976 Drizzle 20 1010 100 8000 5.1 150 14:56 18.07.2019
4977 Drizzle 20 1010 100 8000 5.1 150 14:37 18.07.2019
4978 Drizzle 20 1010 100 8000 5.1 150 14:37 18.07.2019
4979 Rain 21 1012 89 0 5.81 145.379 13:59 18.07.2019
4980 Rain 21 1012 89 0 5.81 145.379 13:37 18.07.2019
4981 Rain 21 1012 88 0 5.76 145.546 13:18 18.07.2019
4982 Rain 21 1012 88 0 5.76 145.546 12:44 18.07.2019
4983 Rain 21 1011 88 0 5.69 158.474 12:18 18.07.2019
4984 Rain 21 1011 88 0 5.69 158.474 11:50 18.07.2019
4985 Rain 21 1011 88 0 5.69 158.474 11:27 18.07.2019
4986 Rain 21 1011 88 0 5.69 158.474 11:27 18.07.2019
4987 Rain 21 1011 88 0 5.69 158.474 10:52 18.07.2019
4988 Rain 21 1011 88 0 5.69 158.474 10:18 18.07.2019
4989 Rain 21 1011 88 0 5.69 158.474 09:44 18.07.2019
4990 Clouds 21 1012 86 0 5.68 158.099 09:21 18.07.2019
4991 Clouds 22 1012 85 0 5.54 158.3 08:42 18.07.2019
4992 Clouds 22 1012 85 0 5.54 158.3 08:19 18.07.2019
4993 Clouds 22 1012 85 0 5.54 158.3 07:37 18.07.2019
4994 Clouds 22 1012 85 0 5.54 158.3 06:58 18.07.2019
4995 Clouds 22 1012 85 0 5.54 158.3 06:34 18.07.2019
4996 Clouds 22 1012 86 0 6.31 164.427 04:19 18.07.2019
4997 Clouds 22 1008 88 10000 5.1 180 02:52 18.07.2019
4998 Clouds 23 1007 83 10000 6.2 170 01:37 18.07.2019
4999 Clouds 24 1009 78 10000 6.2 160 00:24 18.07.2019
5000 Clouds 24 1009 78 10000 6.2 160 23:45 17.07.2019
5001 Clouds 24 1009 78 10000 8.2 170 23:18 17.07.2019
5002 Clouds 24 1009 78 10000 8.2 170 22:42 17.07.2019
5003 Clouds 24 1009 78 10000 8.2 170 22:23 17.07.2019
5004 Clouds 24 1009 78 10000 8.2 170 22:23 17.07.2019
5005 Rain 23 1010 83 10000 5.1 160 21:58 17.07.2019
5006 Rain 23 1010 83 10000 5.1 160 21:38 17.07.2019
5007 Rain 23 1011 83 10000 6.2 170 21:20 17.07.2019
5008 Rain 23 1011 83 10000 6.2 170 20:56 17.07.2019
5009 Rain 23 1011 83 10000 6.2 170 20:56 17.07.2019
5010 Rain 23 1011 83 10000 6.2 170 20:38 17.07.2019
5011 Rain 23 1012 88 10000 6.7 150 20:18 17.07.2019
5012 Rain 23 1012 88 10000 6.7 150 19:41 17.07.2019
5013 Rain 23 1012 88 10000 6.7 150 19:20 17.07.2019
5014 Clouds 23 1012 83 10000 6.7 150 18:45 17.07.2019
5015 Clouds 22 1012 88 10000 6.2 150 18:21 17.07.2019
5016 Clouds 22 1012 88 10000 6.2 150 17:57 17.07.2019
5017 Clouds 22 1012 88 10000 6.2 150 17:39 17.07.2019
5018 Clouds 22 1012 88 10000 6.2 150 17:20 17.07.2019
5019 Clouds 21 1012 94 10000 5.1 140 16:40 17.07.2019
5020 Clouds 21 1011 88 10000 5.1 150 16:20 17.07.2019
5021 Clouds 21 1011 88 10000 5.1 150 15:51 17.07.2019
5022 Clouds 21 1011 88 10000 5.1 150 15:29 17.07.2019
5023 Drizzle 20 1011 100 6000 5.1 160 14:56 17.07.2019
5024 Drizzle 20 1011 100 6000 5.1 160 14:38 17.07.2019
5025 Clouds 21 1012 85 0 6.33 146.099 14:19 17.07.2019
5026 Clouds 21 1012 85 0 6.33 146.099 13:45 17.07.2019
5027 Clouds 21 1013 83 0 6.28 145.844 13:25 17.07.2019
5028 Clouds 21 1013 83 0 6.28 145.844 12:44 17.07.2019
5029 Clouds 21 1012 83 0 5.38 153.397 12:23 17.07.2019
5030 Clouds 21 1012 83 0 5.38 153.397 11:57 17.07.2019
5031 Clouds 21 1012 83 0 5.38 153.397 11:38 17.07.2019
5032 Clouds 21 1012 83 0 5.38 153.397 11:19 17.07.2019
5033 Clouds 21 1012 83 0 5.38 153.397 10:43 17.07.2019
5034 Clouds 21 1012 83 0 5.38 153.397 10:20 17.07.2019
5035 Clouds 21 1012 83 0 5.38 153.397 09:44 17.07.2019
5036 Clouds 21 1012 83 0 5.38 153.397 09:44 17.07.2019
5037 Clouds 21 1012 83 0 5.38 153.397 09:44 17.07.2019
5038 Clear 21 1014 85 0 5.92 159.868 09:25 17.07.2019
5039 Clear 21 1014 84 0 5.87 158.025 08:44 17.07.2019
5040 Clear 21 1014 84 0 5.87 158.025 08:22 17.07.2019
5041 Clear 21 1014 84 0 5.87 158.025 07:51 17.07.2019
5042 Clear 21 1014 84 0 5.87 158.025 07:51 17.07.2019
5043 Clear 21 1014 84 0 5.87 158.025 07:51 17.07.2019
5044 Clear 21 1014 84 0 5.87 158.025 07:26 17.07.2019
5045 Clear 21 1014 84 0 5.87 158.025 06:58 17.07.2019
5046 Clear 21 1014 84 0 5.87 158.025 06:30 17.07.2019
5047 Clear 21 1013 84 0 6.22 168.997 05:57 17.07.2019
5048 Clear 21 1013 84 0 6.22 168.997 05:30 17.07.2019
5049 Clear 21 1013 84 0 6.22 168.997 04:46 17.07.2019
5050 Clouds 22 1009 88 10000 6.2 170 03:32 17.07.2019
5051 Clouds 22 1009 88 10000 6.2 170 02:21 17.07.2019
5052 Clouds 23 1009 83 10000 6.2 170 01:27 17.07.2019
5053 Clouds 23 1009 78 10000 7.2 170 00:59 17.07.2019
5054 Clouds 23 1009 78 10000 7.2 170 00:37 17.07.2019
5055 Clouds 24 1009 78 10000 8.2 170 00:19 17.07.2019
5056 Clouds 24 1009 78 10000 8.2 170 00:19 17.07.2019
5057 Clouds 24 1009 78 10000 8.2 170 23:38 16.07.2019
5058 Clouds 24 1009 73 10000 8.2 170 23:18 16.07.2019
5059 Clouds 24 1009 73 10000 8.2 170 22:42 16.07.2019
5060 Clouds 24 1009 73 10000 8.2 170 22:24 16.07.2019
5061 Clouds 24 1010 78 10000 7.7 180 21:47 16.07.2019
5062 Clouds 24 1010 78 10000 7.7 180 21:22 16.07.2019
5063 Clouds 25 1011 73 10000 7.2 150 20:58 16.07.2019
5064 Clouds 25 1011 73 10000 7.2 150 20:39 16.07.2019
5065 Clouds 25 1011 73 10000 7.2 150 20:21 16.07.2019
5066 Clouds 24 1011 78 10000 7.2 150 19:51 16.07.2019
5067 Clouds 24 1011 78 10000 7.2 150 19:28 16.07.2019
5068 Clouds 23 1012 83 10000 6.2 160 18:57 16.07.2019
5069 Clouds 23 1012 83 10000 6.2 160 18:38 16.07.2019
5070 Clouds 24 1012 78 10000 7.2 150 18:19 16.07.2019
5071 Clouds 24 1012 78 10000 7.2 150 17:40 16.07.2019
5072 Clouds 24 1012 78 10000 7.2 150 17:21 16.07.2019
5073 Clouds 23 1012 83 10000 6.2 160 16:44 16.07.2019
5074 Clouds 23 1012 83 10000 6.2 160 16:21 16.07.2019
5075 Clouds 22 1011 88 10000 5.1 150 15:42 16.07.2019
5076 Clouds 22 1011 88 10000 5.1 150 15:21 16.07.2019
5077 Clouds 21 1010 88 10000 5.1 150 14:59 16.07.2019
5078 Clouds 21 1010 88 10000 5.1 150 14:41 16.07.2019
5079 Clouds 21 1010 88 10000 5.1 150 14:23 16.07.2019
5080 Clouds 21 1013 81 0 6.82 155.89 13:45 16.07.2019
5081 Clouds 21 1013 84 0 6.08 151.934 13:26 16.07.2019
5082 Clouds 21 1013 84 0 6.08 151.934 12:55 16.07.2019
5083 Clouds 21 1013 84 0 6.08 151.934 12:37 16.07.2019
5084 Clouds 21 1012 83 0 5.47 151.738 12:19 16.07.2019
5085 Clouds 21 1012 83 0 5.47 151.738 11:43 16.07.2019
5086 Clouds 21 1012 83 0 5.47 151.738 11:23 16.07.2019
5087 Clouds 21 1012 83 0 5.47 151.738 10:56 16.07.2019
5088 Clouds 21 1012 83 0 5.47 151.738 10:37 16.07.2019
5089 Clouds 21 1012 83 0 5.47 151.738 10:18 16.07.2019
5090 Clouds 21 1012 83 0 5.47 151.738 10:18 16.07.2019
5091 Clouds 21 1012 83 0 5.47 151.738 09:42 16.07.2019
5092 Clouds 21 1013 84 0 4.39 134.031 09:19 16.07.2019
5093 Clear 21 1014 84 0 3.94 129.653 08:43 16.07.2019
5094 Clear 21 1014 84 0 3.94 129.653 08:22 16.07.2019
5095 Clear 21 1014 84 0 3.94 129.653 07:48 16.07.2019
5096 Clear 21 1014 84 0 3.94 129.653 07:30 16.07.2019
5097 Clear 21 1014 84 0 3.94 129.653 06:49 16.07.2019
5098 Clear 21 1014 84 0 3.94 129.653 06:31 16.07.2019
5099 Clear 21 1013 83 0 3.96 148.686 05:39 16.07.2019
5100 Clear 21 1013 83 0 3.96 148.686 05:21 16.07.2019
5101 Clear 21 1013 83 0 3.96 148.686 04:19 16.07.2019
5102 Clouds 23 1009 83 10000 5.1 170 03:21 16.07.2019
5103 Clouds 23 1009 83 10000 5.1 170 02:31 16.07.2019
5104 Clouds 24 1009 78 10000 4.1 170 01:49 16.07.2019
5105 Clouds 24 1009 78 10000 5.1 160 00:47 16.07.2019
5106 Clouds 25 1009 73 10000 6.7 170 00:22 16.07.2019
5107 Clouds 25 1009 73 10000 6.7 170 23:53 15.07.2019
5108 Clouds 25 1009 73 10000 6.7 170 23:34 15.07.2019
5109 Clouds 25 1010 73 10000 6.2 160 22:49 15.07.2019
5110 Clouds 25 1010 73 10000 6.2 160 22:22 15.07.2019
5111 Clouds 25 1010 73 10000 6.2 150 21:59 15.07.2019
5112 Clouds 25 1010 73 10000 6.2 150 21:41 15.07.2019
5113 Clouds 24 1011 78 10000 7.2 160 21:20 15.07.2019
5114 Clouds 24 1011 78 10000 7.2 160 20:56 15.07.2019
5115 Clouds 24 1011 78 10000 7.2 160 20:38 15.07.2019
5116 Clouds 24 1012 78 10000 7.7 160 20:19 15.07.2019
5117 Clouds 24 1012 78 10000 7.7 160 19:40 15.07.2019
5118 Clouds 24 1012 78 10000 7.7 160 19:20 15.07.2019
5119 Clouds 24 1012 78 10000 7.7 160 18:54 15.07.2019
5120 Clouds 24 1012 78 10000 7.7 160 18:36 15.07.2019
5121 Clouds 23 1012 83 10000 6.2 160 18:18 15.07.2019
5122 Clouds 23 1012 83 10000 6.2 160 17:42 15.07.2019
5123 Clouds 23 1012 83 10000 6.2 160 17:22 15.07.2019
5124 Clouds 23 1011 83 10000 6.7 160 16:58 15.07.2019
5125 Clouds 23 1011 83 10000 6.7 160 16:38 15.07.2019
5126 Clouds 22 1011 88 10000 4.1 160 16:19 15.07.2019
5127 Clouds 22 1011 88 10000 4.1 160 15:43 15.07.2019
5128 Clouds 22 1011 88 10000 4.1 160 15:25 15.07.2019
5129 Clouds 21 1011 88 10000 5.1 170 14:59 15.07.2019
5130 Clouds 21 1011 88 10000 5.1 170 14:38 15.07.2019
5131 Clouds 21 1012 81 0 5.69 167.641 14:19 15.07.2019
5132 Clouds 21 1012 81 0 5.69 167.641 13:48 15.07.2019
5133 Clouds 21 1013 81 0 5.21 169.553 13:20 15.07.2019
5134 Clouds 21 1013 81 0 5.21 169.553 12:48 15.07.2019
5135 Clouds 21 1013 81 0 5.21 169.553 12:27 15.07.2019
5136 Clouds 21 1012 82 0 5.08 161.797 11:58 15.07.2019
5137 Clouds 21 1012 82 0 5.08 161.797 11:58 15.07.2019
5138 Clouds 21 1012 82 0 5.08 161.797 11:40 15.07.2019
5139 Clouds 21 1012 82 0 5.08 161.797 11:19 15.07.2019
5140 Clouds 21 1012 82 0 5.08 161.797 10:43 15.07.2019
5141 Clouds 21 1012 82 0 5.08 161.797 10:24 15.07.2019
5142 Clouds 21 1012 82 0 5.08 161.797 09:43 15.07.2019
5143 Clear 21 1013 83 0 5.03 142.174 09:23 15.07.2019
5144 Clear 21 1013 82 0 4.85 146.651 08:47 15.07.2019
5145 Clear 21 1013 82 0 4.85 146.651 08:25 15.07.2019
5146 Clear 21 1013 82 0 4.85 146.651 07:52 15.07.2019
5147 Clear 21 1013 82 0 4.85 146.651 07:32 15.07.2019
5148 Clear 21 1013 82 0 4.85 146.651 06:41 15.07.2019
5149 Clear 21 1014 84 0 4.98 152.329 06:20 15.07.2019
5150 Clear 21 1014 84 0 4.98 152.329 05:42 15.07.2019
5151 Clear 21 1014 84 0 4.98 152.329 04:46 15.07.2019
5152 Clear 21 1014 84 0 4.98 152.329 04:26 15.07.2019
5153 Clear 23 1009 78 10000 4.1 180 03:23 15.07.2019
5154 Clear 24 1009 73 10000 5.1 180 02:18 15.07.2019
5155 Clear 24 1009 73 10000 5.1 180 01:34 15.07.2019
5156 Clouds 25 1009 69 10000 6.2 170 00:53 15.07.2019
5157 Clouds 25 1009 69 10000 6.2 170 00:28 15.07.2019
5158 Clouds 25 1009 69 10000 7.2 150 23:58 14.07.2019
5159 Clouds 25 1009 69 10000 7.2 150 23:40 14.07.2019
5160 Clouds 24 1010 73 10000 7.2 160 23:19 14.07.2019
5161 Clouds 24 1010 73 10000 7.2 160 22:57 14.07.2019
5162 Clouds 24 1010 73 10000 7.2 160 22:38 14.07.2019
5163 Clouds 25 1010 69 10000 6.7 160 22:19 14.07.2019
5164 Clouds 25 1010 69 10000 6.7 160 21:42 14.07.2019
5165 Clouds 25 1010 69 10000 6.7 160 21:42 14.07.2019
5166 Clouds 25 1011 69 10000 7.7 160 21:19 14.07.2019
5167 Clouds 25 1011 69 10000 7.7 160 20:57 14.07.2019
5168 Clouds 25 1011 69 10000 7.7 160 20:38 14.07.2019
5169 Clear 25 1011 69 10000 6.7 180 20:19 14.07.2019
5170 Clear 25 1011 69 10000 6.7 180 19:45 14.07.2019
5171 Clear 25 1011 69 10000 6.7 180 19:27 14.07.2019
5172 Clear 25 1012 73 10000 7.2 170 18:58 14.07.2019
5173 Clear 25 1012 73 10000 7.2 170 18:39 14.07.2019
5174 Clear 23 1012 78 10000 5.7 170 18:21 14.07.2019
5175 Clear 23 1012 78 10000 5.7 170 17:49 14.07.2019
5176 Clear 23 1012 78 10000 5.7 170 17:21 14.07.2019
5177 Clear 23 1011 78 10000 5.1 160 16:47 14.07.2019
5178 Clear 23 1011 78 10000 5.1 160 16:24 14.07.2019
5179 Clear 22 1011 88 10000 4.1 160 15:56 14.07.2019
5180 Clear 22 1011 88 10000 4.1 160 15:34 14.07.2019
5181 Clouds 21 1011 88 10000 3.1 180 14:51 14.07.2019
5182 Clouds 21 1011 88 10000 3.1 180 14:22 14.07.2019
5183 Clouds 21 1013 83 0 5.5 150.035 13:58 14.07.2019
5184 Clouds 21 1013 83 0 5.5 150.035 13:38 14.07.2019
5185 Clouds 21 1013 82 0 5.01 149.388 13:20 14.07.2019
5186 Clouds 21 1013 82 0 5.01 149.388 12:43 14.07.2019
5187 Clouds 21 1013 81 0 4.72 155.379 12:22 14.07.2019
5188 Clouds 21 1013 81 0 4.72 155.379 11:55 14.07.2019
5189 Clouds 21 1013 81 0 4.72 155.379 11:29 14.07.2019
5190 Clouds 21 1013 81 0 4.72 155.379 10:59 14.07.2019
5191 Clouds 21 1013 81 0 4.72 155.379 10:40 14.07.2019
5192 Clouds 21 1013 81 0 4.72 155.379 10:19 14.07.2019
5193 Clouds 21 1013 81 0 4.72 155.379 09:42 14.07.2019
5194 Clear 21 1013 84 0 4.57 168.282 09:23 14.07.2019
5195 Clouds 22 1013 83 0 5.11 168.207 08:43 14.07.2019
5196 Clouds 22 1013 83 0 5.11 168.207 07:58 14.07.2019
5197 Clouds 22 1013 83 0 5.11 168.207 07:38 14.07.2019
5198 Clouds 22 1013 83 0 5.11 168.207 06:55 14.07.2019
5199 Clouds 22 1014 79 0 3.78 184.274 05:44 14.07.2019
5200 Clouds 22 1014 79 0 3.78 184.274 03:47 14.07.2019
5201 Clouds 22 1011 83 10000 5.1 180 03:29 14.07.2019
5202 Clouds 22 1011 83 10000 5.1 180 02:41 14.07.2019
5203 Clouds 22 1011 83 10000 5.1 180 02:21 14.07.2019
5204 Clouds 23 1010 73 10000 5.7 190 01:32 14.07.2019
5205 Clear 24 1010 69 10000 5.1 180 00:56 14.07.2019
5206 Clear 24 1010 69 10000 5.1 180 00:37 14.07.2019
5207 Clear 24 1009 69 10000 5.1 180 00:19 14.07.2019
5208 Clear 24 1009 69 10000 5.1 180 23:43 13.07.2019
5209 Clear 24 1009 69 10000 5.1 180 23:23 13.07.2019
5210 Clouds 25 1010 61 10000 6.2 190 22:47 13.07.2019
5211 Clouds 25 1010 61 10000 6.2 190 22:23 13.07.2019
5212 Clouds 25 1011 65 10000 7.7 170 21:55 13.07.2019
5213 Clouds 25 1011 65 10000 7.7 170 21:24 13.07.2019
5214 Clouds 24 1011 73 10000 7.2 180 20:59 13.07.2019
5215 Clouds 24 1011 73 10000 7.2 180 20:40 13.07.2019
5216 Clouds 24 1011 73 10000 7.2 180 20:40 13.07.2019
5217 Clouds 24 1011 73 10000 7.2 180 20:21 13.07.2019
5218 Clouds 24 1011 73 10000 7.7 180 19:43 13.07.2019
5219 Clouds 24 1011 73 10000 7.7 180 19:23 13.07.2019
5220 Clouds 24 1011 78 10000 7.2 180 18:41 13.07.2019
5221 Clouds 23 1011 83 10000 6.7 180 18:20 13.07.2019
5222 Clouds 23 1011 83 10000 6.7 180 17:38 13.07.2019
5223 Clouds 23 1011 83 10000 6.7 180 17:38 13.07.2019
5224 Clouds 22 1011 88 10000 6.2 180 17:19 13.07.2019
5225 Clouds 22 1011 88 10000 6.2 180 16:46 13.07.2019
5226 Clouds 22 1011 88 10000 6.2 180 16:26 13.07.2019
5227 Drizzle 20 1011 100 8000 6.2 180 15:50 13.07.2019
5228 Drizzle 20 1011 100 8000 6.2 180 15:50 13.07.2019
5229 Drizzle 20 1011 100 8000 6.2 180 15:25 13.07.2019
5230 Drizzle 21 1010 88 5000 5.1 190 14:59 13.07.2019
5231 Drizzle 21 1010 88 5000 5.1 190 14:41 13.07.2019
5232 Drizzle 21 1010 88 5000 5.1 190 14:20 13.07.2019
5233 Rain 21 1012 87 0 6.06 178.042 13:44 13.07.2019
5234 Rain 21 1012 86 0 6.01 174.177 13:19 13.07.2019
5235 Rain 21 1012 86 0 6.01 174.177 12:41 13.07.2019
5236 Clouds 22 1011 84 0 4.56 176.118 12:23 13.07.2019
5237 Clouds 22 1011 84 0 4.56 176.118 11:57 13.07.2019
5238 Clouds 22 1011 84 0 4.56 176.118 11:36 13.07.2019
5239 Clouds 22 1011 84 0 4.56 176.118 11:18 13.07.2019
5240 Clouds 22 1011 84 0 4.56 176.118 10:39 13.07.2019
5241 Clouds 22 1011 84 0 4.56 176.118 10:21 13.07.2019
5242 Clouds 22 1011 84 0 4.56 176.118 09:42 13.07.2019
5243 Clouds 22 1012 86 0 3.53 173.126 09:24 13.07.2019
5244 Clouds 22 1012 86 0 3.9 178.752 08:48 13.07.2019
5245 Clouds 22 1012 86 0 3.9 178.752 08:27 13.07.2019
5246 Clouds 22 1012 86 0 3.9 178.752 07:42 13.07.2019
5247 Clouds 22 1012 86 0 3.9 178.752 07:20 13.07.2019
5248 Clouds 22 1012 86 0 3.9 178.752 06:29 13.07.2019
5249 Clouds 22 1012 86 0 4.85 177.556 05:43 13.07.2019
5250 Clouds 22 1012 86 0 4.85 177.556 04:39 13.07.2019
5251 Clouds 22 1012 86 0 4.85 177.556 04:18 13.07.2019
5252 Clouds 22 1012 86 0 4.85 177.556 03:40 13.07.2019
5253 Clouds 22 1008 83 10000 6.2 160 02:41 13.07.2019
5254 Clouds 23 1007 83 10000 6.7 170 01:46 13.07.2019
5255 Clouds 23 1007 78 10000 6.7 170 01:20 13.07.2019
5256 Clouds 23 1007 78 10000 6.7 170 00:58 13.07.2019
5257 Clouds 25 1007 73 10000 7.7 170 00:20 13.07.2019
5258 Clouds 25 1007 73 10000 7.7 170 23:49 12.07.2019
5259 Clouds 25 1007 73 10000 7.7 170 23:30 12.07.2019
5260 Clouds 25 1008 73 10000 7.7 170 22:56 12.07.2019
5261 Clouds 25 1008 73 10000 7.7 170 22:38 12.07.2019
5262 Clouds 25 1009 73 10000 7.7 170 22:18 12.07.2019
5263 Clouds 25 1009 73 10000 7.7 170 21:41 12.07.2019
5264 Clouds 25 1009 73 10000 7.2 160 21:19 12.07.2019
5265 Clouds 25 1009 73 10000 7.2 160 20:43 12.07.2019
5266 Clouds 25 1009 73 10000 7.2 160 20:21 12.07.2019
5267 Clouds 25 1009 73 10000 9.3 160 19:42 12.07.2019
5268 Clouds 25 1009 73 10000 9.3 160 19:24 12.07.2019
5269 Drizzle 23 1010 88 10000 7.7 160 18:46 12.07.2019
5270 Drizzle 23 1010 88 10000 7.7 160 18:22 12.07.2019
5271 Clouds 23 1010 83 10000 7.7 170 17:55 12.07.2019
5272 Clouds 23 1010 83 10000 7.7 170 17:30 12.07.2019
5273 Clouds 23 1010 83 10000 6.7 170 16:59 12.07.2019
5274 Clouds 23 1010 83 10000 6.7 170 16:27 12.07.2019
5275 Clouds 22 1009 83 10000 6.2 170 15:57 12.07.2019
5276 Clouds 22 1009 83 10000 6.2 170 15:37 12.07.2019
5277 Clouds 22 1009 83 10000 6.2 160 15:18 12.07.2019
5278 Clouds 22 1009 83 10000 6.2 160 14:44 12.07.2019
5279 Clouds 22 1009 83 10000 6.2 160 14:21 12.07.2019
5280 Clouds 22 1011 85 0 6.08 169.5 13:46 12.07.2019
5281 Clouds 22 1011 86 0 6.13 168.565 13:23 12.07.2019
5282 Clouds 22 1011 86 0 6.13 168.565 12:42 12.07.2019
5283 Clouds 22 1010 83 0 5.13 158.18 12:23 12.07.2019
5284 Clouds 22 1010 83 0 5.13 158.18 11:47 12.07.2019
5285 Clouds 22 1010 83 0 5.13 158.18 11:24 12.07.2019
5286 Clouds 22 1010 83 0 5.13 158.18 10:58 12.07.2019
5287 Clouds 22 1010 83 0 5.13 158.18 10:40 12.07.2019
5288 Clouds 22 1010 83 0 5.13 158.18 10:22 12.07.2019
5289 Clouds 22 1010 83 0 5.13 158.18 09:51 12.07.2019
5290 Clouds 22 1012 84 0 5.8 161.121 09:25 12.07.2019
5291 Clouds 22 1012 84 0 5.6 162.872 08:47 12.07.2019
5292 Clouds 22 1012 84 0 5.6 162.872 08:23 12.07.2019
5293 Clouds 22 1012 84 0 5.6 162.872 07:47 12.07.2019
5294 Clouds 22 1012 84 0 5.6 162.872 07:29 12.07.2019
5295 Clouds 22 1012 84 0 5.6 162.872 06:29 12.07.2019
5296 Clouds 22 1012 83 0 5.81 158.156 05:51 12.07.2019
5297 Clouds 22 1012 83 0 5.81 158.156 04:25 12.07.2019
5298 Clouds 23 1008 83 10000 7.2 160 01:51 12.07.2019
5299 Clouds 23 1008 83 10000 7.2 160 01:32 12.07.2019
5300 Clouds 24 1008 78 10000 7.2 160 00:35 12.07.2019
5301 Clouds 25 1008 78 10000 8.2 160 23:56 11.07.2019
5302 Clouds 25 1008 78 10000 8.2 160 23:56 11.07.2019
5303 Clouds 25 1008 78 10000 8.2 160 23:37 11.07.2019
5304 Clouds 25 1008 78 10000 8.2 160 23:37 11.07.2019
5305 Clouds 25 1008 78 10000 8.2 160 23:37 11.07.2019
5306 Clouds 25 1008 78 10000 8.2 160 23:37 11.07.2019
5307 Clouds 24 1009 78 10000 8.2 170 23:18 11.07.2019
5308 Clouds 24 1009 78 10000 8.2 170 22:42 11.07.2019
5309 Clouds 24 1009 78 10000 8.2 170 22:23 11.07.2019
5310 Clouds 24 1009 78 10000 8.2 170 22:23 11.07.2019
5311 Clouds 25 1010 78 10000 7.7 170 21:43 11.07.2019
5312 Clouds 25 1011 78 10000 7.2 170 21:20 11.07.2019
5313 Clouds 25 1011 78 10000 7.2 170 21:20 11.07.2019
5314 Clouds 25 1011 78 10000 7.2 170 20:58 11.07.2019
5315 Clouds 25 1011 78 10000 7.2 170 20:40 11.07.2019
5316 Clouds 25 1011 78 10000 7.2 170 20:22 11.07.2019
5317 Clouds 26 1012 69 10000 7.2 170 19:48 11.07.2019
5318 Clouds 26 1012 69 10000 7.2 170 19:30 11.07.2019
5319 Clouds 25 1012 73 10000 6.2 160 18:54 11.07.2019
5320 Clouds 25 1012 73 10000 6.2 160 18:36 11.07.2019
5321 Clouds 25 1012 73 10000 6.2 160 18:36 11.07.2019
5322 Clouds 24 1012 78 10000 6.2 160 18:18 11.07.2019
5323 Clouds 24 1012 78 10000 6.2 160 17:42 11.07.2019
5324 Clouds 24 1012 78 10000 6.2 160 17:23 11.07.2019
5325 Clouds 23 1012 83 10000 5.1 150 16:51 11.07.2019
5326 Clouds 23 1012 83 10000 5.1 150 16:24 11.07.2019
5327 Clouds 22 1011 88 10000 5.1 160 15:54 11.07.2019
5328 Clouds 22 1011 88 10000 5.1 160 15:54 11.07.2019
5329 Clouds 22 1011 88 10000 5.1 160 15:54 11.07.2019
5330 Clouds 22 1011 88 10000 5.1 160 15:36 11.07.2019
5331 Clouds 22 1010 88 10000 4.1 150 15:18 11.07.2019
5332 Clouds 22 1010 88 10000 4.1 150 14:43 11.07.2019
5333 Clouds 22 1010 88 10000 4.1 150 14:21 11.07.2019
5334 Clouds 22 1013 81 0 4.78 143.053 13:46 11.07.2019
5335 Clouds 22 1013 81 0 4.59 141.426 13:26 11.07.2019
5336 Clouds 22 1013 81 0 4.59 141.426 12:45 11.07.2019
5337 Clouds 22 1013 81 0 4.59 141.426 12:26 11.07.2019
5338 Clouds 22 1012 83 0 4.44 144.36 11:53 11.07.2019
5339 Clouds 22 1012 83 0 4.44 144.36 11:31 11.07.2019
5340 Clouds 22 1012 83 0 4.44 144.36 10:59 11.07.2019
5341 Clouds 22 1012 83 0 4.44 144.36 10:41 11.07.2019
5342 Clouds 22 1012 83 0 4.44 144.36 10:18 11.07.2019
5343 Clouds 22 1012 83 0 4.44 144.36 09:41 11.07.2019
5344 Clouds 22 1013 82 0 3.48 147.037 09:23 11.07.2019
5345 Clouds 21 1013 83 0 3.74 145.609 08:50 11.07.2019
5346 Clouds 21 1013 83 0 3.74 145.609 08:24 11.07.2019
5347 Clouds 21 1013 83 0 3.74 145.609 07:48 11.07.2019
5348 Clouds 21 1013 83 0 3.74 145.609 07:29 11.07.2019
5349 Clouds 21 1013 83 0 3.74 145.609 06:27 11.07.2019
5350 Clouds 21 1013 83 0 3.57 153.213 05:45 11.07.2019
5351 Clouds 21 1013 83 0 3.57 153.213 05:26 11.07.2019
5352 Clouds 21 1013 83 0 3.57 153.213 03:59 11.07.2019
5353 Clouds 23 1010 78 10000 6.2 150 02:37 11.07.2019
5354 Clouds 24 1008 73 10000 6.7 160 00:49 11.07.2019
5355 Clouds 24 1009 73 10000 7.7 160 23:53 10.07.2019
5356 Clouds 24 1009 73 10000 7.7 160 23:31 10.07.2019
5357 Clouds 25 1009 65 10000 7.2 160 22:58 10.07.2019
5358 Clouds 25 1009 65 10000 7.2 160 22:37 10.07.2019
5359 Clouds 24 1011 69 10000 7.7 160 22:18 10.07.2019
5360 Clouds 24 1011 69 10000 7.7 160 21:43 10.07.2019
5361 Clouds 24 1011 69 10000 7.7 160 21:25 10.07.2019
5362 Clouds 24 1012 69 10000 8.2 160 20:48 10.07.2019
5363 Clouds 24 1012 69 10000 8.2 160 20:28 10.07.2019
5364 Clouds 24 1013 69 10000 8.2 160 20:00 10.07.2019
5365 Clouds 24 1013 69 10000 8.2 160 19:41 10.07.2019
5366 Clouds 24 1013 73 10000 8.7 150 19:21 10.07.2019
5367 Clouds 24 1013 73 10000 8.7 150 18:47 10.07.2019
5368 Clouds 24 1013 73 10000 8.7 150 18:25 10.07.2019
5369 Clouds 24 1013 73 10000 7.2 130 17:51 10.07.2019
5370 Clouds 24 1013 73 10000 7.2 130 17:30 10.07.2019
5371 Clouds 23 1013 78 10000 7.2 140 16:58 10.07.2019
5372 Clouds 23 1013 78 10000 7.2 140 16:22 10.07.2019
5373 Clouds 22 1012 83 10000 3.6 140 15:47 10.07.2019
5374 Clouds 22 1012 83 10000 3.6 140 15:26 10.07.2019
5375 Clouds 20 1012 88 10000 3.1 150 14:59 10.07.2019
5376 Clouds 20 1012 88 10000 3.1 150 14:37 10.07.2019
5377 Clouds 21 1013 81 0 5.48 145.756 14:19 10.07.2019
5378 Clouds 21 1013 81 0 5.48 145.756 13:41 10.07.2019
5379 Clouds 21 1013 82 0 5.08 145.794 13:18 10.07.2019
5380 Clouds 21 1013 82 0 5.08 145.794 12:41 10.07.2019
5381 Clouds 21 1013 82 0 5.4 135.99 12:21 10.07.2019
5382 Clouds 21 1013 82 0 5.4 135.99 11:50 10.07.2019
5383 Clouds 21 1013 82 0 5.4 135.99 11:22 10.07.2019
5384 Clouds 21 1013 82 0 5.4 135.99 10:58 10.07.2019
5385 Clouds 21 1013 82 0 5.4 135.99 10:24 10.07.2019
5386 Clouds 21 1013 82 0 5.4 135.99 09:57 10.07.2019
5387 Clouds 21 1013 82 0 5.4 135.99 09:38 10.07.2019
5388 Clouds 21 1014 81 0 5.14 145.729 09:19 10.07.2019
5389 Clouds 22 1014 78 0 4.94 149.633 08:49 10.07.2019
5390 Clouds 22 1014 78 0 4.94 149.633 08:24 10.07.2019
5391 Clouds 22 1014 78 0 4.94 149.633 07:51 10.07.2019
5392 Clouds 22 1014 78 0 4.94 149.633 07:23 10.07.2019
5393 Clouds 22 1014 78 0 4.94 149.633 06:39 10.07.2019
5394 Clouds 22 1015 76 0 4.8 151.864 05:40 10.07.2019
5395 Clouds 22 1015 76 0 4.8 151.864 04:31 10.07.2019
5396 Clouds 24 1011 69 10000 6.7 150 02:18 10.07.2019
5397 Clouds 25 1011 65 10000 8.2 160 00:44 10.07.2019
5398 Clouds 25 1011 65 10000 6.2 160 23:42 09.07.2019
5399 Clouds 25 1011 65 10000 6.2 160 23:23 09.07.2019
5400 Clouds 25 1012 65 10000 6.7 170 22:57 09.07.2019
5401 Clouds 25 1012 65 10000 6.7 170 22:37 09.07.2019
5402 Drizzle 24 1012 73 10000 7.2 190 22:19 09.07.2019
5403 Drizzle 24 1012 73 10000 7.2 190 21:45 09.07.2019
5404 Drizzle 24 1012 73 10000 7.2 190 21:25 09.07.2019
5405 Drizzle 23 1013 83 8000 8.2 170 20:45 09.07.2019
5406 Drizzle 23 1013 83 8000 8.2 170 20:26 09.07.2019
5407 Clouds 23 1013 83 10000 7.7 190 19:45 09.07.2019
5408 Clouds 23 1013 83 10000 7.7 190 19:26 09.07.2019
5409 Clouds 23 1014 83 10000 7.2 170 18:58 09.07.2019
5410 Clouds 23 1014 83 10000 7.2 170 18:36 09.07.2019
5411 Clouds 24 1013 78 10000 6.7 180 18:18 09.07.2019
5412 Clouds 24 1013 78 10000 6.7 180 17:42 09.07.2019
5413 Clouds 24 1013 78 10000 6.7 180 17:21 09.07.2019
5414 Clouds 23 1013 83 10000 7.2 170 16:50 09.07.2019
5415 Clouds 23 1013 83 10000 7.2 170 16:25 09.07.2019
5416 Clouds 22 1013 88 10000 6.7 180 15:56 09.07.2019
5417 Clouds 22 1013 88 10000 6.7 180 15:36 09.07.2019
5418 Clouds 22 1012 88 10000 6.2 170 14:59 09.07.2019
5419 Clouds 22 1012 88 10000 6.2 170 14:40 09.07.2019
5420 Rain 22 1014 81 0 5.71 172.188 14:20 09.07.2019
5421 Rain 22 1014 81 0 5.71 172.188 14:20 09.07.2019
5422 Rain 22 1014 81 0 5.71 172.188 13:45 09.07.2019
5423 Clouds 22 1014 82 0 5.76 171.359 13:27 09.07.2019
5424 Clouds 22 1014 82 0 5.76 171.359 12:42 09.07.2019
5425 Clouds 22 1014 84 0 5.39 182.286 12:23 09.07.2019
5426 Clouds 22 1014 84 0 5.39 182.286 11:58 09.07.2019
5427 Clouds 22 1014 84 0 5.39 182.286 11:40 09.07.2019
5428 Clouds 22 1014 84 0 5.39 182.286 11:21 09.07.2019
5429 Clouds 22 1014 84 0 5.39 182.286 10:57 09.07.2019
5430 Clouds 22 1014 84 0 5.39 182.286 10:34 09.07.2019
5431 Clouds 22 1014 84 0 5.39 182.286 09:48 09.07.2019
5432 Clouds 22 1014 84 0 5.39 182.286 09:29 09.07.2019
5433 Clouds 22 1015 85 0 5.98 173.648 08:59 09.07.2019
5434 Clouds 22 1015 85 0 5.98 173.648 08:40 09.07.2019
5435 Clouds 22 1013 86 0 4.95 159.361 04:18 05.07.2019
5436 Clouds 22 1013 86 0 4.95 159.361 03:38 05.07.2019
5437 Clouds 23 1008 78 10000 7.2 170 03:19 05.07.2019
5438 Clouds 23 1008 78 10000 7.2 170 02:46 05.07.2019
5439 Clouds 24 1008 78 10000 5.1 170 01:44 05.07.2019
5440 Clouds 24 1008 78 10000 5.1 170 01:25 05.07.2019
5441 Clouds 24 1008 78 10000 6.2 160 00:47 05.07.2019
5442 Clouds 25 1008 73 10000 7.2 150 00:20 05.07.2019
5443 Clouds 25 1008 73 10000 7.2 150 23:23 04.07.2019
5444 Clouds 25 1009 73 10000 8.2 170 22:58 04.07.2019
5445 Clouds 22 1010 85 0 5.81 150.409 22:40 04.07.2019
5446 Clouds 25 1009 69 10000 7.7 170 22:19 04.07.2019
5447 Clouds 25 1009 69 10000 7.7 170 21:40 04.07.2019
5448 Clouds 25 1009 69 10000 7.7 170 21:22 04.07.2019
5449 Clouds 25 1010 69 10000 9.3 140 20:55 04.07.2019
5450 Clouds 25 1010 69 10000 9.3 140 20:37 04.07.2019
5451 Clear 22 1012 87 0 5.35 159.959 20:18 04.07.2019
5452 Clear 22 1012 87 0 5.35 159.959 19:41 04.07.2019
5453 Clouds 23 1011 83 10000 5.7 140 19:20 04.07.2019
5454 Clouds 23 1011 83 10000 5.7 140 18:44 04.07.2019
5455 Clouds 23 1011 83 10000 5.7 140 18:26 04.07.2019
5456 Clouds 23 1011 83 10000 5.1 130 17:48 04.07.2019
5457 Clouds 22 1010 88 10000 3.6 160 17:19 04.07.2019
5458 Clouds 22 1010 88 10000 3.6 160 16:36 04.07.2019
5459 Clouds 21 1010 88 10000 2.6 180 15:42 04.07.2019
5460 Clouds 21 1010 88 10000 2.6 180 15:24 04.07.2019
5461 Clouds 20 1009 94 10000 3.1 170 14:56 04.07.2019
5462 Clouds 20 1009 94 10000 3.1 170 14:37 04.07.2019
5463 Clouds 21 1011 86 0 3.72 178.045 14:18 04.07.2019
5464 Clouds 21 1011 86 0 3.72 178.045 13:54 04.07.2019
5465 Clouds 21 1011 86 0 3.72 178.045 13:36 04.07.2019
5466 Clouds 21 1011 86 0 4.41 178.648 13:18 04.07.2019
5467 Clouds 21 1011 86 0 4.41 178.648 12:37 04.07.2019
5468 Clouds 21 1011 86 0 5.33 191.567 12:19 04.07.2019
5469 Clouds 21 1011 86 0 5.33 191.567 11:40 04.07.2019
5470 Clouds 21 1011 86 0 5.33 191.567 11:20 04.07.2019
5471 Clouds 21 1011 86 0 5.33 191.567 10:41 04.07.2019
5472 Clouds 21 1011 86 0 5.33 191.567 10:23 04.07.2019
5473 Clouds 21 1011 86 0 5.33 191.567 09:45 04.07.2019
5474 Clouds 21 1013 82 0 3.46 177.198 09:26 04.07.2019
5475 Clouds 21 1013 82 0 3.04 176.168 08:57 04.07.2019
5476 Clouds 21 1013 82 0 3.04 176.168 08:28 04.07.2019
5477 Clouds 21 1013 82 0 3.04 176.168 07:46 04.07.2019
5478 Clouds 21 1013 82 0 3.04 176.168 07:23 04.07.2019
5479 Clouds 21 1013 82 0 3.04 176.168 06:55 04.07.2019
5480 Clouds 21 1012 82 0 3.35 145.992 05:55 04.07.2019
5481 Clouds 21 1012 82 0 3.35 145.992 05:36 04.07.2019
5482 Clouds 22 1008 83 10000 5.1 140 02:51 04.07.2019
5483 Clouds 23 1007 78 10000 6.2 140 01:42 04.07.2019
5484 Clouds 23 1007 78 10000 6.2 140 01:42 04.07.2019
5485 Clouds 23 1007 78 10000 6.2 140 01:22 04.07.2019
5486 Clouds 23 1007 78 10000 6.7 180 23:59 03.07.2019
5487 Clouds 23 1007 78 10000 6.7 180 23:41 03.07.2019
5488 Clouds 24 1008 73 10000 7.2 160 23:20 03.07.2019
5489 Clouds 24 1008 73 10000 7.2 160 22:55 03.07.2019
5490 Clouds 24 1008 73 10000 7.2 160 22:36 03.07.2019
5491 Clouds 24 1008 73 10000 6.2 180 22:18 03.07.2019
5492 Clouds 24 1008 73 10000 6.2 180 21:45 03.07.2019
5493 -273 0 0 0 0 0 21:26 03.07.2019
5494 Clouds 24 1009 73 10000 6.7 200 20:46 03.07.2019
5495 Clouds 24 1009 73 10000 6.7 200 20:24 03.07.2019
5496 Clouds 24 1009 73 10000 5.7 140 19:51 03.07.2019
5497 Clouds 24 1009 73 10000 5.7 140 19:32 03.07.2019
5498 Clouds 23 1009 73 10000 6.7 170 18:49 03.07.2019
5499 Clouds 23 1009 73 10000 6.7 170 18:30 03.07.2019
5500 Clouds 23 1009 73 10000 6.2 180 17:57 03.07.2019
5501 Clouds 23 1009 73 10000 6.2 180 17:37 03.07.2019
5502 Clouds 22 1009 83 10000 7.2 160 17:18 03.07.2019
5503 Clouds 22 1009 83 10000 7.2 160 16:43 03.07.2019
5504 Clouds 22 1009 83 10000 7.2 160 16:22 03.07.2019
5505 Drizzle 21 1008 88 8000 5.1 160 15:49 03.07.2019
5506 Drizzle 21 1008 88 8000 5.1 160 15:31 03.07.2019
5507 Clouds 21 1008 88 8000 6.7 170 14:57 03.07.2019
5508 Clouds 21 1008 88 8000 6.7 170 14:38 03.07.2019
5509 Clear 21 1011 84 0 7.64 157.538 14:18 03.07.2019
5510 Clouds 21 1011 86 0 7.24 162.253 13:35 03.07.2019
5511 Clouds 21 1011 86 0 7.24 162.253 12:55 03.07.2019
5512 Clouds 21 1010 87 0 6.47 158.538 12:22 03.07.2019
5513 Clouds 21 1010 87 0 6.47 158.538 11:59 03.07.2019
5514 Clouds 21 1010 87 0 6.47 158.538 11:40 03.07.2019
5515 Clouds 21 1010 87 0 6.47 158.538 11:21 03.07.2019
5516 Clouds 21 1010 87 0 6.47 158.538 10:42 03.07.2019
5517 Clouds 21 1010 87 0 6.47 158.538 10:23 03.07.2019
5518 Clouds 21 1010 87 0 6.47 158.538 09:43 03.07.2019
5519 Clouds 22 1013 88 0 5.32 150.387 09:22 03.07.2019
5520 Clouds 22 1013 88 0 5.32 150.387 08:57 03.07.2019
5521 Clouds 22 1013 88 0 5.32 150.387 08:38 03.07.2019
5522 Clouds 22 1013 88 0 5.16 153.231 08:18 03.07.2019
5523 Clouds 22 1013 88 0 5.16 153.231 07:37 03.07.2019
5524 Clouds 22 1013 88 0 5.16 153.231 06:55 03.07.2019
5525 Clouds 22 1012 87 0 5.14 149.951 05:56 03.07.2019
5526 Clouds 22 1012 87 0 5.14 149.951 05:24 03.07.2019
5527 Clouds 22 1012 87 0 5.14 149.951 03:55 03.07.2019
5528 Clouds 22 1010 88 10000 6.2 160 02:47 03.07.2019
5529 Clouds 23 1010 83 10000 6.7 150 01:37 03.07.2019
5530 Clouds 23 1010 83 10000 6.7 150 01:19 03.07.2019
5531 Clouds 23 1009 88 10000 7.2 160 00:40 03.07.2019
5532 Drizzle 23 1010 88 5000 6.2 170 23:54 02.07.2019
5533 Drizzle 23 1010 88 5000 6.2 170 23:36 02.07.2019
5534 Drizzle 23 1010 88 5000 6.2 170 23:18 02.07.2019
5535 Clouds 25 1010 73 10000 8.2 160 22:41 02.07.2019
5536 Clouds 25 1010 73 10000 8.2 160 22:23 02.07.2019
5537 Clouds 25 1011 73 10000 9.8 160 21:57 02.07.2019
5538 Clouds 25 1011 73 10000 9.8 160 21:38 02.07.2019
5539 Clouds 25 1011 73 10000 9.8 160 21:19 02.07.2019
5540 Clouds 26 1011 74 10000 9.3 150 20:42 02.07.2019
5541 Clouds 26 1011 74 10000 9.3 150 20:24 02.07.2019
5542 Clouds 25 1012 78 10000 8.7 150 19:59 02.07.2019
5543 Clouds 25 1012 78 10000 8.7 150 19:40 02.07.2019
5544 Clouds 25 1012 78 10000 9.8 160 19:20 02.07.2019
5545 Clouds 25 1012 78 10000 9.8 160 18:45 02.07.2019
5546 Clouds 25 1012 78 10000 9.8 160 18:18 02.07.2019
5547 Clouds 24 1012 83 10000 7.7 150 17:40 02.07.2019
5548 Drizzle 22 1011 88 8000 7.7 160 17:20 02.07.2019
5549 Drizzle 22 1011 88 8000 7.7 160 16:46 02.07.2019
5550 Drizzle 22 1011 88 8000 7.7 160 16:46 02.07.2019
5551 Drizzle 22 1011 88 8000 7.7 160 16:28 02.07.2019
5552 Drizzle 21 1011 100 5000 4.6 160 15:44 02.07.2019
5553 Drizzle 21 1011 100 5000 4.6 160 15:24 02.07.2019
5554 Clouds 22 1010 88 10000 6.7 160 14:50 02.07.2019
5555 Clouds 22 1010 88 10000 6.7 160 14:32 02.07.2019
5556 Clouds 22 1013 88 0 5.07 159.95 13:46 02.07.2019
5557 Clouds 22 1012 89 0 5.24 157.502 13:21 02.07.2019
5558 Clouds 22 1012 89 0 5.24 157.502 12:59 02.07.2019
5559 Clouds 22 1012 89 0 5.24 157.502 12:40 02.07.2019
5560 Clouds 22 1012 88 0 4.85 156.891 12:18 02.07.2019
5561 Clouds 22 1012 88 0 4.85 156.891 11:42 02.07.2019
5562 Clouds 22 1012 88 0 4.85 156.891 11:21 02.07.2019
5563 Clouds 22 1012 88 0 4.85 156.891 10:45 02.07.2019
5564 Clouds 22 1012 88 0 4.85 156.891 10:24 02.07.2019
5565 Clouds 22 1012 88 0 4.85 156.891 09:44 02.07.2019
5566 Clouds 21 1014 89 0 4.23 158.808 09:21 02.07.2019
5567 Clouds 21 1014 89 0 4.28 160.232 08:42 02.07.2019
5568 Clouds 21 1014 89 0 4.28 160.232 08:42 02.07.2019
5569 Clouds 21 1014 89 0 4.28 160.232 08:20 02.07.2019
5570 Clouds 21 1014 89 0 4.28 160.232 07:53 02.07.2019
5571 Clouds 21 1014 89 0 4.28 160.232 07:21 02.07.2019
5572 Clouds 21 1014 89 0 4.28 160.232 06:49 02.07.2019
5573 Clouds 21 1014 89 0 4.28 160.232 06:26 02.07.2019
5574 Clouds 21 1014 89 0 4.28 160.232 06:26 02.07.2019
5575 Clouds 22 1014 89 0 4.41 162.626 04:57 02.07.2019
5576 Clouds 24 1009 78 10000 6.2 140 01:37 02.07.2019
5577 Clouds 25 1009 73 10000 7.2 170 23:49 01.07.2019
5578 Clouds 25 1010 73 10000 7.2 180 23:22 01.07.2019
5579 Clouds 25 1010 73 10000 7.2 180 22:46 01.07.2019
5580 Clouds 25 1010 73 10000 7.2 180 22:27 01.07.2019
5581 Clouds 25 1012 73 10000 7.7 160 21:47 01.07.2019
5582 Clouds 25 1012 73 10000 7.7 160 21:26 01.07.2019
5583 Clouds 25 1012 73 10000 8.2 160 20:51 01.07.2019
5584 Clouds 25 1012 73 10000 8.2 160 20:51 01.07.2019
5585 Rain 24 1012 78 10000 6.2 160 20:22 01.07.2019
5586 Rain 24 1012 78 10000 6.2 160 19:59 01.07.2019
5587 Rain 24 1012 78 10000 6.2 160 19:40 01.07.2019
5588 Clouds 22 1014 86 0 4.82 136.875 19:22 01.07.2019
5589 Clouds 22 1014 86 0 4.82 136.875 18:53 01.07.2019
5590 Clouds 22 1014 86 0 4.82 136.875 18:31 01.07.2019
5591 Drizzle 22 1013 88 3000 3.1 170 17:58 01.07.2019
5592 Drizzle 22 1013 88 3000 3.1 170 17:40 01.07.2019
5593 Drizzle 22 1013 88 3000 3.1 170 17:21 01.07.2019
5594 Clouds 22 1013 88 10000 4.1 150 16:46 01.07.2019
5595 Clouds 22 1013 88 10000 4.1 150 16:25 01.07.2019
5596 Clouds 22 1012 88 10000 3.1 160 15:47 01.07.2019
5597 Clouds 22 1012 88 10000 3.1 160 15:28 01.07.2019
5598 Clouds 21 1011 88 10000 4.1 150 14:57 01.07.2019
5599 Clouds 21 1011 88 10000 4.1 150 14:37 01.07.2019
5600 Clouds 21 1014 86 0 4.92 151.851 14:18 01.07.2019
5601 Clouds 21 1014 86 0 4.92 151.851 13:39 01.07.2019
5602 Rain 21 1013 87 0 5.24 149.055 13:20 01.07.2019
5603 Rain 21 1013 87 0 5.24 149.055 12:42 01.07.2019
5604 Clouds 22 1013 85 0 4.38 164.1 12:23 01.07.2019
5605 Clouds 22 1013 85 0 4.38 164.1 11:57 01.07.2019
5606 Clouds 22 1013 85 0 4.38 164.1 11:38 01.07.2019
5607 Clouds 22 1013 85 0 4.38 164.1 11:18 01.07.2019
5608 Clouds 22 1013 85 0 4.38 164.1 10:42 01.07.2019
5609 Clouds 22 1013 85 0 4.38 164.1 10:20 01.07.2019
5610 Clouds 22 1013 85 0 4.38 164.1 09:42 01.07.2019
5611 Clouds 22 1014 81 0 5.09 166.545 09:24 01.07.2019
5612 Clouds 22 1014 84 0 4.57 160.46 08:42 01.07.2019
5613 Clouds 22 1014 84 0 4.57 160.46 08:21 01.07.2019
5614 Clouds 22 1014 84 0 4.57 160.46 07:34 01.07.2019
5615 Clouds 22 1014 84 0 4.57 160.46 06:48 01.07.2019
5616 Clouds 22 1014 87 0 4.04 163.618 04:39 01.07.2019
5617 Clouds 24 1009 78 10000 7.2 170 00:55 01.07.2019
5618 Clouds 24 1009 78 10000 7.2 170 00:34 01.07.2019
5619 Clouds 24 1009 78 10000 7.2 170 00:34 01.07.2019
5620 Clouds 24 1009 78 10000 8.2 160 23:59 30.06.2019
5621 Clouds 24 1009 78 10000 8.2 160 23:25 30.06.2019
5622 Clouds 25 1009 73 10000 7.7 130 22:55 30.06.2019
5623 Clouds 25 1009 73 10000 7.7 130 22:23 30.06.2019
5624 Clouds 25 1010 73 10000 7.2 180 21:57 30.06.2019
5625 Clouds 25 1010 73 10000 7.2 180 21:38 30.06.2019
5626 Clouds 25 1011 78 10000 8.2 150 21:18 30.06.2019
5627 Clouds 25 1011 78 10000 8.2 150 20:41 30.06.2019
5628 Clouds 25 1011 78 10000 8.2 150 20:22 30.06.2019
5629 Clouds 25 1011 78 10000 7.2 160 19:48 30.06.2019
5630 Clouds 25 1011 78 10000 7.2 160 19:25 30.06.2019
5631 Clouds 24 1012 78 10000 7.7 160 18:47 30.06.2019
5632 Clouds 24 1012 78 10000 7.7 160 18:21 30.06.2019
5633 Clouds 24 1012 78 10000 7.2 160 17:40 30.06.2019
5634 Clouds 23 1011 83 10000 8.2 150 17:19 30.06.2019
5635 Clouds 23 1011 83 10000 8.2 150 16:51 30.06.2019
5636 Clouds 23 1011 83 10000 8.2 150 16:32 30.06.2019
5637 Clouds 22 1010 83 10000 5.7 160 15:39 30.06.2019
5638 Clouds 21 1009 83 10000 6.2 150 15:19 30.06.2019
5639 Clouds 21 1009 83 10000 6.2 150 14:57 30.06.2019
5640 Clouds 21 1009 83 10000 6.2 150 14:57 30.06.2019
5641 Clouds 21 1009 83 10000 6.2 150 14:57 30.06.2019
5642 Clouds 21 1009 83 10000 6.2 150 14:38 30.06.2019
5643 Clouds 21 1013 85 0 4.75 155.835 13:57 30.06.2019
5644 Clouds 21 1013 85 0 4.75 155.835 13:38 30.06.2019
5645 Clouds 22 1013 86 0 4.1 164.381 13:18 30.06.2019
5646 Clouds 22 1013 86 0 4.1 164.381 12:44 30.06.2019
5647 Clouds 21 1012 86 0 5.32 161.401 12:21 30.06.2019
5648 Clouds 21 1012 86 0 5.32 161.401 11:47 30.06.2019
5649 Clouds 21 1012 86 0 5.32 161.401 11:22 30.06.2019
5650 Clouds 21 1012 86 0 5.32 161.401 10:56 30.06.2019
5651 Clouds 21 1012 86 0 5.32 161.401 10:36 30.06.2019
5652 Clouds 21 1012 86 0 5.32 161.401 10:18 30.06.2019
5653 Clouds 21 1012 86 0 5.32 161.401 09:43 30.06.2019
5654 Clear 21 1013 86 0 5.43 165.05 09:21 30.06.2019
5655 Clear 21 1013 87 0 5.48 160.629 08:40 30.06.2019
5656 Clear 21 1013 87 0 5.48 160.629 08:22 30.06.2019
5657 Clear 21 1013 87 0 5.48 160.629 07:51 30.06.2019
5658 Clear 21 1013 87 0 5.48 160.629 07:26 30.06.2019
5659 Clear 21 1013 87 0 5.48 160.629 06:37 30.06.2019
5660 Clouds 23 1009 83 10000 6.7 150 03:34 30.06.2019
5661 Clouds 24 1008 78 10000 6.2 150 01:58 30.06.2019
5662 Clouds 24 1008 78 10000 6.7 160 00:48 30.06.2019
5663 Clouds 24 1008 78 10000 6.7 160 00:24 30.06.2019
5664 Clouds 25 1008 73 10000 6.7 160 23:53 29.06.2019
5665 Clouds 25 1008 73 10000 6.7 160 23:23 29.06.2019
5666 Clouds 25 1009 78 10000 5.7 150 22:48 29.06.2019
5667 Clouds 25 1009 78 10000 5.7 150 22:25 29.06.2019
5668 Clouds 25 1010 78 10000 6.2 160 21:56 29.06.2019
5669 Clouds 25 1010 78 10000 6.2 160 21:25 29.06.2019
5670 Clouds 25 1010 78 10000 6.7 180 20:57 29.06.2019
5671 Clouds 25 1010 78 10000 6.7 180 20:36 29.06.2019
5672 Clouds 24 1011 83 10000 6.2 170 20:18 29.06.2019
5673 Clouds 24 1011 83 10000 6.2 170 19:42 29.06.2019
5674 Clouds 24 1011 83 10000 6.2 170 19:21 29.06.2019
5675 Clouds 24 1012 83 10000 6.7 160 18:47 29.06.2019
5676 Clouds 24 1012 83 10000 6.7 160 18:24 29.06.2019
5677 Clouds 23 1011 88 10000 6.2 170 17:39 29.06.2019
5678 Clouds 23 1011 88 10000 6.2 170 17:20 29.06.2019
5679 Clouds 23 1011 88 10000 4.6 150 16:44 29.06.2019
5680 Clouds 23 1011 88 10000 4.6 150 16:25 29.06.2019
5681 Clouds 21 1010 100 8000 5.1 150 15:33 29.06.2019
5682 Clouds 22 1011 90 0 4.56 156.917 14:59 29.06.2019
5683 Drizzle 21 1009 100 5000 4.1 150 14:40 29.06.2019
5684 Drizzle 21 1009 100 5000 4.1 150 14:21 29.06.2019
5685 Clouds 22 1011 90 0 4.56 156.917 13:43 29.06.2019
5686 Rain 22 1011 90 0 4.58 146.313 13:24 29.06.2019
5687 Rain 22 1011 90 0 4.58 146.313 12:42 29.06.2019
5688 Rain 22 1011 90 0 4.58 146.313 12:42 29.06.2019
5689 Rain 22 1010 90 0 5.49 169.445 12:23 29.06.2019
5690 Rain 22 1010 90 0 5.49 169.445 11:48 29.06.2019
5691 Rain 22 1010 90 0 5.49 169.445 11:28 29.06.2019
5692 Rain 22 1010 90 0 5.49 169.445 10:52 29.06.2019
5693 Rain 22 1010 90 0 5.49 169.445 10:26 29.06.2019
5694 Rain 22 1010 90 0 5.49 169.445 09:58 29.06.2019
5695 Clouds 22 1011 89 0 4.73 174.263 09:22 29.06.2019
5696 Rain 22 1011 89 0 4.74 170.681 08:36 29.06.2019
5697 Rain 22 1011 89 0 4.74 170.681 07:46 29.06.2019
5698 Rain 22 1011 89 0 4.74 170.681 07:18 29.06.2019
5699 Rain 22 1011 89 0 4.74 170.681 06:40 29.06.2019
5700 Clouds 22 1011 90 0 5.47 172.822 06:19 29.06.2019
5701 Clouds 24 1007 78 10000 5.1 140 01:56 29.06.2019
5702 Clouds 25 1007 78 10000 6.2 170 00:54 29.06.2019
5703 Clouds 25 1007 78 10000 6.7 170 23:54 28.06.2019
5704 Clouds 25 1007 78 10000 6.7 170 23:22 28.06.2019
5705 Clouds 26 1007 74 10000 6.7 180 22:47 28.06.2019
5706 Clouds 26 1007 74 10000 6.7 180 22:22 28.06.2019
5707 Clouds 26 1008 69 10000 7.7 170 21:46 28.06.2019
5708 Clouds 26 1008 69 10000 7.7 170 21:20 28.06.2019
5709 Clouds 26 1008 69 10000 6.2 150 20:43 28.06.2019
5710 Clouds 26 1008 69 10000 6.2 150 20:20 28.06.2019
5711 Clouds 26 1009 74 10000 5.1 140 19:42 28.06.2019
5712 Clouds 26 1009 74 10000 5.1 140 19:24 28.06.2019
5713 Clouds 25 1009 78 10000 5.1 170 18:42 28.06.2019
5714 Clouds 25 1009 78 10000 5.1 170 18:22 28.06.2019
5715 Rain 23 1009 88 10000 4.1 150 17:54 28.06.2019
5716 Rain 23 1009 88 10000 4.1 150 17:28 28.06.2019
5717 Drizzle 21 1009 100 8000 4.1 150 16:47 28.06.2019
5718 Drizzle 21 1009 100 8000 4.1 150 16:20 28.06.2019
5719 Drizzle 21 1008 100 8000 5.1 150 15:47 28.06.2019
5720 Clouds 21 1007 94 10000 5.1 160 15:18 28.06.2019
5721 Clouds 21 1007 94 10000 5.1 160 14:42 28.06.2019
5722 Clouds 21 1007 94 10000 5.1 160 14:21 28.06.2019
5723 Clouds 22 1010 89 0 5.2 164.67 13:49 28.06.2019
5724 Rain 22 1010 89 0 4.73 169.174 13:29 28.06.2019
5725 Rain 22 1010 89 0 4.73 169.174 12:54 28.06.2019
5726 Rain 22 1010 89 0 4.73 169.174 12:36 28.06.2019
5727 Clear 22 1009 90 0 5.86 164.26 11:47 28.06.2019
5728 Clear 22 1009 90 0 5.86 164.26 11:19 28.06.2019
5729 Clear 22 1009 90 0 5.86 164.26 10:43 28.06.2019
5730 Clear 22 1009 90 0 5.86 164.26 10:20 28.06.2019
5731 Clear 22 1009 90 0 5.86 164.26 09:47 28.06.2019
5732 Clear 22 1009 90 0 5.86 164.26 09:28 28.06.2019
5733 Clear 22 1010 88 0 4.91 173.218 08:43 28.06.2019
5734 Clear 22 1010 88 0 4.91 173.218 08:24 28.06.2019
5735 Clear 22 1010 88 0 4.91 173.218 07:43 28.06.2019
5736 Clear 22 1010 88 0 4.91 173.218 06:57 28.06.2019
5737 Clear 22 1011 90 0 5.43 170.22 04:42 28.06.2019
5738 Clear 25 1006 73 10000 7.2 150 00:48 28.06.2019
5739 Clear 25 1006 73 10000 7.2 150 00:22 28.06.2019
5740 Clouds 26 1006 69 10000 6.7 170 23:47 27.06.2019
5741 Clouds 26 1006 69 10000 6.7 170 23:25 27.06.2019
5742 Clouds 26 1007 69 10000 6.7 150 22:44 27.06.2019
5743 Clouds 26 1007 69 10000 6.7 150 22:25 27.06.2019
5744 Clouds 26 1008 69 10000 8.2 140 21:58 27.06.2019
5745 Clouds 26 1008 69 10000 8.2 140 21:40 27.06.2019
5746 Clouds 26 1008 69 10000 8.2 140 21:20 27.06.2019
5747 Clouds 25 1008 73 10000 9.8 160 20:49 27.06.2019
5748 Clouds 25 1008 73 10000 9.8 160 20:31 27.06.2019
5749 Clouds 25 1008 73 10000 9.3 150 19:50 27.06.2019
5750 Clouds 25 1008 73 10000 9.3 150 19:29 27.06.2019
5751 Clouds 25 1009 78 10000 8.2 140 18:53 27.06.2019
5752 Clouds 25 1009 78 10000 8.2 140 18:32 27.06.2019
5753 Clouds 23 1009 88 10000 7.2 150 17:58 27.06.2019
5754 Clouds 23 1009 88 10000 7.2 150 17:37 27.06.2019
5755 Clouds 22 1009 94 10000 6.7 150 17:19 27.06.2019
5756 Clouds 22 1009 94 10000 6.7 150 16:39 27.06.2019
5757 Clouds 22 1009 94 10000 6.7 150 16:19 27.06.2019
5758 Drizzle 21 1009 100 8000 7.2 150 15:45 27.06.2019
5759 Drizzle 21 1009 100 8000 7.2 150 15:24 27.06.2019
5760 Drizzle 21 1008 100 5000 6.7 150 14:48 27.06.2019
5761 Drizzle 21 1008 100 5000 6.7 150 14:29 27.06.2019
5762 Rain 22 1010 89 0 5.83 150.412 13:50 27.06.2019
5763 Clouds 22 1010 90 0 5.82 147.055 13:31 27.06.2019
5764 Clouds 22 1010 90 0 5.82 147.055 12:57 27.06.2019
5765 Clouds 22 1010 90 0 5.82 147.055 12:38 27.06.2019
5766 Rain 22 1010 89 0 6.11 159.037 12:18 27.06.2019
5767 Rain 22 1010 89 0 6.11 159.037 11:42 27.06.2019
5768 Rain 22 1010 89 0 6.11 159.037 11:21 27.06.2019
5769 Rain 22 1010 89 0 6.11 159.037 10:46 27.06.2019
5770 Rain 22 1010 89 0 6.11 159.037 10:22 27.06.2019
5771 Rain 22 1010 89 0 6.11 159.037 09:55 27.06.2019
5772 Clouds 22 1011 90 0 5.4 162.274 09:22 27.06.2019
5773 Clouds 22 1011 90 0 5.4 162.274 08:55 27.06.2019
5774 Clouds 22 1011 90 0 5.16 163.215 08:37 27.06.2019
5775 Clouds 22 1011 90 0 5.16 163.215 08:19 27.06.2019
5776 Clouds 22 1011 90 0 5.16 163.215 07:31 27.06.2019
5777 Clouds 22 1011 90 0 5.16 163.215 06:53 27.06.2019
5778 Clouds 22 1012 90 0 5.01 165.692 06:24 27.06.2019
5779 Clouds 23 1007 88 10000 6.7 150 02:45 27.06.2019
5780 Clouds 24 1006 83 10000 7.2 160 01:50 27.06.2019
5781 Clouds 25 1006 78 10000 7.7 150 00:58 27.06.2019
5782 Clouds 25 1006 78 10000 7.7 150 00:39 27.06.2019
5783 Clouds 25 1006 73 10000 7.7 160 00:18 27.06.2019
5784 Clouds 25 1006 73 10000 7.7 160 23:40 26.06.2019
5785 Clouds 25 1006 73 10000 7.7 160 23:20 26.06.2019
5786 Clouds 26 1007 74 10000 7.7 150 22:43 26.06.2019
5787 Clouds 26 1007 74 10000 7.7 150 22:25 26.06.2019
5788 Clouds 26 1008 69 10000 8.7 160 21:55 26.06.2019
5789 Clouds 26 1008 69 10000 8.7 160 21:37 26.06.2019
5790 Clouds 26 1009 69 10000 8.2 160 21:19 26.06.2019
5791 Clouds 26 1009 69 10000 8.2 160 20:43 26.06.2019
5792 Clouds 26 1009 69 10000 8.2 160 20:25 26.06.2019
5793 Clouds 25 1009 78 10000 7.7 170 19:48 26.06.2019
5794 Clouds 25 1009 78 10000 7.7 170 19:30 26.06.2019
5795 Clouds 26 1010 74 10000 8.2 180 18:54 26.06.2019
5796 Clouds 26 1010 74 10000 8.2 180 18:36 26.06.2019
5797 Clear 24 1009 78 10000 6.7 150 18:18 26.06.2019
5798 Clear 24 1009 78 10000 6.7 150 17:38 26.06.2019
5799 Clear 24 1009 78 10000 6.7 150 17:19 26.06.2019
5800 Clear 23 1009 83 10000 6.7 150 16:50 26.06.2019
5801 Clear 23 1009 83 10000 6.7 150 16:26 26.06.2019
5802 Clouds 22 1009 88 10000 5.1 150 15:48 26.06.2019
5803 Clouds 22 1009 88 10000 5.1 150 15:27 26.06.2019
5804 Clouds 22 1008 88 10000 6.2 140 14:39 26.06.2019
5805 Clouds 22 1008 88 10000 6.2 140 14:20 26.06.2019
5806 Clouds 22 1011 89 0 5.04 156.571 13:45 26.06.2019
5807 Clouds 22 1011 89 0 4.86 153.836 13:21 26.06.2019
5808 Clouds 22 1011 89 0 4.86 153.836 12:43 26.06.2019
5809 Clouds 22 1011 88 0 4.43 136.684 12:25 26.06.2019
5810 Clouds 22 1011 88 0 4.43 136.684 11:51 26.06.2019
5811 Clouds 22 1011 88 0 4.43 136.684 11:23 26.06.2019
5812 Clouds 22 1011 88 0 4.43 136.684 10:47 26.06.2019
5813 Clouds 22 1011 88 0 4.43 136.684 10:28 26.06.2019
5814 Clouds 22 1011 88 0 4.43 136.684 09:49 26.06.2019
5815 Clear 22 1013 89 0 5.25 135.779 09:24 26.06.2019
5816 Clear 22 1013 89 0 5.25 135.779 08:49 26.06.2019
5817 Clouds 22 1013 89 0 5.01 140.74 08:20 26.06.2019
5818 Clouds 22 1013 89 0 5.01 140.74 07:46 26.06.2019
5819 Clouds 22 1013 89 0 5.01 140.74 07:25 26.06.2019
5820 Clouds 22 1013 89 0 5.01 140.74 06:32 26.06.2019
5821 Clouds 24 1008 78 10000 6.2 150 01:28 26.06.2019
5822 Clear 26 1007 69 10000 8.2 150 00:25 26.06.2019
5823 Clear 25 1008 73 10000 8.2 150 23:47 25.06.2019
5824 Clear 25 1008 73 10000 8.2 150 23:27 25.06.2019
5825 Clouds 26 1009 69 10000 8.7 150 22:57 25.06.2019
5826 Clouds 26 1009 69 10000 8.7 150 22:39 25.06.2019
5827 Clouds 26 1009 69 10000 8.7 150 22:20 25.06.2019
5828 Clouds 25 1010 73 10000 8.2 140 21:43 25.06.2019
5829 Clouds 25 1010 73 10000 8.2 140 21:43 25.06.2019
5830 Clouds 25 1010 73 10000 8.2 140 21:22 25.06.2019
5831 Clouds 27 1011 69 10000 8.2 130 20:45 25.06.2019
5832 Clouds 27 1011 69 10000 8.2 130 20:45 25.06.2019
5833 Clouds 27 1011 69 10000 8.2 130 20:45 25.06.2019
5834 Clouds 26 1012 69 10000 8.2 120 20:22 25.06.2019
5835 Clouds 26 1012 69 10000 8.2 120 19:46 25.06.2019
5836 Clouds 26 1012 69 10000 8.2 120 19:23 25.06.2019
5837 Clouds 26 1012 74 10000 6.7 140 18:47 25.06.2019
5838 Clouds 26 1012 74 10000 6.7 140 18:29 25.06.2019
5839 Clouds 25 1012 78 10000 6.7 150 18:01 25.06.2019
5840 Clouds 25 1012 78 10000 6.7 150 18:01 25.06.2019
5841 -273 0 0 0 0 0 17:30 25.06.2019
5842 -273 0 0 0 0 0 17:29 25.06.2019
5843 Clouds 24 1012 83 10000 5.1 140 16:57 25.06.2019
5844 Clouds 24 1012 83 10000 5.1 140 16:39 25.06.2019
5845 Clouds 24 1012 83 10000 5.1 140 16:21 25.06.2019
5846 Clouds 22 1010 88 10000 6.2 150 15:41 25.06.2019
5847 Clouds 22 1010 88 10000 6.2 150 15:21 25.06.2019
5848 Clouds 21 1010 94 10000 5.1 140 14:54 25.06.2019
5849 Clouds 21 1010 94 10000 5.1 140 14:35 25.06.2019
5850 Clouds 22 1012 85 0 4.29 146.454 13:46 25.06.2019
5851 Clouds 22 1012 86 0 4.45 141.29 13:27 25.06.2019
5852 Clouds 22 1012 86 0 4.45 141.29 12:44 25.06.2019
5853 Clouds 22 1012 85 0 4.65 144.349 12:25 25.06.2019
5854 Clouds 22 1012 85 0 4.65 144.349 11:49 25.06.2019
5855 -273 0 0 0 0 0 11:27 25.06.2019
5856 Clouds 22 1012 85 0 4.65 144.349 11:27 25.06.2019
5857 -273 0 0 0 0 0 10:59 25.06.2019
5858 Clouds 22 1012 85 0 4.65 144.349 10:39 25.06.2019
5859 Clouds 22 1012 85 0 4.65 144.349 10:21 25.06.2019
5860 Clouds 22 1012 85 0 4.65 144.349 09:40 25.06.2019
5861 Clouds 23 1013 86 0 3.27 123.729 09:22 25.06.2019
5862 Clouds 23 1013 86 0 3.27 123.729 09:00 25.06.2019
5863 Clouds 23 1013 86 0 3.27 123.729 08:31 25.06.2019
5864 Clouds 23 1014 86 0 3.2 130.058 07:52 25.06.2019
5865 Clouds 23 1014 86 0 3.2 130.058 07:31 25.06.2019
5866 Clouds 23 1014 86 0 3.2 130.058 06:51 25.06.2019
5867 Clouds 23 1013 85 0 4.98 149.707 06:24 25.06.2019
5868 Clouds 23 1010 83 10000 6.2 150 02:44 25.06.2019
5869 Clouds 25 1009 73 10000 6.7 160 01:19 25.06.2019
5870 Clouds 25 1009 73 10000 6.7 160 00:28 25.06.2019
5871 Clouds 26 1009 69 10000 8.2 160 23:52 24.06.2019
5872 Clouds 26 1009 69 10000 8.2 160 23:33 24.06.2019
5873 Clouds 26 1010 69 10000 6.2 140 22:49 24.06.2019
5874 Clouds 26 1010 69 10000 6.2 140 22:22 24.06.2019
5875 Clouds 26 1011 69 10000 6.7 140 21:58 24.06.2019
5876 Clouds 26 1011 69 10000 6.7 140 21:37 24.06.2019
5877 Clouds 26 1011 69 10000 6.7 140 21:37 24.06.2019
5878 Clouds 26 1012 74 10000 5.1 130 21:18 24.06.2019
5879 Clouds 26 1012 74 10000 5.1 130 20:43 24.06.2019
5880 Clouds 26 1012 74 10000 5.1 130 20:23 24.06.2019
5881 Clouds 26 1012 69 10000 4.1 140 19:58 24.06.2019
5882 Clouds 22 1013 85 0 4.96 172.673 19:39 24.06.2019
5883 Clouds 26 1013 69 10000 4.6 140 19:21 24.06.2019
5884 Clouds 26 1013 69 10000 4.6 140 18:41 24.06.2019
5885 Clouds 26 1013 69 10000 4.6 140 18:20 24.06.2019
5886 Clouds 22 1014 85 0 3.75 169.235 17:37 24.06.2019
5887 Clouds 22 1014 85 0 3.75 169.235 17:18 24.06.2019
5888 Clouds 22 1014 85 0 3.75 169.235 16:44 24.06.2019
5889 Clouds 22 1014 85 0 3.75 169.235 16:19 24.06.2019
5890 Clouds 22 1014 85 0 3.75 169.235 15:44 24.06.2019
5891 Clouds 22 1012 85 0 4.43 158.578 15:25 24.06.2019
5892 Clouds 22 1012 85 0 4.43 158.578 14:37 24.06.2019
5893 Clouds 22 1012 85 0 4.43 158.578 14:19 24.06.2019
5894 Clouds 22 1012 85 0 4.43 158.578 13:33 24.06.2019
5895 Clouds 22 1012 86 0 4.69 162.82 12:57 24.06.2019
5896 Clouds 22 1012 86 0 4.69 162.82 12:38 24.06.2019
5897 Clouds 22 1013 85 0 4.56 147.219 12:20 24.06.2019
5898 Clouds 22 1013 85 0 4.56 147.219 11:43 24.06.2019
5899 Clouds 22 1013 85 0 4.56 147.219 11:24 24.06.2019
5900 Clouds 22 1013 85 0 4.56 147.219 10:51 24.06.2019
5901 Clouds 22 1013 85 0 4.56 147.219 10:31 24.06.2019
5902 Clouds 22 1013 85 0 4.56 147.219 09:51 24.06.2019
5903 Clouds 22 1013 82 0 3.71 145.109 09:23 24.06.2019
5904 Clouds 22 1013 82 0 3.71 145.109 08:55 24.06.2019
5905 Clouds 22 1013 82 0 3.71 145.109 08:32 24.06.2019
5906 Clouds 22 1013 83 0 3.87 156.257 07:47 24.06.2019
5907 Clouds 22 1013 83 0 3.87 156.257 07:27 24.06.2019
5908 Clouds 22 1013 83 0 3.87 156.257 06:52 24.06.2019
5909 Clouds 22 1013 83 0 3.97 162.606 06:22 24.06.2019
5910 Clouds 22 1013 83 0 3.97 162.606 05:28 24.06.2019
5911 Clouds 22 1013 83 0 3.97 162.606 04:28 24.06.2019
5912 Clouds 22 1013 83 0 3.97 162.606 03:30 24.06.2019
5913 Clear 23 1010 80 0 4 174.277 02:33 24.06.2019
5914 Clear 23 1010 80 0 4 174.277 01:54 24.06.2019
5915 Clear 23 1010 82 0 3.86 170.293 01:26 24.06.2019
5916 Clear 23 1010 82 0 3.86 170.293 00:41 24.06.2019
5917 Clear 23 1011 80 0 5.48 181.747 00:19 24.06.2019
5918 Clear 23 1011 80 0 5.48 181.747 23:45 23.06.2019
5919 Clear 23 1011 80 0 5.48 181.747 23:23 23.06.2019
5920 Clear 23 1011 80 0 5.48 181.747 22:43 23.06.2019
5921 Clear 23 1011 80 0 5.48 181.747 22:21 23.06.2019
5922 Clear 23 1011 80 0 5.48 181.747 21:56 23.06.2019
5923 Clear 23 1011 80 0 5.48 181.747 21:37 23.06.2019
5924 Clouds 23 1013 80 0 6.43 185.282 21:18 23.06.2019
5925 Clouds 23 1013 80 0 6.43 185.282 20:41 23.06.2019
5926 Clouds 23 1013 80 0 6.45 187.821 20:22 23.06.2019
5927 Clouds 23 1013 80 0 6.45 187.821 19:44 23.06.2019
5928 Clouds 23 1013 80 0 6.45 187.821 19:21 23.06.2019
5929 Clouds 23 1013 80 0 6.45 187.821 18:54 23.06.2019
5930 Clouds 23 1013 80 0 6.45 187.821 18:54 23.06.2019
5931 Clouds 23 1015 80 0 5.87 174.823 18:24 23.06.2019
5932 Clouds 23 1015 80 0 5.87 174.823 17:50 23.06.2019
5933 Clouds 23 1015 80 0 5.87 174.823 17:26 23.06.2019
5934 Clouds 23 1015 80 0 5.87 174.823 16:55 23.06.2019
5935 Clouds 23 1015 80 0 5.87 174.823 16:36 23.06.2019
5936 Clouds 23 1015 80 0 5.87 174.823 16:18 23.06.2019
5937 Clouds 23 1015 80 0 5.87 174.823 15:40 23.06.2019
5938 Clouds 22 1014 80 0 6.11 180.684 15:20 23.06.2019
5939 Clouds 22 1014 80 0 6.11 180.684 14:40 23.06.2019
5940 Clouds 22 1014 80 0 6.11 180.684 14:22 23.06.2019
5941 Clouds 22 1014 80 0 6.11 180.684 13:57 23.06.2019
5942 Clouds 22 1014 80 0 6.11 180.684 13:57 23.06.2019
5943 Clouds 22 1014 80 0 6.11 180.684 13:38 23.06.2019
5944 Clouds 22 1014 82 0 5.86 177.69 13:18 23.06.2019
5945 Clouds 22 1014 82 0 5.86 177.69 12:42 23.06.2019
5946 Clouds 22 1014 82 0 5.78 182.953 12:21 23.06.2019
5947 Clouds 22 1014 82 0 5.78 182.953 11:52 23.06.2019
5948 Clouds 22 1014 82 0 5.78 182.953 11:29 23.06.2019
5949 Clouds 22 1014 82 0 5.78 182.953 10:54 23.06.2019
5950 Clouds 22 1014 82 0 5.78 182.953 10:22 23.06.2019
5951 Clouds 22 1014 82 0 5.78 182.953 09:59 23.06.2019
5952 Clouds 22 1014 82 0 5.78 182.953 09:28 23.06.2019
5953 Clouds 22 1014 85 0 4.96 184.894 08:56 23.06.2019
5954 Clouds 22 1014 85 0 4.96 184.894 08:56 23.06.2019
5955 Clouds 22 1014 85 0 4.96 184.894 08:38 23.06.2019
5956 Clouds 22 1014 85 0 5.08 181.885 08:19 23.06.2019
5957 Clouds 22 1014 85 0 5.08 181.885 07:51 23.06.2019
5958 Clouds 22 1014 85 0 5.08 181.885 07:20 23.06.2019
5959 Clouds 22 1014 85 0 5.08 181.885 06:53 23.06.2019
5960 Clouds 23 1014 81 0 4.63 185.5 05:53 23.06.2019
5961 Clouds 22 1011 81 0 4.61 178.782 02:52 23.06.2019
5962 Clouds 22 1011 81 0 4.61 178.782 01:43 23.06.2019
5963 Clouds 22 1011 83 0 4.7 179.866 01:24 23.06.2019
5964 Clouds 22 1011 83 0 4.7 179.866 00:34 23.06.2019
5965 Clouds 22 1011 80 0 5.07 170.311 23:52 22.06.2019
5966 Clouds 22 1011 80 0 5.07 170.311 23:26 22.06.2019
5967 Clouds 22 1011 80 0 5.07 170.311 22:47 22.06.2019
5968 Clouds 22 1011 80 0 5.07 170.311 22:29 22.06.2019
5969 Clouds 22 1011 80 0 5.07 170.311 21:59 22.06.2019
5970 Clouds 22 1011 80 0 5.07 170.311 21:36 22.06.2019
5971 Clouds 22 1013 80 0 6.07 162.275 21:18 22.06.2019
5972 Clouds 22 1013 81 0 5.62 159.671 20:46 22.06.2019
5973 Clouds 22 1013 81 0 5.62 159.671 20:24 22.06.2019
5974 Clouds 22 1013 81 0 5.62 159.671 19:42 22.06.2019
5975 Clouds 22 1013 81 0 5.62 159.671 19:21 22.06.2019
5976 Clouds 22 1013 81 0 5.62 159.671 18:43 22.06.2019
5977 Clouds 22 1015 82 0 5.55 171.816 18:23 22.06.2019
5978 Clouds 22 1015 82 0 5.55 171.816 17:46 22.06.2019
5979 Clouds 22 1015 82 0 5.55 171.816 17:26 22.06.2019
5980 Clouds 22 1015 82 0 5.55 171.816 16:44 22.06.2019
5981 Clouds 22 1015 82 0 5.55 171.816 16:24 22.06.2019
5982 Clouds 22 1015 82 0 5.55 171.816 15:45 22.06.2019
5983 Clouds 22 1015 82 0 5.55 171.816 15:27 22.06.2019
5984 Clouds 22 1013 83 0 6.44 180.925 14:52 22.06.2019
5985 Clouds 22 1013 83 0 6.44 180.925 14:32 22.06.2019
5986 Clouds 22 1013 83 0 6.44 180.925 13:57 22.06.2019
5987 Clouds 22 1013 83 0 6.44 180.925 13:39 22.06.2019
5988 Clouds 22 1013 83 0 5.87 177.684 13:18 22.06.2019
5989 Clouds 22 1013 83 0 5.87 177.684 12:43 22.06.2019
5990 Clouds 23 1013 83 0 5.47 175.563 12:19 22.06.2019
5991 Clouds 23 1013 83 0 5.47 175.563 11:41 22.06.2019
5992 Clouds 23 1013 83 0 5.47 175.563 11:19 22.06.2019
5993 Clouds 23 1013 83 0 5.47 175.563 10:22 22.06.2019
5994 Clouds 23 1013 83 0 5.47 175.563 09:56 22.06.2019
5995 Clouds 23 1013 83 0 5.47 175.563 09:35 22.06.2019
5996 Clouds 23 1013 83 0 5.47 175.563 09:35 22.06.2019
5997 Clouds 22 1013 86 0 4.76 158.046 08:48 22.06.2019
5998 Clouds 22 1013 86 0 4.44 156.891 08:29 22.06.2019
5999 Clouds 22 1013 86 0 4.44 156.891 07:44 22.06.2019
6000 Clouds 22 1013 86 0 4.44 156.891 07:20 22.06.2019
6001 Clouds 22 1013 86 0 4.44 156.891 06:35 22.06.2019
6002 Clouds 22 1013 87 0 5.17 161.151 03:42 22.06.2019
6003 Clouds 22 1011 86 0 5.25 160.16 02:21 22.06.2019
6004 Clouds 22 1011 86 0 5.38 162.704 00:48 22.06.2019
6005 Clouds 23 1010 86 0 5.8 159.85 00:24 22.06.2019
6006 Clouds 23 1010 86 0 5.8 159.85 23:49 21.06.2019
6007 Clouds 23 1010 86 0 5.8 159.85 23:23 21.06.2019
6008 Clouds 23 1010 86 0 5.8 159.85 22:54 21.06.2019
6009 Clouds 23 1010 86 0 5.8 159.85 22:27 21.06.2019
6010 Clouds 23 1010 86 0 5.8 159.85 21:57 21.06.2019
6011 Clouds 23 1010 86 0 5.8 159.85 21:38 21.06.2019
6012 Clouds 23 1010 86 0 5.8 159.85 21:38 21.06.2019
6013 Clouds 23 1012 87 0 6.58 159.283 21:19 21.06.2019
6014 Clouds 23 1012 87 0 6.51 160.455 20:47 21.06.2019
6015 Clouds 23 1012 87 0 6.51 160.455 20:22 21.06.2019
6016 Clouds 23 1012 87 0 6.51 160.455 19:38 21.06.2019
6017 Clouds 23 1012 87 0 6.51 160.455 18:55 21.06.2019
6018 Clouds 23 1012 87 0 6.51 160.455 18:34 21.06.2019
6019 Clouds 23 1013 88 0 5.93 159.417 17:48 21.06.2019
6020 Clouds 23 1013 88 0 5.93 159.417 17:48 21.06.2019
6021 Clouds 23 1013 88 0 5.93 159.417 17:30 21.06.2019
6022 Clouds 23 1013 88 0 5.93 159.417 16:42 21.06.2019
6023 Clouds 23 1013 88 0 5.93 159.417 16:23 21.06.2019
6024 Clouds 23 1013 88 0 5.93 159.417 15:45 21.06.2019
6025 Clouds 22 1011 89 0 5.32 161.585 15:24 21.06.2019
6026 Clouds 22 1011 89 0 5.32 161.585 14:53 21.06.2019
6027 Clouds 22 1011 89 0 5.32 161.585 14:31 21.06.2019
6028 Clouds 22 1011 89 0 5.32 161.585 13:58 21.06.2019
6029 Clouds 22 1011 89 0 5.32 161.585 13:36 21.06.2019
6030 Clouds 22 1012 89 0 4.81 159.943 13:18 21.06.2019
6031 Clouds 22 1012 89 0 4.81 159.943 12:40 21.06.2019
6032 Clouds 23 1011 90 0 4.89 163.329 12:18 21.06.2019
6033 Clouds 23 1011 90 0 4.89 163.329 11:47 21.06.2019
6034 Clouds 23 1011 90 0 4.89 163.329 11:26 21.06.2019
6035 Clouds 23 1011 90 0 4.89 163.329 10:52 21.06.2019
6036 Clouds 23 1011 90 0 4.89 163.329 10:22 21.06.2019
6037 Clouds 23 1011 90 0 4.89 163.329 09:59 21.06.2019
6038 Clouds 23 1011 90 0 4.89 163.329 09:40 21.06.2019
6039 Clouds 23 1012 89 0 5.68 160.681 09:19 21.06.2019
6040 Clouds 23 1012 89 0 5.68 160.681 08:43 21.06.2019
6041 Clouds 23 1012 89 0 5.54 157.479 08:23 21.06.2019
6042 Clouds 23 1012 89 0 5.54 157.479 07:51 21.06.2019
6043 Clouds 23 1012 89 0 5.54 157.479 07:29 21.06.2019
6044 Clouds 23 1012 89 0 5.54 157.479 06:53 21.06.2019
6045 Clouds 23 1012 89 0 5.54 157.479 06:53 21.06.2019
6046 Clouds 23 1012 89 0 5.59 162.863 06:20 21.06.2019
6047 Clouds 23 1012 89 0 5.59 162.863 05:25 21.06.2019
6048 Clouds 23 1012 89 0 5.59 162.863 04:22 21.06.2019
6049 Clouds 23 1012 89 0 5.59 162.863 03:33 21.06.2019
6050 Clouds 23 1009 90 0 5.57 163.039 02:47 21.06.2019
6051 Clouds 23 1009 90 0 5.57 163.039 01:38 21.06.2019
6052 Clouds 23 1009 88 0 5.98 171.393 00:53 21.06.2019
6053 Clouds 23 1009 88 0 5.51 157.2 00:19 21.06.2019
6054 Clouds 23 1009 88 0 5.51 157.2 23:42 20.06.2019
6055 Clouds 23 1009 88 0 5.51 157.2 23:21 20.06.2019
6056 Clouds 23 1009 88 0 5.51 157.2 22:46 20.06.2019
6057 Clouds 23 1009 88 0 5.51 157.2 22:27 20.06.2019
6058 Clouds 23 1009 88 0 5.51 157.2 21:57 20.06.2019
6059 Clouds 23 1009 88 0 5.51 157.2 21:39 20.06.2019
6060 Clouds 23 1012 89 0 5.1 151.562 21:19 20.06.2019
6061 Clouds 23 1012 89 0 5.1 151.562 20:46 20.06.2019
6062 Clouds 23 1012 89 0 5.02 155.058 20:25 20.06.2019
6063 Clouds 23 1012 89 0 5.02 155.058 19:55 20.06.2019
6064 Clouds 23 1012 89 0 5.02 155.058 19:36 20.06.2019
6065 Clouds 23 1012 89 0 5.02 155.058 19:18 20.06.2019
6066 Clouds 23 1012 89 0 5.02 155.058 18:42 20.06.2019
6067 Clouds 23 1012 89 0 4.79 146.473 18:23 20.06.2019
6068 Clouds 23 1012 89 0 4.79 146.473 17:49 20.06.2019
6069 Clouds 23 1012 89 0 4.79 146.473 17:31 20.06.2019
6070 Clouds 23 1012 89 0 4.79 146.473 16:48 20.06.2019
6071 Clouds 23 1012 89 0 4.79 146.473 16:20 20.06.2019
6072 Clouds 23 1012 89 0 4.79 146.473 15:58 20.06.2019
6073 Clouds 23 1012 89 0 4.79 146.473 15:40 20.06.2019
6074 Clouds 23 1010 90 0 5.22 151.201 15:21 20.06.2019
6075 Clouds 23 1010 90 0 5.22 151.201 14:44 20.06.2019
6076 Clouds 23 1010 90 0 5.22 151.201 14:22 20.06.2019
6077 Clouds 23 1010 90 0 5.22 151.201 13:41 20.06.2019
6078 Clouds 23 1011 89 0 5.41 151.192 13:20 20.06.2019
6079 Clouds 23 1011 89 0 5.41 151.192 12:47 20.06.2019
6080 Clouds 23 1010 89 0 5.03 168.322 12:23 20.06.2019
6081 Clouds 23 1010 89 0 5.03 168.322 11:48 20.06.2019
6082 Clouds 23 1010 89 0 5.03 168.322 11:29 20.06.2019
6083 Clouds 23 1010 89 0 5.03 168.322 10:57 20.06.2019
6084 Clouds 23 1010 89 0 5.03 168.322 10:39 20.06.2019
6085 Clouds 23 1010 89 0 5.03 168.322 10:20 20.06.2019
6086 Clouds 23 1010 89 0 5.03 168.322 09:40 20.06.2019
6087 Clouds 23 1011 89 0 5.65 181.471 09:21 20.06.2019
6088 Clouds 23 1011 90 0 5.5 184.487 08:46 20.06.2019
6089 Clouds 23 1011 90 0 5.5 184.487 08:27 20.06.2019
6090 Clouds 23 1011 90 0 5.5 184.487 07:53 20.06.2019
6091 Clouds 23 1011 90 0 5.5 184.487 07:28 20.06.2019
6092 Clouds 23 1011 90 0 5.5 184.487 06:28 20.06.2019
6093 Clouds 23 1011 88 0 5.95 172.85 04:54 20.06.2019
6094 Clouds 23 1011 88 0 5.95 172.85 03:32 20.06.2019
6095 Clouds 23 1010 88 0 6.04 174.477 00:34 20.06.2019
6096 Clouds 23 1009 86 0 5.67 175.15 23:58 19.06.2019
6097 Clouds 23 1009 86 0 5.67 175.15 23:39 19.06.2019
6098 Clouds 23 1009 86 0 5.67 175.15 23:21 19.06.2019
6099 Clouds 23 1009 86 0 5.67 175.15 22:45 19.06.2019
6100 Clouds 23 1009 86 0 5.67 175.15 22:18 19.06.2019
6101 Clouds 23 1009 86 0 5.67 175.15 21:46 19.06.2019
6102 Clouds 23 1012 85 0 4.61 168.449 21:25 19.06.2019
6103 Clouds 23 1012 85 0 4.61 168.449 20:43 19.06.2019
6104 Clouds 23 1012 85 0 4.61 168.449 20:22 19.06.2019
6105 Clouds 23 1012 85 0 4.61 168.449 19:55 19.06.2019
6106 Clouds 23 1012 85 0 4.61 168.449 19:36 19.06.2019
6107 Clouds 23 1012 85 0 4.61 168.449 19:18 19.06.2019
6108 Clouds 23 1012 85 0 4.61 168.449 18:43 19.06.2019
6109 Clouds 23 1014 88 0 4.08 169.85 18:20 19.06.2019
6110 Clouds 23 1014 88 0 4.08 169.85 17:35 19.06.2019
6111 Clouds 23 1014 88 0 4.08 169.85 16:58 19.06.2019
6112 -273 0 0 0 0 0 16:39 19.06.2019
6113 Clouds 23 1014 88 0 4.08 169.85 16:20 19.06.2019
6114 Clouds 23 1014 88 0 4.08 169.85 15:48 19.06.2019
6115 Clouds 23 1011 88 0 5 171.575 15:26 19.06.2019
6116 Clouds 23 1011 88 0 5 171.575 14:50 19.06.2019
6117 Clouds 23 1011 88 0 5 171.575 14:30 19.06.2019
6118 Clouds 23 1011 88 0 5 171.575 13:59 19.06.2019
6119 Clouds 23 1011 88 0 5 171.575 13:40 19.06.2019
6120 Clouds 23 1011 89 0 4.78 167.491 13:20 19.06.2019
6121 Clouds 23 1011 89 0 4.78 167.491 12:42 19.06.2019
6122 Clouds 23 1011 88 0 5.32 176.215 12:20 19.06.2019
6123 Clouds 23 1011 88 0 5.32 176.215 11:44 19.06.2019
6124 Clouds 23 1011 88 0 5.32 176.215 11:25 19.06.2019
6125 Clouds 23 1011 88 0 5.32 176.215 10:51 19.06.2019
6126 Clouds 23 1011 88 0 5.32 176.215 10:32 19.06.2019
6127 Clouds 23 1011 88 0 5.32 176.215 09:59 19.06.2019
6128 Clouds 23 1011 88 0 5.32 176.215 09:39 19.06.2019
6129 Clouds 23 1011 88 0 4.79 168.924 09:19 19.06.2019
6130 Clouds 23 1012 89 0 4.83 168.057 08:48 19.06.2019
6131 Clouds 23 1012 89 0 4.83 168.057 08:27 19.06.2019
6132 Clouds 23 1012 89 0 4.83 168.057 07:46 19.06.2019
6133 Clouds 23 1012 89 0 4.83 168.057 07:23 19.06.2019
6134 Clouds 23 1012 89 0 4.83 168.057 06:44 19.06.2019
6135 Clear 23 1011 88 0 4.49 171.382 06:22 19.06.2019
6136 Clear 23 1011 88 0 4.49 171.382 05:41 19.06.2019
6137 Clear 23 1011 88 0 4.49 171.382 03:58 19.06.2019
6138 Clouds 23 1009 87 0 5.23 178.018 02:59 19.06.2019
6139 Clouds 23 1009 87 0 5.23 178.018 01:47 19.06.2019
6140 Clouds 23 1009 87 0 5.3 177.536 00:56 19.06.2019
6141 Clouds 23 1009 87 0 5.3 177.536 00:38 19.06.2019
6142 Clouds 23 1009 87 0 4.28 152.25 00:19 19.06.2019
6143 Clouds 23 1009 87 0 4.28 152.25 23:43 18.06.2019
6144 Clouds 23 1009 87 0 4.28 152.25 23:25 18.06.2019
6145 Clouds 23 1009 87 0 4.28 152.25 22:42 18.06.2019
6146 Clouds 26 1008 74 10000 8.2 160 22:23 18.06.2019
6147 Clouds 26 1008 74 10000 8.2 160 21:55 18.06.2019
6148 Clouds 26 1008 74 10000 8.2 160 21:37 18.06.2019
6149 Clouds 26 1008 74 10000 8.2 160 21:37 18.06.2019
6150 Clouds 26 1009 74 10000 8.2 180 21:18 18.06.2019
6151 Clouds 26 1009 74 10000 8.2 180 20:41 18.06.2019
6152 Clouds 26 1009 74 10000 8.2 180 20:22 18.06.2019
6153 Clouds 25 1009 78 10000 7.2 160 19:41 18.06.2019
6154 Clouds 25 1009 78 10000 7.2 160 19:22 18.06.2019
6155 Clouds 25 1010 78 10000 7.7 150 18:55 18.06.2019
6156 Clouds 25 1010 78 10000 7.7 150 18:26 18.06.2019
6157 Clouds 24 1010 83 10000 6.2 150 17:55 18.06.2019
6158 Clouds 24 1010 83 10000 6.2 150 17:36 18.06.2019
6159 Clouds 24 1010 83 10000 7.2 170 17:18 18.06.2019
6160 Clouds 24 1010 83 10000 7.2 170 16:42 18.06.2019
6161 Clouds 24 1010 83 10000 7.2 170 16:22 18.06.2019
6162 Clouds 23 1008 88 10000 6.2 160 15:42 18.06.2019
6163 Clouds 23 1008 88 10000 6.2 160 15:23 18.06.2019
6164 Clouds 22 1008 94 10000 5.7 160 14:56 18.06.2019
6165 Clouds 22 1008 94 10000 5.7 160 14:38 18.06.2019
6166 Clouds 23 1011 89 0 5.56 163.041 14:19 18.06.2019
6167 Clouds 23 1011 89 0 5.56 163.041 13:49 18.06.2019
6168 Clear 23 1011 89 0 5.48 161.912 13:29 18.06.2019
6169 Clear 23 1011 89 0 5.48 161.912 12:46 18.06.2019
6170 Clear 23 1011 89 0 5.48 161.912 12:28 18.06.2019
6171 Clear 23 1010 89 0 5.57 167.091 11:50 18.06.2019
6172 Clear 23 1010 89 0 5.57 167.091 11:24 18.06.2019
6173 Clear 23 1010 89 0 5.57 167.091 10:59 18.06.2019
6174 Clear 23 1010 89 0 5.57 167.091 10:40 18.06.2019
6175 Clear 23 1010 89 0 5.57 167.091 10:20 18.06.2019
6176 Clear 23 1010 89 0 5.57 167.091 10:20 18.06.2019
6177 Clear 23 1010 89 0 5.57 167.091 09:51 18.06.2019
6178 Clear 23 1011 88 0 5.34 171.692 09:24 18.06.2019
6179 Clear 23 1011 88 0 5.34 171.692 08:48 18.06.2019
6180 Clear 23 1011 88 0 5.04 172.315 08:22 18.06.2019
6181 Clear 23 1011 88 0 5.04 172.315 07:46 18.06.2019
6182 Clear 23 1011 88 0 5.04 172.315 07:24 18.06.2019
6183 Clear 23 1011 88 0 5.04 172.315 06:48 18.06.2019
6184 Clear 23 1011 88 0 6.06 163.381 05:24 18.06.2019
6185 Clear 23 1011 88 0 6.06 163.381 03:59 18.06.2019
6186 Clouds 23 1007 83 10000 5.7 160 02:27 18.06.2019
6187 Clouds 24 1007 78 10000 6.2 160 01:26 18.06.2019
6188 Clouds 25 1007 73 10000 6.2 160 00:57 18.06.2019
6189 Clouds 25 1007 73 10000 6.2 160 00:30 18.06.2019
6190 Clouds 26 1007 69 10000 7.2 170 23:42 17.06.2019
6191 Clouds 26 1007 69 10000 7.2 170 23:22 17.06.2019
6192 Clouds 27 1007 65 10000 7.2 160 22:58 17.06.2019
6193 Clouds 27 1007 65 10000 7.2 160 22:38 17.06.2019
6194 Clouds 27 1007 65 10000 7.2 160 22:20 17.06.2019
6195 Clouds 27 1008 65 10000 6.2 150 21:42 17.06.2019
6196 Clouds 27 1008 65 10000 6.2 150 21:23 17.06.2019
6197 Clouds 26 1009 74 10000 6.7 170 20:39 17.06.2019
6198 Clouds 26 1009 74 10000 6.7 170 20:20 17.06.2019
6199 Rain 25 1010 78 10000 7.2 120 19:54 17.06.2019
6200 Rain 25 1010 78 10000 7.2 120 19:36 17.06.2019
6201 Clouds 25 1010 78 10000 5.1 140 19:18 17.06.2019
6202 Clouds 25 1010 78 10000 5.1 140 18:38 17.06.2019
6203 Clouds 24 1010 83 10000 3.1 130 18:18 17.06.2019
6204 Clouds 24 1010 83 10000 3.1 130 18:18 17.06.2019
6205 Clouds 24 1010 83 10000 3.1 130 17:47 17.06.2019
6206 Clouds 24 1010 83 10000 3.1 130 17:29 17.06.2019
6207 Clouds 22 1009 94 10000 5.1 150 16:55 17.06.2019
6208 Clouds 22 1009 94 10000 5.1 150 16:37 17.06.2019
6209 Clouds 22 1008 94 10000 5.1 130 16:19 17.06.2019
6210 Clouds 22 1008 94 10000 5.1 130 15:43 17.06.2019
6211 Clouds 22 1008 88 10000 4.1 150 15:20 17.06.2019
6212 Clouds 22 1008 88 10000 4.1 150 15:20 17.06.2019
6213 Clouds 22 1008 88 10000 4.1 150 14:55 17.06.2019
6214 Clouds 22 1008 88 10000 4.1 150 14:34 17.06.2019
6215 Clouds 22 1008 88 10000 4.1 150 14:34 17.06.2019
6216 Clouds 23 1010 83 0 5.26 150.604 13:58 17.06.2019
6217 Clouds 23 1010 83 0 5.26 150.604 13:40 17.06.2019
6218 Clouds 23 1010 85 0 5.3 149.146 13:20 17.06.2019
6219 Clouds 23 1010 85 0 5.3 149.146 12:39 17.06.2019
6220 Rain 23 1009 84 0 6.01 153.554 12:19 17.06.2019
6221 Rain 23 1009 84 0 6.01 153.554 11:43 17.06.2019
6222 Rain 23 1009 84 0 6.01 153.554 11:24 17.06.2019
6223 Rain 23 1009 84 0 6.01 153.554 10:47 17.06.2019
6224 Rain 23 1009 84 0 6.01 153.554 10:28 17.06.2019
6225 Rain 23 1009 84 0 6.01 153.554 10:28 17.06.2019
6226 Rain 23 1009 84 0 6.01 153.554 09:56 17.06.2019
6227 Rain 23 1009 84 0 6.01 153.554 09:56 17.06.2019
6228 Rain 23 1009 84 0 6.01 153.554 09:56 17.06.2019
6229 Rain 23 1009 84 0 6.01 153.554 09:33 17.06.2019
6230 Clouds 23 1010 85 0 6.03 156.604 08:48 17.06.2019
6231 Clouds 23 1010 85 0 6.03 156.604 08:25 17.06.2019
6232 Clouds 23 1010 85 0 6.03 156.604 07:57 17.06.2019
6233 Clouds 23 1010 85 0 6.03 156.604 07:32 17.06.2019
6234 Clouds 23 1010 85 0 6.03 156.604 06:53 17.06.2019
6235 Clouds 23 1011 85 0 5.76 141.996 06:18 17.06.2019
6236 Clouds 23 1011 85 0 5.76 141.996 05:20 17.06.2019
6237 Clouds 23 1011 85 0 5.76 141.996 04:23 17.06.2019
6238 Clouds 23 1007 88 10000 5.7 160 03:30 17.06.2019
6239 Clouds 23 1007 88 10000 5.7 160 02:43 17.06.2019
6240 Clouds 23 1007 88 10000 5.7 160 02:24 17.06.2019
6241 Clouds 24 1007 78 10000 5.7 150 01:35 17.06.2019
6242 Clouds 24 1007 83 10000 5.1 140 00:48 17.06.2019
6243 Clouds 24 1007 83 10000 5.1 140 00:28 17.06.2019
6244 Clouds 25 1007 78 10000 5.1 160 23:58 16.06.2019
6245 Clouds 25 1007 78 10000 5.1 160 23:37 16.06.2019
6246 Clouds 25 1008 83 10000 6.2 150 23:19 16.06.2019
6247 Clouds 25 1008 83 10000 6.2 150 22:43 16.06.2019
6248 Rain 24 1009 83 10000 6.2 160 22:19 16.06.2019
6249 Rain 24 1009 83 10000 6.2 160 21:56 16.06.2019
6250 Rain 24 1009 83 10000 6.2 160 21:38 16.06.2019
6251 Rain 24 1009 83 10000 5.1 150 21:20 16.06.2019
6252 Rain 24 1009 83 10000 5.1 150 20:38 16.06.2019
6253 Rain 25 1009 83 10000 6.2 140 20:19 16.06.2019
6254 Rain 25 1009 83 10000 6.2 140 19:58 16.06.2019
6255 Rain 25 1009 83 10000 6.2 140 19:38 16.06.2019
6256 Clouds 25 1010 83 10000 6.2 150 19:19 16.06.2019
6257 Clouds 25 1010 83 10000 6.2 150 18:41 16.06.2019
6258 Rain 23 1013 85 0 5.54 145.736 18:21 16.06.2019
6259 Rain 23 1010 94 6000 3.1 150 17:49 16.06.2019
6260 Rain 23 1010 94 6000 3.1 150 17:24 16.06.2019
6261 Rain 23 1013 85 0 5.54 145.736 16:58 16.06.2019
6262 Rain 23 1013 85 0 5.54 145.736 16:39 16.06.2019
6263 Clouds 23 1008 88 10000 6.2 150 16:21 16.06.2019
6264 Clouds 23 1008 88 10000 6.2 150 15:45 16.06.2019
6265 Clouds 23 1008 88 10000 6.2 150 15:26 16.06.2019
6266 Clouds 23 1007 88 10000 6.2 160 14:56 16.06.2019
6267 Clouds 23 1007 88 10000 6.2 160 14:36 16.06.2019
6268 Rain 23 1010 85 0 6.84 152.734 14:18 16.06.2019
6269 Rain 23 1010 85 0 6.84 152.734 13:44 16.06.2019
6270 Rain 23 1011 86 0 7.19 148.967 13:24 16.06.2019
6271 Rain 23 1011 86 0 7.19 148.967 12:43 16.06.2019
6272 Clouds 23 1010 84 0 7.19 157.216 12:22 16.06.2019
6273 Clouds 23 1010 84 0 7.19 157.216 11:54 16.06.2019
6274 Clouds 23 1010 84 0 7.19 157.216 11:36 16.06.2019
6275 Clouds 23 1010 84 0 7.19 157.216 11:18 16.06.2019
6276 Clouds 23 1010 84 0 7.19 157.216 10:43 16.06.2019
6277 Clouds 23 1010 84 0 7.19 157.216 10:19 16.06.2019
6278 Clouds 23 1010 84 0 7.19 157.216 09:42 16.06.2019
6279 Clouds 23 1012 86 0 6.45 149.134 09:23 16.06.2019
6280 Clouds 23 1011 86 0 6.26 150.304 08:45 16.06.2019
6281 Clouds 23 1011 86 0 6.26 150.304 08:19 16.06.2019
6282 Clouds 23 1011 86 0 6.26 150.304 07:44 16.06.2019
6283 Clouds 23 1011 86 0 6.26 150.304 07:20 16.06.2019
6284 Clouds 23 1011 86 0 6.26 150.304 06:49 16.06.2019
6285 Clouds 23 1012 86 0 5.72 142.503 05:52 16.06.2019
6286 Clouds 23 1012 86 0 5.72 142.503 05:18 16.06.2019
6287 Clouds 23 1012 86 0 5.72 142.503 03:58 16.06.2019
6288 Clouds 24 1008 78 10000 6.7 130 03:33 16.06.2019
6289 Clouds 24 1008 78 10000 6.7 130 02:36 16.06.2019
6290 Clouds 25 1008 78 10000 6.7 140 01:47 16.06.2019
6291 Clouds 25 1008 78 10000 6.7 140 01:27 16.06.2019
6292 Clouds 25 1011 78 10000 7.2 150 00:41 16.06.2019
6293 Clouds 26 1009 74 10000 7.7 160 00:21 16.06.2019
6294 Clouds 26 1009 74 10000 7.7 160 23:46 15.06.2019
6295 Clouds 26 1009 74 10000 7.7 160 23:25 15.06.2019
6296 Clouds 27 1009 69 10000 8.2 160 22:50 15.06.2019
6297 Clouds 27 1009 69 10000 8.2 160 22:28 15.06.2019
6298 Clouds 27 1010 69 10000 8.2 150 21:57 15.06.2019
6299 Clouds 27 1010 69 10000 8.2 150 21:39 15.06.2019
6300 Clouds 27 1011 69 10000 7.7 160 21:18 15.06.2019
6301 Clouds 27 1011 69 10000 7.7 160 20:42 15.06.2019
6302 Clouds 26 1012 74 10000 8.2 160 20:22 15.06.2019
6303 Clouds 26 1012 74 10000 8.2 160 19:43 15.06.2019
6304 Clouds 26 1012 74 10000 7.7 170 19:24 15.06.2019
6305 Clouds 26 1012 74 10000 7.7 170 18:41 15.06.2019
6306 Clear 25 1012 78 10000 7.2 160 18:21 15.06.2019
6307 Clear 25 1012 78 10000 7.2 160 17:43 15.06.2019
6308 Clear 25 1011 78 10000 7.2 140 17:23 15.06.2019
6309 Clear 25 1011 78 10000 7.2 140 16:48 15.06.2019
6310 Clouds 23 1011 83 10000 6.2 140 16:20 15.06.2019
6311 Clouds 23 1011 83 10000 6.2 140 15:44 15.06.2019
6312 Clouds 23 1011 83 10000 6.2 140 15:24 15.06.2019
6313 Clouds 22 1011 88 10000 5.1 140 14:44 15.06.2019
6314 Clouds 23 1013 82 0 6.1 145.377 14:19 15.06.2019
6315 Clouds 23 1013 82 0 6.1 145.377 13:58 15.06.2019
6316 Clouds 23 1013 82 0 6.1 145.377 13:40 15.06.2019
6317 Clouds 23 1013 82 0 6.1 145.377 13:40 15.06.2019
6318 Clouds 23 1013 82 0 6.1 145.377 13:19 15.06.2019
6319 Clouds 23 1013 82 0 6.1 145.377 12:49 15.06.2019
6320 Clouds 23 1012 83 0 6.14 149.497 12:26 15.06.2019
6321 Clouds 23 1013 84 0 6.03 150.898 11:51 15.06.2019
6322 Clouds 23 1013 84 0 6.03 150.898 11:32 15.06.2019
6323 Clouds 23 1013 85 0 5.95 152.302 10:47 15.06.2019
6324 Clouds 23 1013 85 0 5.95 152.302 10:26 15.06.2019
6325 Clouds 23 1013 85 0 5.95 152.302 09:58 15.06.2019
6326 Clouds 23 1013 85 0 5.95 152.302 09:39 15.06.2019
6327 Clouds 23 1014 85 0 5.61 140.464 09:19 15.06.2019
6328 Clouds 23 1014 85 0 5.61 140.464 08:44 15.06.2019
6329 Clouds 23 1014 85 0 5.61 140.464 08:25 15.06.2019
6330 Clouds 23 1014 85 0 5.61 140.464 07:38 15.06.2019
6331 Clouds 23 1014 85 0 5.61 140.464 07:20 15.06.2019
6332 Clouds 23 1014 85 0 5.61 140.464 06:38 15.06.2019
6333 Clouds 23 1014 87 0 5.6 145.975 05:46 15.06.2019
6334 Clouds 23 1014 87 0 5.6 145.975 05:18 15.06.2019
6335 Clouds 23 1014 87 0 5.6 145.975 04:31 15.06.2019
6336 Clouds 24 1010 78 10000 5.1 140 03:33 15.06.2019
6337 Clouds 24 1010 78 10000 5.1 140 03:33 15.06.2019
6338 Clouds 24 1010 78 10000 5.1 140 02:37 15.06.2019
6339 Clouds 25 1010 78 10000 6.2 150 01:59 15.06.2019
6340 Clouds 25 1010 78 10000 6.2 150 01:25 15.06.2019
6341 Clouds 27 1009 69 10000 5.1 150 00:43 15.06.2019
6342 Clouds 26 1009 74 10000 5.1 150 00:24 15.06.2019
6343 Clouds 26 1009 74 10000 5.1 150 23:50 14.06.2019
6344 Clouds 26 1011 74 10000 4.6 160 23:21 14.06.2019
6345 Clouds 26 1011 74 10000 4.6 160 22:42 14.06.2019
6346 Clouds 27 1012 74 10000 5.7 150 22:21 14.06.2019
6347 Clouds 27 1012 74 10000 5.7 150 21:49 14.06.2019
6348 Clouds 27 1012 74 10000 5.7 150 21:29 14.06.2019
6349 Clouds 27 1012 69 10000 6.2 160 20:57 14.06.2019
6350 Clouds 27 1012 69 10000 6.2 160 20:38 14.06.2019
6351 Clouds 24 1014 82 0 4.42 125.797 20:18 14.06.2019
6352 Clouds 24 1014 82 0 4.42 125.797 19:41 14.06.2019
6353 Clouds 26 1013 74 10000 6.7 170 19:22 14.06.2019
6354 Clouds 26 1013 74 10000 6.7 170 18:54 14.06.2019
6355 Clouds 26 1013 74 10000 6.7 170 18:54 14.06.2019
6356 Clouds 26 1013 74 10000 6.7 170 18:36 14.06.2019
6357 Clouds 26 1013 74 10000 4.6 150 18:18 14.06.2019
6358 Clouds 26 1013 74 10000 4.6 150 17:44 14.06.2019
6359 Clouds 26 1013 74 10000 4.6 150 17:23 14.06.2019
6360 Clouds 26 1013 74 10000 4.6 150 17:23 14.06.2019
6361 Clouds 25 1013 83 10000 3.6 90 16:48 14.06.2019
6362 Clouds 25 1013 83 10000 3.6 90 16:24 14.06.2019
6363 Clouds 25 1013 83 10000 3.6 90 16:24 14.06.2019
6364 Clouds 23 1012 88 10000 1.5 100 15:59 14.06.2019
6365 Clouds 23 1012 88 10000 1.5 100 15:39 14.06.2019
6366 Clouds 21 1011 94 10000 2.1 60 15:19 14.06.2019
6367 Clouds 21 1011 94 10000 2.1 60 14:44 14.06.2019
6368 Clouds 21 1011 94 10000 2.1 60 14:25 14.06.2019
6369 Clouds 24 1013 84 0 4.58 143.048 13:46 14.06.2019
6370 Clouds 24 1013 82 0 3.7 130.369 13:28 14.06.2019
6371 Clouds 24 1013 82 0 3.7 130.369 12:55 14.06.2019
6372 Clouds 24 1013 82 0 3.7 130.369 12:36 14.06.2019
6373 Clouds 24 1013 85 0 4.2 134.364 12:18 14.06.2019
6374 Clouds 24 1013 85 0 4.2 134.364 11:42 14.06.2019
6375 Clouds 24 1013 85 0 4.2 134.364 11:23 14.06.2019
6376 Clouds 24 1013 85 0 4.2 134.364 10:47 14.06.2019
6377 Clouds 24 1013 85 0 4.2 134.364 10:21 14.06.2019
6378 Clouds 24 1013 85 0 4.2 134.364 09:55 14.06.2019
6379 Clouds 24 1012 83 0 5.39 146.522 09:33 14.06.2019
6380 Clouds 24 1014 83 0 4.72 143.47 08:48 14.06.2019
6381 Clouds 24 1014 83 0 4.72 143.47 08:21 14.06.2019
6382 Clouds 24 1014 83 0 4.72 143.47 07:55 14.06.2019
6383 Clouds 24 1014 83 0 4.72 143.47 07:23 14.06.2019
6384 Clouds 24 1014 83 0 4.72 143.47 06:53 14.06.2019
6385 Clear 24 1014 84 0 4.31 135.282 06:19 14.06.2019
6386 Clear 24 1014 84 0 4.31 135.282 05:42 14.06.2019
6387 Clear 24 1014 84 0 4.31 135.282 04:51 14.06.2019
6388 Clear 24 1014 84 0 4.31 135.282 04:23 14.06.2019
6389 Clear 24 1014 84 0 4.31 135.282 03:39 14.06.2019
6390 Clouds 24 1010 83 10000 5.7 140 03:21 14.06.2019
6391 Clouds 24 1010 83 10000 5.7 140 02:36 14.06.2019
6392 Clouds 26 1009 74 10000 6.2 160 01:47 14.06.2019
6393 Clouds 26 1009 74 10000 7.2 160 00:37 14.06.2019
6394 Clouds 27 1009 69 10000 6.7 160 00:19 14.06.2019
6395 Clouds 27 1009 69 10000 6.7 160 23:49 13.06.2019
6396 Clouds 27 1009 69 10000 6.7 160 23:25 13.06.2019
6397 Clouds 27 1011 69 10000 8.2 170 22:41 13.06.2019
6398 Clouds 27 1011 69 10000 7.2 160 22:22 13.06.2019
6399 Clouds 27 1011 69 10000 7.2 160 21:59 13.06.2019
6400 Clouds 27 1011 69 10000 7.2 160 21:37 13.06.2019
6401 Clouds 27 1012 69 10000 6.7 160 21:18 13.06.2019
6402 Clouds 27 1012 69 10000 6.7 160 21:18 13.06.2019
6403 Clouds 27 1012 69 10000 6.7 160 20:44 13.06.2019
6404 Clouds 27 1013 69 10000 7.7 160 20:20 13.06.2019
6405 Clouds 27 1013 69 10000 7.7 160 19:43 13.06.2019
6406 Clouds 27 1013 69 10000 7.7 160 19:25 13.06.2019
6407 Clouds 27 1013 69 10000 6.2 140 18:59 13.06.2019
6408 Clouds 27 1013 69 10000 6.2 140 18:40 13.06.2019
6409 Clouds 26 1013 74 10000 6.7 140 18:22 13.06.2019
6410 Clouds 26 1013 74 10000 6.7 140 17:45 13.06.2019
6411 Clouds 25 1012 83 10000 6.7 150 17:21 13.06.2019
6412 Clouds 25 1012 83 10000 6.7 150 16:58 13.06.2019
6413 Clouds 25 1012 83 10000 6.7 150 16:38 13.06.2019
6414 -273 0 0 0 0 0 16:18 13.06.2019
6415 Clouds 24 1011 83 10000 4.6 140 15:40 13.06.2019
6416 Clouds 22 1010 94 10000 3.6 140 15:22 13.06.2019
6417 Clouds 22 1010 94 10000 3.6 140 14:49 13.06.2019
6418 Clouds 22 1010 94 10000 3.6 140 14:31 13.06.2019
6419 Clouds 24 1013 82 0 5.86 156.744 13:54 13.06.2019
6420 Clouds 24 1013 82 0 5.86 156.744 13:36 13.06.2019
6421 Clouds 24 1013 82 0 5.86 156.744 13:18 13.06.2019
6422 Clouds 24 1013 82 0 5.86 156.744 12:39 13.06.2019
6423 Clouds 24 1012 83 0 5.18 156.873 12:21 13.06.2019
6424 Clouds 24 1012 83 0 5.18 156.873 12:21 13.06.2019
6425 Clouds 24 1012 83 0 5.18 156.873 11:44 13.06.2019
6426 Clouds 24 1012 83 0 5.18 156.873 11:25 13.06.2019
6427 Clouds 24 1012 83 0 5.18 156.873 10:48 13.06.2019
6428 Clouds 24 1012 83 0 5.18 156.873 10:28 13.06.2019
6429 Clouds 24 1012 83 0 5.18 156.873 09:52 13.06.2019
6430 -273 0 0 0 0 0 09:29 13.06.2019
6431 Clouds 24 1014 84 0 4.78 159.515 08:56 13.06.2019
6432 Clouds 24 1014 84 0 4.78 159.515 08:56 13.06.2019
6433 Clouds 24 1014 84 0 4.78 159.515 08:56 13.06.2019
6434 Clouds 24 1014 84 0 4.78 159.515 08:56 13.06.2019
6435 Clouds 24 1014 84 0 4.78 159.515 08:38 13.06.2019
6436 Clouds 24 1014 84 0 4.78 159.515 08:19 13.06.2019
6437 Clouds 24 1014 84 0 4.78 159.515 07:37 13.06.2019
6438 Clouds 24 1014 84 0 4.78 159.515 07:18 13.06.2019
6439 Clouds 24 1014 84 0 4.78 159.515 06:38 13.06.2019
6440 Clouds 24 1013 84 0 5.07 159.115 06:20 13.06.2019
6441 Clouds 24 1013 84 0 5.07 159.115 05:39 13.06.2019
6442 Clouds 24 1013 84 0 5.07 159.115 05:18 13.06.2019
6443 Clouds 24 1013 84 0 5.07 159.115 03:45 13.06.2019
6444 Clouds 25 1009 83 10000 5.1 140 01:55 13.06.2019
6445 Clouds 26 1009 78 10000 5.1 150 00:32 13.06.2019
6446 Clouds 27 1009 74 10000 5.1 160 23:37 12.06.2019
6447 Clouds 27 1010 74 10000 6.2 150 23:19 12.06.2019
6448 Clouds 27 1010 74 10000 6.2 150 22:41 12.06.2019
6449 Clouds 27 1011 74 10000 6.7 160 22:21 12.06.2019
6450 Clouds 27 1011 74 10000 6.7 160 21:43 12.06.2019
6451 Clouds 27 1011 74 10000 6.7 160 21:25 12.06.2019
6452 Clouds 27 1012 74 10000 7.7 150 20:49 12.06.2019
6453 Clouds 27 1012 74 10000 7.7 150 20:30 12.06.2019
6454 Clouds 27 1013 74 10000 7.2 150 19:57 12.06.2019
6455 Clouds 27 1013 74 10000 7.2 150 19:38 12.06.2019
6456 Clouds 26 1013 83 10000 5.1 160 19:20 12.06.2019
6457 Clouds 26 1013 83 10000 5.1 160 18:44 12.06.2019
6458 Clouds 26 1013 83 10000 5.1 160 18:26 12.06.2019
6459 Clouds 24 1013 94 10000 3.1 160 17:47 12.06.2019
6460 Clouds 24 1013 94 10000 3.1 160 17:23 12.06.2019
6461 Clouds 23 1013 94 5000 3.6 180 16:44 12.06.2019
6462 Clouds 23 1013 94 5000 3.6 180 16:25 12.06.2019
6463 Rain 24 1014 85 0 5.86 164.725 15:58 12.06.2019
6464 Rain 24 1014 85 0 5.86 164.725 15:34 12.06.2019
6465 Clouds 23 1011 94 10000 3.6 150 14:58 12.06.2019
6466 Clouds 23 1011 94 10000 3.6 150 14:34 12.06.2019
6467 Rain 24 1013 85 0 5.41 166.403 13:58 12.06.2019
6468 Rain 24 1013 85 0 5.41 166.403 13:39 12.06.2019
6469 Rain 24 1013 87 0 5.6 167.488 13:19 12.06.2019
6470 Rain 24 1013 87 0 5.6 167.488 12:44 12.06.2019
6471 Clouds 24 1012 87 0 5.11 169.435 12:21 12.06.2019
6472 Clouds 24 1012 87 0 5.11 169.435 11:58 12.06.2019
6473 -273 0 0 0 0 0 11:38 12.06.2019
6474 Clouds 24 1012 87 0 5.11 169.435 11:20 12.06.2019
6475 Clouds 24 1012 87 0 5.11 169.435 10:44 12.06.2019
6476 Clouds 24 1012 87 0 5.11 169.435 10:19 12.06.2019
6477 Clouds 24 1012 87 0 5.11 169.435 09:41 12.06.2019
6478 Clear 24 1013 89 0 4.17 159.965 09:22 12.06.2019
6479 Clear 24 1013 89 0 4.17 159.965 08:37 12.06.2019
6480 Clear 24 1013 89 0 4.17 159.965 08:18 12.06.2019
6481 Clear 24 1013 89 0 4.17 159.965 07:20 12.06.2019
6482 Clear 24 1013 89 0 4.17 159.965 06:39 12.06.2019
6483 Clear 24 1013 89 0 4.13 152.933 05:25 12.06.2019
6484 Clouds 26 1008 78 10000 7.2 160 02:22 12.06.2019
6485 Clouds 26 1008 78 10000 5.1 150 00:47 12.06.2019
6486 Clouds 27 1008 74 10000 6.2 160 00:19 12.06.2019
6487 Clouds 27 1008 74 10000 6.2 160 23:42 11.06.2019
6488 Clear 24 1011 87 0 5.36 155.782 23:23 11.06.2019
6489 Clear 24 1011 88 0 5.54 157.476 22:42 11.06.2019
6490 Clouds 28 1009 69 10000 7.7 160 22:18 11.06.2019
6491 Clouds 28 1009 69 10000 7.7 160 21:55 11.06.2019
6492 Clouds 28 1009 69 10000 7.7 160 21:55 11.06.2019
6493 Clouds 28 1009 69 10000 7.7 160 21:36 11.06.2019
6494 Clouds 27 1010 74 10000 7.2 150 21:18 11.06.2019
6495 Clouds 27 1010 74 10000 7.2 150 20:42 11.06.2019
6496 Clouds 27 1011 74 10000 6.7 160 20:22 11.06.2019
6497 Clouds 27 1011 74 10000 6.7 160 19:51 11.06.2019
6498 Clouds 27 1011 74 10000 6.7 160 19:29 11.06.2019
6499 Clouds 27 1011 74 10000 7.2 140 18:49 11.06.2019
6500 Clouds 27 1011 74 10000 7.2 140 18:20 11.06.2019
6501 Clouds 27 1012 74 10000 6.2 160 17:42 11.06.2019
6502 Clouds 25 1012 83 10000 6.7 130 17:21 11.06.2019
6503 Clouds 25 1012 83 10000 6.7 130 16:46 11.06.2019
6504 Clouds 24 1011 88 10000 5.1 160 16:24 11.06.2019
6505 Clouds 24 1011 88 10000 5.1 160 15:59 11.06.2019
6506 Clouds 24 1011 88 10000 5.1 160 15:41 11.06.2019
6507 Clouds 23 1010 88 10000 4.6 150 15:19 11.06.2019
6508 Clouds 23 1010 88 10000 4.6 150 14:41 11.06.2019
6509 Clouds 24 1013 86 0 4.41 157.054 14:20 11.06.2019
6510 Clouds 24 1013 86 0 4.41 157.054 14:20 11.06.2019
6511 Clouds 24 1013 86 0 4.41 157.054 13:43 11.06.2019
6512 Clouds 24 1013 86 0 4.41 157.054 13:22 11.06.2019
6513 Clouds 24 1013 87 0 4.6 160.21 12:43 11.06.2019
6514 Clouds 24 1013 87 0 4.04 162.651 12:22 11.06.2019
6515 Clouds 24 1013 87 0 4.04 162.651 11:57 11.06.2019
6516 Clouds 24 1013 87 0 4.04 162.651 11:33 11.06.2019
6517 -273 0 0 0 0 0 10:57 11.06.2019
6518 Clouds 24 1013 87 0 4.04 162.651 10:39 11.06.2019
6519 Clouds 24 1013 87 0 4.04 162.651 10:19 11.06.2019
6520 Clouds 24 1013 87 0 4.04 162.651 09:43 11.06.2019
6521 Clouds 24 1013 85 0 3.82 159.151 09:23 11.06.2019
6522 Clouds 24 1013 85 0 3.82 159.151 08:41 11.06.2019
6523 Clouds 24 1013 85 0 3.82 159.151 08:22 11.06.2019
6524 Clouds 24 1013 85 0 3.82 159.151 07:34 11.06.2019
6525 Clouds 24 1013 85 0 3.31 156.185 06:54 11.06.2019
6526 Clouds 24 1013 85 0 3.8 151.699 05:21 11.06.2019
6527 Clouds 24 1013 85 0 3.8 151.699 04:38 11.06.2019
6528 Clouds 24 1009 83 10000 3.1 140 02:27 11.06.2019
6529 Clouds 26 1008 74 10000 4.6 170 00:52 11.06.2019
6530 Clouds 26 1008 74 10000 4.6 170 00:26 11.06.2019
6531 Clouds 26 1008 74 10000 5.1 160 23:45 10.06.2019
6532 Clouds 27 1008 69 10000 4.6 170 23:21 10.06.2019
6533 Clouds 27 1008 69 10000 4.6 170 22:45 10.06.2019
6534 Clouds 27 1008 69 10000 4.6 170 22:26 10.06.2019
6535 Clouds 28 1010 65 10000 5.1 180 21:56 10.06.2019
6536 Clouds 28 1010 65 10000 5.1 180 21:38 10.06.2019
6537 Clouds 28 1011 65 10000 5.7 170 21:19 10.06.2019
6538 Clouds 28 1011 65 10000 5.7 170 20:41 10.06.2019
6539 Clouds 27 1011 69 10000 6.2 170 20:21 10.06.2019
6540 Clouds 27 1011 69 10000 6.2 170 19:44 10.06.2019
6541 Clouds 26 1012 74 10000 4.1 150 19:22 10.06.2019
6542 Clouds 26 1012 74 10000 4.1 150 18:56 10.06.2019
6543 Clouds 26 1012 74 10000 4.1 150 18:38 10.06.2019
6544 Clouds 26 1012 78 10000 6.2 140 18:19 10.06.2019
6545 Clouds 26 1012 78 10000 6.2 140 18:19 10.06.2019
6546 Clouds 26 1012 78 10000 6.2 140 17:43 10.06.2019
6547 Clouds 26 1012 78 10000 6.2 140 17:23 10.06.2019
6548 Clouds 25 1012 83 10000 5.7 170 16:48 10.06.2019
6549 Clouds 25 1012 83 10000 5.7 170 16:30 10.06.2019
6550 Clouds 24 1010 88 10000 3.6 160 15:57 10.06.2019
6551 Clouds 24 1010 88 10000 3.6 160 15:38 10.06.2019
6552 Clouds 22 1010 94 10000 2.1 150 15:19 10.06.2019
6553 Clouds 22 1010 94 10000 2.1 150 14:41 10.06.2019
6554 Clouds 24 1012 84 0 4.18 175.925 14:22 10.06.2019
6555 Clouds 24 1012 84 0 4.18 175.925 13:45 10.06.2019
6556 Clouds 24 1012 84 0 4.18 175.925 13:24 10.06.2019
6557 Clouds 24 1012 87 0 4.64 169.623 12:48 10.06.2019
6558 Clouds 24 1012 87 0 4.64 169.623 12:29 10.06.2019
6559 Clouds 24 1012 87 0 4.2 169.155 11:52 10.06.2019
6560 Clouds 24 1012 87 0 4.2 169.155 11:30 10.06.2019
6561 Clouds 24 1012 87 0 4.2 169.155 10:58 10.06.2019
6562 Clouds 24 1012 87 0 4.2 169.155 10:38 10.06.2019
6563 Clouds 24 1012 87 0 4.2 169.155 10:18 10.06.2019
6564 Clouds 24 1012 87 0 4.2 169.155 09:48 10.06.2019
6565 Clouds 24 1012 87 0 4.2 169.155 09:29 10.06.2019
6566 Clouds 24 1013 88 0 3.71 168.675 08:48 10.06.2019
6567 Clouds 24 1013 88 0 3.71 168.675 08:26 10.06.2019
6568 Clouds 24 1013 88 0 3.71 168.675 07:27 10.06.2019
6569 Clouds 24 1013 89 0 3.96 156.786 04:42 10.06.2019
6570 Clear 25 1008 78 10000 5.1 160 02:19 10.06.2019
6571 Clear 25 1008 78 10000 5.1 160 01:32 10.06.2019
6572 Clouds 26 1008 74 10000 4.1 170 00:59 10.06.2019
6573 Clouds 26 1008 74 10000 4.1 170 00:31 10.06.2019
6574 Clouds 26 1008 74 10000 6.7 170 23:45 09.06.2019
6575 Clouds 26 1008 74 10000 7.2 150 23:21 09.06.2019
6576 Clouds 26 1008 74 10000 7.2 150 22:45 09.06.2019
6577 Clouds 26 1008 74 10000 7.2 150 22:25 09.06.2019
6578 Clouds 27 1009 69 10000 8.2 160 21:46 09.06.2019
6579 Clouds 27 1009 69 10000 8.2 160 21:28 09.06.2019
6580 Clear 27 1010 69 10000 7.2 150 20:45 09.06.2019
6581 Clear 27 1010 69 10000 7.2 150 20:24 09.06.2019
6582 Clear 27 1011 69 10000 6.2 150 19:59 09.06.2019
6583 Clear 27 1011 69 10000 6.2 150 19:41 09.06.2019
6584 Clear 27 1012 69 10000 6.2 150 19:18 09.06.2019
6585 Clear 27 1012 69 10000 6.2 150 18:42 09.06.2019
6586 Clear 27 1012 69 10000 4.1 140 18:24 09.06.2019
6587 Clear 27 1012 69 10000 4.1 140 17:48 09.06.2019
6588 Clear 27 1012 69 10000 4.1 140 17:29 09.06.2019
6589 Clear 25 1012 78 10000 5.1 130 16:55 09.06.2019
6590 Clear 25 1012 78 10000 5.1 130 16:37 09.06.2019
6591 Clear 23 1011 88 10000 3.1 140 16:19 09.06.2019
6592 Clear 23 1011 88 10000 3.1 140 15:47 09.06.2019
6593 Clear 23 1011 88 10000 3.1 140 15:28 09.06.2019
6594 Clear 22 1010 94 10000 2.1 140 14:46 09.06.2019
6595 Clear 22 1010 94 10000 2.1 140 14:46 09.06.2019
6596 Clear 22 1010 94 10000 2.1 140 14:25 09.06.2019
6597 Clouds 24 1013 88 0 4.61 153.152 13:52 09.06.2019
6598 Clouds 24 1013 88 0 4.61 153.152 13:27 09.06.2019
6599 Clouds 24 1012 88 0 4.43 147.651 12:42 09.06.2019
6600 Clouds 24 1012 88 0 4.7 161.002 12:24 09.06.2019
6601 Clouds 24 1012 88 0 4.7 161.002 11:40 09.06.2019
6602 Clouds 24 1012 88 0 4.7 161.002 11:22 09.06.2019
6603 Clouds 24 1012 88 0 4.64 160.643 10:46 09.06.2019
6604 Clouds 24 1012 88 0 4.64 160.643 10:23 09.06.2019
6605 Clouds 24 1012 88 0 4.64 160.643 10:23 09.06.2019
6606 Clouds 24 1012 88 0 4.64 160.643 09:41 09.06.2019
6607 Clouds 24 1012 88 0 4.64 160.643 09:41 09.06.2019
6608 Clouds 24 1012 88 0 4.64 160.643 09:41 09.06.2019
6609 Clear 24 1013 88 0 4.5 161.621 09:22 09.06.2019
6610 Clouds 24 1013 88 0 4.77 163.275 08:47 09.06.2019
6611 Clouds 24 1013 88 0 4.77 163.275 08:28 09.06.2019
6612 Clouds 24 1013 88 0 4.77 163.275 07:21 09.06.2019
6613 Clouds 24 1013 88 0 4.77 163.275 06:30 09.06.2019
6614 Clear 24 1012 88 0 5.08 160.669 04:57 09.06.2019
6615 Clear 25 1007 78 10000 6.7 180 01:39 09.06.2019
6616 Clouds 25 1007 83 10000 7.2 170 01:21 09.06.2019
6617 Clouds 25 1007 83 10000 7.2 170 00:58 09.06.2019
6618 Clouds 26 1008 78 10000 6.2 170 23:44 08.06.2019
6619 Clouds 26 1008 78 10000 6.2 170 23:24 08.06.2019
6620 Clouds 26 1008 78 10000 6.7 160 22:57 08.06.2019
6621 Clouds 26 1008 78 10000 6.7 160 22:39 08.06.2019
6622 Clouds 27 1008 74 10000 6.2 160 22:19 08.06.2019
6623 Clouds 27 1008 74 10000 6.2 160 22:19 08.06.2019
6624 Clouds 27 1008 74 10000 6.2 160 21:51 08.06.2019
6625 Clouds 27 1008 74 10000 6.2 160 21:26 08.06.2019
6626 Clouds 26 1009 78 10000 7.7 150 20:49 08.06.2019
6627 Clouds 26 1009 78 10000 7.7 150 20:26 08.06.2019
6628 Clouds 27 1010 74 10000 6.2 150 19:59 08.06.2019
6629 Clouds 27 1010 74 10000 6.2 150 19:39 08.06.2019
6630 Clear 26 1010 74 10000 8.2 160 19:19 08.06.2019
6631 Clear 26 1010 74 10000 8.2 160 18:52 08.06.2019
6632 Clear 26 1010 74 10000 8.2 160 18:33 08.06.2019
6633 Clear 26 1011 74 10000 9.3 160 17:49 08.06.2019
6634 Clear 26 1011 74 10000 9.3 160 17:49 08.06.2019